<?xml version="1.0" encoding="UTF-8" standalone="no" ?>
<gpx xmlns="http://www.topografix.com/GPX/1/1" xmlns:xsi="http://www.w3.org/2001/XMLSchema-instance" xsi:schemaLocation="http://www.topografix.com/GPX/1/1 http://www.topografix.com/GPX/1/1/gpx.xsd" version="1.1" creator="VisuGPX - https://www.visugpx.com">
  <metadata>
    <name>De La Verrière à Saint Rémy-les-Chevreuse</name>
    <desc><![CDATA[www.pasapascourbevoie.com]]></desc>
  </metadata>
  <trk>
    <name><![CDATA[ON move]]></name>
    <trkseg>
      <trkpt lat="48.75514" lon="1.9441">
        <ele>170</ele>
        <time>2012-06-10T09:14:55Z</time>
      </trkpt>
      <trkpt lat="48.7551" lon="1.94418">
        <ele>170</ele>
        <time>2012-06-10T09:14:57Z</time>
      </trkpt>
      <trkpt lat="48.75508" lon="1.94425">
        <ele>170</ele>
        <time>2012-06-10T09:14:58Z</time>
      </trkpt>
      <trkpt lat="48.75509" lon="1.94433">
        <ele>170</ele>
        <time>2012-06-10T09:15:02Z</time>
      </trkpt>
      <trkpt lat="48.7551" lon="1.9444">
        <ele>170</ele>
        <time>2012-06-10T09:15:06Z</time>
      </trkpt>
      <trkpt lat="48.75508" lon="1.94449">
        <ele>170</ele>
        <time>2012-06-10T09:15:10Z</time>
      </trkpt>
      <trkpt lat="48.75509" lon="1.94458">
        <ele>170</ele>
        <time>2012-06-10T09:15:14Z</time>
      </trkpt>
      <trkpt lat="48.75515" lon="1.94451">
        <ele>170</ele>
        <time>2012-06-10T09:15:16Z</time>
      </trkpt>
      <trkpt lat="48.7552" lon="1.94443">
        <ele>170</ele>
        <time>2012-06-10T09:15:17Z</time>
      </trkpt>
      <trkpt lat="48.75525" lon="1.94446">
        <ele>170</ele>
        <time>2012-06-10T09:15:21Z</time>
      </trkpt>
      <trkpt lat="48.75528" lon="1.94451">
        <ele>170</ele>
        <time>2012-06-10T09:15:25Z</time>
      </trkpt>
      <trkpt lat="48.75528" lon="1.94459">
        <ele>170</ele>
        <time>2012-06-10T09:15:29Z</time>
      </trkpt>
      <trkpt lat="48.7553" lon="1.94467">
        <ele>170</ele>
        <time>2012-06-10T09:15:33Z</time>
      </trkpt>
      <trkpt lat="48.75533" lon="1.94474">
        <ele>170</ele>
        <time>2012-06-10T09:15:37Z</time>
      </trkpt>
      <trkpt lat="48.75534" lon="1.94481">
        <ele>170</ele>
        <time>2012-06-10T09:15:41Z</time>
      </trkpt>
      <trkpt lat="48.75537" lon="1.94487">
        <ele>170</ele>
        <time>2012-06-10T09:15:45Z</time>
      </trkpt>
      <trkpt lat="48.75539" lon="1.94495">
        <ele>170</ele>
        <time>2012-06-10T09:15:49Z</time>
      </trkpt>
      <trkpt lat="48.7554" lon="1.94502">
        <ele>170</ele>
        <time>2012-06-10T09:15:53Z</time>
      </trkpt>
      <trkpt lat="48.75543" lon="1.94509">
        <ele>169</ele>
        <time>2012-06-10T09:15:57Z</time>
      </trkpt>
      <trkpt lat="48.75546" lon="1.94517">
        <ele>169</ele>
        <time>2012-06-10T09:16:01Z</time>
      </trkpt>
      <trkpt lat="48.75547" lon="1.94524">
        <ele>169</ele>
        <time>2012-06-10T09:16:05Z</time>
      </trkpt>
      <trkpt lat="48.75549" lon="1.94532">
        <ele>169</ele>
        <time>2012-06-10T09:16:09Z</time>
      </trkpt>
      <trkpt lat="48.75552" lon="1.94539">
        <ele>169</ele>
        <time>2012-06-10T09:16:13Z</time>
      </trkpt>
      <trkpt lat="48.75554" lon="1.94547">
        <ele>169</ele>
        <time>2012-06-10T09:16:17Z</time>
      </trkpt>
      <trkpt lat="48.75556" lon="1.94554">
        <ele>169</ele>
        <time>2012-06-10T09:16:21Z</time>
      </trkpt>
      <trkpt lat="48.75558" lon="1.94562">
        <ele>169</ele>
        <time>2012-06-10T09:16:25Z</time>
      </trkpt>
      <trkpt lat="48.7556" lon="1.9457">
        <ele>169</ele>
        <time>2012-06-10T09:16:29Z</time>
      </trkpt>
      <trkpt lat="48.75561" lon="1.94576">
        <ele>169</ele>
        <time>2012-06-10T09:16:33Z</time>
      </trkpt>
      <trkpt lat="48.75562" lon="1.94584">
        <ele>169</ele>
        <time>2012-06-10T09:16:37Z</time>
      </trkpt>
      <trkpt lat="48.75564" lon="1.94591">
        <ele>169</ele>
        <time>2012-06-10T09:16:41Z</time>
      </trkpt>
      <trkpt lat="48.75566" lon="1.94597">
        <ele>169</ele>
        <time>2012-06-10T09:16:45Z</time>
      </trkpt>
      <trkpt lat="48.75568" lon="1.94605">
        <ele>169</ele>
        <time>2012-06-10T09:16:49Z</time>
      </trkpt>
      <trkpt lat="48.7557" lon="1.94612">
        <ele>169</ele>
        <time>2012-06-10T09:16:53Z</time>
      </trkpt>
      <trkpt lat="48.75572" lon="1.94619">
        <ele>169</ele>
        <time>2012-06-10T09:16:56Z</time>
      </trkpt>
      <trkpt lat="48.75574" lon="1.94626">
        <ele>170</ele>
        <time>2012-06-10T09:17:00Z</time>
      </trkpt>
      <trkpt lat="48.75576" lon="1.94633">
        <ele>169</ele>
        <time>2012-06-10T09:17:04Z</time>
      </trkpt>
      <trkpt lat="48.75578" lon="1.9464">
        <ele>169</ele>
        <time>2012-06-10T09:17:08Z</time>
      </trkpt>
      <trkpt lat="48.75581" lon="1.94646">
        <ele>169</ele>
        <time>2012-06-10T09:17:11Z</time>
      </trkpt>
      <trkpt lat="48.75581" lon="1.94653">
        <ele>169</ele>
        <time>2012-06-10T09:17:15Z</time>
      </trkpt>
      <trkpt lat="48.75582" lon="1.94662">
        <ele>169</ele>
        <time>2012-06-10T09:17:19Z</time>
      </trkpt>
      <trkpt lat="48.75583" lon="1.94669">
        <ele>169</ele>
        <time>2012-06-10T09:17:23Z</time>
      </trkpt>
      <trkpt lat="48.75583" lon="1.94676">
        <ele>169</ele>
        <time>2012-06-10T09:17:27Z</time>
      </trkpt>
      <trkpt lat="48.75584" lon="1.94685">
        <ele>169</ele>
        <time>2012-06-10T09:17:31Z</time>
      </trkpt>
      <trkpt lat="48.75586" lon="1.94693">
        <ele>169</ele>
        <time>2012-06-10T09:17:35Z</time>
      </trkpt>
      <trkpt lat="48.7559" lon="1.94706">
        <ele>169</ele>
        <time>2012-06-10T09:17:44Z</time>
      </trkpt>
      <trkpt lat="48.75592" lon="1.94714">
        <ele>169</ele>
        <time>2012-06-10T09:17:48Z</time>
      </trkpt>
      <trkpt lat="48.75594" lon="1.94721">
        <ele>169</ele>
        <time>2012-06-10T09:17:52Z</time>
      </trkpt>
      <trkpt lat="48.75595" lon="1.94729">
        <ele>169</ele>
        <time>2012-06-10T09:17:56Z</time>
      </trkpt>
      <trkpt lat="48.75595" lon="1.94738">
        <ele>169</ele>
        <time>2012-06-10T09:18:00Z</time>
      </trkpt>
      <trkpt lat="48.75597" lon="1.94745">
        <ele>169</ele>
        <time>2012-06-10T09:18:04Z</time>
      </trkpt>
      <trkpt lat="48.75598" lon="1.94752">
        <ele>169</ele>
        <time>2012-06-10T09:18:08Z</time>
      </trkpt>
      <trkpt lat="48.756" lon="1.9476">
        <ele>169</ele>
        <time>2012-06-10T09:18:11Z</time>
      </trkpt>
      <trkpt lat="48.75601" lon="1.94768">
        <ele>169</ele>
        <time>2012-06-10T09:18:15Z</time>
      </trkpt>
      <trkpt lat="48.75604" lon="1.94775">
        <ele>169</ele>
        <time>2012-06-10T09:18:20Z</time>
      </trkpt>
      <trkpt lat="48.75606" lon="1.94782">
        <ele>170</ele>
        <time>2012-06-10T09:18:24Z</time>
      </trkpt>
      <trkpt lat="48.75608" lon="1.94789">
        <ele>170</ele>
        <time>2012-06-10T09:18:28Z</time>
      </trkpt>
      <trkpt lat="48.7561" lon="1.94797">
        <ele>170</ele>
        <time>2012-06-10T09:18:32Z</time>
      </trkpt>
      <trkpt lat="48.75612" lon="1.94804">
        <ele>170</ele>
        <time>2012-06-10T09:18:36Z</time>
      </trkpt>
      <trkpt lat="48.75613" lon="1.94812">
        <ele>170</ele>
        <time>2012-06-10T09:18:40Z</time>
      </trkpt>
      <trkpt lat="48.75613" lon="1.9482">
        <ele>170</ele>
        <time>2012-06-10T09:18:44Z</time>
      </trkpt>
      <trkpt lat="48.75616" lon="1.94826">
        <ele>170</ele>
        <time>2012-06-10T09:18:47Z</time>
      </trkpt>
      <trkpt lat="48.75618" lon="1.94833">
        <ele>170</ele>
        <time>2012-06-10T09:18:51Z</time>
      </trkpt>
      <trkpt lat="48.75619" lon="1.94841">
        <ele>170</ele>
        <time>2012-06-10T09:18:55Z</time>
      </trkpt>
      <trkpt lat="48.7562" lon="1.94849">
        <ele>170</ele>
        <time>2012-06-10T09:18:59Z</time>
      </trkpt>
      <trkpt lat="48.75621" lon="1.94856">
        <ele>170</ele>
        <time>2012-06-10T09:19:02Z</time>
      </trkpt>
      <trkpt lat="48.75622" lon="1.94863">
        <ele>170</ele>
        <time>2012-06-10T09:19:06Z</time>
      </trkpt>
      <trkpt lat="48.75623" lon="1.94871">
        <ele>170</ele>
        <time>2012-06-10T09:19:10Z</time>
      </trkpt>
      <trkpt lat="48.75625" lon="1.94879">
        <ele>170</ele>
        <time>2012-06-10T09:19:14Z</time>
      </trkpt>
      <trkpt lat="48.75626" lon="1.94887">
        <ele>170</ele>
        <time>2012-06-10T09:19:18Z</time>
      </trkpt>
      <trkpt lat="48.75627" lon="1.94895">
        <ele>170</ele>
        <time>2012-06-10T09:19:22Z</time>
      </trkpt>
      <trkpt lat="48.75628" lon="1.94903">
        <ele>170</ele>
        <time>2012-06-10T09:19:26Z</time>
      </trkpt>
      <trkpt lat="48.7563" lon="1.9491">
        <ele>170</ele>
        <time>2012-06-10T09:19:30Z</time>
      </trkpt>
      <trkpt lat="48.7563" lon="1.94918">
        <ele>171</ele>
        <time>2012-06-10T09:19:34Z</time>
      </trkpt>
      <trkpt lat="48.75632" lon="1.94925">
        <ele>171</ele>
        <time>2012-06-10T09:19:38Z</time>
      </trkpt>
      <trkpt lat="48.75634" lon="1.94933">
        <ele>171</ele>
        <time>2012-06-10T09:19:43Z</time>
      </trkpt>
      <trkpt lat="48.75637" lon="1.94939">
        <ele>171</ele>
        <time>2012-06-10T09:19:46Z</time>
      </trkpt>
      <trkpt lat="48.75638" lon="1.94946">
        <ele>171</ele>
        <time>2012-06-10T09:19:49Z</time>
      </trkpt>
      <trkpt lat="48.75639" lon="1.94955">
        <ele>171</ele>
        <time>2012-06-10T09:19:53Z</time>
      </trkpt>
      <trkpt lat="48.7564" lon="1.94962">
        <ele>171</ele>
        <time>2012-06-10T09:19:57Z</time>
      </trkpt>
      <trkpt lat="48.75644" lon="1.94969">
        <ele>171</ele>
        <time>2012-06-10T09:20:01Z</time>
      </trkpt>
      <trkpt lat="48.75646" lon="1.94976">
        <ele>171</ele>
        <time>2012-06-10T09:20:05Z</time>
      </trkpt>
      <trkpt lat="48.75647" lon="1.94984">
        <ele>171</ele>
        <time>2012-06-10T09:20:09Z</time>
      </trkpt>
      <trkpt lat="48.75648" lon="1.94992">
        <ele>171</ele>
        <time>2012-06-10T09:20:12Z</time>
      </trkpt>
      <trkpt lat="48.7565" lon="1.94999">
        <ele>171</ele>
        <time>2012-06-10T09:20:16Z</time>
      </trkpt>
      <trkpt lat="48.75651" lon="1.95007">
        <ele>172</ele>
        <time>2012-06-10T09:20:20Z</time>
      </trkpt>
      <trkpt lat="48.75653" lon="1.95015">
        <ele>172</ele>
        <time>2012-06-10T09:20:24Z</time>
      </trkpt>
      <trkpt lat="48.75655" lon="1.95024">
        <ele>172</ele>
        <time>2012-06-10T09:20:28Z</time>
      </trkpt>
      <trkpt lat="48.75656" lon="1.95031">
        <ele>172</ele>
        <time>2012-06-10T09:20:32Z</time>
      </trkpt>
      <trkpt lat="48.75657" lon="1.95038">
        <ele>172</ele>
        <time>2012-06-10T09:20:36Z</time>
      </trkpt>
      <trkpt lat="48.7566" lon="1.95045">
        <ele>172</ele>
        <time>2012-06-10T09:20:40Z</time>
      </trkpt>
      <trkpt lat="48.75663" lon="1.95052">
        <ele>172</ele>
        <time>2012-06-10T09:20:44Z</time>
      </trkpt>
      <trkpt lat="48.75665" lon="1.9506">
        <ele>172</ele>
        <time>2012-06-10T09:20:48Z</time>
      </trkpt>
      <trkpt lat="48.75666" lon="1.95066">
        <ele>172</ele>
        <time>2012-06-10T09:20:52Z</time>
      </trkpt>
      <trkpt lat="48.75667" lon="1.95075">
        <ele>171</ele>
        <time>2012-06-10T09:20:56Z</time>
      </trkpt>
      <trkpt lat="48.7567" lon="1.95082">
        <ele>171</ele>
        <time>2012-06-10T09:21:00Z</time>
      </trkpt>
      <trkpt lat="48.75672" lon="1.9509">
        <ele>171</ele>
        <time>2012-06-10T09:21:04Z</time>
      </trkpt>
      <trkpt lat="48.75672" lon="1.95099">
        <ele>171</ele>
        <time>2012-06-10T09:21:08Z</time>
      </trkpt>
      <trkpt lat="48.75672" lon="1.95106">
        <ele>171</ele>
        <time>2012-06-10T09:21:11Z</time>
      </trkpt>
      <trkpt lat="48.75674" lon="1.95113">
        <ele>171</ele>
        <time>2012-06-10T09:21:15Z</time>
      </trkpt>
      <trkpt lat="48.75676" lon="1.95121">
        <ele>171</ele>
        <time>2012-06-10T09:21:19Z</time>
      </trkpt>
      <trkpt lat="48.75677" lon="1.95128">
        <ele>171</ele>
        <time>2012-06-10T09:21:22Z</time>
      </trkpt>
      <trkpt lat="48.7568" lon="1.95134">
        <ele>171</ele>
        <time>2012-06-10T09:21:25Z</time>
      </trkpt>
      <trkpt lat="48.75683" lon="1.9514">
        <ele>171</ele>
        <time>2012-06-10T09:21:29Z</time>
      </trkpt>
      <trkpt lat="48.75685" lon="1.95147">
        <ele>171</ele>
        <time>2012-06-10T09:21:33Z</time>
      </trkpt>
      <trkpt lat="48.75686" lon="1.95154">
        <ele>171</ele>
        <time>2012-06-10T09:21:37Z</time>
      </trkpt>
      <trkpt lat="48.75689" lon="1.95168">
        <ele>170</ele>
        <time>2012-06-10T09:21:44Z</time>
      </trkpt>
      <trkpt lat="48.75692" lon="1.95175">
        <ele>171</ele>
        <time>2012-06-10T09:21:48Z</time>
      </trkpt>
      <trkpt lat="48.75695" lon="1.95181">
        <ele>171</ele>
        <time>2012-06-10T09:21:52Z</time>
      </trkpt>
      <trkpt lat="48.75695" lon="1.9519">
        <ele>171</ele>
        <time>2012-06-10T09:21:56Z</time>
      </trkpt>
      <trkpt lat="48.75694" lon="1.95198">
        <ele>171</ele>
        <time>2012-06-10T09:22:00Z</time>
      </trkpt>
      <trkpt lat="48.75696" lon="1.95205">
        <ele>171</ele>
        <time>2012-06-10T09:22:03Z</time>
      </trkpt>
      <trkpt lat="48.75694" lon="1.95212">
        <ele>170</ele>
        <time>2012-06-10T09:22:07Z</time>
      </trkpt>
      <trkpt lat="48.75693" lon="1.9522">
        <ele>170</ele>
        <time>2012-06-10T09:22:11Z</time>
      </trkpt>
      <trkpt lat="48.7569" lon="1.95226">
        <ele>170</ele>
        <time>2012-06-10T09:22:14Z</time>
      </trkpt>
      <trkpt lat="48.75687" lon="1.95233">
        <ele>170</ele>
        <time>2012-06-10T09:22:18Z</time>
      </trkpt>
      <trkpt lat="48.75683" lon="1.95238">
        <ele>170</ele>
        <time>2012-06-10T09:22:21Z</time>
      </trkpt>
      <trkpt lat="48.75681" lon="1.95246">
        <ele>169</ele>
        <time>2012-06-10T09:22:25Z</time>
      </trkpt>
      <trkpt lat="48.75677" lon="1.95252">
        <ele>169</ele>
        <time>2012-06-10T09:22:29Z</time>
      </trkpt>
      <trkpt lat="48.75674" lon="1.95259">
        <ele>169</ele>
        <time>2012-06-10T09:22:33Z</time>
      </trkpt>
      <trkpt lat="48.75671" lon="1.95265">
        <ele>169</ele>
        <time>2012-06-10T09:22:37Z</time>
      </trkpt>
      <trkpt lat="48.75668" lon="1.95271">
        <ele>169</ele>
        <time>2012-06-10T09:22:40Z</time>
      </trkpt>
      <trkpt lat="48.75666" lon="1.95277">
        <ele>169</ele>
        <time>2012-06-10T09:22:44Z</time>
      </trkpt>
      <trkpt lat="48.75665" lon="1.95285">
        <ele>169</ele>
        <time>2012-06-10T09:22:48Z</time>
      </trkpt>
      <trkpt lat="48.75664" lon="1.95293">
        <ele>169</ele>
        <time>2012-06-10T09:22:52Z</time>
      </trkpt>
      <trkpt lat="48.75666" lon="1.95302">
        <ele>169</ele>
        <time>2012-06-10T09:22:56Z</time>
      </trkpt>
      <trkpt lat="48.75668" lon="1.95308">
        <ele>169</ele>
        <time>2012-06-10T09:23:00Z</time>
      </trkpt>
      <trkpt lat="48.7567" lon="1.95315">
        <ele>169</ele>
        <time>2012-06-10T09:23:04Z</time>
      </trkpt>
      <trkpt lat="48.75671" lon="1.95323">
        <ele>169</ele>
        <time>2012-06-10T09:23:08Z</time>
      </trkpt>
      <trkpt lat="48.75674" lon="1.95336">
        <ele>168</ele>
        <time>2012-06-10T09:23:15Z</time>
      </trkpt>
      <trkpt lat="48.75674" lon="1.95345">
        <ele>169</ele>
        <time>2012-06-10T09:23:19Z</time>
      </trkpt>
      <trkpt lat="48.75674" lon="1.95352">
        <ele>169</ele>
        <time>2012-06-10T09:23:23Z</time>
      </trkpt>
      <trkpt lat="48.75674" lon="1.9536">
        <ele>169</ele>
        <time>2012-06-10T09:23:27Z</time>
      </trkpt>
      <trkpt lat="48.75675" lon="1.95368">
        <ele>169</ele>
        <time>2012-06-10T09:23:33Z</time>
      </trkpt>
      <trkpt lat="48.75676" lon="1.95376">
        <ele>169</ele>
        <time>2012-06-10T09:23:37Z</time>
      </trkpt>
      <trkpt lat="48.75679" lon="1.95383">
        <ele>169</ele>
        <time>2012-06-10T09:23:42Z</time>
      </trkpt>
      <trkpt lat="48.75679" lon="1.95391">
        <ele>169</ele>
        <time>2012-06-10T09:23:46Z</time>
      </trkpt>
      <trkpt lat="48.75681" lon="1.95399">
        <ele>169</ele>
        <time>2012-06-10T09:23:51Z</time>
      </trkpt>
      <trkpt lat="48.75683" lon="1.95407">
        <ele>169</ele>
        <time>2012-06-10T09:23:55Z</time>
      </trkpt>
      <trkpt lat="48.75685" lon="1.95414">
        <ele>169</ele>
        <time>2012-06-10T09:23:59Z</time>
      </trkpt>
      <trkpt lat="48.75687" lon="1.95422">
        <ele>169</ele>
        <time>2012-06-10T09:24:04Z</time>
      </trkpt>
      <trkpt lat="48.75689" lon="1.9543">
        <ele>169</ele>
        <time>2012-06-10T09:24:09Z</time>
      </trkpt>
      <trkpt lat="48.75692" lon="1.95436">
        <ele>169</ele>
        <time>2012-06-10T09:24:13Z</time>
      </trkpt>
      <trkpt lat="48.75693" lon="1.95443">
        <ele>169</ele>
        <time>2012-06-10T09:24:18Z</time>
      </trkpt>
      <trkpt lat="48.75692" lon="1.95451">
        <ele>169</ele>
        <time>2012-06-10T09:24:22Z</time>
      </trkpt>
      <trkpt lat="48.75691" lon="1.95458">
        <ele>169</ele>
        <time>2012-06-10T09:24:26Z</time>
      </trkpt>
      <trkpt lat="48.75689" lon="1.95465">
        <ele>169</ele>
        <time>2012-06-10T09:24:30Z</time>
      </trkpt>
      <trkpt lat="48.75689" lon="1.95472">
        <ele>169</ele>
        <time>2012-06-10T09:24:34Z</time>
      </trkpt>
      <trkpt lat="48.75687" lon="1.9548">
        <ele>169</ele>
        <time>2012-06-10T09:24:38Z</time>
      </trkpt>
      <trkpt lat="48.75685" lon="1.95487">
        <ele>169</ele>
        <time>2012-06-10T09:24:42Z</time>
      </trkpt>
      <trkpt lat="48.75682" lon="1.95494">
        <ele>168</ele>
        <time>2012-06-10T09:24:46Z</time>
      </trkpt>
      <trkpt lat="48.75679" lon="1.95501">
        <ele>168</ele>
        <time>2012-06-10T09:24:50Z</time>
      </trkpt>
      <trkpt lat="48.75676" lon="1.95508">
        <ele>168</ele>
        <time>2012-06-10T09:24:53Z</time>
      </trkpt>
      <trkpt lat="48.75675" lon="1.95515">
        <ele>168</ele>
        <time>2012-06-10T09:24:57Z</time>
      </trkpt>
      <trkpt lat="48.75672" lon="1.95522">
        <ele>168</ele>
        <time>2012-06-10T09:25:01Z</time>
      </trkpt>
      <trkpt lat="48.75669" lon="1.95536">
        <ele>168</ele>
        <time>2012-06-10T09:25:08Z</time>
      </trkpt>
      <trkpt lat="48.75666" lon="1.95543">
        <ele>168</ele>
        <time>2012-06-10T09:25:12Z</time>
      </trkpt>
      <trkpt lat="48.75665" lon="1.9555">
        <ele>168</ele>
        <time>2012-06-10T09:25:16Z</time>
      </trkpt>
      <trkpt lat="48.7566" lon="1.95564">
        <ele>168</ele>
        <time>2012-06-10T09:25:23Z</time>
      </trkpt>
      <trkpt lat="48.75658" lon="1.95571">
        <ele>168</ele>
        <time>2012-06-10T09:25:27Z</time>
      </trkpt>
      <trkpt lat="48.75655" lon="1.95578">
        <ele>168</ele>
        <time>2012-06-10T09:25:31Z</time>
      </trkpt>
      <trkpt lat="48.7565" lon="1.95592">
        <ele>168</ele>
        <time>2012-06-10T09:25:38Z</time>
      </trkpt>
      <trkpt lat="48.75648" lon="1.956">
        <ele>168</ele>
        <time>2012-06-10T09:25:42Z</time>
      </trkpt>
      <trkpt lat="48.75645" lon="1.95606">
        <ele>168</ele>
        <time>2012-06-10T09:25:45Z</time>
      </trkpt>
      <trkpt lat="48.75643" lon="1.95613">
        <ele>168</ele>
        <time>2012-06-10T09:25:49Z</time>
      </trkpt>
      <trkpt lat="48.75638" lon="1.95625">
        <ele>168</ele>
        <time>2012-06-10T09:25:55Z</time>
      </trkpt>
      <trkpt lat="48.75636" lon="1.95633">
        <ele>168</ele>
        <time>2012-06-10T09:25:59Z</time>
      </trkpt>
      <trkpt lat="48.75632" lon="1.95639">
        <ele>168</ele>
        <time>2012-06-10T09:26:03Z</time>
      </trkpt>
      <trkpt lat="48.75631" lon="1.95646">
        <ele>168</ele>
        <time>2012-06-10T09:26:07Z</time>
      </trkpt>
      <trkpt lat="48.75629" lon="1.95654">
        <ele>168</ele>
        <time>2012-06-10T09:26:11Z</time>
      </trkpt>
      <trkpt lat="48.75626" lon="1.95661">
        <ele>168</ele>
        <time>2012-06-10T09:26:15Z</time>
      </trkpt>
      <trkpt lat="48.75624" lon="1.95668">
        <ele>168</ele>
        <time>2012-06-10T09:26:19Z</time>
      </trkpt>
      <trkpt lat="48.75623" lon="1.95676">
        <ele>168</ele>
        <time>2012-06-10T09:26:23Z</time>
      </trkpt>
      <trkpt lat="48.7562" lon="1.95682">
        <ele>168</ele>
        <time>2012-06-10T09:26:27Z</time>
      </trkpt>
      <trkpt lat="48.75615" lon="1.95683">
        <ele>168</ele>
        <time>2012-06-10T09:26:31Z</time>
      </trkpt>
      <trkpt lat="48.7561" lon="1.95683">
        <ele>168</ele>
        <time>2012-06-10T09:26:35Z</time>
      </trkpt>
      <trkpt lat="48.75605" lon="1.95679">
        <ele>168</ele>
        <time>2012-06-10T09:26:39Z</time>
      </trkpt>
      <trkpt lat="48.756" lon="1.95675">
        <ele>168</ele>
        <time>2012-06-10T09:26:42Z</time>
      </trkpt>
      <trkpt lat="48.75592" lon="1.95666">
        <ele>168</ele>
        <time>2012-06-10T09:26:49Z</time>
      </trkpt>
      <trkpt lat="48.75588" lon="1.95661">
        <ele>168</ele>
        <time>2012-06-10T09:26:53Z</time>
      </trkpt>
      <trkpt lat="48.75584" lon="1.95657">
        <ele>168</ele>
        <time>2012-06-10T09:26:57Z</time>
      </trkpt>
      <trkpt lat="48.7558" lon="1.95653">
        <ele>168</ele>
        <time>2012-06-10T09:27:06Z</time>
      </trkpt>
      <trkpt lat="48.75576" lon="1.95648">
        <ele>168</ele>
        <time>2012-06-10T09:27:11Z</time>
      </trkpt>
      <trkpt lat="48.75572" lon="1.95643">
        <ele>168</ele>
        <time>2012-06-10T09:27:16Z</time>
      </trkpt>
      <trkpt lat="48.75574" lon="1.95651">
        <ele>168</ele>
        <time>2012-06-10T09:27:26Z</time>
      </trkpt>
      <trkpt lat="48.75578" lon="1.95655">
        <ele>168</ele>
        <time>2012-06-10T09:27:30Z</time>
      </trkpt>
      <trkpt lat="48.75576" lon="1.95663">
        <ele>168</ele>
        <time>2012-06-10T09:27:35Z</time>
      </trkpt>
      <trkpt lat="48.75569" lon="1.95673">
        <ele>168</ele>
        <time>2012-06-10T09:27:41Z</time>
      </trkpt>
      <trkpt lat="48.75566" lon="1.95678">
        <ele>168</ele>
        <time>2012-06-10T09:27:45Z</time>
      </trkpt>
      <trkpt lat="48.75563" lon="1.95685">
        <ele>168</ele>
        <time>2012-06-10T09:27:48Z</time>
      </trkpt>
      <trkpt lat="48.7556" lon="1.95689">
        <ele>168</ele>
        <time>2012-06-10T09:27:52Z</time>
      </trkpt>
      <trkpt lat="48.75557" lon="1.95695">
        <ele>168</ele>
        <time>2012-06-10T09:27:58Z</time>
      </trkpt>
      <trkpt lat="48.75553" lon="1.95701">
        <ele>168</ele>
        <time>2012-06-10T09:28:03Z</time>
      </trkpt>
      <trkpt lat="48.75549" lon="1.95706">
        <ele>168</ele>
        <time>2012-06-10T09:28:10Z</time>
      </trkpt>
      <trkpt lat="48.75545" lon="1.95705">
        <ele>168</ele>
        <time>2012-06-10T09:28:16Z</time>
      </trkpt>
      <trkpt lat="48.7554" lon="1.95702">
        <ele>168</ele>
        <time>2012-06-10T09:28:20Z</time>
      </trkpt>
      <trkpt lat="48.75535" lon="1.95699">
        <ele>168</ele>
        <time>2012-06-10T09:28:25Z</time>
      </trkpt>
      <trkpt lat="48.75531" lon="1.95695">
        <ele>168</ele>
        <time>2012-06-10T09:28:30Z</time>
      </trkpt>
      <trkpt lat="48.75525" lon="1.95683">
        <ele>169</ele>
        <time>2012-06-10T09:28:38Z</time>
      </trkpt>
      <trkpt lat="48.75522" lon="1.95676">
        <ele>169</ele>
        <time>2012-06-10T09:28:42Z</time>
      </trkpt>
      <trkpt lat="48.75518" lon="1.9567">
        <ele>169</ele>
        <time>2012-06-10T09:28:46Z</time>
      </trkpt>
      <trkpt lat="48.75508" lon="1.95664">
        <ele>170</ele>
        <time>2012-06-10T09:28:53Z</time>
      </trkpt>
      <trkpt lat="48.75503" lon="1.95664">
        <ele>170</ele>
        <time>2012-06-10T09:28:56Z</time>
      </trkpt>
      <trkpt lat="48.75499" lon="1.9566">
        <ele>170</ele>
        <time>2012-06-10T09:29:00Z</time>
      </trkpt>
      <trkpt lat="48.75494" lon="1.95654">
        <ele>170</ele>
        <time>2012-06-10T09:29:06Z</time>
      </trkpt>
      <trkpt lat="48.75489" lon="1.95651">
        <ele>170</ele>
        <time>2012-06-10T09:29:08Z</time>
      </trkpt>
      <trkpt lat="48.75483" lon="1.95647">
        <ele>170</ele>
        <time>2012-06-10T09:29:14Z</time>
      </trkpt>
      <trkpt lat="48.7548" lon="1.95644">
        <ele>170</ele>
        <time>2012-06-10T09:29:17Z</time>
      </trkpt>
      <trkpt lat="48.75474" lon="1.95638">
        <ele>170</ele>
        <time>2012-06-10T09:29:22Z</time>
      </trkpt>
      <trkpt lat="48.7547" lon="1.95633">
        <ele>170</ele>
        <time>2012-06-10T09:29:25Z</time>
      </trkpt>
      <trkpt lat="48.7547" lon="1.95625">
        <ele>170</ele>
        <time>2012-06-10T09:29:29Z</time>
      </trkpt>
      <trkpt lat="48.75468" lon="1.95617">
        <ele>169</ele>
        <time>2012-06-10T09:29:34Z</time>
      </trkpt>
      <trkpt lat="48.75464" lon="1.9561">
        <ele>169</ele>
        <time>2012-06-10T09:29:37Z</time>
      </trkpt>
      <trkpt lat="48.7546" lon="1.95605">
        <ele>169</ele>
        <time>2012-06-10T09:29:41Z</time>
      </trkpt>
      <trkpt lat="48.75456" lon="1.95601">
        <ele>169</ele>
        <time>2012-06-10T09:29:47Z</time>
      </trkpt>
      <trkpt lat="48.75452" lon="1.95598">
        <ele>169</ele>
        <time>2012-06-10T09:29:50Z</time>
      </trkpt>
      <trkpt lat="48.75446" lon="1.95595">
        <ele>169</ele>
        <time>2012-06-10T09:29:55Z</time>
      </trkpt>
      <trkpt lat="48.75437" lon="1.95594">
        <ele>169</ele>
        <time>2012-06-10T09:30:03Z</time>
      </trkpt>
      <trkpt lat="48.75432" lon="1.95592">
        <ele>169</ele>
        <time>2012-06-10T09:30:08Z</time>
      </trkpt>
      <trkpt lat="48.75427" lon="1.95592">
        <ele>169</ele>
        <time>2012-06-10T09:30:12Z</time>
      </trkpt>
      <trkpt lat="48.75418" lon="1.95592">
        <ele>169</ele>
        <time>2012-06-10T09:30:21Z</time>
      </trkpt>
      <trkpt lat="48.75413" lon="1.95591">
        <ele>169</ele>
        <time>2012-06-10T09:30:23Z</time>
      </trkpt>
      <trkpt lat="48.75408" lon="1.95592">
        <ele>169</ele>
        <time>2012-06-10T09:30:26Z</time>
      </trkpt>
      <trkpt lat="48.75403" lon="1.9559">
        <ele>169</ele>
        <time>2012-06-10T09:30:30Z</time>
      </trkpt>
      <trkpt lat="48.75393" lon="1.95587">
        <ele>169</ele>
        <time>2012-06-10T09:30:38Z</time>
      </trkpt>
      <trkpt lat="48.75388" lon="1.95587">
        <ele>169</ele>
        <time>2012-06-10T09:30:41Z</time>
      </trkpt>
      <trkpt lat="48.75378" lon="1.95583">
        <ele>169</ele>
        <time>2012-06-10T09:30:52Z</time>
      </trkpt>
      <trkpt lat="48.75372" lon="1.95582">
        <ele>169</ele>
        <time>2012-06-10T09:30:57Z</time>
      </trkpt>
      <trkpt lat="48.75368" lon="1.95579">
        <ele>169</ele>
        <time>2012-06-10T09:31:01Z</time>
      </trkpt>
      <trkpt lat="48.75363" lon="1.95578">
        <ele>169</ele>
        <time>2012-06-10T09:31:04Z</time>
      </trkpt>
      <trkpt lat="48.75353" lon="1.95577">
        <ele>169</ele>
        <time>2012-06-10T09:31:11Z</time>
      </trkpt>
      <trkpt lat="48.75343" lon="1.95575">
        <ele>169</ele>
        <time>2012-06-10T09:31:18Z</time>
      </trkpt>
      <trkpt lat="48.75338" lon="1.95576">
        <ele>169</ele>
        <time>2012-06-10T09:31:22Z</time>
      </trkpt>
      <trkpt lat="48.75331" lon="1.95575">
        <ele>169</ele>
        <time>2012-06-10T09:31:25Z</time>
      </trkpt>
      <trkpt lat="48.75321" lon="1.95573">
        <ele>169</ele>
        <time>2012-06-10T09:31:32Z</time>
      </trkpt>
      <trkpt lat="48.75316" lon="1.95573">
        <ele>169</ele>
        <time>2012-06-10T09:31:37Z</time>
      </trkpt>
      <trkpt lat="48.7531" lon="1.95571">
        <ele>169</ele>
        <time>2012-06-10T09:31:40Z</time>
      </trkpt>
      <trkpt lat="48.75306" lon="1.9557">
        <ele>169</ele>
        <time>2012-06-10T09:31:45Z</time>
      </trkpt>
      <trkpt lat="48.753" lon="1.95568">
        <ele>169</ele>
        <time>2012-06-10T09:31:48Z</time>
      </trkpt>
      <trkpt lat="48.75294" lon="1.9557">
        <ele>169</ele>
        <time>2012-06-10T09:31:53Z</time>
      </trkpt>
      <trkpt lat="48.75291" lon="1.95576">
        <ele>169</ele>
        <time>2012-06-10T09:31:58Z</time>
      </trkpt>
      <trkpt lat="48.75288" lon="1.95584">
        <ele>169</ele>
        <time>2012-06-10T09:32:01Z</time>
      </trkpt>
      <trkpt lat="48.75288" lon="1.95592">
        <ele>169</ele>
        <time>2012-06-10T09:32:06Z</time>
      </trkpt>
      <trkpt lat="48.75286" lon="1.95599">
        <ele>169</ele>
        <time>2012-06-10T09:32:10Z</time>
      </trkpt>
      <trkpt lat="48.75283" lon="1.95607">
        <ele>169</ele>
        <time>2012-06-10T09:32:14Z</time>
      </trkpt>
      <trkpt lat="48.75282" lon="1.95615">
        <ele>169</ele>
        <time>2012-06-10T09:32:20Z</time>
      </trkpt>
      <trkpt lat="48.75281" lon="1.95622">
        <ele>169</ele>
        <time>2012-06-10T09:32:24Z</time>
      </trkpt>
      <trkpt lat="48.7528" lon="1.9563">
        <ele>169</ele>
        <time>2012-06-10T09:32:27Z</time>
      </trkpt>
      <trkpt lat="48.75278" lon="1.95637">
        <ele>169</ele>
        <time>2012-06-10T09:32:32Z</time>
      </trkpt>
      <trkpt lat="48.75275" lon="1.95645">
        <ele>169</ele>
        <time>2012-06-10T09:32:36Z</time>
      </trkpt>
      <trkpt lat="48.75274" lon="1.95651">
        <ele>169</ele>
        <time>2012-06-10T09:32:40Z</time>
      </trkpt>
      <trkpt lat="48.7527" lon="1.95665">
        <ele>168</ele>
        <time>2012-06-10T09:32:48Z</time>
      </trkpt>
      <trkpt lat="48.75267" lon="1.95673">
        <ele>168</ele>
        <time>2012-06-10T09:32:54Z</time>
      </trkpt>
      <trkpt lat="48.75266" lon="1.95679">
        <ele>168</ele>
        <time>2012-06-10T09:32:57Z</time>
      </trkpt>
      <trkpt lat="48.75264" lon="1.95686">
        <ele>168</ele>
        <time>2012-06-10T09:33:01Z</time>
      </trkpt>
      <trkpt lat="48.75261" lon="1.95692">
        <ele>168</ele>
        <time>2012-06-10T09:33:04Z</time>
      </trkpt>
      <trkpt lat="48.75257" lon="1.95698">
        <ele>168</ele>
        <time>2012-06-10T09:33:08Z</time>
      </trkpt>
      <trkpt lat="48.75254" lon="1.95704">
        <ele>168</ele>
        <time>2012-06-10T09:33:15Z</time>
      </trkpt>
      <trkpt lat="48.75251" lon="1.95711">
        <ele>169</ele>
        <time>2012-06-10T09:33:21Z</time>
      </trkpt>
      <trkpt lat="48.75249" lon="1.95717">
        <ele>169</ele>
        <time>2012-06-10T09:33:25Z</time>
      </trkpt>
      <trkpt lat="48.75245" lon="1.95724">
        <ele>169</ele>
        <time>2012-06-10T09:33:29Z</time>
      </trkpt>
      <trkpt lat="48.75241" lon="1.9573">
        <ele>169</ele>
        <time>2012-06-10T09:33:33Z</time>
      </trkpt>
      <trkpt lat="48.75238" lon="1.95736">
        <ele>169</ele>
        <time>2012-06-10T09:33:39Z</time>
      </trkpt>
      <trkpt lat="48.75236" lon="1.95742">
        <ele>169</ele>
        <time>2012-06-10T09:33:44Z</time>
      </trkpt>
      <trkpt lat="48.75232" lon="1.95747">
        <ele>169</ele>
        <time>2012-06-10T09:33:49Z</time>
      </trkpt>
      <trkpt lat="48.75227" lon="1.95754">
        <ele>169</ele>
        <time>2012-06-10T09:33:52Z</time>
      </trkpt>
      <trkpt lat="48.75225" lon="1.9576">
        <ele>169</ele>
        <time>2012-06-10T09:33:57Z</time>
      </trkpt>
      <trkpt lat="48.75222" lon="1.95765">
        <ele>169</ele>
        <time>2012-06-10T09:34:01Z</time>
      </trkpt>
      <trkpt lat="48.75218" lon="1.95771">
        <ele>169</ele>
        <time>2012-06-10T09:34:04Z</time>
      </trkpt>
      <trkpt lat="48.75216" lon="1.95778">
        <ele>169</ele>
        <time>2012-06-10T09:34:08Z</time>
      </trkpt>
      <trkpt lat="48.75212" lon="1.95783">
        <ele>169</ele>
        <time>2012-06-10T09:34:11Z</time>
      </trkpt>
      <trkpt lat="48.75209" lon="1.95796">
        <ele>169</ele>
        <time>2012-06-10T09:34:20Z</time>
      </trkpt>
      <trkpt lat="48.75206" lon="1.95802">
        <ele>169</ele>
        <time>2012-06-10T09:34:23Z</time>
      </trkpt>
      <trkpt lat="48.75203" lon="1.95809">
        <ele>169</ele>
        <time>2012-06-10T09:34:27Z</time>
      </trkpt>
      <trkpt lat="48.75198" lon="1.95814">
        <ele>169</ele>
        <time>2012-06-10T09:34:30Z</time>
      </trkpt>
      <trkpt lat="48.7519" lon="1.95826">
        <ele>169</ele>
        <time>2012-06-10T09:34:37Z</time>
      </trkpt>
      <trkpt lat="48.75185" lon="1.95829">
        <ele>169</ele>
        <time>2012-06-10T09:34:39Z</time>
      </trkpt>
      <trkpt lat="48.7518" lon="1.95832">
        <ele>169</ele>
        <time>2012-06-10T09:34:44Z</time>
      </trkpt>
      <trkpt lat="48.75176" lon="1.95837">
        <ele>169</ele>
        <time>2012-06-10T09:34:48Z</time>
      </trkpt>
      <trkpt lat="48.75171" lon="1.95841">
        <ele>169</ele>
        <time>2012-06-10T09:34:51Z</time>
      </trkpt>
      <trkpt lat="48.75168" lon="1.95847">
        <ele>169</ele>
        <time>2012-06-10T09:34:56Z</time>
      </trkpt>
      <trkpt lat="48.75165" lon="1.95853">
        <ele>169</ele>
        <time>2012-06-10T09:35:00Z</time>
      </trkpt>
      <trkpt lat="48.75161" lon="1.95858">
        <ele>169</ele>
        <time>2012-06-10T09:35:06Z</time>
      </trkpt>
      <trkpt lat="48.75157" lon="1.95863">
        <ele>169</ele>
        <time>2012-06-10T09:35:10Z</time>
      </trkpt>
      <trkpt lat="48.75153" lon="1.95867">
        <ele>169</ele>
        <time>2012-06-10T09:35:13Z</time>
      </trkpt>
      <trkpt lat="48.75149" lon="1.9587">
        <ele>169</ele>
        <time>2012-06-10T09:35:17Z</time>
      </trkpt>
      <trkpt lat="48.75145" lon="1.95874">
        <ele>169</ele>
        <time>2012-06-10T09:35:19Z</time>
      </trkpt>
      <trkpt lat="48.75142" lon="1.95879">
        <ele>169</ele>
        <time>2012-06-10T09:35:22Z</time>
      </trkpt>
      <trkpt lat="48.75132" lon="1.95886">
        <ele>169</ele>
        <time>2012-06-10T09:35:29Z</time>
      </trkpt>
      <trkpt lat="48.75129" lon="1.95891">
        <ele>169</ele>
        <time>2012-06-10T09:35:34Z</time>
      </trkpt>
      <trkpt lat="48.75124" lon="1.95893">
        <ele>169</ele>
        <time>2012-06-10T09:35:36Z</time>
      </trkpt>
      <trkpt lat="48.7512" lon="1.95898">
        <ele>169</ele>
        <time>2012-06-10T09:35:39Z</time>
      </trkpt>
      <trkpt lat="48.75114" lon="1.95903">
        <ele>169</ele>
        <time>2012-06-10T09:35:44Z</time>
      </trkpt>
      <trkpt lat="48.7511" lon="1.95909">
        <ele>169</ele>
        <time>2012-06-10T09:35:47Z</time>
      </trkpt>
      <trkpt lat="48.75106" lon="1.95914">
        <ele>169</ele>
        <time>2012-06-10T09:35:52Z</time>
      </trkpt>
      <trkpt lat="48.75103" lon="1.9592">
        <ele>170</ele>
        <time>2012-06-10T09:35:57Z</time>
      </trkpt>
      <trkpt lat="48.75095" lon="1.95919">
        <ele>170</ele>
        <time>2012-06-10T09:36:24Z</time>
      </trkpt>
      <trkpt lat="48.75092" lon="1.95913">
        <ele>169</ele>
        <time>2012-06-10T09:36:59Z</time>
      </trkpt>
      <trkpt lat="48.75088" lon="1.95916">
        <ele>169</ele>
        <time>2012-06-10T09:37:10Z</time>
      </trkpt>
      <trkpt lat="48.75083" lon="1.9592">
        <ele>169</ele>
        <time>2012-06-10T09:37:15Z</time>
      </trkpt>
      <trkpt lat="48.75078" lon="1.95924">
        <ele>169</ele>
        <time>2012-06-10T09:37:19Z</time>
      </trkpt>
      <trkpt lat="48.75074" lon="1.95926">
        <ele>169</ele>
        <time>2012-06-10T09:37:23Z</time>
      </trkpt>
      <trkpt lat="48.75069" lon="1.95929">
        <ele>169</ele>
        <time>2012-06-10T09:37:28Z</time>
      </trkpt>
      <trkpt lat="48.75063" lon="1.95932">
        <ele>169</ele>
        <time>2012-06-10T09:37:32Z</time>
      </trkpt>
      <trkpt lat="48.75054" lon="1.95939">
        <ele>168</ele>
        <time>2012-06-10T09:37:40Z</time>
      </trkpt>
      <trkpt lat="48.75048" lon="1.9594">
        <ele>168</ele>
        <time>2012-06-10T09:37:45Z</time>
      </trkpt>
      <trkpt lat="48.75043" lon="1.95943">
        <ele>168</ele>
        <time>2012-06-10T09:37:48Z</time>
      </trkpt>
      <trkpt lat="48.75039" lon="1.95945">
        <ele>168</ele>
        <time>2012-06-10T09:37:52Z</time>
      </trkpt>
      <trkpt lat="48.75035" lon="1.95949">
        <ele>168</ele>
        <time>2012-06-10T09:37:56Z</time>
      </trkpt>
      <trkpt lat="48.75032" lon="1.95961">
        <ele>168</ele>
        <time>2012-06-10T09:38:04Z</time>
      </trkpt>
      <trkpt lat="48.75035" lon="1.95968">
        <ele>168</ele>
        <time>2012-06-10T09:38:08Z</time>
      </trkpt>
      <trkpt lat="48.75035" lon="1.95975">
        <ele>168</ele>
        <time>2012-06-10T09:38:12Z</time>
      </trkpt>
      <trkpt lat="48.75036" lon="1.95983">
        <ele>168</ele>
        <time>2012-06-10T09:38:17Z</time>
      </trkpt>
      <trkpt lat="48.75036" lon="1.9599">
        <ele>168</ele>
        <time>2012-06-10T09:38:22Z</time>
      </trkpt>
      <trkpt lat="48.75035" lon="1.95999">
        <ele>168</ele>
        <time>2012-06-10T09:38:25Z</time>
      </trkpt>
      <trkpt lat="48.75034" lon="1.96015">
        <ele>169</ele>
        <time>2012-06-10T09:38:32Z</time>
      </trkpt>
      <trkpt lat="48.75034" lon="1.96023">
        <ele>169</ele>
        <time>2012-06-10T09:38:37Z</time>
      </trkpt>
      <trkpt lat="48.75033" lon="1.9603">
        <ele>170</ele>
        <time>2012-06-10T09:38:40Z</time>
      </trkpt>
      <trkpt lat="48.75033" lon="1.96038">
        <ele>170</ele>
        <time>2012-06-10T09:38:45Z</time>
      </trkpt>
      <trkpt lat="48.75033" lon="1.96045">
        <ele>170</ele>
        <time>2012-06-10T09:38:50Z</time>
      </trkpt>
      <trkpt lat="48.75033" lon="1.96054">
        <ele>170</ele>
        <time>2012-06-10T09:38:54Z</time>
      </trkpt>
      <trkpt lat="48.75032" lon="1.96061">
        <ele>170</ele>
        <time>2012-06-10T09:38:58Z</time>
      </trkpt>
      <trkpt lat="48.75032" lon="1.96069">
        <ele>170</ele>
        <time>2012-06-10T09:39:02Z</time>
      </trkpt>
      <trkpt lat="48.75031" lon="1.96077">
        <ele>170</ele>
        <time>2012-06-10T09:39:06Z</time>
      </trkpt>
      <trkpt lat="48.75032" lon="1.96085">
        <ele>172</ele>
        <time>2012-06-10T09:39:11Z</time>
      </trkpt>
      <trkpt lat="48.75031" lon="1.96093">
        <ele>172</ele>
        <time>2012-06-10T09:39:14Z</time>
      </trkpt>
      <trkpt lat="48.7503" lon="1.96102">
        <ele>172</ele>
        <time>2012-06-10T09:39:19Z</time>
      </trkpt>
      <trkpt lat="48.75029" lon="1.9611">
        <ele>172</ele>
        <time>2012-06-10T09:39:22Z</time>
      </trkpt>
      <trkpt lat="48.75029" lon="1.96117">
        <ele>172</ele>
        <time>2012-06-10T09:39:27Z</time>
      </trkpt>
      <trkpt lat="48.75029" lon="1.96132">
        <ele>172</ele>
        <time>2012-06-10T09:39:34Z</time>
      </trkpt>
      <trkpt lat="48.75027" lon="1.96139">
        <ele>172</ele>
        <time>2012-06-10T09:39:37Z</time>
      </trkpt>
      <trkpt lat="48.75027" lon="1.96147">
        <ele>172</ele>
        <time>2012-06-10T09:39:41Z</time>
      </trkpt>
      <trkpt lat="48.75026" lon="1.96155">
        <ele>172</ele>
        <time>2012-06-10T09:39:45Z</time>
      </trkpt>
      <trkpt lat="48.75026" lon="1.96162">
        <ele>172</ele>
        <time>2012-06-10T09:39:48Z</time>
      </trkpt>
      <trkpt lat="48.75026" lon="1.96169">
        <ele>172</ele>
        <time>2012-06-10T09:39:52Z</time>
      </trkpt>
      <trkpt lat="48.75025" lon="1.96178">
        <ele>172</ele>
        <time>2012-06-10T09:39:56Z</time>
      </trkpt>
      <trkpt lat="48.75026" lon="1.96194">
        <ele>172</ele>
        <time>2012-06-10T09:40:04Z</time>
      </trkpt>
      <trkpt lat="48.75025" lon="1.96203">
        <ele>172</ele>
        <time>2012-06-10T09:40:09Z</time>
      </trkpt>
      <trkpt lat="48.75023" lon="1.96211">
        <ele>171</ele>
        <time>2012-06-10T09:40:12Z</time>
      </trkpt>
      <trkpt lat="48.75023" lon="1.96219">
        <ele>171</ele>
        <time>2012-06-10T09:40:16Z</time>
      </trkpt>
      <trkpt lat="48.75023" lon="1.96228">
        <ele>171</ele>
        <time>2012-06-10T09:40:20Z</time>
      </trkpt>
      <trkpt lat="48.75023" lon="1.96236">
        <ele>171</ele>
        <time>2012-06-10T09:40:24Z</time>
      </trkpt>
      <trkpt lat="48.75023" lon="1.96245">
        <ele>171</ele>
        <time>2012-06-10T09:40:28Z</time>
      </trkpt>
      <trkpt lat="48.75022" lon="1.96252">
        <ele>170</ele>
        <time>2012-06-10T09:40:32Z</time>
      </trkpt>
      <trkpt lat="48.75022" lon="1.96261">
        <ele>170</ele>
        <time>2012-06-10T09:40:36Z</time>
      </trkpt>
      <trkpt lat="48.75023" lon="1.96268">
        <ele>170</ele>
        <time>2012-06-10T09:40:40Z</time>
      </trkpt>
      <trkpt lat="48.75021" lon="1.96283">
        <ele>170</ele>
        <time>2012-06-10T09:40:47Z</time>
      </trkpt>
      <trkpt lat="48.75021" lon="1.9629">
        <ele>170</ele>
        <time>2012-06-10T09:40:50Z</time>
      </trkpt>
      <trkpt lat="48.7502" lon="1.96299">
        <ele>170</ele>
        <time>2012-06-10T09:40:54Z</time>
      </trkpt>
      <trkpt lat="48.7502" lon="1.96307">
        <ele>170</ele>
        <time>2012-06-10T09:40:58Z</time>
      </trkpt>
      <trkpt lat="48.7502" lon="1.96316">
        <ele>170</ele>
        <time>2012-06-10T09:41:02Z</time>
      </trkpt>
      <trkpt lat="48.75019" lon="1.96323">
        <ele>169</ele>
        <time>2012-06-10T09:41:06Z</time>
      </trkpt>
      <trkpt lat="48.75019" lon="1.96331">
        <ele>169</ele>
        <time>2012-06-10T09:41:10Z</time>
      </trkpt>
      <trkpt lat="48.75018" lon="1.9634">
        <ele>169</ele>
        <time>2012-06-10T09:41:14Z</time>
      </trkpt>
      <trkpt lat="48.75018" lon="1.96348">
        <ele>169</ele>
        <time>2012-06-10T09:41:18Z</time>
      </trkpt>
      <trkpt lat="48.75017" lon="1.96357">
        <ele>169</ele>
        <time>2012-06-10T09:41:22Z</time>
      </trkpt>
      <trkpt lat="48.75016" lon="1.96365">
        <ele>169</ele>
        <time>2012-06-10T09:41:26Z</time>
      </trkpt>
      <trkpt lat="48.75016" lon="1.96372">
        <ele>169</ele>
        <time>2012-06-10T09:41:29Z</time>
      </trkpt>
      <trkpt lat="48.75015" lon="1.96379">
        <ele>169</ele>
        <time>2012-06-10T09:41:32Z</time>
      </trkpt>
      <trkpt lat="48.75014" lon="1.96387">
        <ele>169</ele>
        <time>2012-06-10T09:41:36Z</time>
      </trkpt>
      <trkpt lat="48.75014" lon="1.96395">
        <ele>168</ele>
        <time>2012-06-10T09:41:40Z</time>
      </trkpt>
      <trkpt lat="48.75014" lon="1.96403">
        <ele>168</ele>
        <time>2012-06-10T09:41:44Z</time>
      </trkpt>
      <trkpt lat="48.75013" lon="1.96411">
        <ele>168</ele>
        <time>2012-06-10T09:41:48Z</time>
      </trkpt>
      <trkpt lat="48.75013" lon="1.96419">
        <ele>167</ele>
        <time>2012-06-10T09:41:52Z</time>
      </trkpt>
      <trkpt lat="48.75011" lon="1.96428">
        <ele>168</ele>
        <time>2012-06-10T09:41:56Z</time>
      </trkpt>
      <trkpt lat="48.75011" lon="1.96435">
        <ele>168</ele>
        <time>2012-06-10T09:42:00Z</time>
      </trkpt>
      <trkpt lat="48.7501" lon="1.96442">
        <ele>168</ele>
        <time>2012-06-10T09:42:03Z</time>
      </trkpt>
      <trkpt lat="48.7501" lon="1.9645">
        <ele>168</ele>
        <time>2012-06-10T09:42:06Z</time>
      </trkpt>
      <trkpt lat="48.75009" lon="1.96458">
        <ele>168</ele>
        <time>2012-06-10T09:42:10Z</time>
      </trkpt>
      <trkpt lat="48.75008" lon="1.96467">
        <ele>168</ele>
        <time>2012-06-10T09:42:14Z</time>
      </trkpt>
      <trkpt lat="48.75007" lon="1.96475">
        <ele>168</ele>
        <time>2012-06-10T09:42:18Z</time>
      </trkpt>
      <trkpt lat="48.75007" lon="1.96483">
        <ele>168</ele>
        <time>2012-06-10T09:42:22Z</time>
      </trkpt>
      <trkpt lat="48.75007" lon="1.96491">
        <ele>168</ele>
        <time>2012-06-10T09:42:26Z</time>
      </trkpt>
      <trkpt lat="48.75007" lon="1.965">
        <ele>168</ele>
        <time>2012-06-10T09:42:30Z</time>
      </trkpt>
      <trkpt lat="48.75006" lon="1.96514">
        <ele>168</ele>
        <time>2012-06-10T09:42:37Z</time>
      </trkpt>
      <trkpt lat="48.75005" lon="1.96523">
        <ele>168</ele>
        <time>2012-06-10T09:42:41Z</time>
      </trkpt>
      <trkpt lat="48.75006" lon="1.96531">
        <ele>168</ele>
        <time>2012-06-10T09:42:45Z</time>
      </trkpt>
      <trkpt lat="48.75005" lon="1.96539">
        <ele>168</ele>
        <time>2012-06-10T09:42:49Z</time>
      </trkpt>
      <trkpt lat="48.75005" lon="1.96546">
        <ele>168</ele>
        <time>2012-06-10T09:42:53Z</time>
      </trkpt>
      <trkpt lat="48.75005" lon="1.96554">
        <ele>168</ele>
        <time>2012-06-10T09:42:57Z</time>
      </trkpt>
      <trkpt lat="48.75005" lon="1.96568">
        <ele>168</ele>
        <time>2012-06-10T09:43:06Z</time>
      </trkpt>
      <trkpt lat="48.75" lon="1.96574">
        <ele>168</ele>
        <time>2012-06-10T09:44:52Z</time>
      </trkpt>
      <trkpt lat="48.75006" lon="1.96576">
        <ele>168</ele>
        <time>2012-06-10T09:49:14Z</time>
      </trkpt>
      <trkpt lat="48.75011" lon="1.96578">
        <ele>168</ele>
        <time>2012-06-10T09:49:18Z</time>
      </trkpt>
      <trkpt lat="48.75017" lon="1.96581">
        <ele>168</ele>
        <time>2012-06-10T09:49:22Z</time>
      </trkpt>
      <trkpt lat="48.75021" lon="1.96581">
        <ele>168</ele>
        <time>2012-06-10T09:49:26Z</time>
      </trkpt>
      <trkpt lat="48.75027" lon="1.9658">
        <ele>169</ele>
        <time>2012-06-10T09:49:31Z</time>
      </trkpt>
      <trkpt lat="48.75032" lon="1.96579">
        <ele>169</ele>
        <time>2012-06-10T09:49:34Z</time>
      </trkpt>
      <trkpt lat="48.75038" lon="1.96579">
        <ele>169</ele>
        <time>2012-06-10T09:49:38Z</time>
      </trkpt>
      <trkpt lat="48.75043" lon="1.96579">
        <ele>169</ele>
        <time>2012-06-10T09:49:42Z</time>
      </trkpt>
      <trkpt lat="48.75048" lon="1.9658">
        <ele>169</ele>
        <time>2012-06-10T09:49:45Z</time>
      </trkpt>
      <trkpt lat="48.75053" lon="1.96582">
        <ele>169</ele>
        <time>2012-06-10T09:49:50Z</time>
      </trkpt>
      <trkpt lat="48.75058" lon="1.96582">
        <ele>169</ele>
        <time>2012-06-10T09:49:54Z</time>
      </trkpt>
      <trkpt lat="48.75062" lon="1.96584">
        <ele>170</ele>
        <time>2012-06-10T09:49:58Z</time>
      </trkpt>
      <trkpt lat="48.75068" lon="1.96585">
        <ele>170</ele>
        <time>2012-06-10T09:50:02Z</time>
      </trkpt>
      <trkpt lat="48.75077" lon="1.96585">
        <ele>171</ele>
        <time>2012-06-10T09:50:10Z</time>
      </trkpt>
      <trkpt lat="48.75082" lon="1.96587">
        <ele>171</ele>
        <time>2012-06-10T09:50:16Z</time>
      </trkpt>
      <trkpt lat="48.75087" lon="1.96588">
        <ele>171</ele>
        <time>2012-06-10T09:50:20Z</time>
      </trkpt>
      <trkpt lat="48.75092" lon="1.96588">
        <ele>171</ele>
        <time>2012-06-10T09:50:24Z</time>
      </trkpt>
      <trkpt lat="48.75097" lon="1.96589">
        <ele>171</ele>
        <time>2012-06-10T09:50:28Z</time>
      </trkpt>
      <trkpt lat="48.75103" lon="1.96593">
        <ele>171</ele>
        <time>2012-06-10T09:50:31Z</time>
      </trkpt>
      <trkpt lat="48.75111" lon="1.96597">
        <ele>170</ele>
        <time>2012-06-10T09:50:38Z</time>
      </trkpt>
      <trkpt lat="48.75117" lon="1.96599">
        <ele>170</ele>
        <time>2012-06-10T09:50:42Z</time>
      </trkpt>
      <trkpt lat="48.75122" lon="1.966">
        <ele>170</ele>
        <time>2012-06-10T09:50:45Z</time>
      </trkpt>
      <trkpt lat="48.75127" lon="1.96602">
        <ele>170</ele>
        <time>2012-06-10T09:50:49Z</time>
      </trkpt>
      <trkpt lat="48.75131" lon="1.96604">
        <ele>170</ele>
        <time>2012-06-10T09:50:53Z</time>
      </trkpt>
      <trkpt lat="48.75137" lon="1.96605">
        <ele>170</ele>
        <time>2012-06-10T09:50:58Z</time>
      </trkpt>
      <trkpt lat="48.75143" lon="1.96607">
        <ele>169</ele>
        <time>2012-06-10T09:51:02Z</time>
      </trkpt>
      <trkpt lat="48.75148" lon="1.96608">
        <ele>169</ele>
        <time>2012-06-10T09:51:06Z</time>
      </trkpt>
      <trkpt lat="48.75153" lon="1.96609">
        <ele>169</ele>
        <time>2012-06-10T09:51:10Z</time>
      </trkpt>
      <trkpt lat="48.75158" lon="1.9661">
        <ele>169</ele>
        <time>2012-06-10T09:51:14Z</time>
      </trkpt>
      <trkpt lat="48.75164" lon="1.96611">
        <ele>169</ele>
        <time>2012-06-10T09:51:18Z</time>
      </trkpt>
      <trkpt lat="48.75169" lon="1.96613">
        <ele>168</ele>
        <time>2012-06-10T09:51:22Z</time>
      </trkpt>
      <trkpt lat="48.75175" lon="1.96614">
        <ele>168</ele>
        <time>2012-06-10T09:51:26Z</time>
      </trkpt>
      <trkpt lat="48.7518" lon="1.96616">
        <ele>168</ele>
        <time>2012-06-10T09:51:30Z</time>
      </trkpt>
      <trkpt lat="48.75185" lon="1.96617">
        <ele>168</ele>
        <time>2012-06-10T09:51:33Z</time>
      </trkpt>
      <trkpt lat="48.7519" lon="1.96619">
        <ele>168</ele>
        <time>2012-06-10T09:51:37Z</time>
      </trkpt>
      <trkpt lat="48.75195" lon="1.96622">
        <ele>168</ele>
        <time>2012-06-10T09:51:40Z</time>
      </trkpt>
      <trkpt lat="48.752" lon="1.96621">
        <ele>168</ele>
        <time>2012-06-10T09:51:44Z</time>
      </trkpt>
      <trkpt lat="48.75205" lon="1.96623">
        <ele>168</ele>
        <time>2012-06-10T09:51:48Z</time>
      </trkpt>
      <trkpt lat="48.7521" lon="1.96624">
        <ele>168</ele>
        <time>2012-06-10T09:51:51Z</time>
      </trkpt>
      <trkpt lat="48.75215" lon="1.96625">
        <ele>168</ele>
        <time>2012-06-10T09:51:54Z</time>
      </trkpt>
      <trkpt lat="48.7522" lon="1.96626">
        <ele>168</ele>
        <time>2012-06-10T09:51:57Z</time>
      </trkpt>
      <trkpt lat="48.75224" lon="1.96628">
        <ele>168</ele>
        <time>2012-06-10T09:52:01Z</time>
      </trkpt>
      <trkpt lat="48.7523" lon="1.96629">
        <ele>168</ele>
        <time>2012-06-10T09:52:05Z</time>
      </trkpt>
      <trkpt lat="48.75234" lon="1.96631">
        <ele>168</ele>
        <time>2012-06-10T09:52:09Z</time>
      </trkpt>
      <trkpt lat="48.7524" lon="1.96631">
        <ele>168</ele>
        <time>2012-06-10T09:52:13Z</time>
      </trkpt>
      <trkpt lat="48.75245" lon="1.96632">
        <ele>168</ele>
        <time>2012-06-10T09:52:16Z</time>
      </trkpt>
      <trkpt lat="48.7525" lon="1.96632">
        <ele>168</ele>
        <time>2012-06-10T09:52:21Z</time>
      </trkpt>
      <trkpt lat="48.75255" lon="1.96634">
        <ele>167</ele>
        <time>2012-06-10T09:52:25Z</time>
      </trkpt>
      <trkpt lat="48.75261" lon="1.96634">
        <ele>167</ele>
        <time>2012-06-10T09:52:29Z</time>
      </trkpt>
      <trkpt lat="48.75266" lon="1.96635">
        <ele>167</ele>
        <time>2012-06-10T09:52:33Z</time>
      </trkpt>
      <trkpt lat="48.7527" lon="1.96636">
        <ele>167</ele>
        <time>2012-06-10T09:52:36Z</time>
      </trkpt>
      <trkpt lat="48.75275" lon="1.96637">
        <ele>166</ele>
        <time>2012-06-10T09:52:40Z</time>
      </trkpt>
      <trkpt lat="48.7528" lon="1.9664">
        <ele>166</ele>
        <time>2012-06-10T09:52:44Z</time>
      </trkpt>
      <trkpt lat="48.75283" lon="1.96645">
        <ele>166</ele>
        <time>2012-06-10T09:52:48Z</time>
      </trkpt>
      <trkpt lat="48.75287" lon="1.96649">
        <ele>166</ele>
        <time>2012-06-10T09:52:52Z</time>
      </trkpt>
      <trkpt lat="48.75291" lon="1.96653">
        <ele>166</ele>
        <time>2012-06-10T09:52:55Z</time>
      </trkpt>
      <trkpt lat="48.75296" lon="1.96656">
        <ele>166</ele>
        <time>2012-06-10T09:52:59Z</time>
      </trkpt>
      <trkpt lat="48.75301" lon="1.9666">
        <ele>166</ele>
        <time>2012-06-10T09:53:02Z</time>
      </trkpt>
      <trkpt lat="48.75302" lon="1.96667">
        <ele>166</ele>
        <time>2012-06-10T09:53:05Z</time>
      </trkpt>
      <trkpt lat="48.75303" lon="1.96674">
        <ele>167</ele>
        <time>2012-06-10T09:53:09Z</time>
      </trkpt>
      <trkpt lat="48.75308" lon="1.96676">
        <ele>167</ele>
        <time>2012-06-10T09:53:13Z</time>
      </trkpt>
      <trkpt lat="48.75313" lon="1.96677">
        <ele>167</ele>
        <time>2012-06-10T09:53:17Z</time>
      </trkpt>
      <trkpt lat="48.75318" lon="1.96677">
        <ele>166</ele>
        <time>2012-06-10T09:53:21Z</time>
      </trkpt>
      <trkpt lat="48.75327" lon="1.9668">
        <ele>166</ele>
        <time>2012-06-10T09:53:30Z</time>
      </trkpt>
      <trkpt lat="48.75332" lon="1.9668">
        <ele>166</ele>
        <time>2012-06-10T09:53:34Z</time>
      </trkpt>
      <trkpt lat="48.75338" lon="1.96682">
        <ele>166</ele>
        <time>2012-06-10T09:53:38Z</time>
      </trkpt>
      <trkpt lat="48.75343" lon="1.96682">
        <ele>166</ele>
        <time>2012-06-10T09:53:42Z</time>
      </trkpt>
      <trkpt lat="48.75348" lon="1.96684">
        <ele>166</ele>
        <time>2012-06-10T09:53:46Z</time>
      </trkpt>
      <trkpt lat="48.75352" lon="1.96687">
        <ele>166</ele>
        <time>2012-06-10T09:53:49Z</time>
      </trkpt>
      <trkpt lat="48.75357" lon="1.96689">
        <ele>166</ele>
        <time>2012-06-10T09:53:53Z</time>
      </trkpt>
      <trkpt lat="48.75366" lon="1.96693">
        <ele>166</ele>
        <time>2012-06-10T09:54:00Z</time>
      </trkpt>
      <trkpt lat="48.75372" lon="1.96693">
        <ele>166</ele>
        <time>2012-06-10T09:54:04Z</time>
      </trkpt>
      <trkpt lat="48.75377" lon="1.96695">
        <ele>166</ele>
        <time>2012-06-10T09:54:07Z</time>
      </trkpt>
      <trkpt lat="48.75382" lon="1.96695">
        <ele>166</ele>
        <time>2012-06-10T09:54:11Z</time>
      </trkpt>
      <trkpt lat="48.75388" lon="1.96697">
        <ele>167</ele>
        <time>2012-06-10T09:54:15Z</time>
      </trkpt>
      <trkpt lat="48.75393" lon="1.96698">
        <ele>167</ele>
        <time>2012-06-10T09:54:19Z</time>
      </trkpt>
      <trkpt lat="48.75398" lon="1.967">
        <ele>167</ele>
        <time>2012-06-10T09:54:23Z</time>
      </trkpt>
      <trkpt lat="48.75403" lon="1.967">
        <ele>167</ele>
        <time>2012-06-10T09:54:27Z</time>
      </trkpt>
      <trkpt lat="48.75409" lon="1.96702">
        <ele>167</ele>
        <time>2012-06-10T09:54:30Z</time>
      </trkpt>
      <trkpt lat="48.75414" lon="1.96703">
        <ele>167</ele>
        <time>2012-06-10T09:54:33Z</time>
      </trkpt>
      <trkpt lat="48.75419" lon="1.96704">
        <ele>167</ele>
        <time>2012-06-10T09:54:38Z</time>
      </trkpt>
      <trkpt lat="48.75425" lon="1.96703">
        <ele>167</ele>
        <time>2012-06-10T09:54:43Z</time>
      </trkpt>
      <trkpt lat="48.75431" lon="1.96703">
        <ele>167</ele>
        <time>2012-06-10T09:54:47Z</time>
      </trkpt>
      <trkpt lat="48.75435" lon="1.96702">
        <ele>167</ele>
        <time>2012-06-10T09:54:51Z</time>
      </trkpt>
      <trkpt lat="48.7544" lon="1.96705">
        <ele>167</ele>
        <time>2012-06-10T09:54:55Z</time>
      </trkpt>
      <trkpt lat="48.75445" lon="1.96707">
        <ele>168</ele>
        <time>2012-06-10T09:54:59Z</time>
      </trkpt>
      <trkpt lat="48.75456" lon="1.96711">
        <ele>168</ele>
        <time>2012-06-10T09:55:07Z</time>
      </trkpt>
      <trkpt lat="48.75461" lon="1.96711">
        <ele>168</ele>
        <time>2012-06-10T09:55:10Z</time>
      </trkpt>
      <trkpt lat="48.75466" lon="1.96714">
        <ele>168</ele>
        <time>2012-06-10T09:55:14Z</time>
      </trkpt>
      <trkpt lat="48.75476" lon="1.96717">
        <ele>168</ele>
        <time>2012-06-10T09:55:21Z</time>
      </trkpt>
      <trkpt lat="48.75481" lon="1.96715">
        <ele>168</ele>
        <time>2012-06-10T09:55:24Z</time>
      </trkpt>
      <trkpt lat="48.75486" lon="1.96716">
        <ele>168</ele>
        <time>2012-06-10T09:55:28Z</time>
      </trkpt>
      <trkpt lat="48.75491" lon="1.96717">
        <ele>169</ele>
        <time>2012-06-10T09:55:32Z</time>
      </trkpt>
      <trkpt lat="48.75497" lon="1.96717">
        <ele>169</ele>
        <time>2012-06-10T09:55:36Z</time>
      </trkpt>
      <trkpt lat="48.75502" lon="1.96717">
        <ele>170</ele>
        <time>2012-06-10T09:55:39Z</time>
      </trkpt>
      <trkpt lat="48.75508" lon="1.96715">
        <ele>170</ele>
        <time>2012-06-10T09:55:43Z</time>
      </trkpt>
      <trkpt lat="48.75512" lon="1.96719">
        <ele>170</ele>
        <time>2012-06-10T09:55:47Z</time>
      </trkpt>
      <trkpt lat="48.75517" lon="1.96721">
        <ele>170</ele>
        <time>2012-06-10T09:55:51Z</time>
      </trkpt>
      <trkpt lat="48.75526" lon="1.96723">
        <ele>170</ele>
        <time>2012-06-10T09:56:00Z</time>
      </trkpt>
      <trkpt lat="48.75531" lon="1.96727">
        <ele>170</ele>
        <time>2012-06-10T09:56:07Z</time>
      </trkpt>
      <trkpt lat="48.75535" lon="1.9673">
        <ele>170</ele>
        <time>2012-06-10T09:56:12Z</time>
      </trkpt>
      <trkpt lat="48.7554" lon="1.96732">
        <ele>170</ele>
        <time>2012-06-10T09:56:16Z</time>
      </trkpt>
      <trkpt lat="48.7555" lon="1.96734">
        <ele>170</ele>
        <time>2012-06-10T09:56:23Z</time>
      </trkpt>
      <trkpt lat="48.75555" lon="1.96735">
        <ele>170</ele>
        <time>2012-06-10T09:56:26Z</time>
      </trkpt>
      <trkpt lat="48.7556" lon="1.96734">
        <ele>170</ele>
        <time>2012-06-10T09:56:29Z</time>
      </trkpt>
      <trkpt lat="48.75565" lon="1.96735">
        <ele>171</ele>
        <time>2012-06-10T09:56:33Z</time>
      </trkpt>
      <trkpt lat="48.7557" lon="1.9674">
        <ele>171</ele>
        <time>2012-06-10T09:56:37Z</time>
      </trkpt>
      <trkpt lat="48.75574" lon="1.96745">
        <ele>171</ele>
        <time>2012-06-10T09:56:40Z</time>
      </trkpt>
      <trkpt lat="48.75578" lon="1.96752">
        <ele>172</ele>
        <time>2012-06-10T09:56:43Z</time>
      </trkpt>
      <trkpt lat="48.75579" lon="1.96759">
        <ele>172</ele>
        <time>2012-06-10T09:56:45Z</time>
      </trkpt>
      <trkpt lat="48.75579" lon="1.96767">
        <ele>172</ele>
        <time>2012-06-10T09:56:48Z</time>
      </trkpt>
      <trkpt lat="48.75579" lon="1.96775">
        <ele>172</ele>
        <time>2012-06-10T09:56:51Z</time>
      </trkpt>
      <trkpt lat="48.7558" lon="1.96783">
        <ele>172</ele>
        <time>2012-06-10T09:56:55Z</time>
      </trkpt>
      <trkpt lat="48.75583" lon="1.96788">
        <ele>172</ele>
        <time>2012-06-10T09:57:00Z</time>
      </trkpt>
      <trkpt lat="48.75582" lon="1.96797">
        <ele>172</ele>
        <time>2012-06-10T09:57:04Z</time>
      </trkpt>
      <trkpt lat="48.75585" lon="1.96811">
        <ele>173</ele>
        <time>2012-06-10T09:57:12Z</time>
      </trkpt>
      <trkpt lat="48.75581" lon="1.96807">
        <ele>172</ele>
        <time>2012-06-10T09:57:32Z</time>
      </trkpt>
      <trkpt lat="48.75579" lon="1.96798">
        <ele>172</ele>
        <time>2012-06-10T09:57:35Z</time>
      </trkpt>
      <trkpt lat="48.75578" lon="1.9679">
        <ele>172</ele>
        <time>2012-06-10T09:57:40Z</time>
      </trkpt>
      <trkpt lat="48.75579" lon="1.96783">
        <ele>172</ele>
        <time>2012-06-10T09:57:44Z</time>
      </trkpt>
      <trkpt lat="48.75577" lon="1.96776">
        <ele>172</ele>
        <time>2012-06-10T09:57:49Z</time>
      </trkpt>
      <trkpt lat="48.75577" lon="1.96769">
        <ele>172</ele>
        <time>2012-06-10T09:57:53Z</time>
      </trkpt>
      <trkpt lat="48.75575" lon="1.96754">
        <ele>172</ele>
        <time>2012-06-10T09:58:02Z</time>
      </trkpt>
      <trkpt lat="48.75573" lon="1.96748">
        <ele>171</ele>
        <time>2012-06-10T09:58:06Z</time>
      </trkpt>
      <trkpt lat="48.75573" lon="1.9674">
        <ele>171</ele>
        <time>2012-06-10T09:58:10Z</time>
      </trkpt>
      <trkpt lat="48.75579" lon="1.96747">
        <ele>172</ele>
        <time>2012-06-10T09:59:10Z</time>
      </trkpt>
      <trkpt lat="48.7558" lon="1.96754">
        <ele>172</ele>
        <time>2012-06-10T09:59:15Z</time>
      </trkpt>
      <trkpt lat="48.75582" lon="1.96762">
        <ele>172</ele>
        <time>2012-06-10T09:59:20Z</time>
      </trkpt>
      <trkpt lat="48.75581" lon="1.96769">
        <ele>172</ele>
        <time>2012-06-10T09:59:23Z</time>
      </trkpt>
      <trkpt lat="48.75583" lon="1.96783">
        <ele>172</ele>
        <time>2012-06-10T09:59:31Z</time>
      </trkpt>
      <trkpt lat="48.75586" lon="1.96789">
        <ele>173</ele>
        <time>2012-06-10T09:59:36Z</time>
      </trkpt>
      <trkpt lat="48.75584" lon="1.96796">
        <ele>173</ele>
        <time>2012-06-10T09:59:41Z</time>
      </trkpt>
      <trkpt lat="48.75585" lon="1.96804">
        <ele>173</ele>
        <time>2012-06-10T09:59:45Z</time>
      </trkpt>
      <trkpt lat="48.75586" lon="1.9681">
        <ele>173</ele>
        <time>2012-06-10T09:59:48Z</time>
      </trkpt>
      <trkpt lat="48.75587" lon="1.96819">
        <ele>173</ele>
        <time>2012-06-10T09:59:53Z</time>
      </trkpt>
      <trkpt lat="48.75591" lon="1.96826">
        <ele>173</ele>
        <time>2012-06-10T09:59:57Z</time>
      </trkpt>
      <trkpt lat="48.75592" lon="1.96834">
        <ele>174</ele>
        <time>2012-06-10T10:00:02Z</time>
      </trkpt>
      <trkpt lat="48.75594" lon="1.96842">
        <ele>174</ele>
        <time>2012-06-10T10:00:07Z</time>
      </trkpt>
      <trkpt lat="48.75596" lon="1.9685">
        <ele>174</ele>
        <time>2012-06-10T10:00:11Z</time>
      </trkpt>
      <trkpt lat="48.75595" lon="1.96857">
        <ele>174</ele>
        <time>2012-06-10T10:00:15Z</time>
      </trkpt>
      <trkpt lat="48.75595" lon="1.96865">
        <ele>175</ele>
        <time>2012-06-10T10:00:19Z</time>
      </trkpt>
      <trkpt lat="48.75594" lon="1.96872">
        <ele>175</ele>
        <time>2012-06-10T10:00:23Z</time>
      </trkpt>
      <trkpt lat="48.75592" lon="1.96879">
        <ele>175</ele>
        <time>2012-06-10T10:00:27Z</time>
      </trkpt>
      <trkpt lat="48.75591" lon="1.96888">
        <ele>175</ele>
        <time>2012-06-10T10:00:31Z</time>
      </trkpt>
      <trkpt lat="48.75589" lon="1.96895">
        <ele>175</ele>
        <time>2012-06-10T10:00:35Z</time>
      </trkpt>
      <trkpt lat="48.75586" lon="1.96901">
        <ele>175</ele>
        <time>2012-06-10T10:00:38Z</time>
      </trkpt>
      <trkpt lat="48.75584" lon="1.96908">
        <ele>175</ele>
        <time>2012-06-10T10:00:41Z</time>
      </trkpt>
      <trkpt lat="48.75584" lon="1.96916">
        <ele>175</ele>
        <time>2012-06-10T10:00:45Z</time>
      </trkpt>
      <trkpt lat="48.75579" lon="1.96922">
        <ele>174</ele>
        <time>2012-06-10T10:00:50Z</time>
      </trkpt>
      <trkpt lat="48.75576" lon="1.96928">
        <ele>174</ele>
        <time>2012-06-10T10:00:54Z</time>
      </trkpt>
      <trkpt lat="48.75577" lon="1.96935">
        <ele>174</ele>
        <time>2012-06-10T10:00:58Z</time>
      </trkpt>
      <trkpt lat="48.75574" lon="1.96942">
        <ele>173</ele>
        <time>2012-06-10T10:01:01Z</time>
      </trkpt>
      <trkpt lat="48.75573" lon="1.96949">
        <ele>173</ele>
        <time>2012-06-10T10:01:04Z</time>
      </trkpt>
      <trkpt lat="48.75573" lon="1.96957">
        <ele>173</ele>
        <time>2012-06-10T10:01:08Z</time>
      </trkpt>
      <trkpt lat="48.7557" lon="1.96964">
        <ele>173</ele>
        <time>2012-06-10T10:01:11Z</time>
      </trkpt>
      <trkpt lat="48.75568" lon="1.9697">
        <ele>173</ele>
        <time>2012-06-10T10:01:14Z</time>
      </trkpt>
      <trkpt lat="48.75566" lon="1.96978">
        <ele>173</ele>
        <time>2012-06-10T10:01:18Z</time>
      </trkpt>
      <trkpt lat="48.75565" lon="1.96985">
        <ele>173</ele>
        <time>2012-06-10T10:01:21Z</time>
      </trkpt>
      <trkpt lat="48.75564" lon="1.96993">
        <ele>174</ele>
        <time>2012-06-10T10:01:25Z</time>
      </trkpt>
      <trkpt lat="48.75563" lon="1.97">
        <ele>174</ele>
        <time>2012-06-10T10:01:30Z</time>
      </trkpt>
      <trkpt lat="48.75559" lon="1.97013">
        <ele>174</ele>
        <time>2012-06-10T10:01:36Z</time>
      </trkpt>
      <trkpt lat="48.75557" lon="1.9702">
        <ele>174</ele>
        <time>2012-06-10T10:01:39Z</time>
      </trkpt>
      <trkpt lat="48.75555" lon="1.97027">
        <ele>174</ele>
        <time>2012-06-10T10:01:42Z</time>
      </trkpt>
      <trkpt lat="48.75553" lon="1.97034">
        <ele>174</ele>
        <time>2012-06-10T10:01:46Z</time>
      </trkpt>
      <trkpt lat="48.7555" lon="1.9704">
        <ele>174</ele>
        <time>2012-06-10T10:01:49Z</time>
      </trkpt>
      <trkpt lat="48.75549" lon="1.97047">
        <ele>174</ele>
        <time>2012-06-10T10:01:52Z</time>
      </trkpt>
      <trkpt lat="48.75546" lon="1.97055">
        <ele>174</ele>
        <time>2012-06-10T10:01:56Z</time>
      </trkpt>
      <trkpt lat="48.75543" lon="1.97062">
        <ele>174</ele>
        <time>2012-06-10T10:02:01Z</time>
      </trkpt>
      <trkpt lat="48.75539" lon="1.97076">
        <ele>174</ele>
        <time>2012-06-10T10:02:08Z</time>
      </trkpt>
      <trkpt lat="48.75537" lon="1.97082">
        <ele>173</ele>
        <time>2012-06-10T10:02:12Z</time>
      </trkpt>
      <trkpt lat="48.75535" lon="1.97089">
        <ele>175</ele>
        <time>2012-06-10T10:02:17Z</time>
      </trkpt>
      <trkpt lat="48.75533" lon="1.97097">
        <ele>175</ele>
        <time>2012-06-10T10:02:21Z</time>
      </trkpt>
      <trkpt lat="48.75529" lon="1.97111">
        <ele>175</ele>
        <time>2012-06-10T10:02:27Z</time>
      </trkpt>
      <trkpt lat="48.75526" lon="1.9712">
        <ele>175</ele>
        <time>2012-06-10T10:02:30Z</time>
      </trkpt>
      <trkpt lat="48.75522" lon="1.97133">
        <ele>175</ele>
        <time>2012-06-10T10:02:38Z</time>
      </trkpt>
      <trkpt lat="48.75521" lon="1.97141">
        <ele>176</ele>
        <time>2012-06-10T10:02:41Z</time>
      </trkpt>
      <trkpt lat="48.7552" lon="1.97149">
        <ele>176</ele>
        <time>2012-06-10T10:02:44Z</time>
      </trkpt>
      <trkpt lat="48.75517" lon="1.97155">
        <ele>176</ele>
        <time>2012-06-10T10:02:47Z</time>
      </trkpt>
      <trkpt lat="48.75516" lon="1.97163">
        <ele>176</ele>
        <time>2012-06-10T10:02:52Z</time>
      </trkpt>
      <trkpt lat="48.75515" lon="1.97172">
        <ele>177</ele>
        <time>2012-06-10T10:02:56Z</time>
      </trkpt>
      <trkpt lat="48.75513" lon="1.97179">
        <ele>177</ele>
        <time>2012-06-10T10:03:00Z</time>
      </trkpt>
      <trkpt lat="48.75512" lon="1.97186">
        <ele>177</ele>
        <time>2012-06-10T10:03:04Z</time>
      </trkpt>
      <trkpt lat="48.7551" lon="1.97194">
        <ele>177</ele>
        <time>2012-06-10T10:03:08Z</time>
      </trkpt>
      <trkpt lat="48.7551" lon="1.97202">
        <ele>177</ele>
        <time>2012-06-10T10:03:14Z</time>
      </trkpt>
      <trkpt lat="48.75508" lon="1.97208">
        <ele>177</ele>
        <time>2012-06-10T10:03:17Z</time>
      </trkpt>
      <trkpt lat="48.75505" lon="1.97215">
        <ele>176</ele>
        <time>2012-06-10T10:03:21Z</time>
      </trkpt>
      <trkpt lat="48.75502" lon="1.97221">
        <ele>176</ele>
        <time>2012-06-10T10:03:24Z</time>
      </trkpt>
      <trkpt lat="48.755" lon="1.9723">
        <ele>175</ele>
        <time>2012-06-10T10:03:27Z</time>
      </trkpt>
      <trkpt lat="48.75497" lon="1.97237">
        <ele>175</ele>
        <time>2012-06-10T10:03:33Z</time>
      </trkpt>
      <trkpt lat="48.75495" lon="1.97243">
        <ele>176</ele>
        <time>2012-06-10T10:03:36Z</time>
      </trkpt>
      <trkpt lat="48.75492" lon="1.97249">
        <ele>176</ele>
        <time>2012-06-10T10:03:38Z</time>
      </trkpt>
      <trkpt lat="48.75491" lon="1.97256">
        <ele>176</ele>
        <time>2012-06-10T10:03:43Z</time>
      </trkpt>
      <trkpt lat="48.75489" lon="1.97263">
        <ele>175</ele>
        <time>2012-06-10T10:03:46Z</time>
      </trkpt>
      <trkpt lat="48.75486" lon="1.97269">
        <ele>175</ele>
        <time>2012-06-10T10:03:50Z</time>
      </trkpt>
      <trkpt lat="48.75484" lon="1.97277">
        <ele>175</ele>
        <time>2012-06-10T10:03:54Z</time>
      </trkpt>
      <trkpt lat="48.75481" lon="1.97285">
        <ele>175</ele>
        <time>2012-06-10T10:03:57Z</time>
      </trkpt>
      <trkpt lat="48.75478" lon="1.97292">
        <ele>175</ele>
        <time>2012-06-10T10:04:01Z</time>
      </trkpt>
      <trkpt lat="48.75475" lon="1.97307">
        <ele>175</ele>
        <time>2012-06-10T10:04:10Z</time>
      </trkpt>
      <trkpt lat="48.75473" lon="1.97314">
        <ele>175</ele>
        <time>2012-06-10T10:04:13Z</time>
      </trkpt>
      <trkpt lat="48.75473" lon="1.97321">
        <ele>175</ele>
        <time>2012-06-10T10:04:16Z</time>
      </trkpt>
      <trkpt lat="48.75473" lon="1.9733">
        <ele>175</ele>
        <time>2012-06-10T10:04:22Z</time>
      </trkpt>
      <trkpt lat="48.75471" lon="1.97339">
        <ele>175</ele>
        <time>2012-06-10T10:04:25Z</time>
      </trkpt>
      <trkpt lat="48.75469" lon="1.97345">
        <ele>175</ele>
        <time>2012-06-10T10:04:28Z</time>
      </trkpt>
      <trkpt lat="48.75467" lon="1.97352">
        <ele>175</ele>
        <time>2012-06-10T10:04:32Z</time>
      </trkpt>
      <trkpt lat="48.75463" lon="1.97359">
        <ele>175</ele>
        <time>2012-06-10T10:04:35Z</time>
      </trkpt>
      <trkpt lat="48.7546" lon="1.97366">
        <ele>175</ele>
        <time>2012-06-10T10:04:38Z</time>
      </trkpt>
      <trkpt lat="48.75455" lon="1.9738">
        <ele>174</ele>
        <time>2012-06-10T10:04:45Z</time>
      </trkpt>
      <trkpt lat="48.75455" lon="1.97388">
        <ele>174</ele>
        <time>2012-06-10T10:04:48Z</time>
      </trkpt>
      <trkpt lat="48.75453" lon="1.97395">
        <ele>174</ele>
        <time>2012-06-10T10:04:52Z</time>
      </trkpt>
      <trkpt lat="48.75449" lon="1.974">
        <ele>174</ele>
        <time>2012-06-10T10:04:55Z</time>
      </trkpt>
      <trkpt lat="48.75446" lon="1.97407">
        <ele>174</ele>
        <time>2012-06-10T10:05:00Z</time>
      </trkpt>
      <trkpt lat="48.75444" lon="1.97413">
        <ele>174</ele>
        <time>2012-06-10T10:05:03Z</time>
      </trkpt>
      <trkpt lat="48.75441" lon="1.97422">
        <ele>174</ele>
        <time>2012-06-10T10:05:06Z</time>
      </trkpt>
      <trkpt lat="48.75439" lon="1.97429">
        <ele>174</ele>
        <time>2012-06-10T10:05:09Z</time>
      </trkpt>
      <trkpt lat="48.75439" lon="1.97438">
        <ele>174</ele>
        <time>2012-06-10T10:05:13Z</time>
      </trkpt>
      <trkpt lat="48.75435" lon="1.97445">
        <ele>174</ele>
        <time>2012-06-10T10:05:17Z</time>
      </trkpt>
      <trkpt lat="48.75433" lon="1.97453">
        <ele>174</ele>
        <time>2012-06-10T10:05:21Z</time>
      </trkpt>
      <trkpt lat="48.75431" lon="1.97461">
        <ele>174</ele>
        <time>2012-06-10T10:05:25Z</time>
      </trkpt>
      <trkpt lat="48.75431" lon="1.97469">
        <ele>174</ele>
        <time>2012-06-10T10:05:31Z</time>
      </trkpt>
      <trkpt lat="48.75429" lon="1.97477">
        <ele>174</ele>
        <time>2012-06-10T10:05:34Z</time>
      </trkpt>
      <trkpt lat="48.7543" lon="1.97485">
        <ele>174</ele>
        <time>2012-06-10T10:05:38Z</time>
      </trkpt>
      <trkpt lat="48.75429" lon="1.97493">
        <ele>173</ele>
        <time>2012-06-10T10:05:42Z</time>
      </trkpt>
      <trkpt lat="48.75425" lon="1.97505">
        <ele>174</ele>
        <time>2012-06-10T10:05:50Z</time>
      </trkpt>
      <trkpt lat="48.75421" lon="1.97517">
        <ele>174</ele>
        <time>2012-06-10T10:05:58Z</time>
      </trkpt>
      <trkpt lat="48.75417" lon="1.97527">
        <ele>174</ele>
        <time>2012-06-10T10:06:01Z</time>
      </trkpt>
      <trkpt lat="48.75414" lon="1.97532">
        <ele>172</ele>
        <time>2012-06-10T10:06:04Z</time>
      </trkpt>
      <trkpt lat="48.75412" lon="1.97539">
        <ele>172</ele>
        <time>2012-06-10T10:06:08Z</time>
      </trkpt>
      <trkpt lat="48.7541" lon="1.97546">
        <ele>172</ele>
        <time>2012-06-10T10:06:12Z</time>
      </trkpt>
      <trkpt lat="48.75408" lon="1.97554">
        <ele>172</ele>
        <time>2012-06-10T10:06:16Z</time>
      </trkpt>
      <trkpt lat="48.75406" lon="1.9756">
        <ele>172</ele>
        <time>2012-06-10T10:06:19Z</time>
      </trkpt>
      <trkpt lat="48.75403" lon="1.97566">
        <ele>172</ele>
        <time>2012-06-10T10:06:23Z</time>
      </trkpt>
      <trkpt lat="48.75399" lon="1.97579">
        <ele>172</ele>
        <time>2012-06-10T10:06:30Z</time>
      </trkpt>
      <trkpt lat="48.75398" lon="1.97588">
        <ele>173</ele>
        <time>2012-06-10T10:06:34Z</time>
      </trkpt>
      <trkpt lat="48.75396" lon="1.97596">
        <ele>172</ele>
        <time>2012-06-10T10:06:37Z</time>
      </trkpt>
      <trkpt lat="48.75394" lon="1.97603">
        <ele>172</ele>
        <time>2012-06-10T10:06:42Z</time>
      </trkpt>
      <trkpt lat="48.75391" lon="1.97611">
        <ele>172</ele>
        <time>2012-06-10T10:06:46Z</time>
      </trkpt>
      <trkpt lat="48.75391" lon="1.97619">
        <ele>172</ele>
        <time>2012-06-10T10:06:50Z</time>
      </trkpt>
      <trkpt lat="48.75389" lon="1.97627">
        <ele>172</ele>
        <time>2012-06-10T10:06:54Z</time>
      </trkpt>
      <trkpt lat="48.75387" lon="1.97634">
        <ele>172</ele>
        <time>2012-06-10T10:06:58Z</time>
      </trkpt>
      <trkpt lat="48.75385" lon="1.9764">
        <ele>172</ele>
        <time>2012-06-10T10:07:01Z</time>
      </trkpt>
      <trkpt lat="48.75383" lon="1.97648">
        <ele>172</ele>
        <time>2012-06-10T10:07:04Z</time>
      </trkpt>
      <trkpt lat="48.7538" lon="1.97654">
        <ele>172</ele>
        <time>2012-06-10T10:07:08Z</time>
      </trkpt>
      <trkpt lat="48.75378" lon="1.97662">
        <ele>172</ele>
        <time>2012-06-10T10:07:12Z</time>
      </trkpt>
      <trkpt lat="48.75376" lon="1.97669">
        <ele>173</ele>
        <time>2012-06-10T10:07:16Z</time>
      </trkpt>
      <trkpt lat="48.75374" lon="1.97677">
        <ele>173</ele>
        <time>2012-06-10T10:07:19Z</time>
      </trkpt>
      <trkpt lat="48.75372" lon="1.97684">
        <ele>173</ele>
        <time>2012-06-10T10:07:24Z</time>
      </trkpt>
      <trkpt lat="48.75369" lon="1.97691">
        <ele>173</ele>
        <time>2012-06-10T10:07:28Z</time>
      </trkpt>
      <trkpt lat="48.75366" lon="1.97697">
        <ele>174</ele>
        <time>2012-06-10T10:07:31Z</time>
      </trkpt>
      <trkpt lat="48.75364" lon="1.97704">
        <ele>174</ele>
        <time>2012-06-10T10:07:36Z</time>
      </trkpt>
      <trkpt lat="48.75363" lon="1.97711">
        <ele>174</ele>
        <time>2012-06-10T10:07:40Z</time>
      </trkpt>
      <trkpt lat="48.75361" lon="1.9772">
        <ele>174</ele>
        <time>2012-06-10T10:07:44Z</time>
      </trkpt>
      <trkpt lat="48.75359" lon="1.97727">
        <ele>174</ele>
        <time>2012-06-10T10:07:47Z</time>
      </trkpt>
      <trkpt lat="48.75361" lon="1.97735">
        <ele>174</ele>
        <time>2012-06-10T10:07:54Z</time>
      </trkpt>
      <trkpt lat="48.75361" lon="1.97742">
        <ele>174</ele>
        <time>2012-06-10T10:07:57Z</time>
      </trkpt>
      <trkpt lat="48.75359" lon="1.97749">
        <ele>174</ele>
        <time>2012-06-10T10:08:00Z</time>
      </trkpt>
      <trkpt lat="48.75358" lon="1.97757">
        <ele>175</ele>
        <time>2012-06-10T10:08:03Z</time>
      </trkpt>
      <trkpt lat="48.75357" lon="1.97766">
        <ele>175</ele>
        <time>2012-06-10T10:08:06Z</time>
      </trkpt>
      <trkpt lat="48.75356" lon="1.97774">
        <ele>175</ele>
        <time>2012-06-10T10:08:09Z</time>
      </trkpt>
      <trkpt lat="48.75352" lon="1.9778">
        <ele>175</ele>
        <time>2012-06-10T10:08:13Z</time>
      </trkpt>
      <trkpt lat="48.7535" lon="1.97787">
        <ele>175</ele>
        <time>2012-06-10T10:08:19Z</time>
      </trkpt>
      <trkpt lat="48.75349" lon="1.97794">
        <ele>175</ele>
        <time>2012-06-10T10:08:22Z</time>
      </trkpt>
      <trkpt lat="48.75347" lon="1.97802">
        <ele>175</ele>
        <time>2012-06-10T10:08:25Z</time>
      </trkpt>
      <trkpt lat="48.75344" lon="1.97808">
        <ele>174</ele>
        <time>2012-06-10T10:08:28Z</time>
      </trkpt>
      <trkpt lat="48.75342" lon="1.97815">
        <ele>174</ele>
        <time>2012-06-10T10:08:33Z</time>
      </trkpt>
      <trkpt lat="48.7534" lon="1.97822">
        <ele>174</ele>
        <time>2012-06-10T10:08:38Z</time>
      </trkpt>
      <trkpt lat="48.75336" lon="1.97828">
        <ele>173</ele>
        <time>2012-06-10T10:08:42Z</time>
      </trkpt>
      <trkpt lat="48.75334" lon="1.97835">
        <ele>172</ele>
        <time>2012-06-10T10:08:46Z</time>
      </trkpt>
      <trkpt lat="48.75333" lon="1.97843">
        <ele>171</ele>
        <time>2012-06-10T10:08:51Z</time>
      </trkpt>
      <trkpt lat="48.75332" lon="1.97852">
        <ele>170</ele>
        <time>2012-06-10T10:08:55Z</time>
      </trkpt>
      <trkpt lat="48.75328" lon="1.97864">
        <ele>169</ele>
        <time>2012-06-10T10:09:01Z</time>
      </trkpt>
      <trkpt lat="48.75325" lon="1.97871">
        <ele>169</ele>
        <time>2012-06-10T10:09:04Z</time>
      </trkpt>
      <trkpt lat="48.75323" lon="1.97879">
        <ele>169</ele>
        <time>2012-06-10T10:09:07Z</time>
      </trkpt>
      <trkpt lat="48.75324" lon="1.97887">
        <ele>169</ele>
        <time>2012-06-10T10:09:11Z</time>
      </trkpt>
      <trkpt lat="48.75325" lon="1.97894">
        <ele>169</ele>
        <time>2012-06-10T10:09:15Z</time>
      </trkpt>
      <trkpt lat="48.75326" lon="1.97901">
        <ele>170</ele>
        <time>2012-06-10T10:09:19Z</time>
      </trkpt>
      <trkpt lat="48.75328" lon="1.97908">
        <ele>170</ele>
        <time>2012-06-10T10:09:23Z</time>
      </trkpt>
      <trkpt lat="48.75333" lon="1.97915">
        <ele>171</ele>
        <time>2012-06-10T10:09:26Z</time>
      </trkpt>
      <trkpt lat="48.75337" lon="1.97921">
        <ele>172</ele>
        <time>2012-06-10T10:09:31Z</time>
      </trkpt>
      <trkpt lat="48.7534" lon="1.9793">
        <ele>172</ele>
        <time>2012-06-10T10:09:34Z</time>
      </trkpt>
      <trkpt lat="48.7534" lon="1.97938">
        <ele>173</ele>
        <time>2012-06-10T10:09:39Z</time>
      </trkpt>
      <trkpt lat="48.75344" lon="1.97943">
        <ele>173</ele>
        <time>2012-06-10T10:09:42Z</time>
      </trkpt>
      <trkpt lat="48.75348" lon="1.9795">
        <ele>173</ele>
        <time>2012-06-10T10:09:46Z</time>
      </trkpt>
      <trkpt lat="48.75351" lon="1.97955">
        <ele>173</ele>
        <time>2012-06-10T10:09:50Z</time>
      </trkpt>
      <trkpt lat="48.75354" lon="1.97959">
        <ele>174</ele>
        <time>2012-06-10T10:09:53Z</time>
      </trkpt>
      <trkpt lat="48.75356" lon="1.97966">
        <ele>174</ele>
        <time>2012-06-10T10:09:56Z</time>
      </trkpt>
      <trkpt lat="48.7536" lon="1.9797">
        <ele>174</ele>
        <time>2012-06-10T10:09:59Z</time>
      </trkpt>
      <trkpt lat="48.75364" lon="1.97975">
        <ele>174</ele>
        <time>2012-06-10T10:10:02Z</time>
      </trkpt>
      <trkpt lat="48.75367" lon="1.97982">
        <ele>174</ele>
        <time>2012-06-10T10:10:07Z</time>
      </trkpt>
      <trkpt lat="48.75371" lon="1.97987">
        <ele>174</ele>
        <time>2012-06-10T10:10:10Z</time>
      </trkpt>
      <trkpt lat="48.75374" lon="1.97994">
        <ele>174</ele>
        <time>2012-06-10T10:10:15Z</time>
      </trkpt>
      <trkpt lat="48.75377" lon="1.98">
        <ele>174</ele>
        <time>2012-06-10T10:10:18Z</time>
      </trkpt>
      <trkpt lat="48.75382" lon="1.98004">
        <ele>175</ele>
        <time>2012-06-10T10:10:22Z</time>
      </trkpt>
      <trkpt lat="48.75382" lon="1.98012">
        <ele>175</ele>
        <time>2012-06-10T10:10:28Z</time>
      </trkpt>
      <trkpt lat="48.75384" lon="1.98018">
        <ele>175</ele>
        <time>2012-06-10T10:10:32Z</time>
      </trkpt>
      <trkpt lat="48.75388" lon="1.98026">
        <ele>175</ele>
        <time>2012-06-10T10:10:37Z</time>
      </trkpt>
      <trkpt lat="48.75391" lon="1.9803">
        <ele>175</ele>
        <time>2012-06-10T10:10:41Z</time>
      </trkpt>
      <trkpt lat="48.75393" lon="1.98039">
        <ele>175</ele>
        <time>2012-06-10T10:10:45Z</time>
      </trkpt>
      <trkpt lat="48.75395" lon="1.98046">
        <ele>176</ele>
        <time>2012-06-10T10:10:49Z</time>
      </trkpt>
      <trkpt lat="48.75399" lon="1.98052">
        <ele>176</ele>
        <time>2012-06-10T10:10:53Z</time>
      </trkpt>
      <trkpt lat="48.75404" lon="1.98057">
        <ele>176</ele>
        <time>2012-06-10T10:10:58Z</time>
      </trkpt>
      <trkpt lat="48.75408" lon="1.98062">
        <ele>176</ele>
        <time>2012-06-10T10:11:01Z</time>
      </trkpt>
      <trkpt lat="48.75411" lon="1.98069">
        <ele>177</ele>
        <time>2012-06-10T10:11:04Z</time>
      </trkpt>
      <trkpt lat="48.75412" lon="1.98077">
        <ele>177</ele>
        <time>2012-06-10T10:11:08Z</time>
      </trkpt>
      <trkpt lat="48.75414" lon="1.98086">
        <ele>178</ele>
        <time>2012-06-10T10:11:12Z</time>
      </trkpt>
      <trkpt lat="48.75414" lon="1.98094">
        <ele>177</ele>
        <time>2012-06-10T10:11:16Z</time>
      </trkpt>
      <trkpt lat="48.75418" lon="1.98099">
        <ele>178</ele>
        <time>2012-06-10T10:11:20Z</time>
      </trkpt>
      <trkpt lat="48.7542" lon="1.98107">
        <ele>178</ele>
        <time>2012-06-10T10:11:25Z</time>
      </trkpt>
      <trkpt lat="48.75424" lon="1.98113">
        <ele>179</ele>
        <time>2012-06-10T10:11:28Z</time>
      </trkpt>
      <trkpt lat="48.7543" lon="1.98118">
        <ele>179</ele>
        <time>2012-06-10T10:11:31Z</time>
      </trkpt>
      <trkpt lat="48.75434" lon="1.98123">
        <ele>179</ele>
        <time>2012-06-10T10:11:34Z</time>
      </trkpt>
      <trkpt lat="48.75437" lon="1.98131">
        <ele>179</ele>
        <time>2012-06-10T10:11:38Z</time>
      </trkpt>
      <trkpt lat="48.7544" lon="1.98139">
        <ele>179</ele>
        <time>2012-06-10T10:11:41Z</time>
      </trkpt>
      <trkpt lat="48.7544" lon="1.98146">
        <ele>178</ele>
        <time>2012-06-10T10:11:44Z</time>
      </trkpt>
      <trkpt lat="48.75437" lon="1.98155">
        <ele>178</ele>
        <time>2012-06-10T10:11:47Z</time>
      </trkpt>
      <trkpt lat="48.75432" lon="1.98161">
        <ele>178</ele>
        <time>2012-06-10T10:11:49Z</time>
      </trkpt>
      <trkpt lat="48.75429" lon="1.98168">
        <ele>178</ele>
        <time>2012-06-10T10:11:51Z</time>
      </trkpt>
      <trkpt lat="48.75423" lon="1.98173">
        <ele>178</ele>
        <time>2012-06-10T10:11:54Z</time>
      </trkpt>
      <trkpt lat="48.75419" lon="1.98177">
        <ele>178</ele>
        <time>2012-06-10T10:11:56Z</time>
      </trkpt>
      <trkpt lat="48.75414" lon="1.98182">
        <ele>176</ele>
        <time>2012-06-10T10:12:00Z</time>
      </trkpt>
      <trkpt lat="48.75409" lon="1.98187">
        <ele>176</ele>
        <time>2012-06-10T10:12:03Z</time>
      </trkpt>
      <trkpt lat="48.75404" lon="1.98191">
        <ele>176</ele>
        <time>2012-06-10T10:12:05Z</time>
      </trkpt>
      <trkpt lat="48.75401" lon="1.98198">
        <ele>176</ele>
        <time>2012-06-10T10:12:09Z</time>
      </trkpt>
      <trkpt lat="48.75394" lon="1.98204">
        <ele>176</ele>
        <time>2012-06-10T10:12:12Z</time>
      </trkpt>
      <trkpt lat="48.7539" lon="1.98208">
        <ele>176</ele>
        <time>2012-06-10T10:12:15Z</time>
      </trkpt>
      <trkpt lat="48.75386" lon="1.98211">
        <ele>176</ele>
        <time>2012-06-10T10:12:19Z</time>
      </trkpt>
      <trkpt lat="48.75382" lon="1.98216">
        <ele>175</ele>
        <time>2012-06-10T10:12:23Z</time>
      </trkpt>
      <trkpt lat="48.75378" lon="1.98222">
        <ele>175</ele>
        <time>2012-06-10T10:12:27Z</time>
      </trkpt>
      <trkpt lat="48.75374" lon="1.98225">
        <ele>175</ele>
        <time>2012-06-10T10:12:30Z</time>
      </trkpt>
      <trkpt lat="48.7537" lon="1.9823">
        <ele>175</ele>
        <time>2012-06-10T10:12:35Z</time>
      </trkpt>
      <trkpt lat="48.75364" lon="1.98235">
        <ele>175</ele>
        <time>2012-06-10T10:12:38Z</time>
      </trkpt>
      <trkpt lat="48.75359" lon="1.9824">
        <ele>175</ele>
        <time>2012-06-10T10:12:41Z</time>
      </trkpt>
      <trkpt lat="48.75355" lon="1.98245">
        <ele>174</ele>
        <time>2012-06-10T10:12:47Z</time>
      </trkpt>
      <trkpt lat="48.75348" lon="1.98255">
        <ele>174</ele>
        <time>2012-06-10T10:12:55Z</time>
      </trkpt>
      <trkpt lat="48.75343" lon="1.98259">
        <ele>174</ele>
        <time>2012-06-10T10:12:58Z</time>
      </trkpt>
      <trkpt lat="48.7534" lon="1.98265">
        <ele>174</ele>
        <time>2012-06-10T10:13:02Z</time>
      </trkpt>
      <trkpt lat="48.75338" lon="1.98272">
        <ele>174</ele>
        <time>2012-06-10T10:13:05Z</time>
      </trkpt>
      <trkpt lat="48.75334" lon="1.98277">
        <ele>174</ele>
        <time>2012-06-10T10:13:08Z</time>
      </trkpt>
      <trkpt lat="48.75331" lon="1.98283">
        <ele>171</ele>
        <time>2012-06-10T10:13:11Z</time>
      </trkpt>
      <trkpt lat="48.75328" lon="1.98289">
        <ele>171</ele>
        <time>2012-06-10T10:13:15Z</time>
      </trkpt>
      <trkpt lat="48.75323" lon="1.98294">
        <ele>171</ele>
        <time>2012-06-10T10:13:19Z</time>
      </trkpt>
      <trkpt lat="48.75319" lon="1.98299">
        <ele>171</ele>
        <time>2012-06-10T10:13:23Z</time>
      </trkpt>
      <trkpt lat="48.75315" lon="1.98304">
        <ele>171</ele>
        <time>2012-06-10T10:13:26Z</time>
      </trkpt>
      <trkpt lat="48.75311" lon="1.98311">
        <ele>171</ele>
        <time>2012-06-10T10:13:29Z</time>
      </trkpt>
      <trkpt lat="48.75306" lon="1.98316">
        <ele>171</ele>
        <time>2012-06-10T10:13:32Z</time>
      </trkpt>
      <trkpt lat="48.75304" lon="1.98322">
        <ele>171</ele>
        <time>2012-06-10T10:13:36Z</time>
      </trkpt>
      <trkpt lat="48.75299" lon="1.98327">
        <ele>170</ele>
        <time>2012-06-10T10:13:39Z</time>
      </trkpt>
      <trkpt lat="48.75294" lon="1.98332">
        <ele>170</ele>
        <time>2012-06-10T10:13:42Z</time>
      </trkpt>
      <trkpt lat="48.7529" lon="1.98334">
        <ele>170</ele>
        <time>2012-06-10T10:13:49Z</time>
      </trkpt>
      <trkpt lat="48.75285" lon="1.9834">
        <ele>170</ele>
        <time>2012-06-10T10:13:52Z</time>
      </trkpt>
      <trkpt lat="48.75283" lon="1.98347">
        <ele>170</ele>
        <time>2012-06-10T10:13:56Z</time>
      </trkpt>
      <trkpt lat="48.75279" lon="1.98351">
        <ele>170</ele>
        <time>2012-06-10T10:13:59Z</time>
      </trkpt>
      <trkpt lat="48.75276" lon="1.98358">
        <ele>170</ele>
        <time>2012-06-10T10:14:03Z</time>
      </trkpt>
      <trkpt lat="48.75273" lon="1.98364">
        <ele>170</ele>
        <time>2012-06-10T10:14:08Z</time>
      </trkpt>
      <trkpt lat="48.75269" lon="1.9837">
        <ele>170</ele>
        <time>2012-06-10T10:14:12Z</time>
      </trkpt>
      <trkpt lat="48.75266" lon="1.98376">
        <ele>170</ele>
        <time>2012-06-10T10:14:15Z</time>
      </trkpt>
      <trkpt lat="48.75262" lon="1.98382">
        <ele>170</ele>
        <time>2012-06-10T10:14:19Z</time>
      </trkpt>
      <trkpt lat="48.75258" lon="1.98388">
        <ele>169</ele>
        <time>2012-06-10T10:14:23Z</time>
      </trkpt>
      <trkpt lat="48.75254" lon="1.98392">
        <ele>169</ele>
        <time>2012-06-10T10:14:27Z</time>
      </trkpt>
      <trkpt lat="48.75249" lon="1.98396">
        <ele>166</ele>
        <time>2012-06-10T10:14:29Z</time>
      </trkpt>
      <trkpt lat="48.75241" lon="1.98403">
        <ele>167</ele>
        <time>2012-06-10T10:14:35Z</time>
      </trkpt>
      <trkpt lat="48.75236" lon="1.98408">
        <ele>167</ele>
        <time>2012-06-10T10:14:38Z</time>
      </trkpt>
      <trkpt lat="48.75232" lon="1.98412">
        <ele>166</ele>
        <time>2012-06-10T10:14:43Z</time>
      </trkpt>
      <trkpt lat="48.75227" lon="1.98416">
        <ele>166</ele>
        <time>2012-06-10T10:14:47Z</time>
      </trkpt>
      <trkpt lat="48.7522" lon="1.98427">
        <ele>166</ele>
        <time>2012-06-10T10:14:52Z</time>
      </trkpt>
      <trkpt lat="48.75217" lon="1.98434">
        <ele>166</ele>
        <time>2012-06-10T10:14:57Z</time>
      </trkpt>
      <trkpt lat="48.75213" lon="1.98439">
        <ele>166</ele>
        <time>2012-06-10T10:15:00Z</time>
      </trkpt>
      <trkpt lat="48.75209" lon="1.98445">
        <ele>166</ele>
        <time>2012-06-10T10:15:05Z</time>
      </trkpt>
      <trkpt lat="48.75203" lon="1.98451">
        <ele>166</ele>
        <time>2012-06-10T10:15:08Z</time>
      </trkpt>
      <trkpt lat="48.75198" lon="1.98453">
        <ele>166</ele>
        <time>2012-06-10T10:15:10Z</time>
      </trkpt>
      <trkpt lat="48.75195" lon="1.9846">
        <ele>166</ele>
        <time>2012-06-10T10:15:15Z</time>
      </trkpt>
      <trkpt lat="48.75192" lon="1.98465">
        <ele>166</ele>
        <time>2012-06-10T10:15:18Z</time>
      </trkpt>
      <trkpt lat="48.75189" lon="1.98476">
        <ele>165</ele>
        <time>2012-06-10T10:15:26Z</time>
      </trkpt>
      <trkpt lat="48.75187" lon="1.98483">
        <ele>165</ele>
        <time>2012-06-10T10:15:29Z</time>
      </trkpt>
      <trkpt lat="48.75185" lon="1.9849">
        <ele>165</ele>
        <time>2012-06-10T10:15:33Z</time>
      </trkpt>
      <trkpt lat="48.75182" lon="1.98497">
        <ele>165</ele>
        <time>2012-06-10T10:15:37Z</time>
      </trkpt>
      <trkpt lat="48.7518" lon="1.98504">
        <ele>166</ele>
        <time>2012-06-10T10:15:41Z</time>
      </trkpt>
      <trkpt lat="48.75177" lon="1.9851">
        <ele>166</ele>
        <time>2012-06-10T10:15:45Z</time>
      </trkpt>
      <trkpt lat="48.75173" lon="1.98515">
        <ele>166</ele>
        <time>2012-06-10T10:15:49Z</time>
      </trkpt>
      <trkpt lat="48.75171" lon="1.98521">
        <ele>167</ele>
        <time>2012-06-10T10:15:52Z</time>
      </trkpt>
      <trkpt lat="48.75167" lon="1.98527">
        <ele>167</ele>
        <time>2012-06-10T10:15:55Z</time>
      </trkpt>
      <trkpt lat="48.75164" lon="1.98531">
        <ele>164</ele>
        <time>2012-06-10T10:15:58Z</time>
      </trkpt>
      <trkpt lat="48.75159" lon="1.98532">
        <ele>164</ele>
        <time>2012-06-10T10:16:01Z</time>
      </trkpt>
      <trkpt lat="48.75154" lon="1.98538">
        <ele>164</ele>
        <time>2012-06-10T10:16:06Z</time>
      </trkpt>
      <trkpt lat="48.7515" lon="1.98544">
        <ele>164</ele>
        <time>2012-06-10T10:16:11Z</time>
      </trkpt>
      <trkpt lat="48.75148" lon="1.9855">
        <ele>165</ele>
        <time>2012-06-10T10:16:15Z</time>
      </trkpt>
      <trkpt lat="48.75145" lon="1.98556">
        <ele>165</ele>
        <time>2012-06-10T10:16:18Z</time>
      </trkpt>
      <trkpt lat="48.75145" lon="1.98564">
        <ele>165</ele>
        <time>2012-06-10T10:16:23Z</time>
      </trkpt>
      <trkpt lat="48.75143" lon="1.98571">
        <ele>165</ele>
        <time>2012-06-10T10:16:27Z</time>
      </trkpt>
      <trkpt lat="48.75142" lon="1.98578">
        <ele>165</ele>
        <time>2012-06-10T10:16:31Z</time>
      </trkpt>
      <trkpt lat="48.75143" lon="1.98585">
        <ele>167</ele>
        <time>2012-06-10T10:16:34Z</time>
      </trkpt>
      <trkpt lat="48.75145" lon="1.98591">
        <ele>167</ele>
        <time>2012-06-10T10:16:37Z</time>
      </trkpt>
      <trkpt lat="48.75145" lon="1.98599">
        <ele>167</ele>
        <time>2012-06-10T10:16:41Z</time>
      </trkpt>
      <trkpt lat="48.75146" lon="1.98607">
        <ele>167</ele>
        <time>2012-06-10T10:16:46Z</time>
      </trkpt>
      <trkpt lat="48.75148" lon="1.98614">
        <ele>167</ele>
        <time>2012-06-10T10:16:51Z</time>
      </trkpt>
      <trkpt lat="48.7515" lon="1.98621">
        <ele>168</ele>
        <time>2012-06-10T10:16:55Z</time>
      </trkpt>
      <trkpt lat="48.75148" lon="1.98636">
        <ele>168</ele>
        <time>2012-06-10T10:17:01Z</time>
      </trkpt>
      <trkpt lat="48.75149" lon="1.98644">
        <ele>169</ele>
        <time>2012-06-10T10:17:05Z</time>
      </trkpt>
      <trkpt lat="48.7515" lon="1.98651">
        <ele>169</ele>
        <time>2012-06-10T10:17:08Z</time>
      </trkpt>
      <trkpt lat="48.75148" lon="1.98659">
        <ele>169</ele>
        <time>2012-06-10T10:17:12Z</time>
      </trkpt>
      <trkpt lat="48.75148" lon="1.98667">
        <ele>169</ele>
        <time>2012-06-10T10:17:15Z</time>
      </trkpt>
      <trkpt lat="48.75147" lon="1.98674">
        <ele>171</ele>
        <time>2012-06-10T10:17:19Z</time>
      </trkpt>
      <trkpt lat="48.75147" lon="1.98682">
        <ele>171</ele>
        <time>2012-06-10T10:17:25Z</time>
      </trkpt>
      <trkpt lat="48.75146" lon="1.98689">
        <ele>170</ele>
        <time>2012-06-10T10:17:28Z</time>
      </trkpt>
      <trkpt lat="48.75144" lon="1.98696">
        <ele>170</ele>
        <time>2012-06-10T10:17:31Z</time>
      </trkpt>
      <trkpt lat="48.75145" lon="1.98704">
        <ele>170</ele>
        <time>2012-06-10T10:17:34Z</time>
      </trkpt>
      <trkpt lat="48.75143" lon="1.98712">
        <ele>170</ele>
        <time>2012-06-10T10:17:39Z</time>
      </trkpt>
      <trkpt lat="48.7514" lon="1.98717">
        <ele>170</ele>
        <time>2012-06-10T10:18:06Z</time>
      </trkpt>
      <trkpt lat="48.75144" lon="1.98712">
        <ele>170</ele>
        <time>2012-06-10T10:18:24Z</time>
      </trkpt>
      <trkpt lat="48.7514" lon="1.98724">
        <ele>170</ele>
        <time>2012-06-10T10:18:57Z</time>
      </trkpt>
      <trkpt lat="48.75144" lon="1.98723">
        <ele>171</ele>
        <time>2012-06-10T10:19:57Z</time>
      </trkpt>
      <trkpt lat="48.7515" lon="1.98721">
        <ele>171</ele>
        <time>2012-06-10T10:20:53Z</time>
      </trkpt>
      <trkpt lat="48.75145" lon="1.98724">
        <ele>171</ele>
        <time>2012-06-10T10:21:00Z</time>
      </trkpt>
      <trkpt lat="48.75143" lon="1.9873">
        <ele>171</ele>
        <time>2012-06-10T10:21:14Z</time>
      </trkpt>
      <trkpt lat="48.75144" lon="1.98738">
        <ele>171</ele>
        <time>2012-06-10T10:21:20Z</time>
      </trkpt>
      <trkpt lat="48.75144" lon="1.98746">
        <ele>171</ele>
        <time>2012-06-10T10:21:24Z</time>
      </trkpt>
      <trkpt lat="48.75145" lon="1.98754">
        <ele>172</ele>
        <time>2012-06-10T10:21:29Z</time>
      </trkpt>
      <trkpt lat="48.75145" lon="1.98761">
        <ele>171</ele>
        <time>2012-06-10T10:21:34Z</time>
      </trkpt>
      <trkpt lat="48.75146" lon="1.98768">
        <ele>171</ele>
        <time>2012-06-10T10:21:39Z</time>
      </trkpt>
      <trkpt lat="48.75144" lon="1.98777">
        <ele>171</ele>
        <time>2012-06-10T10:21:43Z</time>
      </trkpt>
      <trkpt lat="48.75143" lon="1.98784">
        <ele>171</ele>
        <time>2012-06-10T10:21:47Z</time>
      </trkpt>
      <trkpt lat="48.75143" lon="1.98793">
        <ele>171</ele>
        <time>2012-06-10T10:21:52Z</time>
      </trkpt>
      <trkpt lat="48.75143" lon="1.98801">
        <ele>171</ele>
        <time>2012-06-10T10:21:55Z</time>
      </trkpt>
      <trkpt lat="48.75146" lon="1.98816">
        <ele>171</ele>
        <time>2012-06-10T10:22:02Z</time>
      </trkpt>
      <trkpt lat="48.75147" lon="1.98822">
        <ele>172</ele>
        <time>2012-06-10T10:22:06Z</time>
      </trkpt>
      <trkpt lat="48.75143" lon="1.98829">
        <ele>172</ele>
        <time>2012-06-10T10:22:10Z</time>
      </trkpt>
      <trkpt lat="48.75142" lon="1.98836">
        <ele>172</ele>
        <time>2012-06-10T10:22:13Z</time>
      </trkpt>
      <trkpt lat="48.75142" lon="1.98845">
        <ele>172</ele>
        <time>2012-06-10T10:22:17Z</time>
      </trkpt>
      <trkpt lat="48.7514" lon="1.98853">
        <ele>172</ele>
        <time>2012-06-10T10:22:21Z</time>
      </trkpt>
      <trkpt lat="48.75139" lon="1.98861">
        <ele>172</ele>
        <time>2012-06-10T10:22:25Z</time>
      </trkpt>
      <trkpt lat="48.7514" lon="1.98869">
        <ele>172</ele>
        <time>2012-06-10T10:22:29Z</time>
      </trkpt>
      <trkpt lat="48.7514" lon="1.98877">
        <ele>172</ele>
        <time>2012-06-10T10:22:33Z</time>
      </trkpt>
      <trkpt lat="48.75142" lon="1.98884">
        <ele>172</ele>
        <time>2012-06-10T10:22:36Z</time>
      </trkpt>
      <trkpt lat="48.75145" lon="1.98892">
        <ele>172</ele>
        <time>2012-06-10T10:22:40Z</time>
      </trkpt>
      <trkpt lat="48.75146" lon="1.98898">
        <ele>172</ele>
        <time>2012-06-10T10:22:43Z</time>
      </trkpt>
      <trkpt lat="48.75146" lon="1.98906">
        <ele>172</ele>
        <time>2012-06-10T10:22:46Z</time>
      </trkpt>
      <trkpt lat="48.75145" lon="1.98914">
        <ele>172</ele>
        <time>2012-06-10T10:22:49Z</time>
      </trkpt>
      <trkpt lat="48.75144" lon="1.98922">
        <ele>172</ele>
        <time>2012-06-10T10:22:52Z</time>
      </trkpt>
      <trkpt lat="48.75144" lon="1.9893">
        <ele>172</ele>
        <time>2012-06-10T10:22:56Z</time>
      </trkpt>
      <trkpt lat="48.75144" lon="1.98939">
        <ele>172</ele>
        <time>2012-06-10T10:23:00Z</time>
      </trkpt>
      <trkpt lat="48.75144" lon="1.98946">
        <ele>172</ele>
        <time>2012-06-10T10:23:04Z</time>
      </trkpt>
      <trkpt lat="48.75144" lon="1.98955">
        <ele>172</ele>
        <time>2012-06-10T10:23:08Z</time>
      </trkpt>
      <trkpt lat="48.75142" lon="1.98963">
        <ele>172</ele>
        <time>2012-06-10T10:23:12Z</time>
      </trkpt>
      <trkpt lat="48.75143" lon="1.98971">
        <ele>172</ele>
        <time>2012-06-10T10:23:16Z</time>
      </trkpt>
      <trkpt lat="48.75141" lon="1.98979">
        <ele>172</ele>
        <time>2012-06-10T10:23:20Z</time>
      </trkpt>
      <trkpt lat="48.7514" lon="1.98986">
        <ele>172</ele>
        <time>2012-06-10T10:23:24Z</time>
      </trkpt>
      <trkpt lat="48.7514" lon="1.98995">
        <ele>172</ele>
        <time>2012-06-10T10:23:28Z</time>
      </trkpt>
      <trkpt lat="48.75139" lon="1.99003">
        <ele>173</ele>
        <time>2012-06-10T10:23:32Z</time>
      </trkpt>
      <trkpt lat="48.75141" lon="1.99011">
        <ele>174</ele>
        <time>2012-06-10T10:23:36Z</time>
      </trkpt>
      <trkpt lat="48.75141" lon="1.99019">
        <ele>174</ele>
        <time>2012-06-10T10:23:40Z</time>
      </trkpt>
      <trkpt lat="48.7514" lon="1.99027">
        <ele>174</ele>
        <time>2012-06-10T10:23:44Z</time>
      </trkpt>
      <trkpt lat="48.75141" lon="1.99035">
        <ele>174</ele>
        <time>2012-06-10T10:23:48Z</time>
      </trkpt>
      <trkpt lat="48.75139" lon="1.99042">
        <ele>174</ele>
        <time>2012-06-10T10:23:52Z</time>
      </trkpt>
      <trkpt lat="48.75138" lon="1.9905">
        <ele>174</ele>
        <time>2012-06-10T10:23:56Z</time>
      </trkpt>
      <trkpt lat="48.75137" lon="1.99058">
        <ele>174</ele>
        <time>2012-06-10T10:23:59Z</time>
      </trkpt>
      <trkpt lat="48.75137" lon="1.99067">
        <ele>174</ele>
        <time>2012-06-10T10:24:03Z</time>
      </trkpt>
      <trkpt lat="48.75138" lon="1.99074">
        <ele>175</ele>
        <time>2012-06-10T10:24:07Z</time>
      </trkpt>
      <trkpt lat="48.75138" lon="1.99081">
        <ele>175</ele>
        <time>2012-06-10T10:24:11Z</time>
      </trkpt>
      <trkpt lat="48.75136" lon="1.99088">
        <ele>176</ele>
        <time>2012-06-10T10:24:15Z</time>
      </trkpt>
      <trkpt lat="48.75137" lon="1.99095">
        <ele>176</ele>
        <time>2012-06-10T10:24:20Z</time>
      </trkpt>
      <trkpt lat="48.75138" lon="1.99102">
        <ele>176</ele>
        <time>2012-06-10T10:24:23Z</time>
      </trkpt>
      <trkpt lat="48.75139" lon="1.9911">
        <ele>176</ele>
        <time>2012-06-10T10:24:27Z</time>
      </trkpt>
      <trkpt lat="48.75141" lon="1.99117">
        <ele>176</ele>
        <time>2012-06-10T10:24:31Z</time>
      </trkpt>
      <trkpt lat="48.75143" lon="1.99123">
        <ele>176</ele>
        <time>2012-06-10T10:24:34Z</time>
      </trkpt>
      <trkpt lat="48.75144" lon="1.99131">
        <ele>176</ele>
        <time>2012-06-10T10:24:38Z</time>
      </trkpt>
      <trkpt lat="48.75144" lon="1.99139">
        <ele>176</ele>
        <time>2012-06-10T10:24:42Z</time>
      </trkpt>
      <trkpt lat="48.75144" lon="1.99147">
        <ele>176</ele>
        <time>2012-06-10T10:24:46Z</time>
      </trkpt>
      <trkpt lat="48.75144" lon="1.99154">
        <ele>176</ele>
        <time>2012-06-10T10:24:49Z</time>
      </trkpt>
      <trkpt lat="48.75142" lon="1.99162">
        <ele>176</ele>
        <time>2012-06-10T10:24:53Z</time>
      </trkpt>
      <trkpt lat="48.7514" lon="1.99168">
        <ele>176</ele>
        <time>2012-06-10T10:24:57Z</time>
      </trkpt>
      <trkpt lat="48.75141" lon="1.99176">
        <ele>176</ele>
        <time>2012-06-10T10:25:01Z</time>
      </trkpt>
      <trkpt lat="48.75143" lon="1.99183">
        <ele>177</ele>
        <time>2012-06-10T10:25:05Z</time>
      </trkpt>
      <trkpt lat="48.75143" lon="1.99191">
        <ele>177</ele>
        <time>2012-06-10T10:25:09Z</time>
      </trkpt>
      <trkpt lat="48.75143" lon="1.99199">
        <ele>177</ele>
        <time>2012-06-10T10:25:12Z</time>
      </trkpt>
      <trkpt lat="48.75141" lon="1.99207">
        <ele>177</ele>
        <time>2012-06-10T10:25:16Z</time>
      </trkpt>
      <trkpt lat="48.7514" lon="1.99214">
        <ele>177</ele>
        <time>2012-06-10T10:25:20Z</time>
      </trkpt>
      <trkpt lat="48.75137" lon="1.99228">
        <ele>177</ele>
        <time>2012-06-10T10:25:27Z</time>
      </trkpt>
      <trkpt lat="48.75138" lon="1.99235">
        <ele>177</ele>
        <time>2012-06-10T10:25:31Z</time>
      </trkpt>
      <trkpt lat="48.75139" lon="1.99243">
        <ele>177</ele>
        <time>2012-06-10T10:25:35Z</time>
      </trkpt>
      <trkpt lat="48.7514" lon="1.99251">
        <ele>178</ele>
        <time>2012-06-10T10:25:38Z</time>
      </trkpt>
      <trkpt lat="48.7514" lon="1.99258">
        <ele>178</ele>
        <time>2012-06-10T10:25:42Z</time>
      </trkpt>
      <trkpt lat="48.75138" lon="1.99265">
        <ele>178</ele>
        <time>2012-06-10T10:25:45Z</time>
      </trkpt>
      <trkpt lat="48.75134" lon="1.99278">
        <ele>177</ele>
        <time>2012-06-10T10:25:51Z</time>
      </trkpt>
      <trkpt lat="48.75134" lon="1.99286">
        <ele>177</ele>
        <time>2012-06-10T10:25:54Z</time>
      </trkpt>
      <trkpt lat="48.75132" lon="1.99295">
        <ele>177</ele>
        <time>2012-06-10T10:25:58Z</time>
      </trkpt>
      <trkpt lat="48.75132" lon="1.99302">
        <ele>177</ele>
        <time>2012-06-10T10:26:01Z</time>
      </trkpt>
      <trkpt lat="48.75132" lon="1.99311">
        <ele>177</ele>
        <time>2012-06-10T10:26:05Z</time>
      </trkpt>
      <trkpt lat="48.75133" lon="1.99319">
        <ele>177</ele>
        <time>2012-06-10T10:26:09Z</time>
      </trkpt>
      <trkpt lat="48.75132" lon="1.99326">
        <ele>177</ele>
        <time>2012-06-10T10:26:13Z</time>
      </trkpt>
      <trkpt lat="48.7513" lon="1.99334">
        <ele>177</ele>
        <time>2012-06-10T10:26:17Z</time>
      </trkpt>
      <trkpt lat="48.7513" lon="1.99341">
        <ele>177</ele>
        <time>2012-06-10T10:26:20Z</time>
      </trkpt>
      <trkpt lat="48.75128" lon="1.99349">
        <ele>177</ele>
        <time>2012-06-10T10:26:24Z</time>
      </trkpt>
      <trkpt lat="48.75128" lon="1.99357">
        <ele>177</ele>
        <time>2012-06-10T10:26:28Z</time>
      </trkpt>
      <trkpt lat="48.75127" lon="1.99365">
        <ele>177</ele>
        <time>2012-06-10T10:26:32Z</time>
      </trkpt>
      <trkpt lat="48.75127" lon="1.99373">
        <ele>177</ele>
        <time>2012-06-10T10:26:36Z</time>
      </trkpt>
      <trkpt lat="48.75128" lon="1.99381">
        <ele>177</ele>
        <time>2012-06-10T10:26:39Z</time>
      </trkpt>
      <trkpt lat="48.75128" lon="1.99389">
        <ele>177</ele>
        <time>2012-06-10T10:26:44Z</time>
      </trkpt>
      <trkpt lat="48.75129" lon="1.99397">
        <ele>177</ele>
        <time>2012-06-10T10:26:47Z</time>
      </trkpt>
      <trkpt lat="48.75126" lon="1.99411">
        <ele>177</ele>
        <time>2012-06-10T10:26:54Z</time>
      </trkpt>
      <trkpt lat="48.75126" lon="1.99418">
        <ele>177</ele>
        <time>2012-06-10T10:26:57Z</time>
      </trkpt>
      <trkpt lat="48.75128" lon="1.99427">
        <ele>177</ele>
        <time>2012-06-10T10:27:01Z</time>
      </trkpt>
      <trkpt lat="48.75131" lon="1.99434">
        <ele>177</ele>
        <time>2012-06-10T10:27:04Z</time>
      </trkpt>
      <trkpt lat="48.75132" lon="1.99448">
        <ele>177</ele>
        <time>2012-06-10T10:27:12Z</time>
      </trkpt>
      <trkpt lat="48.75132" lon="1.99455">
        <ele>177</ele>
        <time>2012-06-10T10:27:16Z</time>
      </trkpt>
      <trkpt lat="48.75131" lon="1.99463">
        <ele>176</ele>
        <time>2012-06-10T10:27:20Z</time>
      </trkpt>
      <trkpt lat="48.7513" lon="1.99477">
        <ele>176</ele>
        <time>2012-06-10T10:27:30Z</time>
      </trkpt>
      <trkpt lat="48.75129" lon="1.99484">
        <ele>176</ele>
        <time>2012-06-10T10:27:33Z</time>
      </trkpt>
      <trkpt lat="48.7513" lon="1.99497">
        <ele>176</ele>
        <time>2012-06-10T10:27:40Z</time>
      </trkpt>
      <trkpt lat="48.75129" lon="1.99505">
        <ele>176</ele>
        <time>2012-06-10T10:27:43Z</time>
      </trkpt>
      <trkpt lat="48.75129" lon="1.99513">
        <ele>176</ele>
        <time>2012-06-10T10:27:46Z</time>
      </trkpt>
      <trkpt lat="48.75129" lon="1.9952">
        <ele>176</ele>
        <time>2012-06-10T10:27:51Z</time>
      </trkpt>
      <trkpt lat="48.75128" lon="1.99528">
        <ele>176</ele>
        <time>2012-06-10T10:27:54Z</time>
      </trkpt>
      <trkpt lat="48.75127" lon="1.99535">
        <ele>176</ele>
        <time>2012-06-10T10:27:58Z</time>
      </trkpt>
      <trkpt lat="48.75127" lon="1.99543">
        <ele>176</ele>
        <time>2012-06-10T10:28:02Z</time>
      </trkpt>
      <trkpt lat="48.75127" lon="1.99551">
        <ele>176</ele>
        <time>2012-06-10T10:28:06Z</time>
      </trkpt>
      <trkpt lat="48.75125" lon="1.99558">
        <ele>176</ele>
        <time>2012-06-10T10:28:09Z</time>
      </trkpt>
      <trkpt lat="48.75123" lon="1.99566">
        <ele>176</ele>
        <time>2012-06-10T10:28:12Z</time>
      </trkpt>
      <trkpt lat="48.7512" lon="1.99573">
        <ele>176</ele>
        <time>2012-06-10T10:28:15Z</time>
      </trkpt>
      <trkpt lat="48.75117" lon="1.99579">
        <ele>176</ele>
        <time>2012-06-10T10:28:20Z</time>
      </trkpt>
      <trkpt lat="48.75113" lon="1.99586">
        <ele>176</ele>
        <time>2012-06-10T10:28:23Z</time>
      </trkpt>
      <trkpt lat="48.75109" lon="1.99592">
        <ele>176</ele>
        <time>2012-06-10T10:28:27Z</time>
      </trkpt>
      <trkpt lat="48.75105" lon="1.99597">
        <ele>176</ele>
        <time>2012-06-10T10:28:32Z</time>
      </trkpt>
      <trkpt lat="48.75101" lon="1.99601">
        <ele>176</ele>
        <time>2012-06-10T10:28:35Z</time>
      </trkpt>
      <trkpt lat="48.75097" lon="1.99606">
        <ele>176</ele>
        <time>2012-06-10T10:28:38Z</time>
      </trkpt>
      <trkpt lat="48.75094" lon="1.99611">
        <ele>176</ele>
        <time>2012-06-10T10:28:42Z</time>
      </trkpt>
      <trkpt lat="48.75087" lon="1.99621">
        <ele>176</ele>
        <time>2012-06-10T10:28:50Z</time>
      </trkpt>
      <trkpt lat="48.75083" lon="1.99625">
        <ele>176</ele>
        <time>2012-06-10T10:28:54Z</time>
      </trkpt>
      <trkpt lat="48.75079" lon="1.99631">
        <ele>176</ele>
        <time>2012-06-10T10:28:58Z</time>
      </trkpt>
      <trkpt lat="48.75076" lon="1.99637">
        <ele>176</ele>
        <time>2012-06-10T10:29:01Z</time>
      </trkpt>
      <trkpt lat="48.75071" lon="1.99642">
        <ele>176</ele>
        <time>2012-06-10T10:29:05Z</time>
      </trkpt>
      <trkpt lat="48.75067" lon="1.99646">
        <ele>176</ele>
        <time>2012-06-10T10:29:09Z</time>
      </trkpt>
      <trkpt lat="48.75064" lon="1.99653">
        <ele>176</ele>
        <time>2012-06-10T10:29:13Z</time>
      </trkpt>
      <trkpt lat="48.7506" lon="1.99658">
        <ele>176</ele>
        <time>2012-06-10T10:29:18Z</time>
      </trkpt>
      <trkpt lat="48.75056" lon="1.99664">
        <ele>176</ele>
        <time>2012-06-10T10:29:21Z</time>
      </trkpt>
      <trkpt lat="48.75053" lon="1.9967">
        <ele>176</ele>
        <time>2012-06-10T10:29:25Z</time>
      </trkpt>
      <trkpt lat="48.75049" lon="1.99676">
        <ele>176</ele>
        <time>2012-06-10T10:29:29Z</time>
      </trkpt>
      <trkpt lat="48.75045" lon="1.9968">
        <ele>175</ele>
        <time>2012-06-10T10:29:34Z</time>
      </trkpt>
      <trkpt lat="48.75042" lon="1.99684">
        <ele>175</ele>
        <time>2012-06-10T10:29:37Z</time>
      </trkpt>
      <trkpt lat="48.75038" lon="1.99689">
        <ele>175</ele>
        <time>2012-06-10T10:29:41Z</time>
      </trkpt>
      <trkpt lat="48.75035" lon="1.99695">
        <ele>175</ele>
        <time>2012-06-10T10:29:45Z</time>
      </trkpt>
      <trkpt lat="48.75031" lon="1.99699">
        <ele>175</ele>
        <time>2012-06-10T10:29:48Z</time>
      </trkpt>
      <trkpt lat="48.75028" lon="1.99705">
        <ele>175</ele>
        <time>2012-06-10T10:29:51Z</time>
      </trkpt>
      <trkpt lat="48.75024" lon="1.99709">
        <ele>175</ele>
        <time>2012-06-10T10:29:55Z</time>
      </trkpt>
      <trkpt lat="48.7502" lon="1.99714">
        <ele>175</ele>
        <time>2012-06-10T10:29:59Z</time>
      </trkpt>
      <trkpt lat="48.75016" lon="1.99719">
        <ele>175</ele>
        <time>2012-06-10T10:30:03Z</time>
      </trkpt>
      <trkpt lat="48.75013" lon="1.99726">
        <ele>175</ele>
        <time>2012-06-10T10:30:10Z</time>
      </trkpt>
      <trkpt lat="48.75006" lon="1.99736">
        <ele>175</ele>
        <time>2012-06-10T10:30:18Z</time>
      </trkpt>
      <trkpt lat="48.75003" lon="1.99741">
        <ele>174</ele>
        <time>2012-06-10T10:30:22Z</time>
      </trkpt>
      <trkpt lat="48.74999" lon="1.99747">
        <ele>174</ele>
        <time>2012-06-10T10:30:25Z</time>
      </trkpt>
      <trkpt lat="48.74996" lon="1.99753">
        <ele>174</ele>
        <time>2012-06-10T10:30:28Z</time>
      </trkpt>
      <trkpt lat="48.74993" lon="1.9976">
        <ele>173</ele>
        <time>2012-06-10T10:30:32Z</time>
      </trkpt>
      <trkpt lat="48.74989" lon="1.99764">
        <ele>173</ele>
        <time>2012-06-10T10:30:36Z</time>
      </trkpt>
      <trkpt lat="48.74984" lon="1.99769">
        <ele>173</ele>
        <time>2012-06-10T10:30:40Z</time>
      </trkpt>
      <trkpt lat="48.7498" lon="1.99774">
        <ele>173</ele>
        <time>2012-06-10T10:30:43Z</time>
      </trkpt>
      <trkpt lat="48.74975" lon="1.99778">
        <ele>173</ele>
        <time>2012-06-10T10:30:48Z</time>
      </trkpt>
      <trkpt lat="48.74971" lon="1.99783">
        <ele>173</ele>
        <time>2012-06-10T10:30:51Z</time>
      </trkpt>
      <trkpt lat="48.74965" lon="1.99794">
        <ele>173</ele>
        <time>2012-06-10T10:30:58Z</time>
      </trkpt>
      <trkpt lat="48.7496" lon="1.99798">
        <ele>173</ele>
        <time>2012-06-10T10:31:03Z</time>
      </trkpt>
      <trkpt lat="48.74956" lon="1.99802">
        <ele>172</ele>
        <time>2012-06-10T10:31:05Z</time>
      </trkpt>
      <trkpt lat="48.74948" lon="1.9981">
        <ele>172</ele>
        <time>2012-06-10T10:31:12Z</time>
      </trkpt>
      <trkpt lat="48.74945" lon="1.99817">
        <ele>172</ele>
        <time>2012-06-10T10:31:15Z</time>
      </trkpt>
      <trkpt lat="48.74943" lon="1.99824">
        <ele>172</ele>
        <time>2012-06-10T10:31:19Z</time>
      </trkpt>
      <trkpt lat="48.7494" lon="1.9983">
        <ele>172</ele>
        <time>2012-06-10T10:31:23Z</time>
      </trkpt>
      <trkpt lat="48.74937" lon="1.99836">
        <ele>171</ele>
        <time>2012-06-10T10:31:27Z</time>
      </trkpt>
      <trkpt lat="48.74934" lon="1.99841">
        <ele>171</ele>
        <time>2012-06-10T10:31:29Z</time>
      </trkpt>
      <trkpt lat="48.7493" lon="1.99846">
        <ele>171</ele>
        <time>2012-06-10T10:31:34Z</time>
      </trkpt>
      <trkpt lat="48.74929" lon="1.99854">
        <ele>171</ele>
        <time>2012-06-10T10:31:38Z</time>
      </trkpt>
      <trkpt lat="48.74924" lon="1.99859">
        <ele>171</ele>
        <time>2012-06-10T10:31:42Z</time>
      </trkpt>
      <trkpt lat="48.74921" lon="1.99864">
        <ele>172</ele>
        <time>2012-06-10T10:31:46Z</time>
      </trkpt>
      <trkpt lat="48.74916" lon="1.99869">
        <ele>164</ele>
        <time>2012-06-10T10:31:50Z</time>
      </trkpt>
      <trkpt lat="48.74911" lon="1.99874">
        <ele>163</ele>
        <time>2012-06-10T10:31:54Z</time>
      </trkpt>
      <trkpt lat="48.74908" lon="1.9988">
        <ele>163</ele>
        <time>2012-06-10T10:31:57Z</time>
      </trkpt>
      <trkpt lat="48.74905" lon="1.99887">
        <ele>163</ele>
        <time>2012-06-10T10:32:02Z</time>
      </trkpt>
      <trkpt lat="48.74902" lon="1.99895">
        <ele>163</ele>
        <time>2012-06-10T10:32:08Z</time>
      </trkpt>
      <trkpt lat="48.74899" lon="1.99902">
        <ele>164</ele>
        <time>2012-06-10T10:32:12Z</time>
      </trkpt>
      <trkpt lat="48.74895" lon="1.99906">
        <ele>163</ele>
        <time>2012-06-10T10:32:16Z</time>
      </trkpt>
      <trkpt lat="48.74891" lon="1.99911">
        <ele>163</ele>
        <time>2012-06-10T10:32:20Z</time>
      </trkpt>
      <trkpt lat="48.74889" lon="1.99918">
        <ele>163</ele>
        <time>2012-06-10T10:32:25Z</time>
      </trkpt>
      <trkpt lat="48.74887" lon="1.99925">
        <ele>162</ele>
        <time>2012-06-10T10:32:29Z</time>
      </trkpt>
      <trkpt lat="48.74882" lon="1.99929">
        <ele>161</ele>
        <time>2012-06-10T10:32:35Z</time>
      </trkpt>
      <trkpt lat="48.74877" lon="1.99931">
        <ele>161</ele>
        <time>2012-06-10T10:32:40Z</time>
      </trkpt>
      <trkpt lat="48.74871" lon="1.99934">
        <ele>160</ele>
        <time>2012-06-10T10:32:44Z</time>
      </trkpt>
      <trkpt lat="48.74867" lon="1.99939">
        <ele>159</ele>
        <time>2012-06-10T10:32:48Z</time>
      </trkpt>
      <trkpt lat="48.74862" lon="1.99942">
        <ele>158</ele>
        <time>2012-06-10T10:32:53Z</time>
      </trkpt>
      <trkpt lat="48.74858" lon="1.99944">
        <ele>158</ele>
        <time>2012-06-10T10:32:57Z</time>
      </trkpt>
      <trkpt lat="48.74853" lon="1.99947">
        <ele>158</ele>
        <time>2012-06-10T10:33:04Z</time>
      </trkpt>
      <trkpt lat="48.74849" lon="1.99952">
        <ele>157</ele>
        <time>2012-06-10T10:33:09Z</time>
      </trkpt>
      <trkpt lat="48.74841" lon="1.99952">
        <ele>157</ele>
        <time>2012-06-10T10:33:21Z</time>
      </trkpt>
      <trkpt lat="48.74841" lon="1.9996">
        <ele>157</ele>
        <time>2012-06-10T10:33:25Z</time>
      </trkpt>
      <trkpt lat="48.74846" lon="1.99975">
        <ele>157</ele>
        <time>2012-06-10T10:33:36Z</time>
      </trkpt>
      <trkpt lat="48.74848" lon="1.99981">
        <ele>157</ele>
        <time>2012-06-10T10:33:40Z</time>
      </trkpt>
      <trkpt lat="48.74846" lon="1.99988">
        <ele>156</ele>
        <time>2012-06-10T10:33:44Z</time>
      </trkpt>
      <trkpt lat="48.74844" lon="1.99999">
        <ele>155</ele>
        <time>2012-06-10T10:33:54Z</time>
      </trkpt>
      <trkpt lat="48.74848" lon="2.00005">
        <ele>157</ele>
        <time>2012-06-10T10:33:59Z</time>
      </trkpt>
      <trkpt lat="48.74852" lon="2.0001">
        <ele>159</ele>
        <time>2012-06-10T10:34:02Z</time>
      </trkpt>
      <trkpt lat="48.74852" lon="2.00018">
        <ele>159</ele>
        <time>2012-06-10T10:34:08Z</time>
      </trkpt>
      <trkpt lat="48.74847" lon="2.00025">
        <ele>159</ele>
        <time>2012-06-10T10:34:11Z</time>
      </trkpt>
      <trkpt lat="48.74846" lon="2.00032">
        <ele>160</ele>
        <time>2012-06-10T10:34:15Z</time>
      </trkpt>
      <trkpt lat="48.74848" lon="2.0004">
        <ele>161</ele>
        <time>2012-06-10T10:34:20Z</time>
      </trkpt>
      <trkpt lat="48.7485" lon="2.00046">
        <ele>161</ele>
        <time>2012-06-10T10:34:24Z</time>
      </trkpt>
      <trkpt lat="48.74852" lon="2.00053">
        <ele>162</ele>
        <time>2012-06-10T10:34:28Z</time>
      </trkpt>
      <trkpt lat="48.74853" lon="2.0006">
        <ele>162</ele>
        <time>2012-06-10T10:34:33Z</time>
      </trkpt>
      <trkpt lat="48.74854" lon="2.00068">
        <ele>162</ele>
        <time>2012-06-10T10:34:38Z</time>
      </trkpt>
      <trkpt lat="48.74853" lon="2.00081">
        <ele>161</ele>
        <time>2012-06-10T10:34:49Z</time>
      </trkpt>
      <trkpt lat="48.74849" lon="2.00087">
        <ele>162</ele>
        <time>2012-06-10T10:34:53Z</time>
      </trkpt>
      <trkpt lat="48.7485" lon="2.00094">
        <ele>163</ele>
        <time>2012-06-10T10:34:59Z</time>
      </trkpt>
      <trkpt lat="48.74854" lon="2.00101">
        <ele>164</ele>
        <time>2012-06-10T10:35:04Z</time>
      </trkpt>
      <trkpt lat="48.74851" lon="2.00108">
        <ele>164</ele>
        <time>2012-06-10T10:35:08Z</time>
      </trkpt>
      <trkpt lat="48.74849" lon="2.00115">
        <ele>165</ele>
        <time>2012-06-10T10:35:13Z</time>
      </trkpt>
      <trkpt lat="48.74845" lon="2.00129">
        <ele>165</ele>
        <time>2012-06-10T10:35:20Z</time>
      </trkpt>
      <trkpt lat="48.74844" lon="2.00136">
        <ele>165</ele>
        <time>2012-06-10T10:35:23Z</time>
      </trkpt>
      <trkpt lat="48.74842" lon="2.00144">
        <ele>165</ele>
        <time>2012-06-10T10:35:28Z</time>
      </trkpt>
      <trkpt lat="48.74842" lon="2.00151">
        <ele>165</ele>
        <time>2012-06-10T10:35:33Z</time>
      </trkpt>
      <trkpt lat="48.74841" lon="2.00159">
        <ele>164</ele>
        <time>2012-06-10T10:35:37Z</time>
      </trkpt>
      <trkpt lat="48.74838" lon="2.00166">
        <ele>164</ele>
        <time>2012-06-10T10:35:41Z</time>
      </trkpt>
      <trkpt lat="48.74835" lon="2.00172">
        <ele>164</ele>
        <time>2012-06-10T10:35:45Z</time>
      </trkpt>
      <trkpt lat="48.74831" lon="2.00178">
        <ele>160</ele>
        <time>2012-06-10T10:35:48Z</time>
      </trkpt>
      <trkpt lat="48.74829" lon="2.00185">
        <ele>159</ele>
        <time>2012-06-10T10:35:53Z</time>
      </trkpt>
      <trkpt lat="48.74826" lon="2.0019">
        <ele>159</ele>
        <time>2012-06-10T10:35:57Z</time>
      </trkpt>
      <trkpt lat="48.74822" lon="2.00196">
        <ele>158</ele>
        <time>2012-06-10T10:36:00Z</time>
      </trkpt>
      <trkpt lat="48.74819" lon="2.00202">
        <ele>158</ele>
        <time>2012-06-10T10:36:04Z</time>
      </trkpt>
      <trkpt lat="48.74816" lon="2.00208">
        <ele>158</ele>
        <time>2012-06-10T10:36:08Z</time>
      </trkpt>
      <trkpt lat="48.74812" lon="2.00215">
        <ele>158</ele>
        <time>2012-06-10T10:36:12Z</time>
      </trkpt>
      <trkpt lat="48.74809" lon="2.00218">
        <ele>158</ele>
        <time>2012-06-10T10:36:15Z</time>
      </trkpt>
      <trkpt lat="48.74804" lon="2.00222">
        <ele>157</ele>
        <time>2012-06-10T10:36:19Z</time>
      </trkpt>
      <trkpt lat="48.74799" lon="2.00224">
        <ele>157</ele>
        <time>2012-06-10T10:36:24Z</time>
      </trkpt>
      <trkpt lat="48.74794" lon="2.00224">
        <ele>156</ele>
        <time>2012-06-10T10:36:28Z</time>
      </trkpt>
      <trkpt lat="48.74786" lon="2.00221">
        <ele>155</ele>
        <time>2012-06-10T10:36:44Z</time>
      </trkpt>
      <trkpt lat="48.74781" lon="2.00219">
        <ele>154</ele>
        <time>2012-06-10T10:36:51Z</time>
      </trkpt>
      <trkpt lat="48.74777" lon="2.00223">
        <ele>154</ele>
        <time>2012-06-10T10:37:01Z</time>
      </trkpt>
      <trkpt lat="48.74772" lon="2.00223">
        <ele>153</ele>
        <time>2012-06-10T10:37:09Z</time>
      </trkpt>
      <trkpt lat="48.74768" lon="2.00227">
        <ele>153</ele>
        <time>2012-06-10T10:37:14Z</time>
      </trkpt>
      <trkpt lat="48.74764" lon="2.00229">
        <ele>152</ele>
        <time>2012-06-10T10:37:22Z</time>
      </trkpt>
      <trkpt lat="48.74755" lon="2.00235">
        <ele>151</ele>
        <time>2012-06-10T10:37:32Z</time>
      </trkpt>
      <trkpt lat="48.74753" lon="2.00242">
        <ele>150</ele>
        <time>2012-06-10T10:37:37Z</time>
      </trkpt>
      <trkpt lat="48.74754" lon="2.0025">
        <ele>149</ele>
        <time>2012-06-10T10:37:41Z</time>
      </trkpt>
      <trkpt lat="48.74754" lon="2.00257">
        <ele>150</ele>
        <time>2012-06-10T10:37:45Z</time>
      </trkpt>
      <trkpt lat="48.74754" lon="2.00265">
        <ele>152</ele>
        <time>2012-06-10T10:37:51Z</time>
      </trkpt>
      <trkpt lat="48.74757" lon="2.00271">
        <ele>152</ele>
        <time>2012-06-10T10:37:57Z</time>
      </trkpt>
      <trkpt lat="48.7476" lon="2.00277">
        <ele>153</ele>
        <time>2012-06-10T10:38:01Z</time>
      </trkpt>
      <trkpt lat="48.74764" lon="2.00283">
        <ele>153</ele>
        <time>2012-06-10T10:38:05Z</time>
      </trkpt>
      <trkpt lat="48.74768" lon="2.00288">
        <ele>154</ele>
        <time>2012-06-10T10:38:10Z</time>
      </trkpt>
      <trkpt lat="48.74771" lon="2.00295">
        <ele>154</ele>
        <time>2012-06-10T10:38:15Z</time>
      </trkpt>
      <trkpt lat="48.74772" lon="2.00302">
        <ele>154</ele>
        <time>2012-06-10T10:38:21Z</time>
      </trkpt>
      <trkpt lat="48.74772" lon="2.00308">
        <ele>153</ele>
        <time>2012-06-10T10:38:25Z</time>
      </trkpt>
      <trkpt lat="48.74768" lon="2.00314">
        <ele>152</ele>
        <time>2012-06-10T10:38:29Z</time>
      </trkpt>
      <trkpt lat="48.7477" lon="2.00321">
        <ele>152</ele>
        <time>2012-06-10T10:38:35Z</time>
      </trkpt>
      <trkpt lat="48.74771" lon="2.00329">
        <ele>152</ele>
        <time>2012-06-10T10:38:40Z</time>
      </trkpt>
      <trkpt lat="48.7477" lon="2.00337">
        <ele>150</ele>
        <time>2012-06-10T10:38:45Z</time>
      </trkpt>
      <trkpt lat="48.74772" lon="2.00344">
        <ele>151</ele>
        <time>2012-06-10T10:38:49Z</time>
      </trkpt>
      <trkpt lat="48.74773" lon="2.00351">
        <ele>151</ele>
        <time>2012-06-10T10:38:53Z</time>
      </trkpt>
      <trkpt lat="48.74774" lon="2.00359">
        <ele>152</ele>
        <time>2012-06-10T10:38:59Z</time>
      </trkpt>
      <trkpt lat="48.74771" lon="2.00364">
        <ele>151</ele>
        <time>2012-06-10T10:39:08Z</time>
      </trkpt>
      <trkpt lat="48.74771" lon="2.00373">
        <ele>151</ele>
        <time>2012-06-10T10:39:13Z</time>
      </trkpt>
      <trkpt lat="48.74771" lon="2.00387">
        <ele>151</ele>
        <time>2012-06-10T10:39:23Z</time>
      </trkpt>
      <trkpt lat="48.74772" lon="2.00395">
        <ele>150</ele>
        <time>2012-06-10T10:39:27Z</time>
      </trkpt>
      <trkpt lat="48.74773" lon="2.00402">
        <ele>150</ele>
        <time>2012-06-10T10:39:32Z</time>
      </trkpt>
      <trkpt lat="48.74777" lon="2.00408">
        <ele>151</ele>
        <time>2012-06-10T10:39:36Z</time>
      </trkpt>
      <trkpt lat="48.74777" lon="2.00415">
        <ele>150</ele>
        <time>2012-06-10T10:39:40Z</time>
      </trkpt>
      <trkpt lat="48.74776" lon="2.00422">
        <ele>149</ele>
        <time>2012-06-10T10:39:45Z</time>
      </trkpt>
      <trkpt lat="48.74774" lon="2.00431">
        <ele>149</ele>
        <time>2012-06-10T10:39:50Z</time>
      </trkpt>
      <trkpt lat="48.74775" lon="2.00438">
        <ele>150</ele>
        <time>2012-06-10T10:39:55Z</time>
      </trkpt>
      <trkpt lat="48.74776" lon="2.00446">
        <ele>150</ele>
        <time>2012-06-10T10:40:01Z</time>
      </trkpt>
      <trkpt lat="48.74777" lon="2.00453">
        <ele>151</ele>
        <time>2012-06-10T10:40:07Z</time>
      </trkpt>
      <trkpt lat="48.74778" lon="2.0046">
        <ele>151</ele>
        <time>2012-06-10T10:40:11Z</time>
      </trkpt>
      <trkpt lat="48.74774" lon="2.00466">
        <ele>150</ele>
        <time>2012-06-10T10:40:18Z</time>
      </trkpt>
      <trkpt lat="48.74771" lon="2.00471">
        <ele>149</ele>
        <time>2012-06-10T10:40:24Z</time>
      </trkpt>
      <trkpt lat="48.7477" lon="2.00479">
        <ele>149</ele>
        <time>2012-06-10T10:40:28Z</time>
      </trkpt>
      <trkpt lat="48.74769" lon="2.00486">
        <ele>148</ele>
        <time>2012-06-10T10:40:31Z</time>
      </trkpt>
      <trkpt lat="48.7477" lon="2.00495">
        <ele>147</ele>
        <time>2012-06-10T10:40:35Z</time>
      </trkpt>
      <trkpt lat="48.74768" lon="2.00502">
        <ele>147</ele>
        <time>2012-06-10T10:40:41Z</time>
      </trkpt>
      <trkpt lat="48.74765" lon="2.00507">
        <ele>146</ele>
        <time>2012-06-10T10:40:44Z</time>
      </trkpt>
      <trkpt lat="48.74765" lon="2.00515">
        <ele>147</ele>
        <time>2012-06-10T10:40:48Z</time>
      </trkpt>
      <trkpt lat="48.74765" lon="2.00523">
        <ele>148</ele>
        <time>2012-06-10T10:40:52Z</time>
      </trkpt>
      <trkpt lat="48.74763" lon="2.0053">
        <ele>148</ele>
        <time>2012-06-10T10:40:56Z</time>
      </trkpt>
      <trkpt lat="48.74759" lon="2.00533">
        <ele>148</ele>
        <time>2012-06-10T10:41:00Z</time>
      </trkpt>
      <trkpt lat="48.74759" lon="2.0054">
        <ele>148</ele>
        <time>2012-06-10T10:41:06Z</time>
      </trkpt>
      <trkpt lat="48.74757" lon="2.00547">
        <ele>148</ele>
        <time>2012-06-10T10:41:11Z</time>
      </trkpt>
      <trkpt lat="48.74753" lon="2.00553">
        <ele>147</ele>
        <time>2012-06-10T10:41:16Z</time>
      </trkpt>
      <trkpt lat="48.7475" lon="2.00559">
        <ele>146</ele>
        <time>2012-06-10T10:41:20Z</time>
      </trkpt>
      <trkpt lat="48.74748" lon="2.00566">
        <ele>139</ele>
        <time>2012-06-10T10:41:25Z</time>
      </trkpt>
      <trkpt lat="48.74749" lon="2.00573">
        <ele>139</ele>
        <time>2012-06-10T10:41:28Z</time>
      </trkpt>
      <trkpt lat="48.74747" lon="2.00581">
        <ele>139</ele>
        <time>2012-06-10T10:41:32Z</time>
      </trkpt>
      <trkpt lat="48.74745" lon="2.00587">
        <ele>139</ele>
        <time>2012-06-10T10:41:37Z</time>
      </trkpt>
      <trkpt lat="48.74745" lon="2.00595">
        <ele>139</ele>
        <time>2012-06-10T10:41:44Z</time>
      </trkpt>
      <trkpt lat="48.74744" lon="2.00603">
        <ele>139</ele>
        <time>2012-06-10T10:41:47Z</time>
      </trkpt>
      <trkpt lat="48.74741" lon="2.00617">
        <ele>140</ele>
        <time>2012-06-10T10:41:59Z</time>
      </trkpt>
      <trkpt lat="48.74741" lon="2.00624">
        <ele>140</ele>
        <time>2012-06-10T10:42:05Z</time>
      </trkpt>
      <trkpt lat="48.74741" lon="2.00631">
        <ele>140</ele>
        <time>2012-06-10T10:42:13Z</time>
      </trkpt>
      <trkpt lat="48.74739" lon="2.00639">
        <ele>141</ele>
        <time>2012-06-10T10:42:18Z</time>
      </trkpt>
      <trkpt lat="48.74738" lon="2.00646">
        <ele>141</ele>
        <time>2012-06-10T10:42:22Z</time>
      </trkpt>
      <trkpt lat="48.74738" lon="2.00653">
        <ele>142</ele>
        <time>2012-06-10T10:42:27Z</time>
      </trkpt>
      <trkpt lat="48.74735" lon="2.0066">
        <ele>142</ele>
        <time>2012-06-10T10:42:32Z</time>
      </trkpt>
      <trkpt lat="48.74733" lon="2.00667">
        <ele>142</ele>
        <time>2012-06-10T10:42:36Z</time>
      </trkpt>
      <trkpt lat="48.74733" lon="2.00674">
        <ele>144</ele>
        <time>2012-06-10T10:42:44Z</time>
      </trkpt>
      <trkpt lat="48.74734" lon="2.00682">
        <ele>144</ele>
        <time>2012-06-10T10:42:49Z</time>
      </trkpt>
      <trkpt lat="48.74731" lon="2.00688">
        <ele>144</ele>
        <time>2012-06-10T10:42:55Z</time>
      </trkpt>
      <trkpt lat="48.74728" lon="2.00695">
        <ele>144</ele>
        <time>2012-06-10T10:43:00Z</time>
      </trkpt>
      <trkpt lat="48.74724" lon="2.007">
        <ele>144</ele>
        <time>2012-06-10T10:43:05Z</time>
      </trkpt>
      <trkpt lat="48.7472" lon="2.00707">
        <ele>144</ele>
        <time>2012-06-10T10:43:12Z</time>
      </trkpt>
      <trkpt lat="48.74719" lon="2.00715">
        <ele>144</ele>
        <time>2012-06-10T10:43:18Z</time>
      </trkpt>
      <trkpt lat="48.74714" lon="2.00719">
        <ele>144</ele>
        <time>2012-06-10T10:43:23Z</time>
      </trkpt>
      <trkpt lat="48.74709" lon="2.00725">
        <ele>144</ele>
        <time>2012-06-10T10:43:27Z</time>
      </trkpt>
      <trkpt lat="48.74706" lon="2.0073">
        <ele>143</ele>
        <time>2012-06-10T10:43:30Z</time>
      </trkpt>
      <trkpt lat="48.747" lon="2.00741">
        <ele>143</ele>
        <time>2012-06-10T10:43:38Z</time>
      </trkpt>
      <trkpt lat="48.74696" lon="2.00746">
        <ele>142</ele>
        <time>2012-06-10T10:43:41Z</time>
      </trkpt>
      <trkpt lat="48.74692" lon="2.00751">
        <ele>144</ele>
        <time>2012-06-10T10:43:45Z</time>
      </trkpt>
      <trkpt lat="48.74691" lon="2.00758">
        <ele>144</ele>
        <time>2012-06-10T10:43:50Z</time>
      </trkpt>
      <trkpt lat="48.74687" lon="2.00763">
        <ele>144</ele>
        <time>2012-06-10T10:43:54Z</time>
      </trkpt>
      <trkpt lat="48.74683" lon="2.00769">
        <ele>144</ele>
        <time>2012-06-10T10:43:58Z</time>
      </trkpt>
      <trkpt lat="48.74679" lon="2.00775">
        <ele>144</ele>
        <time>2012-06-10T10:44:02Z</time>
      </trkpt>
      <trkpt lat="48.74675" lon="2.0078">
        <ele>144</ele>
        <time>2012-06-10T10:44:06Z</time>
      </trkpt>
      <trkpt lat="48.74672" lon="2.00785">
        <ele>145</ele>
        <time>2012-06-10T10:44:12Z</time>
      </trkpt>
      <trkpt lat="48.74669" lon="2.00792">
        <ele>145</ele>
        <time>2012-06-10T10:44:18Z</time>
      </trkpt>
      <trkpt lat="48.74666" lon="2.00798">
        <ele>135</ele>
        <time>2012-06-10T10:44:22Z</time>
      </trkpt>
      <trkpt lat="48.74664" lon="2.00805">
        <ele>136</ele>
        <time>2012-06-10T10:44:26Z</time>
      </trkpt>
      <trkpt lat="48.7466" lon="2.00819">
        <ele>137</ele>
        <time>2012-06-10T10:44:35Z</time>
      </trkpt>
      <trkpt lat="48.74661" lon="2.00827">
        <ele>138</ele>
        <time>2012-06-10T10:44:39Z</time>
      </trkpt>
      <trkpt lat="48.74659" lon="2.00834">
        <ele>139</ele>
        <time>2012-06-10T10:44:44Z</time>
      </trkpt>
      <trkpt lat="48.74661" lon="2.00841">
        <ele>138</ele>
        <time>2012-06-10T10:44:49Z</time>
      </trkpt>
      <trkpt lat="48.74664" lon="2.00849">
        <ele>138</ele>
        <time>2012-06-10T10:44:54Z</time>
      </trkpt>
      <trkpt lat="48.74668" lon="2.00854">
        <ele>146</ele>
        <time>2012-06-10T10:44:58Z</time>
      </trkpt>
      <trkpt lat="48.74672" lon="2.00858">
        <ele>147</ele>
        <time>2012-06-10T10:45:04Z</time>
      </trkpt>
      <trkpt lat="48.74675" lon="2.00864">
        <ele>148</ele>
        <time>2012-06-10T10:45:08Z</time>
      </trkpt>
      <trkpt lat="48.74679" lon="2.0087">
        <ele>148</ele>
        <time>2012-06-10T10:45:12Z</time>
      </trkpt>
      <trkpt lat="48.74681" lon="2.00876">
        <ele>148</ele>
        <time>2012-06-10T10:45:16Z</time>
      </trkpt>
      <trkpt lat="48.7468" lon="2.00885">
        <ele>148</ele>
        <time>2012-06-10T10:45:21Z</time>
      </trkpt>
      <trkpt lat="48.7468" lon="2.00893">
        <ele>148</ele>
        <time>2012-06-10T10:45:27Z</time>
      </trkpt>
      <trkpt lat="48.7468" lon="2.00901">
        <ele>147</ele>
        <time>2012-06-10T10:45:31Z</time>
      </trkpt>
      <trkpt lat="48.74677" lon="2.00907">
        <ele>145</ele>
        <time>2012-06-10T10:45:35Z</time>
      </trkpt>
      <trkpt lat="48.74674" lon="2.00913">
        <ele>143</ele>
        <time>2012-06-10T10:45:38Z</time>
      </trkpt>
      <trkpt lat="48.74672" lon="2.0092">
        <ele>142</ele>
        <time>2012-06-10T10:45:42Z</time>
      </trkpt>
      <trkpt lat="48.74671" lon="2.00927">
        <ele>143</ele>
        <time>2012-06-10T10:45:46Z</time>
      </trkpt>
      <trkpt lat="48.74671" lon="2.00934">
        <ele>145</ele>
        <time>2012-06-10T10:45:51Z</time>
      </trkpt>
      <trkpt lat="48.74671" lon="2.00941">
        <ele>145</ele>
        <time>2012-06-10T10:45:56Z</time>
      </trkpt>
      <trkpt lat="48.74673" lon="2.00949">
        <ele>146</ele>
        <time>2012-06-10T10:46:00Z</time>
      </trkpt>
      <trkpt lat="48.74675" lon="2.00957">
        <ele>146</ele>
        <time>2012-06-10T10:46:04Z</time>
      </trkpt>
      <trkpt lat="48.74678" lon="2.00962">
        <ele>146</ele>
        <time>2012-06-10T10:46:08Z</time>
      </trkpt>
      <trkpt lat="48.74682" lon="2.00966">
        <ele>146</ele>
        <time>2012-06-10T10:46:12Z</time>
      </trkpt>
      <trkpt lat="48.74686" lon="2.00971">
        <ele>146</ele>
        <time>2012-06-10T10:46:15Z</time>
      </trkpt>
      <trkpt lat="48.74688" lon="2.00977">
        <ele>146</ele>
        <time>2012-06-10T10:46:19Z</time>
      </trkpt>
      <trkpt lat="48.74688" lon="2.00985">
        <ele>145</ele>
        <time>2012-06-10T10:46:24Z</time>
      </trkpt>
      <trkpt lat="48.74685" lon="2.0099">
        <ele>144</ele>
        <time>2012-06-10T10:46:27Z</time>
      </trkpt>
      <trkpt lat="48.74682" lon="2.00995">
        <ele>143</ele>
        <time>2012-06-10T10:46:30Z</time>
      </trkpt>
      <trkpt lat="48.74678" lon="2.00999">
        <ele>141</ele>
        <time>2012-06-10T10:46:35Z</time>
      </trkpt>
      <trkpt lat="48.74675" lon="2.01004">
        <ele>140</ele>
        <time>2012-06-10T10:46:40Z</time>
      </trkpt>
      <trkpt lat="48.74672" lon="2.01012">
        <ele>141</ele>
        <time>2012-06-10T10:46:44Z</time>
      </trkpt>
      <trkpt lat="48.74672" lon="2.0102">
        <ele>142</ele>
        <time>2012-06-10T10:46:49Z</time>
      </trkpt>
      <trkpt lat="48.74669" lon="2.01028">
        <ele>143</ele>
        <time>2012-06-10T10:46:54Z</time>
      </trkpt>
      <trkpt lat="48.74667" lon="2.01034">
        <ele>143</ele>
        <time>2012-06-10T10:46:57Z</time>
      </trkpt>
      <trkpt lat="48.74666" lon="2.01041">
        <ele>132</ele>
        <time>2012-06-10T10:47:04Z</time>
      </trkpt>
      <trkpt lat="48.74666" lon="2.01049">
        <ele>132</ele>
        <time>2012-06-10T10:47:09Z</time>
      </trkpt>
      <trkpt lat="48.74664" lon="2.01064">
        <ele>133</ele>
        <time>2012-06-10T10:47:20Z</time>
      </trkpt>
      <trkpt lat="48.74663" lon="2.01071">
        <ele>133</ele>
        <time>2012-06-10T10:47:24Z</time>
      </trkpt>
      <trkpt lat="48.74661" lon="2.01078">
        <ele>134</ele>
        <time>2012-06-10T10:47:29Z</time>
      </trkpt>
      <trkpt lat="48.74659" lon="2.01087">
        <ele>134</ele>
        <time>2012-06-10T10:47:33Z</time>
      </trkpt>
      <trkpt lat="48.74655" lon="2.01093">
        <ele>134</ele>
        <time>2012-06-10T10:47:36Z</time>
      </trkpt>
      <trkpt lat="48.74651" lon="2.01099">
        <ele>134</ele>
        <time>2012-06-10T10:47:39Z</time>
      </trkpt>
      <trkpt lat="48.74648" lon="2.01105">
        <ele>133</ele>
        <time>2012-06-10T10:47:42Z</time>
      </trkpt>
      <trkpt lat="48.74644" lon="2.01112">
        <ele>133</ele>
        <time>2012-06-10T10:47:46Z</time>
      </trkpt>
      <trkpt lat="48.74642" lon="2.01119">
        <ele>133</ele>
        <time>2012-06-10T10:47:52Z</time>
      </trkpt>
      <trkpt lat="48.74638" lon="2.01127">
        <ele>134</ele>
        <time>2012-06-10T10:47:56Z</time>
      </trkpt>
      <trkpt lat="48.74636" lon="2.01134">
        <ele>134</ele>
        <time>2012-06-10T10:48:01Z</time>
      </trkpt>
      <trkpt lat="48.74635" lon="2.01143">
        <ele>134</ele>
        <time>2012-06-10T10:48:05Z</time>
      </trkpt>
      <trkpt lat="48.74632" lon="2.01149">
        <ele>134</ele>
        <time>2012-06-10T10:48:09Z</time>
      </trkpt>
      <trkpt lat="48.74629" lon="2.01156">
        <ele>134</ele>
        <time>2012-06-10T10:48:12Z</time>
      </trkpt>
      <trkpt lat="48.74627" lon="2.01164">
        <ele>134</ele>
        <time>2012-06-10T10:48:16Z</time>
      </trkpt>
      <trkpt lat="48.74624" lon="2.01171">
        <ele>137</ele>
        <time>2012-06-10T10:48:21Z</time>
      </trkpt>
      <trkpt lat="48.74616" lon="2.01179">
        <ele>136</ele>
        <time>2012-06-10T10:48:29Z</time>
      </trkpt>
      <trkpt lat="48.74613" lon="2.01187">
        <ele>136</ele>
        <time>2012-06-10T10:48:33Z</time>
      </trkpt>
      <trkpt lat="48.74609" lon="2.01191">
        <ele>136</ele>
        <time>2012-06-10T10:48:37Z</time>
      </trkpt>
      <trkpt lat="48.74605" lon="2.01196">
        <ele>136</ele>
        <time>2012-06-10T10:48:42Z</time>
      </trkpt>
      <trkpt lat="48.74605" lon="2.01203">
        <ele>136</ele>
        <time>2012-06-10T10:48:49Z</time>
      </trkpt>
      <trkpt lat="48.74603" lon="2.01211">
        <ele>136</ele>
        <time>2012-06-10T10:48:57Z</time>
      </trkpt>
      <trkpt lat="48.74598" lon="2.01223">
        <ele>136</ele>
        <time>2012-06-10T10:49:03Z</time>
      </trkpt>
      <trkpt lat="48.74594" lon="2.01237">
        <ele>135</ele>
        <time>2012-06-10T10:49:10Z</time>
      </trkpt>
      <trkpt lat="48.7459" lon="2.01242">
        <ele>134</ele>
        <time>2012-06-10T10:49:14Z</time>
      </trkpt>
      <trkpt lat="48.7459" lon="2.01251">
        <ele>134</ele>
        <time>2012-06-10T10:49:18Z</time>
      </trkpt>
      <trkpt lat="48.74587" lon="2.01258">
        <ele>135</ele>
        <time>2012-06-10T10:49:22Z</time>
      </trkpt>
      <trkpt lat="48.74586" lon="2.01266">
        <ele>137</ele>
        <time>2012-06-10T10:49:27Z</time>
      </trkpt>
      <trkpt lat="48.74586" lon="2.01274">
        <ele>139</ele>
        <time>2012-06-10T10:49:31Z</time>
      </trkpt>
      <trkpt lat="48.74584" lon="2.01282">
        <ele>140</ele>
        <time>2012-06-10T10:49:35Z</time>
      </trkpt>
      <trkpt lat="48.74583" lon="2.01292">
        <ele>140</ele>
        <time>2012-06-10T10:49:38Z</time>
      </trkpt>
      <trkpt lat="48.74585" lon="2.013">
        <ele>140</ele>
        <time>2012-06-10T10:49:42Z</time>
      </trkpt>
      <trkpt lat="48.74584" lon="2.01308">
        <ele>140</ele>
        <time>2012-06-10T10:49:48Z</time>
      </trkpt>
      <trkpt lat="48.74581" lon="2.01315">
        <ele>130</ele>
        <time>2012-06-10T10:49:51Z</time>
      </trkpt>
      <trkpt lat="48.7458" lon="2.01324">
        <ele>131</ele>
        <time>2012-06-10T10:49:55Z</time>
      </trkpt>
      <trkpt lat="48.74577" lon="2.0133">
        <ele>132</ele>
        <time>2012-06-10T10:49:58Z</time>
      </trkpt>
      <trkpt lat="48.74577" lon="2.01339">
        <ele>132</ele>
        <time>2012-06-10T10:50:03Z</time>
      </trkpt>
      <trkpt lat="48.74576" lon="2.01348">
        <ele>131</ele>
        <time>2012-06-10T10:50:08Z</time>
      </trkpt>
      <trkpt lat="48.74577" lon="2.01356">
        <ele>130</ele>
        <time>2012-06-10T10:50:11Z</time>
      </trkpt>
      <trkpt lat="48.74577" lon="2.01365">
        <ele>130</ele>
        <time>2012-06-10T10:50:15Z</time>
      </trkpt>
      <trkpt lat="48.74575" lon="2.01372">
        <ele>130</ele>
        <time>2012-06-10T10:50:19Z</time>
      </trkpt>
      <trkpt lat="48.74574" lon="2.01379">
        <ele>130</ele>
        <time>2012-06-10T10:50:23Z</time>
      </trkpt>
      <trkpt lat="48.74572" lon="2.01385">
        <ele>130</ele>
        <time>2012-06-10T10:50:28Z</time>
      </trkpt>
      <trkpt lat="48.74569" lon="2.01392">
        <ele>130</ele>
        <time>2012-06-10T10:50:32Z</time>
      </trkpt>
      <trkpt lat="48.74566" lon="2.01398">
        <ele>131</ele>
        <time>2012-06-10T10:50:34Z</time>
      </trkpt>
      <trkpt lat="48.74561" lon="2.01404">
        <ele>130</ele>
        <time>2012-06-10T10:50:38Z</time>
      </trkpt>
      <trkpt lat="48.74559" lon="2.01411">
        <ele>130</ele>
        <time>2012-06-10T10:50:41Z</time>
      </trkpt>
      <trkpt lat="48.74556" lon="2.01416">
        <ele>130</ele>
        <time>2012-06-10T10:50:46Z</time>
      </trkpt>
      <trkpt lat="48.74552" lon="2.01423">
        <ele>131</ele>
        <time>2012-06-10T10:50:51Z</time>
      </trkpt>
      <trkpt lat="48.74548" lon="2.01428">
        <ele>131</ele>
        <time>2012-06-10T10:50:55Z</time>
      </trkpt>
      <trkpt lat="48.74546" lon="2.01434">
        <ele>130</ele>
        <time>2012-06-10T10:50:58Z</time>
      </trkpt>
      <trkpt lat="48.74542" lon="2.01441">
        <ele>130</ele>
        <time>2012-06-10T10:51:03Z</time>
      </trkpt>
      <trkpt lat="48.74539" lon="2.01446">
        <ele>130</ele>
        <time>2012-06-10T10:51:08Z</time>
      </trkpt>
      <trkpt lat="48.74535" lon="2.01451">
        <ele>129</ele>
        <time>2012-06-10T10:51:12Z</time>
      </trkpt>
      <trkpt lat="48.74532" lon="2.01457">
        <ele>129</ele>
        <time>2012-06-10T10:51:16Z</time>
      </trkpt>
      <trkpt lat="48.7453" lon="2.01463">
        <ele>129</ele>
        <time>2012-06-10T10:51:19Z</time>
      </trkpt>
      <trkpt lat="48.74527" lon="2.01469">
        <ele>129</ele>
        <time>2012-06-10T10:51:23Z</time>
      </trkpt>
      <trkpt lat="48.74525" lon="2.01477">
        <ele>129</ele>
        <time>2012-06-10T10:51:27Z</time>
      </trkpt>
      <trkpt lat="48.74524" lon="2.01492">
        <ele>129</ele>
        <time>2012-06-10T10:51:35Z</time>
      </trkpt>
      <trkpt lat="48.74525" lon="2.01499">
        <ele>129</ele>
        <time>2012-06-10T10:51:40Z</time>
      </trkpt>
      <trkpt lat="48.74526" lon="2.01507">
        <ele>129</ele>
        <time>2012-06-10T10:51:44Z</time>
      </trkpt>
      <trkpt lat="48.74527" lon="2.01515">
        <ele>130</ele>
        <time>2012-06-10T10:51:48Z</time>
      </trkpt>
      <trkpt lat="48.74529" lon="2.01522">
        <ele>130</ele>
        <time>2012-06-10T10:51:51Z</time>
      </trkpt>
      <trkpt lat="48.74533" lon="2.01528">
        <ele>131</ele>
        <time>2012-06-10T10:51:53Z</time>
      </trkpt>
      <trkpt lat="48.74536" lon="2.01533">
        <ele>131</ele>
        <time>2012-06-10T10:51:57Z</time>
      </trkpt>
      <trkpt lat="48.7454" lon="2.01539">
        <ele>131</ele>
        <time>2012-06-10T10:52:01Z</time>
      </trkpt>
      <trkpt lat="48.74544" lon="2.01545">
        <ele>131</ele>
        <time>2012-06-10T10:52:05Z</time>
      </trkpt>
      <trkpt lat="48.74548" lon="2.01548">
        <ele>132</ele>
        <time>2012-06-10T10:52:07Z</time>
      </trkpt>
      <trkpt lat="48.74548" lon="2.01556">
        <ele>132</ele>
        <time>2012-06-10T10:52:11Z</time>
      </trkpt>
      <trkpt lat="48.74546" lon="2.01564">
        <ele>131</ele>
        <time>2012-06-10T10:52:14Z</time>
      </trkpt>
      <trkpt lat="48.74546" lon="2.01572">
        <ele>131</ele>
        <time>2012-06-10T10:52:19Z</time>
      </trkpt>
      <trkpt lat="48.7455" lon="2.0158">
        <ele>132</ele>
        <time>2012-06-10T10:52:22Z</time>
      </trkpt>
      <trkpt lat="48.74553" lon="2.01594">
        <ele>131</ele>
        <time>2012-06-10T10:52:32Z</time>
      </trkpt>
      <trkpt lat="48.74554" lon="2.01601">
        <ele>131</ele>
        <time>2012-06-10T10:52:36Z</time>
      </trkpt>
      <trkpt lat="48.74557" lon="2.01608">
        <ele>131</ele>
        <time>2012-06-10T10:52:41Z</time>
      </trkpt>
      <trkpt lat="48.74558" lon="2.01616">
        <ele>131</ele>
        <time>2012-06-10T10:52:46Z</time>
      </trkpt>
      <trkpt lat="48.74558" lon="2.01623">
        <ele>131</ele>
        <time>2012-06-10T10:52:49Z</time>
      </trkpt>
      <trkpt lat="48.74556" lon="2.01631">
        <ele>130</ele>
        <time>2012-06-10T10:52:52Z</time>
      </trkpt>
      <trkpt lat="48.74555" lon="2.01637">
        <ele>130</ele>
        <time>2012-06-10T10:52:55Z</time>
      </trkpt>
      <trkpt lat="48.74553" lon="2.01644">
        <ele>130</ele>
        <time>2012-06-10T10:52:59Z</time>
      </trkpt>
      <trkpt lat="48.74545" lon="2.01655">
        <ele>130</ele>
        <time>2012-06-10T10:53:07Z</time>
      </trkpt>
      <trkpt lat="48.74546" lon="2.01661">
        <ele>130</ele>
        <time>2012-06-10T10:53:45Z</time>
      </trkpt>
      <trkpt lat="48.74545" lon="2.01668">
        <ele>130</ele>
        <time>2012-06-10T10:53:49Z</time>
      </trkpt>
      <trkpt lat="48.74544" lon="2.01676">
        <ele>130</ele>
        <time>2012-06-10T10:53:52Z</time>
      </trkpt>
      <trkpt lat="48.74548" lon="2.01682">
        <ele>131</ele>
        <time>2012-06-10T10:54:01Z</time>
      </trkpt>
      <trkpt lat="48.74548" lon="2.01697">
        <ele>131</ele>
        <time>2012-06-10T10:54:10Z</time>
      </trkpt>
      <trkpt lat="48.74548" lon="2.01705">
        <ele>131</ele>
        <time>2012-06-10T10:54:15Z</time>
      </trkpt>
      <trkpt lat="48.74548" lon="2.01712">
        <ele>131</ele>
        <time>2012-06-10T10:54:20Z</time>
      </trkpt>
      <trkpt lat="48.74548" lon="2.0172">
        <ele>131</ele>
        <time>2012-06-10T10:54:24Z</time>
      </trkpt>
      <trkpt lat="48.74548" lon="2.01727">
        <ele>131</ele>
        <time>2012-06-10T10:54:27Z</time>
      </trkpt>
      <trkpt lat="48.74548" lon="2.01734">
        <ele>131</ele>
        <time>2012-06-10T10:54:30Z</time>
      </trkpt>
      <trkpt lat="48.74546" lon="2.01741">
        <ele>131</ele>
        <time>2012-06-10T10:54:34Z</time>
      </trkpt>
      <trkpt lat="48.74541" lon="2.01745">
        <ele>131</ele>
        <time>2012-06-10T10:54:39Z</time>
      </trkpt>
      <trkpt lat="48.74536" lon="2.01749">
        <ele>131</ele>
        <time>2012-06-10T10:54:42Z</time>
      </trkpt>
      <trkpt lat="48.74531" lon="2.01748">
        <ele>130</ele>
        <time>2012-06-10T10:54:48Z</time>
      </trkpt>
      <trkpt lat="48.74526" lon="2.01748">
        <ele>130</ele>
        <time>2012-06-10T10:55:06Z</time>
      </trkpt>
      <trkpt lat="48.7453" lon="2.01744">
        <ele>130</ele>
        <time>2012-06-10T10:55:15Z</time>
      </trkpt>
      <trkpt lat="48.74526" lon="2.01747">
        <ele>130</ele>
        <time>2012-06-10T10:55:22Z</time>
      </trkpt>
      <trkpt lat="48.74523" lon="2.01753">
        <ele>133</ele>
        <time>2012-06-10T10:55:26Z</time>
      </trkpt>
      <trkpt lat="48.7452" lon="2.0176">
        <ele>133</ele>
        <time>2012-06-10T10:55:30Z</time>
      </trkpt>
      <trkpt lat="48.74515" lon="2.01762">
        <ele>133</ele>
        <time>2012-06-10T10:55:33Z</time>
      </trkpt>
      <trkpt lat="48.74511" lon="2.01767">
        <ele>133</ele>
        <time>2012-06-10T10:55:36Z</time>
      </trkpt>
      <trkpt lat="48.74506" lon="2.01771">
        <ele>133</ele>
        <time>2012-06-10T10:55:40Z</time>
      </trkpt>
      <trkpt lat="48.74501" lon="2.01774">
        <ele>133</ele>
        <time>2012-06-10T10:55:44Z</time>
      </trkpt>
      <trkpt lat="48.74498" lon="2.01779">
        <ele>131</ele>
        <time>2012-06-10T10:55:49Z</time>
      </trkpt>
      <trkpt lat="48.74493" lon="2.0178">
        <ele>131</ele>
        <time>2012-06-10T10:55:52Z</time>
      </trkpt>
      <trkpt lat="48.74491" lon="2.01786">
        <ele>132</ele>
        <time>2012-06-10T10:56:00Z</time>
      </trkpt>
      <trkpt lat="48.7449" lon="2.01777">
        <ele>131</ele>
        <time>2012-06-10T10:56:07Z</time>
      </trkpt>
      <trkpt lat="48.74489" lon="2.01785">
        <ele>132</ele>
        <time>2012-06-10T10:56:36Z</time>
      </trkpt>
      <trkpt lat="48.7448" lon="2.01793">
        <ele>132</ele>
        <time>2012-06-10T10:56:43Z</time>
      </trkpt>
      <trkpt lat="48.74476" lon="2.01799">
        <ele>132</ele>
        <time>2012-06-10T10:56:49Z</time>
      </trkpt>
      <trkpt lat="48.74471" lon="2.01803">
        <ele>133</ele>
        <time>2012-06-10T10:56:54Z</time>
      </trkpt>
      <trkpt lat="48.74467" lon="2.01807">
        <ele>133</ele>
        <time>2012-06-10T10:56:59Z</time>
      </trkpt>
      <trkpt lat="48.74463" lon="2.01808">
        <ele>133</ele>
        <time>2012-06-10T10:57:07Z</time>
      </trkpt>
      <trkpt lat="48.74458" lon="2.01812">
        <ele>133</ele>
        <time>2012-06-10T10:57:13Z</time>
      </trkpt>
      <trkpt lat="48.74453" lon="2.01811">
        <ele>133</ele>
        <time>2012-06-10T10:57:19Z</time>
      </trkpt>
      <trkpt lat="48.74447" lon="2.01813">
        <ele>133</ele>
        <time>2012-06-10T10:57:23Z</time>
      </trkpt>
      <trkpt lat="48.74443" lon="2.01815">
        <ele>133</ele>
        <time>2012-06-10T10:57:26Z</time>
      </trkpt>
      <trkpt lat="48.74437" lon="2.01817">
        <ele>133</ele>
        <time>2012-06-10T10:57:32Z</time>
      </trkpt>
      <trkpt lat="48.74432" lon="2.01817">
        <ele>133</ele>
        <time>2012-06-10T10:57:35Z</time>
      </trkpt>
      <trkpt lat="48.74429" lon="2.01821">
        <ele>134</ele>
        <time>2012-06-10T10:57:40Z</time>
      </trkpt>
      <trkpt lat="48.74424" lon="2.01824">
        <ele>135</ele>
        <time>2012-06-10T10:57:44Z</time>
      </trkpt>
      <trkpt lat="48.74418" lon="2.01827">
        <ele>136</ele>
        <time>2012-06-10T10:57:48Z</time>
      </trkpt>
      <trkpt lat="48.74414" lon="2.0183">
        <ele>135</ele>
        <time>2012-06-10T10:57:52Z</time>
      </trkpt>
      <trkpt lat="48.74409" lon="2.01832">
        <ele>133</ele>
        <time>2012-06-10T10:57:56Z</time>
      </trkpt>
      <trkpt lat="48.74403" lon="2.01832">
        <ele>131</ele>
        <time>2012-06-10T10:57:59Z</time>
      </trkpt>
      <trkpt lat="48.74398" lon="2.01834">
        <ele>137</ele>
        <time>2012-06-10T10:58:03Z</time>
      </trkpt>
      <trkpt lat="48.74394" lon="2.01836">
        <ele>137</ele>
        <time>2012-06-10T10:58:06Z</time>
      </trkpt>
      <trkpt lat="48.74389" lon="2.01839">
        <ele>137</ele>
        <time>2012-06-10T10:58:09Z</time>
      </trkpt>
      <trkpt lat="48.74383" lon="2.0184">
        <ele>136</ele>
        <time>2012-06-10T10:58:12Z</time>
      </trkpt>
      <trkpt lat="48.74378" lon="2.01842">
        <ele>136</ele>
        <time>2012-06-10T10:58:16Z</time>
      </trkpt>
      <trkpt lat="48.74373" lon="2.01845">
        <ele>135</ele>
        <time>2012-06-10T10:58:19Z</time>
      </trkpt>
      <trkpt lat="48.74369" lon="2.01849">
        <ele>135</ele>
        <time>2012-06-10T10:58:24Z</time>
      </trkpt>
      <trkpt lat="48.74365" lon="2.01853">
        <ele>135</ele>
        <time>2012-06-10T10:58:27Z</time>
      </trkpt>
      <trkpt lat="48.74361" lon="2.01857">
        <ele>135</ele>
        <time>2012-06-10T10:58:31Z</time>
      </trkpt>
      <trkpt lat="48.74356" lon="2.01864">
        <ele>135</ele>
        <time>2012-06-10T10:58:36Z</time>
      </trkpt>
      <trkpt lat="48.74353" lon="2.01869">
        <ele>136</ele>
        <time>2012-06-10T10:58:40Z</time>
      </trkpt>
      <trkpt lat="48.74349" lon="2.01872">
        <ele>136</ele>
        <time>2012-06-10T10:58:43Z</time>
      </trkpt>
      <trkpt lat="48.74344" lon="2.01877">
        <ele>136</ele>
        <time>2012-06-10T10:58:46Z</time>
      </trkpt>
      <trkpt lat="48.7434" lon="2.01879">
        <ele>136</ele>
        <time>2012-06-10T10:58:50Z</time>
      </trkpt>
      <trkpt lat="48.74335" lon="2.01882">
        <ele>136</ele>
        <time>2012-06-10T10:58:52Z</time>
      </trkpt>
      <trkpt lat="48.74331" lon="2.01886">
        <ele>129</ele>
        <time>2012-06-10T10:58:56Z</time>
      </trkpt>
      <trkpt lat="48.74327" lon="2.01888">
        <ele>129</ele>
        <time>2012-06-10T10:58:59Z</time>
      </trkpt>
      <trkpt lat="48.74321" lon="2.01891">
        <ele>129</ele>
        <time>2012-06-10T10:59:05Z</time>
      </trkpt>
      <trkpt lat="48.74316" lon="2.01893">
        <ele>129</ele>
        <time>2012-06-10T10:59:08Z</time>
      </trkpt>
      <trkpt lat="48.74311" lon="2.01897">
        <ele>129</ele>
        <time>2012-06-10T10:59:12Z</time>
      </trkpt>
      <trkpt lat="48.74306" lon="2.019">
        <ele>128</ele>
        <time>2012-06-10T10:59:16Z</time>
      </trkpt>
      <trkpt lat="48.74301" lon="2.01902">
        <ele>128</ele>
        <time>2012-06-10T10:59:21Z</time>
      </trkpt>
      <trkpt lat="48.74291" lon="2.01904">
        <ele>127</ele>
        <time>2012-06-10T10:59:27Z</time>
      </trkpt>
      <trkpt lat="48.74287" lon="2.01908">
        <ele>126</ele>
        <time>2012-06-10T10:59:31Z</time>
      </trkpt>
      <trkpt lat="48.74281" lon="2.01911">
        <ele>126</ele>
        <time>2012-06-10T10:59:34Z</time>
      </trkpt>
      <trkpt lat="48.74277" lon="2.01914">
        <ele>125</ele>
        <time>2012-06-10T10:59:37Z</time>
      </trkpt>
      <trkpt lat="48.74273" lon="2.01918">
        <ele>131</ele>
        <time>2012-06-10T10:59:40Z</time>
      </trkpt>
      <trkpt lat="48.74268" lon="2.01922">
        <ele>130</ele>
        <time>2012-06-10T10:59:45Z</time>
      </trkpt>
      <trkpt lat="48.74263" lon="2.01924">
        <ele>128</ele>
        <time>2012-06-10T10:59:48Z</time>
      </trkpt>
      <trkpt lat="48.74252" lon="2.01927">
        <ele>127</ele>
        <time>2012-06-10T10:59:56Z</time>
      </trkpt>
      <trkpt lat="48.74248" lon="2.0193">
        <ele>123</ele>
        <time>2012-06-10T11:00:00Z</time>
      </trkpt>
      <trkpt lat="48.74243" lon="2.01931">
        <ele>123</ele>
        <time>2012-06-10T11:00:03Z</time>
      </trkpt>
      <trkpt lat="48.74234" lon="2.01936">
        <ele>123</ele>
        <time>2012-06-10T11:00:10Z</time>
      </trkpt>
      <trkpt lat="48.74223" lon="2.0194">
        <ele>123</ele>
        <time>2012-06-10T11:00:18Z</time>
      </trkpt>
      <trkpt lat="48.74219" lon="2.01942">
        <ele>123</ele>
        <time>2012-06-10T11:00:21Z</time>
      </trkpt>
      <trkpt lat="48.74213" lon="2.01944">
        <ele>123</ele>
        <time>2012-06-10T11:00:25Z</time>
      </trkpt>
      <trkpt lat="48.74209" lon="2.01946">
        <ele>123</ele>
        <time>2012-06-10T11:00:29Z</time>
      </trkpt>
      <trkpt lat="48.74203" lon="2.0195">
        <ele>123</ele>
        <time>2012-06-10T11:00:33Z</time>
      </trkpt>
      <trkpt lat="48.74198" lon="2.01953">
        <ele>123</ele>
        <time>2012-06-10T11:00:36Z</time>
      </trkpt>
      <trkpt lat="48.74194" lon="2.01957">
        <ele>123</ele>
        <time>2012-06-10T11:00:40Z</time>
      </trkpt>
      <trkpt lat="48.74189" lon="2.01959">
        <ele>122</ele>
        <time>2012-06-10T11:00:43Z</time>
      </trkpt>
      <trkpt lat="48.74186" lon="2.01967">
        <ele>123</ele>
        <time>2012-06-10T11:00:48Z</time>
      </trkpt>
      <trkpt lat="48.74183" lon="2.01973">
        <ele>123</ele>
        <time>2012-06-10T11:00:53Z</time>
      </trkpt>
      <trkpt lat="48.74179" lon="2.01977">
        <ele>122</ele>
        <time>2012-06-10T11:00:56Z</time>
      </trkpt>
      <trkpt lat="48.74176" lon="2.01985">
        <ele>122</ele>
        <time>2012-06-10T11:01:01Z</time>
      </trkpt>
      <trkpt lat="48.74173" lon="2.0199">
        <ele>122</ele>
        <time>2012-06-10T11:01:04Z</time>
      </trkpt>
      <trkpt lat="48.74169" lon="2.01996">
        <ele>121</ele>
        <time>2012-06-10T11:01:08Z</time>
      </trkpt>
      <trkpt lat="48.74165" lon="2.01999">
        <ele>121</ele>
        <time>2012-06-10T11:01:11Z</time>
      </trkpt>
      <trkpt lat="48.74161" lon="2.02005">
        <ele>120</ele>
        <time>2012-06-10T11:01:16Z</time>
      </trkpt>
      <trkpt lat="48.74158" lon="2.0201">
        <ele>120</ele>
        <time>2012-06-10T11:01:23Z</time>
      </trkpt>
      <trkpt lat="48.74154" lon="2.02014">
        <ele>120</ele>
        <time>2012-06-10T11:01:26Z</time>
      </trkpt>
      <trkpt lat="48.7415" lon="2.02019">
        <ele>119</ele>
        <time>2012-06-10T11:01:30Z</time>
      </trkpt>
      <trkpt lat="48.74149" lon="2.02026">
        <ele>119</ele>
        <time>2012-06-10T11:01:34Z</time>
      </trkpt>
      <trkpt lat="48.74146" lon="2.02033">
        <ele>119</ele>
        <time>2012-06-10T11:01:37Z</time>
      </trkpt>
      <trkpt lat="48.74142" lon="2.02039">
        <ele>119</ele>
        <time>2012-06-10T11:01:42Z</time>
      </trkpt>
      <trkpt lat="48.74139" lon="2.02045">
        <ele>119</ele>
        <time>2012-06-10T11:01:47Z</time>
      </trkpt>
      <trkpt lat="48.74133" lon="2.0205">
        <ele>119</ele>
        <time>2012-06-10T11:01:52Z</time>
      </trkpt>
      <trkpt lat="48.74129" lon="2.02055">
        <ele>119</ele>
        <time>2012-06-10T11:01:56Z</time>
      </trkpt>
      <trkpt lat="48.74125" lon="2.02062">
        <ele>118</ele>
        <time>2012-06-10T11:01:59Z</time>
      </trkpt>
      <trkpt lat="48.74123" lon="2.02067">
        <ele>118</ele>
        <time>2012-06-10T11:02:02Z</time>
      </trkpt>
      <trkpt lat="48.74118" lon="2.02073">
        <ele>118</ele>
        <time>2012-06-10T11:02:06Z</time>
      </trkpt>
      <trkpt lat="48.74116" lon="2.02081">
        <ele>117</ele>
        <time>2012-06-10T11:02:11Z</time>
      </trkpt>
      <trkpt lat="48.74116" lon="2.02088">
        <ele>121</ele>
        <time>2012-06-10T11:02:16Z</time>
      </trkpt>
      <trkpt lat="48.74112" lon="2.02095">
        <ele>121</ele>
        <time>2012-06-10T11:02:19Z</time>
      </trkpt>
      <trkpt lat="48.74106" lon="2.02106">
        <ele>121</ele>
        <time>2012-06-10T11:02:27Z</time>
      </trkpt>
      <trkpt lat="48.74103" lon="2.02112">
        <ele>121</ele>
        <time>2012-06-10T11:02:32Z</time>
      </trkpt>
      <trkpt lat="48.74098" lon="2.02124">
        <ele>122</ele>
        <time>2012-06-10T11:02:39Z</time>
      </trkpt>
      <trkpt lat="48.74095" lon="2.02129">
        <ele>122</ele>
        <time>2012-06-10T11:02:42Z</time>
      </trkpt>
      <trkpt lat="48.74092" lon="2.02136">
        <ele>122</ele>
        <time>2012-06-10T11:02:47Z</time>
      </trkpt>
      <trkpt lat="48.74085" lon="2.0215">
        <ele>121</ele>
        <time>2012-06-10T11:02:55Z</time>
      </trkpt>
      <trkpt lat="48.74082" lon="2.02157">
        <ele>117</ele>
        <time>2012-06-10T11:02:58Z</time>
      </trkpt>
      <trkpt lat="48.7408" lon="2.02163">
        <ele>118</ele>
        <time>2012-06-10T11:03:04Z</time>
      </trkpt>
      <trkpt lat="48.74077" lon="2.02172">
        <ele>118</ele>
        <time>2012-06-10T11:03:09Z</time>
      </trkpt>
      <trkpt lat="48.74075" lon="2.02178">
        <ele>118</ele>
        <time>2012-06-10T11:03:12Z</time>
      </trkpt>
      <trkpt lat="48.74073" lon="2.02186">
        <ele>118</ele>
        <time>2012-06-10T11:03:17Z</time>
      </trkpt>
      <trkpt lat="48.74075" lon="2.02194">
        <ele>118</ele>
        <time>2012-06-10T11:03:22Z</time>
      </trkpt>
      <trkpt lat="48.74074" lon="2.02202">
        <ele>118</ele>
        <time>2012-06-10T11:03:26Z</time>
      </trkpt>
      <trkpt lat="48.74073" lon="2.02209">
        <ele>119</ele>
        <time>2012-06-10T11:03:29Z</time>
      </trkpt>
      <trkpt lat="48.74072" lon="2.02216">
        <ele>119</ele>
        <time>2012-06-10T11:03:33Z</time>
      </trkpt>
      <trkpt lat="48.7407" lon="2.02225">
        <ele>120</ele>
        <time>2012-06-10T11:03:37Z</time>
      </trkpt>
      <trkpt lat="48.74065" lon="2.02237">
        <ele>120</ele>
        <time>2012-06-10T11:03:45Z</time>
      </trkpt>
      <trkpt lat="48.74064" lon="2.02245">
        <ele>121</ele>
        <time>2012-06-10T11:03:49Z</time>
      </trkpt>
      <trkpt lat="48.74061" lon="2.02251">
        <ele>124</ele>
        <time>2012-06-10T11:03:51Z</time>
      </trkpt>
      <trkpt lat="48.74057" lon="2.02256">
        <ele>123</ele>
        <time>2012-06-10T11:03:53Z</time>
      </trkpt>
      <trkpt lat="48.74055" lon="2.02262">
        <ele>123</ele>
        <time>2012-06-10T11:03:56Z</time>
      </trkpt>
      <trkpt lat="48.74051" lon="2.02267">
        <ele>123</ele>
        <time>2012-06-10T11:04:00Z</time>
      </trkpt>
      <trkpt lat="48.74045" lon="2.02269">
        <ele>123</ele>
        <time>2012-06-10T11:04:04Z</time>
      </trkpt>
      <trkpt lat="48.7404" lon="2.02271">
        <ele>122</ele>
        <time>2012-06-10T11:04:06Z</time>
      </trkpt>
      <trkpt lat="48.74031" lon="2.02278">
        <ele>122</ele>
        <time>2012-06-10T11:04:12Z</time>
      </trkpt>
      <trkpt lat="48.74023" lon="2.02285">
        <ele>122</ele>
        <time>2012-06-10T11:04:19Z</time>
      </trkpt>
      <trkpt lat="48.74019" lon="2.0229">
        <ele>122</ele>
        <time>2012-06-10T11:04:23Z</time>
      </trkpt>
      <trkpt lat="48.74011" lon="2.02298">
        <ele>122</ele>
        <time>2012-06-10T11:04:31Z</time>
      </trkpt>
      <trkpt lat="48.74002" lon="2.023">
        <ele>121</ele>
        <time>2012-06-10T11:04:38Z</time>
      </trkpt>
      <trkpt lat="48.73997" lon="2.02296">
        <ele>118</ele>
        <time>2012-06-10T11:04:49Z</time>
      </trkpt>
      <trkpt lat="48.73995" lon="2.02294">
        <ele>118</ele>
        <time>2012-06-10T11:05:46Z</time>
      </trkpt>
      <trkpt lat="48.73991" lon="2.02299">
        <ele>119</ele>
        <time>2012-06-10T11:05:55Z</time>
      </trkpt>
      <trkpt lat="48.73986" lon="2.02298">
        <ele>118</ele>
        <time>2012-06-10T11:06:00Z</time>
      </trkpt>
      <trkpt lat="48.73981" lon="2.02295">
        <ele>118</ele>
        <time>2012-06-10T11:06:04Z</time>
      </trkpt>
      <trkpt lat="48.73977" lon="2.02292">
        <ele>118</ele>
        <time>2012-06-10T11:06:10Z</time>
      </trkpt>
      <trkpt lat="48.73973" lon="2.02288">
        <ele>118</ele>
        <time>2012-06-10T11:06:14Z</time>
      </trkpt>
      <trkpt lat="48.73968" lon="2.02285">
        <ele>118</ele>
        <time>2012-06-10T11:06:17Z</time>
      </trkpt>
      <trkpt lat="48.73963" lon="2.02284">
        <ele>118</ele>
        <time>2012-06-10T11:06:20Z</time>
      </trkpt>
      <trkpt lat="48.73958" lon="2.02283">
        <ele>118</ele>
        <time>2012-06-10T11:06:24Z</time>
      </trkpt>
      <trkpt lat="48.73952" lon="2.0228">
        <ele>118</ele>
        <time>2012-06-10T11:06:27Z</time>
      </trkpt>
      <trkpt lat="48.73948" lon="2.02278">
        <ele>118</ele>
        <time>2012-06-10T11:06:32Z</time>
      </trkpt>
      <trkpt lat="48.73942" lon="2.02275">
        <ele>118</ele>
        <time>2012-06-10T11:06:35Z</time>
      </trkpt>
      <trkpt lat="48.73938" lon="2.02276">
        <ele>118</ele>
        <time>2012-06-10T11:06:39Z</time>
      </trkpt>
      <trkpt lat="48.73933" lon="2.02274">
        <ele>117</ele>
        <time>2012-06-10T11:06:42Z</time>
      </trkpt>
      <trkpt lat="48.73928" lon="2.02273">
        <ele>117</ele>
        <time>2012-06-10T11:06:47Z</time>
      </trkpt>
      <trkpt lat="48.73923" lon="2.0227">
        <ele>117</ele>
        <time>2012-06-10T11:06:50Z</time>
      </trkpt>
      <trkpt lat="48.73918" lon="2.02268">
        <ele>117</ele>
        <time>2012-06-10T11:06:54Z</time>
      </trkpt>
      <trkpt lat="48.73913" lon="2.02267">
        <ele>119</ele>
        <time>2012-06-10T11:06:58Z</time>
      </trkpt>
      <trkpt lat="48.73908" lon="2.02263">
        <ele>119</ele>
        <time>2012-06-10T11:07:03Z</time>
      </trkpt>
      <trkpt lat="48.73902" lon="2.02263">
        <ele>120</ele>
        <time>2012-06-10T11:07:08Z</time>
      </trkpt>
      <trkpt lat="48.73891" lon="2.02263">
        <ele>121</ele>
        <time>2012-06-10T11:07:14Z</time>
      </trkpt>
      <trkpt lat="48.73886" lon="2.02262">
        <ele>121</ele>
        <time>2012-06-10T11:07:17Z</time>
      </trkpt>
      <trkpt lat="48.73882" lon="2.02259">
        <ele>122</ele>
        <time>2012-06-10T11:07:22Z</time>
      </trkpt>
      <trkpt lat="48.73877" lon="2.0226">
        <ele>122</ele>
        <time>2012-06-10T11:07:26Z</time>
      </trkpt>
      <trkpt lat="48.7387" lon="2.02257">
        <ele>122</ele>
        <time>2012-06-10T11:07:29Z</time>
      </trkpt>
      <trkpt lat="48.73865" lon="2.02258">
        <ele>122</ele>
        <time>2012-06-10T11:07:32Z</time>
      </trkpt>
      <trkpt lat="48.7386" lon="2.02255">
        <ele>122</ele>
        <time>2012-06-10T11:07:36Z</time>
      </trkpt>
      <trkpt lat="48.73855" lon="2.02253">
        <ele>121</ele>
        <time>2012-06-10T11:07:43Z</time>
      </trkpt>
      <trkpt lat="48.7385" lon="2.02252">
        <ele>121</ele>
        <time>2012-06-10T11:07:48Z</time>
      </trkpt>
      <trkpt lat="48.73845" lon="2.02252">
        <ele>120</ele>
        <time>2012-06-10T11:07:51Z</time>
      </trkpt>
      <trkpt lat="48.7384" lon="2.02254">
        <ele>119</ele>
        <time>2012-06-10T11:07:54Z</time>
      </trkpt>
      <trkpt lat="48.73835" lon="2.02254">
        <ele>118</ele>
        <time>2012-06-10T11:07:58Z</time>
      </trkpt>
      <trkpt lat="48.7383" lon="2.02258">
        <ele>121</ele>
        <time>2012-06-10T11:08:02Z</time>
      </trkpt>
      <trkpt lat="48.73825" lon="2.02257">
        <ele>122</ele>
        <time>2012-06-10T11:08:05Z</time>
      </trkpt>
      <trkpt lat="48.7382" lon="2.02257">
        <ele>123</ele>
        <time>2012-06-10T11:08:08Z</time>
      </trkpt>
      <trkpt lat="48.73815" lon="2.02256">
        <ele>123</ele>
        <time>2012-06-10T11:08:11Z</time>
      </trkpt>
      <trkpt lat="48.7381" lon="2.02254">
        <ele>124</ele>
        <time>2012-06-10T11:08:15Z</time>
      </trkpt>
      <trkpt lat="48.73803" lon="2.02253">
        <ele>125</ele>
        <time>2012-06-10T11:08:19Z</time>
      </trkpt>
      <trkpt lat="48.73798" lon="2.0225">
        <ele>125</ele>
        <time>2012-06-10T11:08:22Z</time>
      </trkpt>
      <trkpt lat="48.73793" lon="2.02251">
        <ele>125</ele>
        <time>2012-06-10T11:08:26Z</time>
      </trkpt>
      <trkpt lat="48.73788" lon="2.02251">
        <ele>125</ele>
        <time>2012-06-10T11:08:29Z</time>
      </trkpt>
      <trkpt lat="48.73782" lon="2.02256">
        <ele>125</ele>
        <time>2012-06-10T11:08:34Z</time>
      </trkpt>
      <trkpt lat="48.73778" lon="2.0226">
        <ele>125</ele>
        <time>2012-06-10T11:08:38Z</time>
      </trkpt>
      <trkpt lat="48.73772" lon="2.02261">
        <ele>125</ele>
        <time>2012-06-10T11:08:42Z</time>
      </trkpt>
      <trkpt lat="48.73767" lon="2.02262">
        <ele>124</ele>
        <time>2012-06-10T11:08:48Z</time>
      </trkpt>
      <trkpt lat="48.73763" lon="2.02265">
        <ele>124</ele>
        <time>2012-06-10T11:08:51Z</time>
      </trkpt>
      <trkpt lat="48.73758" lon="2.02269">
        <ele>125</ele>
        <time>2012-06-10T11:08:54Z</time>
      </trkpt>
      <trkpt lat="48.73753" lon="2.02271">
        <ele>125</ele>
        <time>2012-06-10T11:08:59Z</time>
      </trkpt>
      <trkpt lat="48.73748" lon="2.02272">
        <ele>122</ele>
        <time>2012-06-10T11:09:04Z</time>
      </trkpt>
      <trkpt lat="48.73742" lon="2.02272">
        <ele>122</ele>
        <time>2012-06-10T11:09:08Z</time>
      </trkpt>
      <trkpt lat="48.73732" lon="2.02273">
        <ele>123</ele>
        <time>2012-06-10T11:09:15Z</time>
      </trkpt>
      <trkpt lat="48.73727" lon="2.02276">
        <ele>123</ele>
        <time>2012-06-10T11:09:19Z</time>
      </trkpt>
      <trkpt lat="48.73722" lon="2.02278">
        <ele>123</ele>
        <time>2012-06-10T11:09:23Z</time>
      </trkpt>
      <trkpt lat="48.73717" lon="2.02275">
        <ele>123</ele>
        <time>2012-06-10T11:09:27Z</time>
      </trkpt>
      <trkpt lat="48.73712" lon="2.02275">
        <ele>123</ele>
        <time>2012-06-10T11:09:31Z</time>
      </trkpt>
      <trkpt lat="48.73707" lon="2.02276">
        <ele>123</ele>
        <time>2012-06-10T11:09:34Z</time>
      </trkpt>
      <trkpt lat="48.73703" lon="2.0228">
        <ele>123</ele>
        <time>2012-06-10T11:09:38Z</time>
      </trkpt>
      <trkpt lat="48.73697" lon="2.0228">
        <ele>122</ele>
        <time>2012-06-10T11:09:41Z</time>
      </trkpt>
      <trkpt lat="48.73692" lon="2.02281">
        <ele>122</ele>
        <time>2012-06-10T11:09:45Z</time>
      </trkpt>
      <trkpt lat="48.73687" lon="2.02283">
        <ele>122</ele>
        <time>2012-06-10T11:09:48Z</time>
      </trkpt>
      <trkpt lat="48.73677" lon="2.02288">
        <ele>122</ele>
        <time>2012-06-10T11:09:54Z</time>
      </trkpt>
      <trkpt lat="48.73672" lon="2.02293">
        <ele>123</ele>
        <time>2012-06-10T11:09:59Z</time>
      </trkpt>
      <trkpt lat="48.73666" lon="2.02295">
        <ele>118</ele>
        <time>2012-06-10T11:10:05Z</time>
      </trkpt>
      <trkpt lat="48.73662" lon="2.02297">
        <ele>119</ele>
        <time>2012-06-10T11:10:08Z</time>
      </trkpt>
      <trkpt lat="48.73657" lon="2.02298">
        <ele>118</ele>
        <time>2012-06-10T11:10:12Z</time>
      </trkpt>
      <trkpt lat="48.73653" lon="2.02296">
        <ele>118</ele>
        <time>2012-06-10T11:10:16Z</time>
      </trkpt>
      <trkpt lat="48.73647" lon="2.02295">
        <ele>118</ele>
        <time>2012-06-10T11:10:19Z</time>
      </trkpt>
      <trkpt lat="48.73638" lon="2.02294">
        <ele>117</ele>
        <time>2012-06-10T11:10:26Z</time>
      </trkpt>
      <trkpt lat="48.73632" lon="2.02293">
        <ele>117</ele>
        <time>2012-06-10T11:10:29Z</time>
      </trkpt>
      <trkpt lat="48.73627" lon="2.02294">
        <ele>117</ele>
        <time>2012-06-10T11:10:33Z</time>
      </trkpt>
      <trkpt lat="48.73622" lon="2.02293">
        <ele>117</ele>
        <time>2012-06-10T11:10:36Z</time>
      </trkpt>
      <trkpt lat="48.73617" lon="2.02295">
        <ele>117</ele>
        <time>2012-06-10T11:10:39Z</time>
      </trkpt>
      <trkpt lat="48.73613" lon="2.02297">
        <ele>117</ele>
        <time>2012-06-10T11:10:43Z</time>
      </trkpt>
      <trkpt lat="48.73608" lon="2.02299">
        <ele>117</ele>
        <time>2012-06-10T11:10:47Z</time>
      </trkpt>
      <trkpt lat="48.73602" lon="2.02298">
        <ele>117</ele>
        <time>2012-06-10T11:10:50Z</time>
      </trkpt>
      <trkpt lat="48.73596" lon="2.02298">
        <ele>116</ele>
        <time>2012-06-10T11:10:56Z</time>
      </trkpt>
      <trkpt lat="48.73592" lon="2.02298">
        <ele>116</ele>
        <time>2012-06-10T11:11:01Z</time>
      </trkpt>
      <trkpt lat="48.73586" lon="2.02299">
        <ele>116</ele>
        <time>2012-06-10T11:11:04Z</time>
      </trkpt>
      <trkpt lat="48.7358" lon="2.02302">
        <ele>113</ele>
        <time>2012-06-10T11:11:09Z</time>
      </trkpt>
      <trkpt lat="48.73576" lon="2.02298">
        <ele>113</ele>
        <time>2012-06-10T11:11:12Z</time>
      </trkpt>
      <trkpt lat="48.73567" lon="2.02298">
        <ele>112</ele>
        <time>2012-06-10T11:11:21Z</time>
      </trkpt>
      <trkpt lat="48.73561" lon="2.023">
        <ele>112</ele>
        <time>2012-06-10T11:11:24Z</time>
      </trkpt>
      <trkpt lat="48.73557" lon="2.02301">
        <ele>112</ele>
        <time>2012-06-10T11:11:28Z</time>
      </trkpt>
      <trkpt lat="48.73551" lon="2.02298">
        <ele>112</ele>
        <time>2012-06-10T11:11:32Z</time>
      </trkpt>
      <trkpt lat="48.73546" lon="2.02296">
        <ele>111</ele>
        <time>2012-06-10T11:11:37Z</time>
      </trkpt>
      <trkpt lat="48.73542" lon="2.02296">
        <ele>111</ele>
        <time>2012-06-10T11:11:40Z</time>
      </trkpt>
      <trkpt lat="48.73536" lon="2.02299">
        <ele>111</ele>
        <time>2012-06-10T11:11:45Z</time>
      </trkpt>
      <trkpt lat="48.73531" lon="2.023">
        <ele>111</ele>
        <time>2012-06-10T11:11:48Z</time>
      </trkpt>
      <trkpt lat="48.73526" lon="2.02303">
        <ele>111</ele>
        <time>2012-06-10T11:11:52Z</time>
      </trkpt>
      <trkpt lat="48.73521" lon="2.02303">
        <ele>111</ele>
        <time>2012-06-10T11:11:55Z</time>
      </trkpt>
      <trkpt lat="48.73516" lon="2.02308">
        <ele>111</ele>
        <time>2012-06-10T11:12:00Z</time>
      </trkpt>
      <trkpt lat="48.73505" lon="2.02308">
        <ele>111</ele>
        <time>2012-06-10T11:12:08Z</time>
      </trkpt>
      <trkpt lat="48.735" lon="2.02307">
        <ele>111</ele>
        <time>2012-06-10T11:12:11Z</time>
      </trkpt>
      <trkpt lat="48.73495" lon="2.02307">
        <ele>108</ele>
        <time>2012-06-10T11:12:16Z</time>
      </trkpt>
      <trkpt lat="48.7349" lon="2.02305">
        <ele>108</ele>
        <time>2012-06-10T11:12:21Z</time>
      </trkpt>
      <trkpt lat="48.73484" lon="2.02303">
        <ele>107</ele>
        <time>2012-06-10T11:12:25Z</time>
      </trkpt>
      <trkpt lat="48.73479" lon="2.02304">
        <ele>107</ele>
        <time>2012-06-10T11:12:30Z</time>
      </trkpt>
      <trkpt lat="48.73474" lon="2.02304">
        <ele>107</ele>
        <time>2012-06-10T11:12:36Z</time>
      </trkpt>
      <trkpt lat="48.73469" lon="2.02302">
        <ele>107</ele>
        <time>2012-06-10T11:12:39Z</time>
      </trkpt>
      <trkpt lat="48.73463" lon="2.02304">
        <ele>107</ele>
        <time>2012-06-10T11:12:44Z</time>
      </trkpt>
      <trkpt lat="48.73458" lon="2.02303">
        <ele>107</ele>
        <time>2012-06-10T11:12:48Z</time>
      </trkpt>
      <trkpt lat="48.73453" lon="2.02301">
        <ele>106</ele>
        <time>2012-06-10T11:12:52Z</time>
      </trkpt>
      <trkpt lat="48.73448" lon="2.02304">
        <ele>106</ele>
        <time>2012-06-10T11:12:56Z</time>
      </trkpt>
      <trkpt lat="48.73444" lon="2.02308">
        <ele>106</ele>
        <time>2012-06-10T11:12:59Z</time>
      </trkpt>
      <trkpt lat="48.73439" lon="2.0232">
        <ele>107</ele>
        <time>2012-06-10T11:13:06Z</time>
      </trkpt>
      <trkpt lat="48.73434" lon="2.02331">
        <ele>107</ele>
        <time>2012-06-10T11:13:13Z</time>
      </trkpt>
      <trkpt lat="48.73431" lon="2.02338">
        <ele>111</ele>
        <time>2012-06-10T11:13:18Z</time>
      </trkpt>
      <trkpt lat="48.73426" lon="2.02344">
        <ele>111</ele>
        <time>2012-06-10T11:13:23Z</time>
      </trkpt>
      <trkpt lat="48.73424" lon="2.0235">
        <ele>112</ele>
        <time>2012-06-10T11:13:28Z</time>
      </trkpt>
      <trkpt lat="48.73418" lon="2.02354">
        <ele>113</ele>
        <time>2012-06-10T11:13:33Z</time>
      </trkpt>
      <trkpt lat="48.73414" lon="2.02358">
        <ele>110</ele>
        <time>2012-06-10T11:13:37Z</time>
      </trkpt>
      <trkpt lat="48.7341" lon="2.02362">
        <ele>110</ele>
        <time>2012-06-10T11:13:41Z</time>
      </trkpt>
      <trkpt lat="48.73406" lon="2.02367">
        <ele>111</ele>
        <time>2012-06-10T11:13:46Z</time>
      </trkpt>
      <trkpt lat="48.7341" lon="2.02372">
        <ele>111</ele>
        <time>2012-06-10T11:14:58Z</time>
      </trkpt>
      <trkpt lat="48.73406" lon="2.02374">
        <ele>112</ele>
        <time>2012-06-10T11:15:20Z</time>
      </trkpt>
      <trkpt lat="48.73401" lon="2.02375">
        <ele>111</ele>
        <time>2012-06-10T11:15:25Z</time>
      </trkpt>
      <trkpt lat="48.73396" lon="2.02372">
        <ele>111</ele>
        <time>2012-06-10T11:15:28Z</time>
      </trkpt>
      <trkpt lat="48.73391" lon="2.02375">
        <ele>111</ele>
        <time>2012-06-10T11:15:32Z</time>
      </trkpt>
      <trkpt lat="48.73388" lon="2.02382">
        <ele>112</ele>
        <time>2012-06-10T11:15:37Z</time>
      </trkpt>
      <trkpt lat="48.73387" lon="2.0239">
        <ele>112</ele>
        <time>2012-06-10T11:15:40Z</time>
      </trkpt>
      <trkpt lat="48.73386" lon="2.02398">
        <ele>113</ele>
        <time>2012-06-10T11:15:43Z</time>
      </trkpt>
      <trkpt lat="48.73382" lon="2.02403">
        <ele>113</ele>
        <time>2012-06-10T11:15:48Z</time>
      </trkpt>
      <trkpt lat="48.73377" lon="2.02407">
        <ele>112</ele>
        <time>2012-06-10T11:15:53Z</time>
      </trkpt>
      <trkpt lat="48.73372" lon="2.02409">
        <ele>112</ele>
        <time>2012-06-10T11:15:57Z</time>
      </trkpt>
      <trkpt lat="48.73367" lon="2.02413">
        <ele>112</ele>
        <time>2012-06-10T11:16:00Z</time>
      </trkpt>
      <trkpt lat="48.73363" lon="2.02415">
        <ele>111</ele>
        <time>2012-06-10T11:16:05Z</time>
      </trkpt>
      <trkpt lat="48.7336" lon="2.02421">
        <ele>118</ele>
        <time>2012-06-10T11:16:09Z</time>
      </trkpt>
      <trkpt lat="48.73352" lon="2.02426">
        <ele>117</ele>
        <time>2012-06-10T11:16:15Z</time>
      </trkpt>
      <trkpt lat="48.73347" lon="2.02425">
        <ele>116</ele>
        <time>2012-06-10T11:16:19Z</time>
      </trkpt>
      <trkpt lat="48.7334" lon="2.02434">
        <ele>117</ele>
        <time>2012-06-10T11:16:28Z</time>
      </trkpt>
      <trkpt lat="48.73338" lon="2.02441">
        <ele>118</ele>
        <time>2012-06-10T11:16:34Z</time>
      </trkpt>
      <trkpt lat="48.73333" lon="2.02442">
        <ele>112</ele>
        <time>2012-06-10T11:16:40Z</time>
      </trkpt>
      <trkpt lat="48.73326" lon="2.02444">
        <ele>112</ele>
        <time>2012-06-10T11:16:44Z</time>
      </trkpt>
      <trkpt lat="48.73322" lon="2.02448">
        <ele>113</ele>
        <time>2012-06-10T11:16:46Z</time>
      </trkpt>
      <trkpt lat="48.73318" lon="2.02454">
        <ele>113</ele>
        <time>2012-06-10T11:16:49Z</time>
      </trkpt>
      <trkpt lat="48.73314" lon="2.02459">
        <ele>113</ele>
        <time>2012-06-10T11:16:53Z</time>
      </trkpt>
      <trkpt lat="48.73309" lon="2.02461">
        <ele>113</ele>
        <time>2012-06-10T11:16:57Z</time>
      </trkpt>
      <trkpt lat="48.73307" lon="2.02467">
        <ele>114</ele>
        <time>2012-06-10T11:17:01Z</time>
      </trkpt>
      <trkpt lat="48.73302" lon="2.02472">
        <ele>114</ele>
        <time>2012-06-10T11:17:05Z</time>
      </trkpt>
      <trkpt lat="48.73296" lon="2.02475">
        <ele>113</ele>
        <time>2012-06-10T11:17:08Z</time>
      </trkpt>
      <trkpt lat="48.73291" lon="2.02474">
        <ele>113</ele>
        <time>2012-06-10T11:17:10Z</time>
      </trkpt>
      <trkpt lat="48.73288" lon="2.02488">
        <ele>113</ele>
        <time>2012-06-10T11:17:19Z</time>
      </trkpt>
      <trkpt lat="48.73283" lon="2.02488">
        <ele>113</ele>
        <time>2012-06-10T11:17:22Z</time>
      </trkpt>
      <trkpt lat="48.73273" lon="2.02493">
        <ele>112</ele>
        <time>2012-06-10T11:17:29Z</time>
      </trkpt>
      <trkpt lat="48.73268" lon="2.02491">
        <ele>112</ele>
        <time>2012-06-10T11:17:34Z</time>
      </trkpt>
      <trkpt lat="48.73263" lon="2.0249">
        <ele>111</ele>
        <time>2012-06-10T11:17:41Z</time>
      </trkpt>
      <trkpt lat="48.73258" lon="2.02492">
        <ele>111</ele>
        <time>2012-06-10T11:17:45Z</time>
      </trkpt>
      <trkpt lat="48.73253" lon="2.02494">
        <ele>111</ele>
        <time>2012-06-10T11:17:48Z</time>
      </trkpt>
      <trkpt lat="48.7325" lon="2.025">
        <ele>110</ele>
        <time>2012-06-10T11:17:55Z</time>
      </trkpt>
      <trkpt lat="48.73244" lon="2.02504">
        <ele>110</ele>
        <time>2012-06-10T11:17:58Z</time>
      </trkpt>
      <trkpt lat="48.7324" lon="2.02506">
        <ele>110</ele>
        <time>2012-06-10T11:18:00Z</time>
      </trkpt>
      <trkpt lat="48.73235" lon="2.02511">
        <ele>110</ele>
        <time>2012-06-10T11:18:03Z</time>
      </trkpt>
      <trkpt lat="48.73232" lon="2.02516">
        <ele>110</ele>
        <time>2012-06-10T11:18:06Z</time>
      </trkpt>
      <trkpt lat="48.73227" lon="2.0252">
        <ele>111</ele>
        <time>2012-06-10T11:18:08Z</time>
      </trkpt>
      <trkpt lat="48.73223" lon="2.02525">
        <ele>111</ele>
        <time>2012-06-10T11:18:11Z</time>
      </trkpt>
      <trkpt lat="48.73218" lon="2.02537">
        <ele>111</ele>
        <time>2012-06-10T11:18:20Z</time>
      </trkpt>
      <trkpt lat="48.73213" lon="2.02541">
        <ele>111</ele>
        <time>2012-06-10T11:18:23Z</time>
      </trkpt>
      <trkpt lat="48.73209" lon="2.02547">
        <ele>111</ele>
        <time>2012-06-10T11:18:26Z</time>
      </trkpt>
      <trkpt lat="48.73205" lon="2.02552">
        <ele>111</ele>
        <time>2012-06-10T11:18:29Z</time>
      </trkpt>
      <trkpt lat="48.73201" lon="2.02557">
        <ele>111</ele>
        <time>2012-06-10T11:18:33Z</time>
      </trkpt>
      <trkpt lat="48.73197" lon="2.0256">
        <ele>110</ele>
        <time>2012-06-10T11:18:37Z</time>
      </trkpt>
      <trkpt lat="48.73194" lon="2.02566">
        <ele>110</ele>
        <time>2012-06-10T11:18:40Z</time>
      </trkpt>
      <trkpt lat="48.7319" lon="2.0257">
        <ele>110</ele>
        <time>2012-06-10T11:18:43Z</time>
      </trkpt>
      <trkpt lat="48.73186" lon="2.02573">
        <ele>109</ele>
        <time>2012-06-10T11:18:47Z</time>
      </trkpt>
      <trkpt lat="48.73181" lon="2.02578">
        <ele>108</ele>
        <time>2012-06-10T11:18:52Z</time>
      </trkpt>
      <trkpt lat="48.73177" lon="2.02584">
        <ele>111</ele>
        <time>2012-06-10T11:18:56Z</time>
      </trkpt>
      <trkpt lat="48.73173" lon="2.02589">
        <ele>110</ele>
        <time>2012-06-10T11:18:59Z</time>
      </trkpt>
      <trkpt lat="48.73168" lon="2.02593">
        <ele>110</ele>
        <time>2012-06-10T11:19:04Z</time>
      </trkpt>
      <trkpt lat="48.73163" lon="2.02598">
        <ele>107</ele>
        <time>2012-06-10T11:19:08Z</time>
      </trkpt>
      <trkpt lat="48.73159" lon="2.02604">
        <ele>107</ele>
        <time>2012-06-10T11:19:13Z</time>
      </trkpt>
      <trkpt lat="48.73155" lon="2.02609">
        <ele>107</ele>
        <time>2012-06-10T11:19:17Z</time>
      </trkpt>
      <trkpt lat="48.73151" lon="2.02614">
        <ele>107</ele>
        <time>2012-06-10T11:19:21Z</time>
      </trkpt>
      <trkpt lat="48.73147" lon="2.02619">
        <ele>108</ele>
        <time>2012-06-10T11:19:25Z</time>
      </trkpt>
      <trkpt lat="48.73143" lon="2.02624">
        <ele>108</ele>
        <time>2012-06-10T11:19:28Z</time>
      </trkpt>
      <trkpt lat="48.73139" lon="2.02629">
        <ele>108</ele>
        <time>2012-06-10T11:19:32Z</time>
      </trkpt>
      <trkpt lat="48.73135" lon="2.02634">
        <ele>108</ele>
        <time>2012-06-10T11:19:37Z</time>
      </trkpt>
      <trkpt lat="48.73127" lon="2.02642">
        <ele>108</ele>
        <time>2012-06-10T11:19:45Z</time>
      </trkpt>
      <trkpt lat="48.73122" lon="2.02646">
        <ele>108</ele>
        <time>2012-06-10T11:19:50Z</time>
      </trkpt>
      <trkpt lat="48.73118" lon="2.02651">
        <ele>107</ele>
        <time>2012-06-10T11:19:54Z</time>
      </trkpt>
      <trkpt lat="48.73114" lon="2.02657">
        <ele>107</ele>
        <time>2012-06-10T11:19:59Z</time>
      </trkpt>
      <trkpt lat="48.73109" lon="2.02661">
        <ele>107</ele>
        <time>2012-06-10T11:20:03Z</time>
      </trkpt>
      <trkpt lat="48.73105" lon="2.02664">
        <ele>107</ele>
        <time>2012-06-10T11:20:07Z</time>
      </trkpt>
      <trkpt lat="48.731" lon="2.02668">
        <ele>111</ele>
        <time>2012-06-10T11:20:12Z</time>
      </trkpt>
      <trkpt lat="48.73096" lon="2.02673">
        <ele>110</ele>
        <time>2012-06-10T11:20:16Z</time>
      </trkpt>
      <trkpt lat="48.73091" lon="2.02676">
        <ele>110</ele>
        <time>2012-06-10T11:20:21Z</time>
      </trkpt>
      <trkpt lat="48.73087" lon="2.02681">
        <ele>110</ele>
        <time>2012-06-10T11:20:26Z</time>
      </trkpt>
      <trkpt lat="48.73084" lon="2.02686">
        <ele>111</ele>
        <time>2012-06-10T11:20:29Z</time>
      </trkpt>
      <trkpt lat="48.7308" lon="2.02692">
        <ele>107</ele>
        <time>2012-06-10T11:20:34Z</time>
      </trkpt>
      <trkpt lat="48.73075" lon="2.02695">
        <ele>107</ele>
        <time>2012-06-10T11:20:39Z</time>
      </trkpt>
      <trkpt lat="48.7307" lon="2.02697">
        <ele>107</ele>
        <time>2012-06-10T11:20:42Z</time>
      </trkpt>
      <trkpt lat="48.73067" lon="2.02702">
        <ele>107</ele>
        <time>2012-06-10T11:20:46Z</time>
      </trkpt>
      <trkpt lat="48.73062" lon="2.02709">
        <ele>108</ele>
        <time>2012-06-10T11:20:49Z</time>
      </trkpt>
      <trkpt lat="48.73058" lon="2.02714">
        <ele>108</ele>
        <time>2012-06-10T11:20:53Z</time>
      </trkpt>
      <trkpt lat="48.73055" lon="2.02719">
        <ele>108</ele>
        <time>2012-06-10T11:20:58Z</time>
      </trkpt>
      <trkpt lat="48.73051" lon="2.02726">
        <ele>108</ele>
        <time>2012-06-10T11:21:02Z</time>
      </trkpt>
      <trkpt lat="48.73048" lon="2.02731">
        <ele>108</ele>
        <time>2012-06-10T11:21:06Z</time>
      </trkpt>
      <trkpt lat="48.73044" lon="2.02735">
        <ele>108</ele>
        <time>2012-06-10T11:21:09Z</time>
      </trkpt>
      <trkpt lat="48.73041" lon="2.02743">
        <ele>108</ele>
        <time>2012-06-10T11:21:13Z</time>
      </trkpt>
      <trkpt lat="48.73039" lon="2.02749">
        <ele>108</ele>
        <time>2012-06-10T11:21:17Z</time>
      </trkpt>
      <trkpt lat="48.73035" lon="2.02755">
        <ele>113</ele>
        <time>2012-06-10T11:21:22Z</time>
      </trkpt>
      <trkpt lat="48.73033" lon="2.02762">
        <ele>113</ele>
        <time>2012-06-10T11:21:28Z</time>
      </trkpt>
      <trkpt lat="48.73029" lon="2.02767">
        <ele>113</ele>
        <time>2012-06-10T11:21:31Z</time>
      </trkpt>
      <trkpt lat="48.73021" lon="2.02777">
        <ele>112</ele>
        <time>2012-06-10T11:21:38Z</time>
      </trkpt>
      <trkpt lat="48.73016" lon="2.02782">
        <ele>113</ele>
        <time>2012-06-10T11:21:42Z</time>
      </trkpt>
      <trkpt lat="48.73012" lon="2.02785">
        <ele>113</ele>
        <time>2012-06-10T11:21:46Z</time>
      </trkpt>
      <trkpt lat="48.73007" lon="2.02788">
        <ele>113</ele>
        <time>2012-06-10T11:21:50Z</time>
      </trkpt>
      <trkpt lat="48.73001" lon="2.02789">
        <ele>112</ele>
        <time>2012-06-10T11:21:55Z</time>
      </trkpt>
      <trkpt lat="48.72997" lon="2.02789">
        <ele>105</ele>
        <time>2012-06-10T11:22:00Z</time>
      </trkpt>
      <trkpt lat="48.72992" lon="2.02792">
        <ele>105</ele>
        <time>2012-06-10T11:22:04Z</time>
      </trkpt>
      <trkpt lat="48.72987" lon="2.02794">
        <ele>105</ele>
        <time>2012-06-10T11:22:08Z</time>
      </trkpt>
      <trkpt lat="48.72983" lon="2.02798">
        <ele>105</ele>
        <time>2012-06-10T11:22:12Z</time>
      </trkpt>
      <trkpt lat="48.72978" lon="2.02802">
        <ele>105</ele>
        <time>2012-06-10T11:22:17Z</time>
      </trkpt>
      <trkpt lat="48.72975" lon="2.02808">
        <ele>106</ele>
        <time>2012-06-10T11:22:21Z</time>
      </trkpt>
      <trkpt lat="48.72972" lon="2.02814">
        <ele>106</ele>
        <time>2012-06-10T11:22:25Z</time>
      </trkpt>
      <trkpt lat="48.72969" lon="2.02818">
        <ele>106</ele>
        <time>2012-06-10T11:22:29Z</time>
      </trkpt>
      <trkpt lat="48.72965" lon="2.02822">
        <ele>105</ele>
        <time>2012-06-10T11:22:33Z</time>
      </trkpt>
      <trkpt lat="48.7296" lon="2.02824">
        <ele>105</ele>
        <time>2012-06-10T11:22:37Z</time>
      </trkpt>
      <trkpt lat="48.72955" lon="2.02821">
        <ele>105</ele>
        <time>2012-06-10T11:22:42Z</time>
      </trkpt>
      <trkpt lat="48.72952" lon="2.02816">
        <ele>104</ele>
        <time>2012-06-10T11:22:48Z</time>
      </trkpt>
      <trkpt lat="48.72949" lon="2.02811">
        <ele>104</ele>
        <time>2012-06-10T11:23:09Z</time>
      </trkpt>
      <trkpt lat="48.72948" lon="2.02804">
        <ele>104</ele>
        <time>2012-06-10T11:23:14Z</time>
      </trkpt>
      <trkpt lat="48.72946" lon="2.02797">
        <ele>104</ele>
        <time>2012-06-10T11:23:21Z</time>
      </trkpt>
      <trkpt lat="48.72943" lon="2.0279">
        <ele>103</ele>
        <time>2012-06-10T11:23:31Z</time>
      </trkpt>
      <trkpt lat="48.72941" lon="2.02783">
        <ele>103</ele>
        <time>2012-06-10T11:23:35Z</time>
      </trkpt>
      <trkpt lat="48.72935" lon="2.02773">
        <ele>103</ele>
        <time>2012-06-10T11:23:49Z</time>
      </trkpt>
      <trkpt lat="48.72931" lon="2.02769">
        <ele>102</ele>
        <time>2012-06-10T11:24:05Z</time>
      </trkpt>
      <trkpt lat="48.72927" lon="2.02766">
        <ele>102</ele>
        <time>2012-06-10T11:24:10Z</time>
      </trkpt>
      <trkpt lat="48.72923" lon="2.02764">
        <ele>102</ele>
        <time>2012-06-10T11:24:14Z</time>
      </trkpt>
      <trkpt lat="48.72918" lon="2.0276">
        <ele>101</ele>
        <time>2012-06-10T11:24:19Z</time>
      </trkpt>
      <trkpt lat="48.72915" lon="2.02754">
        <ele>100</ele>
        <time>2012-06-10T11:24:23Z</time>
      </trkpt>
      <trkpt lat="48.72911" lon="2.0275">
        <ele>100</ele>
        <time>2012-06-10T11:24:27Z</time>
      </trkpt>
      <trkpt lat="48.72906" lon="2.02747">
        <ele>100</ele>
        <time>2012-06-10T11:24:33Z</time>
      </trkpt>
      <trkpt lat="48.72899" lon="2.02737">
        <ele>100</ele>
        <time>2012-06-10T11:24:41Z</time>
      </trkpt>
      <trkpt lat="48.72895" lon="2.02732">
        <ele>100</ele>
        <time>2012-06-10T11:24:46Z</time>
      </trkpt>
      <trkpt lat="48.72891" lon="2.02728">
        <ele>100</ele>
        <time>2012-06-10T11:24:49Z</time>
      </trkpt>
      <trkpt lat="48.72886" lon="2.02723">
        <ele>100</ele>
        <time>2012-06-10T11:24:54Z</time>
      </trkpt>
      <trkpt lat="48.72882" lon="2.02718">
        <ele>100</ele>
        <time>2012-06-10T11:24:58Z</time>
      </trkpt>
      <trkpt lat="48.72879" lon="2.02713">
        <ele>100</ele>
        <time>2012-06-10T11:25:03Z</time>
      </trkpt>
      <trkpt lat="48.72874" lon="2.02709">
        <ele>100</ele>
        <time>2012-06-10T11:25:07Z</time>
      </trkpt>
      <trkpt lat="48.7287" lon="2.02705">
        <ele>100</ele>
        <time>2012-06-10T11:25:11Z</time>
      </trkpt>
      <trkpt lat="48.72863" lon="2.02694">
        <ele>100</ele>
        <time>2012-06-10T11:25:19Z</time>
      </trkpt>
      <trkpt lat="48.72859" lon="2.0269">
        <ele>100</ele>
        <time>2012-06-10T11:25:23Z</time>
      </trkpt>
      <trkpt lat="48.72854" lon="2.02686">
        <ele>100</ele>
        <time>2012-06-10T11:25:27Z</time>
      </trkpt>
      <trkpt lat="48.72847" lon="2.02677">
        <ele>99</ele>
        <time>2012-06-10T11:25:35Z</time>
      </trkpt>
      <trkpt lat="48.72843" lon="2.02674">
        <ele>99</ele>
        <time>2012-06-10T11:25:40Z</time>
      </trkpt>
      <trkpt lat="48.72839" lon="2.0267">
        <ele>99</ele>
        <time>2012-06-10T11:25:44Z</time>
      </trkpt>
      <trkpt lat="48.72837" lon="2.02663">
        <ele>99</ele>
        <time>2012-06-10T11:25:49Z</time>
      </trkpt>
      <trkpt lat="48.72832" lon="2.02658">
        <ele>100</ele>
        <time>2012-06-10T11:25:59Z</time>
      </trkpt>
      <trkpt lat="48.72825" lon="2.02651">
        <ele>100</ele>
        <time>2012-06-10T11:26:06Z</time>
      </trkpt>
      <trkpt lat="48.72821" lon="2.02646">
        <ele>101</ele>
        <time>2012-06-10T11:26:11Z</time>
      </trkpt>
      <trkpt lat="48.72816" lon="2.02642">
        <ele>101</ele>
        <time>2012-06-10T11:26:16Z</time>
      </trkpt>
      <trkpt lat="48.72812" lon="2.02636">
        <ele>101</ele>
        <time>2012-06-10T11:26:21Z</time>
      </trkpt>
      <trkpt lat="48.72803" lon="2.02627">
        <ele>101</ele>
        <time>2012-06-10T11:26:28Z</time>
      </trkpt>
      <trkpt lat="48.72799" lon="2.02623">
        <ele>102</ele>
        <time>2012-06-10T11:26:33Z</time>
      </trkpt>
      <trkpt lat="48.72793" lon="2.02619">
        <ele>102</ele>
        <time>2012-06-10T11:26:38Z</time>
      </trkpt>
      <trkpt lat="48.72786" lon="2.0261">
        <ele>102</ele>
        <time>2012-06-10T11:26:46Z</time>
      </trkpt>
      <trkpt lat="48.72781" lon="2.02605">
        <ele>102</ele>
        <time>2012-06-10T11:26:50Z</time>
      </trkpt>
      <trkpt lat="48.72777" lon="2.02601">
        <ele>103</ele>
        <time>2012-06-10T11:26:55Z</time>
      </trkpt>
      <trkpt lat="48.72772" lon="2.02596">
        <ele>103</ele>
        <time>2012-06-10T11:27:00Z</time>
      </trkpt>
      <trkpt lat="48.72768" lon="2.02592">
        <ele>103</ele>
        <time>2012-06-10T11:27:04Z</time>
      </trkpt>
      <trkpt lat="48.72764" lon="2.02587">
        <ele>104</ele>
        <time>2012-06-10T11:27:07Z</time>
      </trkpt>
      <trkpt lat="48.72758" lon="2.02583">
        <ele>105</ele>
        <time>2012-06-10T11:27:12Z</time>
      </trkpt>
      <trkpt lat="48.72755" lon="2.02579">
        <ele>105</ele>
        <time>2012-06-10T11:27:16Z</time>
      </trkpt>
      <trkpt lat="48.72751" lon="2.02576">
        <ele>105</ele>
        <time>2012-06-10T11:27:19Z</time>
      </trkpt>
      <trkpt lat="48.72745" lon="2.02571">
        <ele>107</ele>
        <time>2012-06-10T11:27:24Z</time>
      </trkpt>
      <trkpt lat="48.72741" lon="2.02566">
        <ele>108</ele>
        <time>2012-06-10T11:27:29Z</time>
      </trkpt>
      <trkpt lat="48.72736" lon="2.02562">
        <ele>109</ele>
        <time>2012-06-10T11:27:34Z</time>
      </trkpt>
      <trkpt lat="48.72732" lon="2.02559">
        <ele>109</ele>
        <time>2012-06-10T11:27:38Z</time>
      </trkpt>
      <trkpt lat="48.72728" lon="2.02554">
        <ele>110</ele>
        <time>2012-06-10T11:27:42Z</time>
      </trkpt>
      <trkpt lat="48.72724" lon="2.02549">
        <ele>110</ele>
        <time>2012-06-10T11:27:48Z</time>
      </trkpt>
      <trkpt lat="48.72723" lon="2.02542">
        <ele>110</ele>
        <time>2012-06-10T11:27:54Z</time>
      </trkpt>
      <trkpt lat="48.72718" lon="2.02539">
        <ele>111</ele>
        <time>2012-06-10T11:29:30Z</time>
      </trkpt>
      <trkpt lat="48.72713" lon="2.02541">
        <ele>111</ele>
        <time>2012-06-10T11:29:39Z</time>
      </trkpt>
      <trkpt lat="48.72708" lon="2.02541">
        <ele>111</ele>
        <time>2012-06-10T11:29:44Z</time>
      </trkpt>
      <trkpt lat="48.72704" lon="2.02545">
        <ele>112</ele>
        <time>2012-06-10T11:29:48Z</time>
      </trkpt>
      <trkpt lat="48.72701" lon="2.0255">
        <ele>112</ele>
        <time>2012-06-10T11:29:54Z</time>
      </trkpt>
      <trkpt lat="48.72696" lon="2.02555">
        <ele>112</ele>
        <time>2012-06-10T11:29:59Z</time>
      </trkpt>
      <trkpt lat="48.72693" lon="2.0256">
        <ele>112</ele>
        <time>2012-06-10T11:30:03Z</time>
      </trkpt>
      <trkpt lat="48.72689" lon="2.02567">
        <ele>113</ele>
        <time>2012-06-10T11:30:08Z</time>
      </trkpt>
      <trkpt lat="48.72686" lon="2.02572">
        <ele>113</ele>
        <time>2012-06-10T11:30:13Z</time>
      </trkpt>
      <trkpt lat="48.72683" lon="2.02578">
        <ele>114</ele>
        <time>2012-06-10T11:30:18Z</time>
      </trkpt>
      <trkpt lat="48.72679" lon="2.02582">
        <ele>114</ele>
        <time>2012-06-10T11:30:22Z</time>
      </trkpt>
      <trkpt lat="48.72675" lon="2.02587">
        <ele>113</ele>
        <time>2012-06-10T11:30:27Z</time>
      </trkpt>
      <trkpt lat="48.72672" lon="2.02593">
        <ele>113</ele>
        <time>2012-06-10T11:30:31Z</time>
      </trkpt>
      <trkpt lat="48.72668" lon="2.02598">
        <ele>112</ele>
        <time>2012-06-10T11:30:36Z</time>
      </trkpt>
      <trkpt lat="48.72665" lon="2.02603">
        <ele>117</ele>
        <time>2012-06-10T11:30:40Z</time>
      </trkpt>
      <trkpt lat="48.72662" lon="2.0261">
        <ele>117</ele>
        <time>2012-06-10T11:30:45Z</time>
      </trkpt>
      <trkpt lat="48.72657" lon="2.02615">
        <ele>117</ele>
        <time>2012-06-10T11:30:49Z</time>
      </trkpt>
      <trkpt lat="48.72653" lon="2.02619">
        <ele>117</ele>
        <time>2012-06-10T11:30:53Z</time>
      </trkpt>
      <trkpt lat="48.72649" lon="2.02623">
        <ele>117</ele>
        <time>2012-06-10T11:30:58Z</time>
      </trkpt>
      <trkpt lat="48.72645" lon="2.02627">
        <ele>117</ele>
        <time>2012-06-10T11:31:02Z</time>
      </trkpt>
      <trkpt lat="48.72637" lon="2.02635">
        <ele>117</ele>
        <time>2012-06-10T11:31:09Z</time>
      </trkpt>
      <trkpt lat="48.72633" lon="2.02639">
        <ele>117</ele>
        <time>2012-06-10T11:31:13Z</time>
      </trkpt>
      <trkpt lat="48.72625" lon="2.02648">
        <ele>118</ele>
        <time>2012-06-10T11:31:21Z</time>
      </trkpt>
      <trkpt lat="48.72615" lon="2.02651">
        <ele>118</ele>
        <time>2012-06-10T11:31:29Z</time>
      </trkpt>
      <trkpt lat="48.7261" lon="2.02654">
        <ele>118</ele>
        <time>2012-06-10T11:31:33Z</time>
      </trkpt>
      <trkpt lat="48.72605" lon="2.02655">
        <ele>119</ele>
        <time>2012-06-10T11:31:39Z</time>
      </trkpt>
      <trkpt lat="48.72599" lon="2.02657">
        <ele>119</ele>
        <time>2012-06-10T11:31:45Z</time>
      </trkpt>
      <trkpt lat="48.72594" lon="2.02658">
        <ele>119</ele>
        <time>2012-06-10T11:31:51Z</time>
      </trkpt>
      <trkpt lat="48.72589" lon="2.02661">
        <ele>120</ele>
        <time>2012-06-10T11:31:55Z</time>
      </trkpt>
      <trkpt lat="48.72585" lon="2.02661">
        <ele>120</ele>
        <time>2012-06-10T11:32:00Z</time>
      </trkpt>
      <trkpt lat="48.7258" lon="2.02665">
        <ele>121</ele>
        <time>2012-06-10T11:32:05Z</time>
      </trkpt>
      <trkpt lat="48.72574" lon="2.02668">
        <ele>121</ele>
        <time>2012-06-10T11:32:12Z</time>
      </trkpt>
      <trkpt lat="48.7257" lon="2.02671">
        <ele>122</ele>
        <time>2012-06-10T11:32:15Z</time>
      </trkpt>
      <trkpt lat="48.72567" lon="2.02676">
        <ele>122</ele>
        <time>2012-06-10T11:32:18Z</time>
      </trkpt>
      <trkpt lat="48.72562" lon="2.0268">
        <ele>122</ele>
        <time>2012-06-10T11:32:23Z</time>
      </trkpt>
      <trkpt lat="48.7256" lon="2.02687">
        <ele>123</ele>
        <time>2012-06-10T11:32:36Z</time>
      </trkpt>
      <trkpt lat="48.72557" lon="2.02694">
        <ele>123</ele>
        <time>2012-06-10T11:32:40Z</time>
      </trkpt>
      <trkpt lat="48.72552" lon="2.02697">
        <ele>123</ele>
        <time>2012-06-10T11:32:45Z</time>
      </trkpt>
      <trkpt lat="48.72548" lon="2.02698">
        <ele>123</ele>
        <time>2012-06-10T11:32:50Z</time>
      </trkpt>
      <trkpt lat="48.72544" lon="2.02703">
        <ele>123</ele>
        <time>2012-06-10T11:32:54Z</time>
      </trkpt>
      <trkpt lat="48.7254" lon="2.02706">
        <ele>123</ele>
        <time>2012-06-10T11:32:59Z</time>
      </trkpt>
      <trkpt lat="48.72532" lon="2.02715">
        <ele>123</ele>
        <time>2012-06-10T11:33:07Z</time>
      </trkpt>
      <trkpt lat="48.72526" lon="2.02714">
        <ele>124</ele>
        <time>2012-06-10T11:33:11Z</time>
      </trkpt>
      <trkpt lat="48.7252" lon="2.02713">
        <ele>124</ele>
        <time>2012-06-10T11:33:16Z</time>
      </trkpt>
      <trkpt lat="48.72515" lon="2.02716">
        <ele>124</ele>
        <time>2012-06-10T11:33:23Z</time>
      </trkpt>
      <trkpt lat="48.7251" lon="2.02717">
        <ele>124</ele>
        <time>2012-06-10T11:33:27Z</time>
      </trkpt>
      <trkpt lat="48.72501" lon="2.02717">
        <ele>124</ele>
        <time>2012-06-10T11:33:35Z</time>
      </trkpt>
      <trkpt lat="48.72496" lon="2.02717">
        <ele>130</ele>
        <time>2012-06-10T11:33:39Z</time>
      </trkpt>
      <trkpt lat="48.7249" lon="2.0272">
        <ele>130</ele>
        <time>2012-06-10T11:33:43Z</time>
      </trkpt>
      <trkpt lat="48.72485" lon="2.02723">
        <ele>130</ele>
        <time>2012-06-10T11:33:47Z</time>
      </trkpt>
      <trkpt lat="48.7248" lon="2.02728">
        <ele>130</ele>
        <time>2012-06-10T11:33:51Z</time>
      </trkpt>
      <trkpt lat="48.72476" lon="2.02733">
        <ele>130</ele>
        <time>2012-06-10T11:33:55Z</time>
      </trkpt>
      <trkpt lat="48.72472" lon="2.02738">
        <ele>130</ele>
        <time>2012-06-10T11:33:58Z</time>
      </trkpt>
      <trkpt lat="48.72467" lon="2.0274">
        <ele>131</ele>
        <time>2012-06-10T11:34:02Z</time>
      </trkpt>
      <trkpt lat="48.72462" lon="2.0274">
        <ele>132</ele>
        <time>2012-06-10T11:34:06Z</time>
      </trkpt>
      <trkpt lat="48.72457" lon="2.02742">
        <ele>132</ele>
        <time>2012-06-10T11:34:11Z</time>
      </trkpt>
      <trkpt lat="48.72448" lon="2.02747">
        <ele>133</ele>
        <time>2012-06-10T11:34:28Z</time>
      </trkpt>
      <trkpt lat="48.72441" lon="2.02754">
        <ele>131</ele>
        <time>2012-06-10T11:34:43Z</time>
      </trkpt>
      <trkpt lat="48.72436" lon="2.02759">
        <ele>131</ele>
        <time>2012-06-10T11:34:48Z</time>
      </trkpt>
      <trkpt lat="48.72432" lon="2.02763">
        <ele>132</ele>
        <time>2012-06-10T11:34:54Z</time>
      </trkpt>
      <trkpt lat="48.72427" lon="2.02766">
        <ele>132</ele>
        <time>2012-06-10T11:34:58Z</time>
      </trkpt>
      <trkpt lat="48.72424" lon="2.02774">
        <ele>131</ele>
        <time>2012-06-10T11:35:06Z</time>
      </trkpt>
      <trkpt lat="48.72421" lon="2.02779">
        <ele>131</ele>
        <time>2012-06-10T11:35:11Z</time>
      </trkpt>
      <trkpt lat="48.72417" lon="2.02784">
        <ele>131</ele>
        <time>2012-06-10T11:35:16Z</time>
      </trkpt>
      <trkpt lat="48.72412" lon="2.02789">
        <ele>140</ele>
        <time>2012-06-10T11:35:22Z</time>
      </trkpt>
      <trkpt lat="48.72407" lon="2.02792">
        <ele>140</ele>
        <time>2012-06-10T11:35:24Z</time>
      </trkpt>
      <trkpt lat="48.72403" lon="2.02797">
        <ele>140</ele>
        <time>2012-06-10T11:35:27Z</time>
      </trkpt>
      <trkpt lat="48.72399" lon="2.028">
        <ele>141</ele>
        <time>2012-06-10T11:35:34Z</time>
      </trkpt>
      <trkpt lat="48.72395" lon="2.02804">
        <ele>141</ele>
        <time>2012-06-10T11:35:37Z</time>
      </trkpt>
      <trkpt lat="48.7239" lon="2.02808">
        <ele>141</ele>
        <time>2012-06-10T11:35:39Z</time>
      </trkpt>
      <trkpt lat="48.72386" lon="2.02811">
        <ele>142</ele>
        <time>2012-06-10T11:35:42Z</time>
      </trkpt>
      <trkpt lat="48.72381" lon="2.02815">
        <ele>142</ele>
        <time>2012-06-10T11:35:45Z</time>
      </trkpt>
      <trkpt lat="48.72377" lon="2.02819">
        <ele>142</ele>
        <time>2012-06-10T11:35:48Z</time>
      </trkpt>
      <trkpt lat="48.72368" lon="2.02822">
        <ele>143</ele>
        <time>2012-06-10T11:35:57Z</time>
      </trkpt>
      <trkpt lat="48.72363" lon="2.02823">
        <ele>144</ele>
        <time>2012-06-10T11:36:02Z</time>
      </trkpt>
      <trkpt lat="48.72359" lon="2.02827">
        <ele>144</ele>
        <time>2012-06-10T11:36:09Z</time>
      </trkpt>
      <trkpt lat="48.72349" lon="2.02828">
        <ele>146</ele>
        <time>2012-06-10T11:36:29Z</time>
      </trkpt>
      <trkpt lat="48.72345" lon="2.0283">
        <ele>146</ele>
        <time>2012-06-10T11:36:33Z</time>
      </trkpt>
      <trkpt lat="48.7234" lon="2.02829">
        <ele>147</ele>
        <time>2012-06-10T11:36:38Z</time>
      </trkpt>
      <trkpt lat="48.7233" lon="2.02828">
        <ele>151</ele>
        <time>2012-06-10T11:36:48Z</time>
      </trkpt>
      <trkpt lat="48.72326" lon="2.02828">
        <ele>152</ele>
        <time>2012-06-10T11:36:52Z</time>
      </trkpt>
      <trkpt lat="48.72321" lon="2.0283">
        <ele>153</ele>
        <time>2012-06-10T11:36:57Z</time>
      </trkpt>
      <trkpt lat="48.72313" lon="2.02838">
        <ele>154</ele>
        <time>2012-06-10T11:37:05Z</time>
      </trkpt>
      <trkpt lat="48.72309" lon="2.02843">
        <ele>155</ele>
        <time>2012-06-10T11:37:09Z</time>
      </trkpt>
      <trkpt lat="48.72304" lon="2.02846">
        <ele>155</ele>
        <time>2012-06-10T11:37:12Z</time>
      </trkpt>
      <trkpt lat="48.72301" lon="2.02852">
        <ele>156</ele>
        <time>2012-06-10T11:37:16Z</time>
      </trkpt>
      <trkpt lat="48.72297" lon="2.02855">
        <ele>157</ele>
        <time>2012-06-10T11:37:20Z</time>
      </trkpt>
      <trkpt lat="48.72292" lon="2.02857">
        <ele>157</ele>
        <time>2012-06-10T11:37:24Z</time>
      </trkpt>
      <trkpt lat="48.72288" lon="2.0286">
        <ele>158</ele>
        <time>2012-06-10T11:37:27Z</time>
      </trkpt>
      <trkpt lat="48.72284" lon="2.02865">
        <ele>158</ele>
        <time>2012-06-10T11:37:33Z</time>
      </trkpt>
      <trkpt lat="48.72282" lon="2.02871">
        <ele>158</ele>
        <time>2012-06-10T11:37:38Z</time>
      </trkpt>
      <trkpt lat="48.72279" lon="2.02877">
        <ele>158</ele>
        <time>2012-06-10T11:37:41Z</time>
      </trkpt>
      <trkpt lat="48.72276" lon="2.02884">
        <ele>159</ele>
        <time>2012-06-10T11:37:47Z</time>
      </trkpt>
      <trkpt lat="48.72271" lon="2.02888">
        <ele>159</ele>
        <time>2012-06-10T11:37:53Z</time>
      </trkpt>
      <trkpt lat="48.72269" lon="2.02894">
        <ele>159</ele>
        <time>2012-06-10T11:37:57Z</time>
      </trkpt>
      <trkpt lat="48.72269" lon="2.02901">
        <ele>160</ele>
        <time>2012-06-10T11:38:02Z</time>
      </trkpt>
      <trkpt lat="48.72271" lon="2.02907">
        <ele>160</ele>
        <time>2012-06-10T11:38:06Z</time>
      </trkpt>
      <trkpt lat="48.72276" lon="2.02911">
        <ele>159</ele>
        <time>2012-06-10T11:38:10Z</time>
      </trkpt>
      <trkpt lat="48.72276" lon="2.02918">
        <ele>161</ele>
        <time>2012-06-10T11:38:17Z</time>
      </trkpt>
      <trkpt lat="48.72271" lon="2.02922">
        <ele>161</ele>
        <time>2012-06-10T11:38:22Z</time>
      </trkpt>
      <trkpt lat="48.72266" lon="2.02923">
        <ele>162</ele>
        <time>2012-06-10T11:38:25Z</time>
      </trkpt>
      <trkpt lat="48.72262" lon="2.02928">
        <ele>162</ele>
        <time>2012-06-10T11:38:29Z</time>
      </trkpt>
      <trkpt lat="48.72258" lon="2.02931">
        <ele>162</ele>
        <time>2012-06-10T11:38:33Z</time>
      </trkpt>
      <trkpt lat="48.72253" lon="2.02929">
        <ele>162</ele>
        <time>2012-06-10T11:38:37Z</time>
      </trkpt>
      <trkpt lat="48.72247" lon="2.02926">
        <ele>165</ele>
        <time>2012-06-10T11:38:41Z</time>
      </trkpt>
      <trkpt lat="48.72243" lon="2.02923">
        <ele>165</ele>
        <time>2012-06-10T11:38:45Z</time>
      </trkpt>
      <trkpt lat="48.72237" lon="2.02922">
        <ele>165</ele>
        <time>2012-06-10T11:38:49Z</time>
      </trkpt>
      <trkpt lat="48.72233" lon="2.02923">
        <ele>166</ele>
        <time>2012-06-10T11:38:54Z</time>
      </trkpt>
      <trkpt lat="48.72227" lon="2.02926">
        <ele>166</ele>
        <time>2012-06-10T11:38:58Z</time>
      </trkpt>
      <trkpt lat="48.72223" lon="2.02929">
        <ele>166</ele>
        <time>2012-06-10T11:39:04Z</time>
      </trkpt>
      <trkpt lat="48.72217" lon="2.02931">
        <ele>167</ele>
        <time>2012-06-10T11:39:08Z</time>
      </trkpt>
      <trkpt lat="48.72213" lon="2.02934">
        <ele>167</ele>
        <time>2012-06-10T11:39:12Z</time>
      </trkpt>
      <trkpt lat="48.72203" lon="2.02935">
        <ele>167</ele>
        <time>2012-06-10T11:39:21Z</time>
      </trkpt>
      <trkpt lat="48.72199" lon="2.02939">
        <ele>167</ele>
        <time>2012-06-10T11:39:26Z</time>
      </trkpt>
      <trkpt lat="48.72204" lon="2.02942">
        <ele>167</ele>
        <time>2012-06-10T11:39:34Z</time>
      </trkpt>
      <trkpt lat="48.72202" lon="2.0295">
        <ele>167</ele>
        <time>2012-06-10T11:39:40Z</time>
      </trkpt>
      <trkpt lat="48.722" lon="2.02958">
        <ele>167</ele>
        <time>2012-06-10T11:39:43Z</time>
      </trkpt>
      <trkpt lat="48.722" lon="2.02965">
        <ele>167</ele>
        <time>2012-06-10T11:39:47Z</time>
      </trkpt>
      <trkpt lat="48.722" lon="2.02973">
        <ele>167</ele>
        <time>2012-06-10T11:39:50Z</time>
      </trkpt>
      <trkpt lat="48.72199" lon="2.0298">
        <ele>167</ele>
        <time>2012-06-10T11:39:53Z</time>
      </trkpt>
      <trkpt lat="48.72195" lon="2.02986">
        <ele>168</ele>
        <time>2012-06-10T11:39:57Z</time>
      </trkpt>
      <trkpt lat="48.72195" lon="2.02994">
        <ele>168</ele>
        <time>2012-06-10T11:40:02Z</time>
      </trkpt>
      <trkpt lat="48.72196" lon="2.02984">
        <ele>167</ele>
        <time>2012-06-10T11:40:49Z</time>
      </trkpt>
      <trkpt lat="48.72197" lon="2.02976">
        <ele>167</ele>
        <time>2012-06-10T11:40:53Z</time>
      </trkpt>
      <trkpt lat="48.72196" lon="2.02962">
        <ele>167</ele>
        <time>2012-06-10T11:41:01Z</time>
      </trkpt>
      <trkpt lat="48.72198" lon="2.02953">
        <ele>167</ele>
        <time>2012-06-10T11:41:05Z</time>
      </trkpt>
      <trkpt lat="48.72199" lon="2.02944">
        <ele>167</ele>
        <time>2012-06-10T11:41:08Z</time>
      </trkpt>
      <trkpt lat="48.72199" lon="2.02931">
        <ele>167</ele>
        <time>2012-06-10T11:41:24Z</time>
      </trkpt>
      <trkpt lat="48.72194" lon="2.02931">
        <ele>167</ele>
        <time>2012-06-10T11:42:13Z</time>
      </trkpt>
      <trkpt lat="48.72198" lon="2.02935">
        <ele>167</ele>
        <time>2012-06-10T11:42:48Z</time>
      </trkpt>
      <trkpt lat="48.72194" lon="2.02932">
        <ele>167</ele>
        <time>2012-06-10T11:44:01Z</time>
      </trkpt>
      <trkpt lat="48.72198" lon="2.02935">
        <ele>167</ele>
        <time>2012-06-10T11:45:41Z</time>
      </trkpt>
      <trkpt lat="48.72194" lon="2.02931">
        <ele>167</ele>
        <time>2012-06-10T11:47:31Z</time>
      </trkpt>
      <trkpt lat="48.72198" lon="2.02927">
        <ele>167</ele>
        <time>2012-06-10T11:47:48Z</time>
      </trkpt>
      <trkpt lat="48.72189" lon="2.02928">
        <ele>168</ele>
        <time>2012-06-10T11:48:32Z</time>
      </trkpt>
      <trkpt lat="48.72184" lon="2.02928">
        <ele>168</ele>
        <time>2012-06-10T11:48:37Z</time>
      </trkpt>
      <trkpt lat="48.72174" lon="2.02929">
        <ele>168</ele>
        <time>2012-06-10T11:48:46Z</time>
      </trkpt>
      <trkpt lat="48.7217" lon="2.02932">
        <ele>168</ele>
        <time>2012-06-10T11:48:50Z</time>
      </trkpt>
      <trkpt lat="48.7216" lon="2.02936">
        <ele>170</ele>
        <time>2012-06-10T11:48:57Z</time>
      </trkpt>
      <trkpt lat="48.72154" lon="2.02936">
        <ele>170</ele>
        <time>2012-06-10T11:49:01Z</time>
      </trkpt>
      <trkpt lat="48.7215" lon="2.02938">
        <ele>170</ele>
        <time>2012-06-10T11:49:06Z</time>
      </trkpt>
      <trkpt lat="48.72152" lon="2.02932">
        <ele>170</ele>
        <time>2012-06-10T11:49:23Z</time>
      </trkpt>
      <trkpt lat="48.72157" lon="2.02929">
        <ele>169</ele>
        <time>2012-06-10T11:49:29Z</time>
      </trkpt>
      <trkpt lat="48.72162" lon="2.02927">
        <ele>169</ele>
        <time>2012-06-10T11:49:35Z</time>
      </trkpt>
      <trkpt lat="48.72167" lon="2.02926">
        <ele>168</ele>
        <time>2012-06-10T11:49:46Z</time>
      </trkpt>
      <trkpt lat="48.72175" lon="2.02922">
        <ele>168</ele>
        <time>2012-06-10T11:49:56Z</time>
      </trkpt>
      <trkpt lat="48.7218" lon="2.0292">
        <ele>168</ele>
        <time>2012-06-10T11:50:01Z</time>
      </trkpt>
      <trkpt lat="48.72184" lon="2.02918">
        <ele>168</ele>
        <time>2012-06-10T11:50:04Z</time>
      </trkpt>
      <trkpt lat="48.72189" lon="2.02919">
        <ele>168</ele>
        <time>2012-06-10T11:50:08Z</time>
      </trkpt>
      <trkpt lat="48.72195" lon="2.02922">
        <ele>167</ele>
        <time>2012-06-10T11:50:12Z</time>
      </trkpt>
      <trkpt lat="48.722" lon="2.02925">
        <ele>167</ele>
        <time>2012-06-10T11:50:17Z</time>
      </trkpt>
      <trkpt lat="48.72204" lon="2.02929">
        <ele>167</ele>
        <time>2012-06-10T11:50:22Z</time>
      </trkpt>
      <trkpt lat="48.72209" lon="2.0293">
        <ele>167</ele>
        <time>2012-06-10T11:50:28Z</time>
      </trkpt>
      <trkpt lat="48.72214" lon="2.02933">
        <ele>167</ele>
        <time>2012-06-10T11:50:34Z</time>
      </trkpt>
      <trkpt lat="48.72217" lon="2.02938">
        <ele>167</ele>
        <time>2012-06-10T11:50:38Z</time>
      </trkpt>
      <trkpt lat="48.72223" lon="2.02941">
        <ele>166</ele>
        <time>2012-06-10T11:50:43Z</time>
      </trkpt>
      <trkpt lat="48.72226" lon="2.02945">
        <ele>166</ele>
        <time>2012-06-10T11:50:49Z</time>
      </trkpt>
      <trkpt lat="48.72229" lon="2.02954">
        <ele>166</ele>
        <time>2012-06-10T11:50:53Z</time>
      </trkpt>
      <trkpt lat="48.72231" lon="2.02961">
        <ele>167</ele>
        <time>2012-06-10T11:50:59Z</time>
      </trkpt>
      <trkpt lat="48.72235" lon="2.02963">
        <ele>166</ele>
        <time>2012-06-10T11:51:03Z</time>
      </trkpt>
      <trkpt lat="48.7224" lon="2.02965">
        <ele>166</ele>
        <time>2012-06-10T11:51:08Z</time>
      </trkpt>
      <trkpt lat="48.72244" lon="2.02969">
        <ele>166</ele>
        <time>2012-06-10T11:51:11Z</time>
      </trkpt>
      <trkpt lat="48.72245" lon="2.02976">
        <ele>166</ele>
        <time>2012-06-10T11:51:15Z</time>
      </trkpt>
      <trkpt lat="48.72237" lon="2.02977">
        <ele>167</ele>
        <time>2012-06-10T11:51:21Z</time>
      </trkpt>
      <trkpt lat="48.72244" lon="2.02987">
        <ele>166</ele>
        <time>2012-06-10T11:51:30Z</time>
      </trkpt>
      <trkpt lat="48.72248" lon="2.02991">
        <ele>166</ele>
        <time>2012-06-10T11:51:33Z</time>
      </trkpt>
      <trkpt lat="48.72251" lon="2.02997">
        <ele>165</ele>
        <time>2012-06-10T11:51:37Z</time>
      </trkpt>
      <trkpt lat="48.72256" lon="2.03002">
        <ele>166</ele>
        <time>2012-06-10T11:51:42Z</time>
      </trkpt>
      <trkpt lat="48.7226" lon="2.03007">
        <ele>165</ele>
        <time>2012-06-10T11:51:45Z</time>
      </trkpt>
      <trkpt lat="48.72263" lon="2.03014">
        <ele>165</ele>
        <time>2012-06-10T11:51:50Z</time>
      </trkpt>
      <trkpt lat="48.72266" lon="2.03022">
        <ele>165</ele>
        <time>2012-06-10T11:51:53Z</time>
      </trkpt>
      <trkpt lat="48.7227" lon="2.03029">
        <ele>165</ele>
        <time>2012-06-10T11:51:56Z</time>
      </trkpt>
      <trkpt lat="48.72273" lon="2.03035">
        <ele>165</ele>
        <time>2012-06-10T11:51:59Z</time>
      </trkpt>
      <trkpt lat="48.72276" lon="2.03041">
        <ele>165</ele>
        <time>2012-06-10T11:52:04Z</time>
      </trkpt>
      <trkpt lat="48.72278" lon="2.03048">
        <ele>165</ele>
        <time>2012-06-10T11:52:09Z</time>
      </trkpt>
      <trkpt lat="48.7228" lon="2.03054">
        <ele>165</ele>
        <time>2012-06-10T11:52:13Z</time>
      </trkpt>
      <trkpt lat="48.72282" lon="2.03061">
        <ele>165</ele>
        <time>2012-06-10T11:52:19Z</time>
      </trkpt>
      <trkpt lat="48.72284" lon="2.03068">
        <ele>165</ele>
        <time>2012-06-10T11:52:23Z</time>
      </trkpt>
      <trkpt lat="48.72282" lon="2.03075">
        <ele>166</ele>
        <time>2012-06-10T11:52:28Z</time>
      </trkpt>
      <trkpt lat="48.72284" lon="2.03084">
        <ele>168</ele>
        <time>2012-06-10T11:52:35Z</time>
      </trkpt>
      <trkpt lat="48.72287" lon="2.03093">
        <ele>168</ele>
        <time>2012-06-10T11:52:38Z</time>
      </trkpt>
      <trkpt lat="48.72291" lon="2.03099">
        <ele>168</ele>
        <time>2012-06-10T11:52:41Z</time>
      </trkpt>
      <trkpt lat="48.72293" lon="2.03105">
        <ele>168</ele>
        <time>2012-06-10T11:52:43Z</time>
      </trkpt>
      <trkpt lat="48.72294" lon="2.03114">
        <ele>168</ele>
        <time>2012-06-10T11:52:46Z</time>
      </trkpt>
      <trkpt lat="48.72298" lon="2.03121">
        <ele>168</ele>
        <time>2012-06-10T11:52:49Z</time>
      </trkpt>
      <trkpt lat="48.723" lon="2.03128">
        <ele>168</ele>
        <time>2012-06-10T11:52:52Z</time>
      </trkpt>
      <trkpt lat="48.72302" lon="2.03135">
        <ele>168</ele>
        <time>2012-06-10T11:53:00Z</time>
      </trkpt>
      <trkpt lat="48.72301" lon="2.0315">
        <ele>168</ele>
        <time>2012-06-10T11:53:07Z</time>
      </trkpt>
      <trkpt lat="48.72299" lon="2.03157">
        <ele>168</ele>
        <time>2012-06-10T11:53:10Z</time>
      </trkpt>
      <trkpt lat="48.72299" lon="2.03164">
        <ele>168</ele>
        <time>2012-06-10T11:53:12Z</time>
      </trkpt>
      <trkpt lat="48.72298" lon="2.03171">
        <ele>170</ele>
        <time>2012-06-10T11:53:16Z</time>
      </trkpt>
      <trkpt lat="48.72297" lon="2.03178">
        <ele>170</ele>
        <time>2012-06-10T11:53:19Z</time>
      </trkpt>
      <trkpt lat="48.72295" lon="2.03186">
        <ele>170</ele>
        <time>2012-06-10T11:53:24Z</time>
      </trkpt>
      <trkpt lat="48.72296" lon="2.03193">
        <ele>170</ele>
        <time>2012-06-10T11:53:28Z</time>
      </trkpt>
      <trkpt lat="48.72293" lon="2.03199">
        <ele>171</ele>
        <time>2012-06-10T11:53:31Z</time>
      </trkpt>
      <trkpt lat="48.72292" lon="2.03206">
        <ele>171</ele>
        <time>2012-06-10T11:53:35Z</time>
      </trkpt>
      <trkpt lat="48.72292" lon="2.03216">
        <ele>171</ele>
        <time>2012-06-10T11:53:39Z</time>
      </trkpt>
      <trkpt lat="48.72292" lon="2.03223">
        <ele>171</ele>
        <time>2012-06-10T11:53:44Z</time>
      </trkpt>
      <trkpt lat="48.7229" lon="2.03231">
        <ele>171</ele>
        <time>2012-06-10T11:53:48Z</time>
      </trkpt>
      <trkpt lat="48.72292" lon="2.03237">
        <ele>171</ele>
        <time>2012-06-10T11:53:51Z</time>
      </trkpt>
      <trkpt lat="48.72292" lon="2.03245">
        <ele>171</ele>
        <time>2012-06-10T11:53:57Z</time>
      </trkpt>
      <trkpt lat="48.72293" lon="2.03253">
        <ele>172</ele>
        <time>2012-06-10T11:54:00Z</time>
      </trkpt>
      <trkpt lat="48.72295" lon="2.0326">
        <ele>172</ele>
        <time>2012-06-10T11:54:05Z</time>
      </trkpt>
      <trkpt lat="48.72298" lon="2.03266">
        <ele>171</ele>
        <time>2012-06-10T11:54:08Z</time>
      </trkpt>
      <trkpt lat="48.723" lon="2.03272">
        <ele>171</ele>
        <time>2012-06-10T11:54:10Z</time>
      </trkpt>
      <trkpt lat="48.72303" lon="2.03278">
        <ele>171</ele>
        <time>2012-06-10T11:54:13Z</time>
      </trkpt>
      <trkpt lat="48.72304" lon="2.03285">
        <ele>171</ele>
        <time>2012-06-10T11:54:17Z</time>
      </trkpt>
      <trkpt lat="48.72308" lon="2.03292">
        <ele>171</ele>
        <time>2012-06-10T11:54:23Z</time>
      </trkpt>
      <trkpt lat="48.72311" lon="2.03298">
        <ele>171</ele>
        <time>2012-06-10T11:54:27Z</time>
      </trkpt>
      <trkpt lat="48.72313" lon="2.03305">
        <ele>171</ele>
        <time>2012-06-10T11:54:31Z</time>
      </trkpt>
      <trkpt lat="48.72315" lon="2.03313">
        <ele>170</ele>
        <time>2012-06-10T11:54:36Z</time>
      </trkpt>
      <trkpt lat="48.72319" lon="2.0332">
        <ele>170</ele>
        <time>2012-06-10T11:54:41Z</time>
      </trkpt>
      <trkpt lat="48.72324" lon="2.03333">
        <ele>169</ele>
        <time>2012-06-10T11:54:48Z</time>
      </trkpt>
      <trkpt lat="48.72327" lon="2.03338">
        <ele>169</ele>
        <time>2012-06-10T11:54:51Z</time>
      </trkpt>
      <trkpt lat="48.7233" lon="2.03345">
        <ele>169</ele>
        <time>2012-06-10T11:54:55Z</time>
      </trkpt>
      <trkpt lat="48.72334" lon="2.03351">
        <ele>166</ele>
        <time>2012-06-10T11:54:59Z</time>
      </trkpt>
      <trkpt lat="48.72336" lon="2.03367">
        <ele>166</ele>
        <time>2012-06-10T11:55:06Z</time>
      </trkpt>
      <trkpt lat="48.72337" lon="2.03374">
        <ele>166</ele>
        <time>2012-06-10T11:55:11Z</time>
      </trkpt>
      <trkpt lat="48.72337" lon="2.03382">
        <ele>166</ele>
        <time>2012-06-10T11:55:16Z</time>
      </trkpt>
      <trkpt lat="48.72338" lon="2.03389">
        <ele>166</ele>
        <time>2012-06-10T11:55:21Z</time>
      </trkpt>
      <trkpt lat="48.72338" lon="2.03396">
        <ele>167</ele>
        <time>2012-06-10T11:55:24Z</time>
      </trkpt>
      <trkpt lat="48.72338" lon="2.03405">
        <ele>168</ele>
        <time>2012-06-10T11:55:27Z</time>
      </trkpt>
      <trkpt lat="48.7234" lon="2.03412">
        <ele>168</ele>
        <time>2012-06-10T11:55:31Z</time>
      </trkpt>
      <trkpt lat="48.72341" lon="2.03425">
        <ele>168</ele>
        <time>2012-06-10T11:55:40Z</time>
      </trkpt>
      <trkpt lat="48.72341" lon="2.03433">
        <ele>167</ele>
        <time>2012-06-10T11:55:44Z</time>
      </trkpt>
      <trkpt lat="48.72339" lon="2.0344">
        <ele>166</ele>
        <time>2012-06-10T11:55:48Z</time>
      </trkpt>
      <trkpt lat="48.72338" lon="2.03448">
        <ele>166</ele>
        <time>2012-06-10T11:55:52Z</time>
      </trkpt>
      <trkpt lat="48.72338" lon="2.03456">
        <ele>166</ele>
        <time>2012-06-10T11:55:59Z</time>
      </trkpt>
      <trkpt lat="48.72339" lon="2.03464">
        <ele>166</ele>
        <time>2012-06-10T11:56:04Z</time>
      </trkpt>
      <trkpt lat="48.72338" lon="2.03471">
        <ele>166</ele>
        <time>2012-06-10T11:56:07Z</time>
      </trkpt>
      <trkpt lat="48.72336" lon="2.0348">
        <ele>167</ele>
        <time>2012-06-10T11:56:11Z</time>
      </trkpt>
      <trkpt lat="48.72334" lon="2.03486">
        <ele>167</ele>
        <time>2012-06-10T11:56:14Z</time>
      </trkpt>
      <trkpt lat="48.72333" lon="2.03494">
        <ele>170</ele>
        <time>2012-06-10T11:56:18Z</time>
      </trkpt>
      <trkpt lat="48.72331" lon="2.03501">
        <ele>170</ele>
        <time>2012-06-10T11:56:23Z</time>
      </trkpt>
      <trkpt lat="48.72331" lon="2.03508">
        <ele>170</ele>
        <time>2012-06-10T11:56:27Z</time>
      </trkpt>
      <trkpt lat="48.72331" lon="2.03516">
        <ele>169</ele>
        <time>2012-06-10T11:56:31Z</time>
      </trkpt>
      <trkpt lat="48.7233" lon="2.03523">
        <ele>169</ele>
        <time>2012-06-10T11:56:35Z</time>
      </trkpt>
      <trkpt lat="48.72329" lon="2.03532">
        <ele>169</ele>
        <time>2012-06-10T11:56:40Z</time>
      </trkpt>
      <trkpt lat="48.72328" lon="2.03542">
        <ele>169</ele>
        <time>2012-06-10T11:56:43Z</time>
      </trkpt>
      <trkpt lat="48.72327" lon="2.03549">
        <ele>169</ele>
        <time>2012-06-10T11:56:47Z</time>
      </trkpt>
      <trkpt lat="48.72324" lon="2.03555">
        <ele>169</ele>
        <time>2012-06-10T11:56:50Z</time>
      </trkpt>
      <trkpt lat="48.72327" lon="2.0357">
        <ele>169</ele>
        <time>2012-06-10T11:57:00Z</time>
      </trkpt>
      <trkpt lat="48.72329" lon="2.03577">
        <ele>169</ele>
        <time>2012-06-10T11:57:03Z</time>
      </trkpt>
      <trkpt lat="48.72333" lon="2.03586">
        <ele>169</ele>
        <time>2012-06-10T11:57:07Z</time>
      </trkpt>
      <trkpt lat="48.72336" lon="2.03591">
        <ele>167</ele>
        <time>2012-06-10T11:57:10Z</time>
      </trkpt>
      <trkpt lat="48.72341" lon="2.03597">
        <ele>165</ele>
        <time>2012-06-10T11:57:14Z</time>
      </trkpt>
      <trkpt lat="48.72343" lon="2.03603">
        <ele>164</ele>
        <time>2012-06-10T11:57:19Z</time>
      </trkpt>
      <trkpt lat="48.72345" lon="2.0361">
        <ele>163</ele>
        <time>2012-06-10T11:57:23Z</time>
      </trkpt>
      <trkpt lat="48.72345" lon="2.03618">
        <ele>163</ele>
        <time>2012-06-10T11:57:28Z</time>
      </trkpt>
      <trkpt lat="48.72346" lon="2.03626">
        <ele>162</ele>
        <time>2012-06-10T11:57:33Z</time>
      </trkpt>
      <trkpt lat="48.72349" lon="2.03633">
        <ele>162</ele>
        <time>2012-06-10T11:57:37Z</time>
      </trkpt>
      <trkpt lat="48.7235" lon="2.03641">
        <ele>162</ele>
        <time>2012-06-10T11:57:40Z</time>
      </trkpt>
      <trkpt lat="48.7235" lon="2.03649">
        <ele>162</ele>
        <time>2012-06-10T11:57:44Z</time>
      </trkpt>
      <trkpt lat="48.72352" lon="2.03657">
        <ele>162</ele>
        <time>2012-06-10T11:57:48Z</time>
      </trkpt>
      <trkpt lat="48.72352" lon="2.03664">
        <ele>162</ele>
        <time>2012-06-10T11:57:51Z</time>
      </trkpt>
      <trkpt lat="48.72351" lon="2.03672">
        <ele>163</ele>
        <time>2012-06-10T11:57:55Z</time>
      </trkpt>
      <trkpt lat="48.72351" lon="2.03679">
        <ele>163</ele>
        <time>2012-06-10T11:57:58Z</time>
      </trkpt>
      <trkpt lat="48.7235" lon="2.03688">
        <ele>163</ele>
        <time>2012-06-10T11:58:02Z</time>
      </trkpt>
      <trkpt lat="48.72351" lon="2.03695">
        <ele>163</ele>
        <time>2012-06-10T11:58:07Z</time>
      </trkpt>
      <trkpt lat="48.72351" lon="2.03703">
        <ele>163</ele>
        <time>2012-06-10T11:58:13Z</time>
      </trkpt>
      <trkpt lat="48.72351" lon="2.03711">
        <ele>163</ele>
        <time>2012-06-10T11:58:18Z</time>
      </trkpt>
      <trkpt lat="48.7235" lon="2.03717">
        <ele>163</ele>
        <time>2012-06-10T11:58:23Z</time>
      </trkpt>
      <trkpt lat="48.72351" lon="2.03726">
        <ele>163</ele>
        <time>2012-06-10T11:58:28Z</time>
      </trkpt>
      <trkpt lat="48.72352" lon="2.03733">
        <ele>164</ele>
        <time>2012-06-10T11:58:34Z</time>
      </trkpt>
      <trkpt lat="48.72352" lon="2.03747">
        <ele>164</ele>
        <time>2012-06-10T11:58:41Z</time>
      </trkpt>
      <trkpt lat="48.72353" lon="2.03755">
        <ele>166</ele>
        <time>2012-06-10T11:58:44Z</time>
      </trkpt>
      <trkpt lat="48.72353" lon="2.03762">
        <ele>166</ele>
        <time>2012-06-10T11:58:48Z</time>
      </trkpt>
      <trkpt lat="48.72355" lon="2.03769">
        <ele>165</ele>
        <time>2012-06-10T11:58:51Z</time>
      </trkpt>
      <trkpt lat="48.72356" lon="2.03777">
        <ele>165</ele>
        <time>2012-06-10T11:58:54Z</time>
      </trkpt>
      <trkpt lat="48.72356" lon="2.03785">
        <ele>165</ele>
        <time>2012-06-10T11:58:57Z</time>
      </trkpt>
      <trkpt lat="48.72357" lon="2.03792">
        <ele>165</ele>
        <time>2012-06-10T11:59:02Z</time>
      </trkpt>
      <trkpt lat="48.72357" lon="2.038">
        <ele>165</ele>
        <time>2012-06-10T11:59:07Z</time>
      </trkpt>
      <trkpt lat="48.72356" lon="2.03807">
        <ele>166</ele>
        <time>2012-06-10T11:59:10Z</time>
      </trkpt>
      <trkpt lat="48.72353" lon="2.03815">
        <ele>166</ele>
        <time>2012-06-10T11:59:14Z</time>
      </trkpt>
      <trkpt lat="48.72353" lon="2.03822">
        <ele>166</ele>
        <time>2012-06-10T11:59:18Z</time>
      </trkpt>
      <trkpt lat="48.72348" lon="2.03834">
        <ele>167</ele>
        <time>2012-06-10T11:59:24Z</time>
      </trkpt>
      <trkpt lat="48.72346" lon="2.03841">
        <ele>167</ele>
        <time>2012-06-10T11:59:27Z</time>
      </trkpt>
      <trkpt lat="48.72344" lon="2.03849">
        <ele>167</ele>
        <time>2012-06-10T11:59:31Z</time>
      </trkpt>
      <trkpt lat="48.7234" lon="2.03857">
        <ele>167</ele>
        <time>2012-06-10T11:59:35Z</time>
      </trkpt>
      <trkpt lat="48.72337" lon="2.03862">
        <ele>167</ele>
        <time>2012-06-10T11:59:38Z</time>
      </trkpt>
      <trkpt lat="48.72334" lon="2.0387">
        <ele>168</ele>
        <time>2012-06-10T11:59:43Z</time>
      </trkpt>
      <trkpt lat="48.72332" lon="2.03877">
        <ele>168</ele>
        <time>2012-06-10T11:59:47Z</time>
      </trkpt>
      <trkpt lat="48.72329" lon="2.03883">
        <ele>168</ele>
        <time>2012-06-10T11:59:51Z</time>
      </trkpt>
      <trkpt lat="48.72328" lon="2.0389">
        <ele>169</ele>
        <time>2012-06-10T11:59:55Z</time>
      </trkpt>
      <trkpt lat="48.7233" lon="2.03897">
        <ele>169</ele>
        <time>2012-06-10T12:00:01Z</time>
      </trkpt>
      <trkpt lat="48.72327" lon="2.03903">
        <ele>169</ele>
        <time>2012-06-10T12:00:05Z</time>
      </trkpt>
      <trkpt lat="48.72325" lon="2.0391">
        <ele>169</ele>
        <time>2012-06-10T12:00:08Z</time>
      </trkpt>
      <trkpt lat="48.72322" lon="2.03916">
        <ele>169</ele>
        <time>2012-06-10T12:00:12Z</time>
      </trkpt>
      <trkpt lat="48.72319" lon="2.03924">
        <ele>170</ele>
        <time>2012-06-10T12:00:15Z</time>
      </trkpt>
      <trkpt lat="48.72316" lon="2.03929">
        <ele>170</ele>
        <time>2012-06-10T12:00:19Z</time>
      </trkpt>
      <trkpt lat="48.72312" lon="2.03935">
        <ele>169</ele>
        <time>2012-06-10T12:00:22Z</time>
      </trkpt>
      <trkpt lat="48.72308" lon="2.0394">
        <ele>169</ele>
        <time>2012-06-10T12:00:26Z</time>
      </trkpt>
      <trkpt lat="48.72304" lon="2.03944">
        <ele>169</ele>
        <time>2012-06-10T12:00:30Z</time>
      </trkpt>
      <trkpt lat="48.723" lon="2.0395">
        <ele>169</ele>
        <time>2012-06-10T12:00:33Z</time>
      </trkpt>
      <trkpt lat="48.72293" lon="2.0396">
        <ele>169</ele>
        <time>2012-06-10T12:00:40Z</time>
      </trkpt>
      <trkpt lat="48.72289" lon="2.03966">
        <ele>169</ele>
        <time>2012-06-10T12:00:44Z</time>
      </trkpt>
      <trkpt lat="48.72283" lon="2.03969">
        <ele>169</ele>
        <time>2012-06-10T12:00:50Z</time>
      </trkpt>
      <trkpt lat="48.72279" lon="2.03975">
        <ele>169</ele>
        <time>2012-06-10T12:00:55Z</time>
      </trkpt>
      <trkpt lat="48.72275" lon="2.03981">
        <ele>169</ele>
        <time>2012-06-10T12:00:58Z</time>
      </trkpt>
      <trkpt lat="48.72271" lon="2.03986">
        <ele>169</ele>
        <time>2012-06-10T12:01:02Z</time>
      </trkpt>
      <trkpt lat="48.72266" lon="2.03991">
        <ele>170</ele>
        <time>2012-06-10T12:01:07Z</time>
      </trkpt>
      <trkpt lat="48.72262" lon="2.03995">
        <ele>170</ele>
        <time>2012-06-10T12:01:11Z</time>
      </trkpt>
      <trkpt lat="48.72257" lon="2.04001">
        <ele>169</ele>
        <time>2012-06-10T12:01:15Z</time>
      </trkpt>
      <trkpt lat="48.72253" lon="2.04006">
        <ele>169</ele>
        <time>2012-06-10T12:01:18Z</time>
      </trkpt>
      <trkpt lat="48.72248" lon="2.04011">
        <ele>169</ele>
        <time>2012-06-10T12:01:22Z</time>
      </trkpt>
      <trkpt lat="48.72244" lon="2.04015">
        <ele>169</ele>
        <time>2012-06-10T12:01:27Z</time>
      </trkpt>
      <trkpt lat="48.72239" lon="2.04017">
        <ele>169</ele>
        <time>2012-06-10T12:01:32Z</time>
      </trkpt>
      <trkpt lat="48.72235" lon="2.04023">
        <ele>169</ele>
        <time>2012-06-10T12:01:36Z</time>
      </trkpt>
      <trkpt lat="48.72232" lon="2.04029">
        <ele>169</ele>
        <time>2012-06-10T12:01:40Z</time>
      </trkpt>
      <trkpt lat="48.72223" lon="2.04035">
        <ele>168</ele>
        <time>2012-06-10T12:01:47Z</time>
      </trkpt>
      <trkpt lat="48.72219" lon="2.04041">
        <ele>168</ele>
        <time>2012-06-10T12:01:52Z</time>
      </trkpt>
      <trkpt lat="48.72216" lon="2.04047">
        <ele>168</ele>
        <time>2012-06-10T12:01:56Z</time>
      </trkpt>
      <trkpt lat="48.72214" lon="2.04053">
        <ele>168</ele>
        <time>2012-06-10T12:02:03Z</time>
      </trkpt>
      <trkpt lat="48.7221" lon="2.04059">
        <ele>168</ele>
        <time>2012-06-10T12:02:07Z</time>
      </trkpt>
      <trkpt lat="48.72205" lon="2.04064">
        <ele>168</ele>
        <time>2012-06-10T12:02:11Z</time>
      </trkpt>
      <trkpt lat="48.72202" lon="2.0407">
        <ele>168</ele>
        <time>2012-06-10T12:02:16Z</time>
      </trkpt>
      <trkpt lat="48.72198" lon="2.04075">
        <ele>168</ele>
        <time>2012-06-10T12:02:21Z</time>
      </trkpt>
      <trkpt lat="48.72194" lon="2.04079">
        <ele>168</ele>
        <time>2012-06-10T12:02:24Z</time>
      </trkpt>
      <trkpt lat="48.7219" lon="2.04085">
        <ele>167</ele>
        <time>2012-06-10T12:02:27Z</time>
      </trkpt>
      <trkpt lat="48.72187" lon="2.0409">
        <ele>167</ele>
        <time>2012-06-10T12:02:34Z</time>
      </trkpt>
      <trkpt lat="48.72184" lon="2.04098">
        <ele>167</ele>
        <time>2012-06-10T12:02:39Z</time>
      </trkpt>
      <trkpt lat="48.7218" lon="2.04111">
        <ele>167</ele>
        <time>2012-06-10T12:02:46Z</time>
      </trkpt>
      <trkpt lat="48.72178" lon="2.04117">
        <ele>167</ele>
        <time>2012-06-10T12:02:51Z</time>
      </trkpt>
      <trkpt lat="48.72175" lon="2.04125">
        <ele>167</ele>
        <time>2012-06-10T12:02:54Z</time>
      </trkpt>
      <trkpt lat="48.72173" lon="2.04132">
        <ele>167</ele>
        <time>2012-06-10T12:02:58Z</time>
      </trkpt>
      <trkpt lat="48.7217" lon="2.04138">
        <ele>166</ele>
        <time>2012-06-10T12:03:01Z</time>
      </trkpt>
      <trkpt lat="48.72168" lon="2.04145">
        <ele>166</ele>
        <time>2012-06-10T12:03:05Z</time>
      </trkpt>
      <trkpt lat="48.72168" lon="2.04152">
        <ele>166</ele>
        <time>2012-06-10T12:03:09Z</time>
      </trkpt>
      <trkpt lat="48.72165" lon="2.04159">
        <ele>165</ele>
        <time>2012-06-10T12:03:13Z</time>
      </trkpt>
      <trkpt lat="48.72161" lon="2.04167">
        <ele>166</ele>
        <time>2012-06-10T12:03:18Z</time>
      </trkpt>
      <trkpt lat="48.72159" lon="2.04174">
        <ele>165</ele>
        <time>2012-06-10T12:03:22Z</time>
      </trkpt>
      <trkpt lat="48.72151" lon="2.04182">
        <ele>165</ele>
        <time>2012-06-10T12:03:30Z</time>
      </trkpt>
      <trkpt lat="48.72147" lon="2.04187">
        <ele>165</ele>
        <time>2012-06-10T12:03:33Z</time>
      </trkpt>
      <trkpt lat="48.72144" lon="2.04192">
        <ele>164</ele>
        <time>2012-06-10T12:03:36Z</time>
      </trkpt>
      <trkpt lat="48.72139" lon="2.04196">
        <ele>164</ele>
        <time>2012-06-10T12:03:40Z</time>
      </trkpt>
      <trkpt lat="48.72134" lon="2.042">
        <ele>164</ele>
        <time>2012-06-10T12:03:43Z</time>
      </trkpt>
      <trkpt lat="48.7213" lon="2.04205">
        <ele>164</ele>
        <time>2012-06-10T12:03:46Z</time>
      </trkpt>
      <trkpt lat="48.72126" lon="2.04208">
        <ele>164</ele>
        <time>2012-06-10T12:03:49Z</time>
      </trkpt>
      <trkpt lat="48.7212" lon="2.04219">
        <ele>164</ele>
        <time>2012-06-10T12:03:57Z</time>
      </trkpt>
      <trkpt lat="48.72118" lon="2.04226">
        <ele>164</ele>
        <time>2012-06-10T12:04:00Z</time>
      </trkpt>
      <trkpt lat="48.72118" lon="2.04233">
        <ele>164</ele>
        <time>2012-06-10T12:04:05Z</time>
      </trkpt>
      <trkpt lat="48.72116" lon="2.04241">
        <ele>164</ele>
        <time>2012-06-10T12:04:10Z</time>
      </trkpt>
      <trkpt lat="48.72115" lon="2.04248">
        <ele>164</ele>
        <time>2012-06-10T12:04:15Z</time>
      </trkpt>
      <trkpt lat="48.72113" lon="2.04254">
        <ele>164</ele>
        <time>2012-06-10T12:04:19Z</time>
      </trkpt>
      <trkpt lat="48.7211" lon="2.04262">
        <ele>164</ele>
        <time>2012-06-10T12:04:24Z</time>
      </trkpt>
      <trkpt lat="48.72108" lon="2.04269">
        <ele>164</ele>
        <time>2012-06-10T12:04:28Z</time>
      </trkpt>
      <trkpt lat="48.72108" lon="2.04277">
        <ele>164</ele>
        <time>2012-06-10T12:04:32Z</time>
      </trkpt>
      <trkpt lat="48.72107" lon="2.04285">
        <ele>164</ele>
        <time>2012-06-10T12:04:37Z</time>
      </trkpt>
      <trkpt lat="48.72107" lon="2.04292">
        <ele>164</ele>
        <time>2012-06-10T12:04:40Z</time>
      </trkpt>
      <trkpt lat="48.72109" lon="2.04299">
        <ele>164</ele>
        <time>2012-06-10T12:04:46Z</time>
      </trkpt>
      <trkpt lat="48.72107" lon="2.04307">
        <ele>164</ele>
        <time>2012-06-10T12:04:51Z</time>
      </trkpt>
      <trkpt lat="48.72105" lon="2.04314">
        <ele>164</ele>
        <time>2012-06-10T12:04:55Z</time>
      </trkpt>
      <trkpt lat="48.72104" lon="2.04322">
        <ele>164</ele>
        <time>2012-06-10T12:04:59Z</time>
      </trkpt>
      <trkpt lat="48.72104" lon="2.04329">
        <ele>164</ele>
        <time>2012-06-10T12:05:03Z</time>
      </trkpt>
      <trkpt lat="48.72105" lon="2.04337">
        <ele>162</ele>
        <time>2012-06-10T12:05:07Z</time>
      </trkpt>
      <trkpt lat="48.72104" lon="2.04344">
        <ele>162</ele>
        <time>2012-06-10T12:05:11Z</time>
      </trkpt>
      <trkpt lat="48.72102" lon="2.04351">
        <ele>162</ele>
        <time>2012-06-10T12:05:15Z</time>
      </trkpt>
      <trkpt lat="48.721" lon="2.04358">
        <ele>162</ele>
        <time>2012-06-10T12:05:19Z</time>
      </trkpt>
      <trkpt lat="48.72097" lon="2.04366">
        <ele>161</ele>
        <time>2012-06-10T12:05:23Z</time>
      </trkpt>
      <trkpt lat="48.72097" lon="2.04375">
        <ele>161</ele>
        <time>2012-06-10T12:05:27Z</time>
      </trkpt>
      <trkpt lat="48.72096" lon="2.04383">
        <ele>161</ele>
        <time>2012-06-10T12:05:31Z</time>
      </trkpt>
      <trkpt lat="48.72092" lon="2.04389">
        <ele>161</ele>
        <time>2012-06-10T12:05:36Z</time>
      </trkpt>
      <trkpt lat="48.7209" lon="2.04396">
        <ele>160</ele>
        <time>2012-06-10T12:05:40Z</time>
      </trkpt>
      <trkpt lat="48.7209" lon="2.04404">
        <ele>160</ele>
        <time>2012-06-10T12:05:44Z</time>
      </trkpt>
      <trkpt lat="48.72091" lon="2.04412">
        <ele>160</ele>
        <time>2012-06-10T12:05:48Z</time>
      </trkpt>
      <trkpt lat="48.72091" lon="2.04419">
        <ele>159</ele>
        <time>2012-06-10T12:05:52Z</time>
      </trkpt>
      <trkpt lat="48.72092" lon="2.04427">
        <ele>158</ele>
        <time>2012-06-10T12:05:57Z</time>
      </trkpt>
      <trkpt lat="48.72091" lon="2.04434">
        <ele>158</ele>
        <time>2012-06-10T12:06:01Z</time>
      </trkpt>
      <trkpt lat="48.72092" lon="2.04442">
        <ele>157</ele>
        <time>2012-06-10T12:06:06Z</time>
      </trkpt>
      <trkpt lat="48.72093" lon="2.04451">
        <ele>157</ele>
        <time>2012-06-10T12:06:10Z</time>
      </trkpt>
      <trkpt lat="48.72093" lon="2.04458">
        <ele>157</ele>
        <time>2012-06-10T12:06:13Z</time>
      </trkpt>
      <trkpt lat="48.7209" lon="2.04464">
        <ele>157</ele>
        <time>2012-06-10T12:06:17Z</time>
      </trkpt>
      <trkpt lat="48.72089" lon="2.04471">
        <ele>157</ele>
        <time>2012-06-10T12:06:21Z</time>
      </trkpt>
      <trkpt lat="48.72087" lon="2.04479">
        <ele>158</ele>
        <time>2012-06-10T12:06:25Z</time>
      </trkpt>
      <trkpt lat="48.72085" lon="2.04485">
        <ele>158</ele>
        <time>2012-06-10T12:06:29Z</time>
      </trkpt>
      <trkpt lat="48.72081" lon="2.04491">
        <ele>160</ele>
        <time>2012-06-10T12:06:33Z</time>
      </trkpt>
      <trkpt lat="48.72078" lon="2.04499">
        <ele>160</ele>
        <time>2012-06-10T12:06:37Z</time>
      </trkpt>
      <trkpt lat="48.72075" lon="2.04503">
        <ele>160</ele>
        <time>2012-06-10T12:06:40Z</time>
      </trkpt>
      <trkpt lat="48.72071" lon="2.04509">
        <ele>160</ele>
        <time>2012-06-10T12:06:44Z</time>
      </trkpt>
      <trkpt lat="48.72068" lon="2.04516">
        <ele>160</ele>
        <time>2012-06-10T12:06:47Z</time>
      </trkpt>
      <trkpt lat="48.72065" lon="2.04523">
        <ele>160</ele>
        <time>2012-06-10T12:06:51Z</time>
      </trkpt>
      <trkpt lat="48.7206" lon="2.04525">
        <ele>160</ele>
        <time>2012-06-10T12:07:00Z</time>
      </trkpt>
      <trkpt lat="48.72055" lon="2.04527">
        <ele>160</ele>
        <time>2012-06-10T12:07:05Z</time>
      </trkpt>
      <trkpt lat="48.72051" lon="2.04525">
        <ele>160</ele>
        <time>2012-06-10T12:07:16Z</time>
      </trkpt>
      <trkpt lat="48.72047" lon="2.04523">
        <ele>160</ele>
        <time>2012-06-10T12:07:29Z</time>
      </trkpt>
      <trkpt lat="48.72052" lon="2.04525">
        <ele>160</ele>
        <time>2012-06-10T12:07:42Z</time>
      </trkpt>
      <trkpt lat="48.72056" lon="2.04527">
        <ele>160</ele>
        <time>2012-06-10T12:07:45Z</time>
      </trkpt>
      <trkpt lat="48.7206" lon="2.04532">
        <ele>160</ele>
        <time>2012-06-10T12:07:49Z</time>
      </trkpt>
      <trkpt lat="48.72061" lon="2.04539">
        <ele>160</ele>
        <time>2012-06-10T12:07:52Z</time>
      </trkpt>
      <trkpt lat="48.72064" lon="2.04544">
        <ele>160</ele>
        <time>2012-06-10T12:07:55Z</time>
      </trkpt>
      <trkpt lat="48.72066" lon="2.04557">
        <ele>161</ele>
        <time>2012-06-10T12:08:01Z</time>
      </trkpt>
      <trkpt lat="48.72067" lon="2.04564">
        <ele>161</ele>
        <time>2012-06-10T12:08:05Z</time>
      </trkpt>
      <trkpt lat="48.72068" lon="2.04572">
        <ele>161</ele>
        <time>2012-06-10T12:08:09Z</time>
      </trkpt>
      <trkpt lat="48.72071" lon="2.04578">
        <ele>161</ele>
        <time>2012-06-10T12:08:12Z</time>
      </trkpt>
      <trkpt lat="48.72073" lon="2.04585">
        <ele>162</ele>
        <time>2012-06-10T12:08:15Z</time>
      </trkpt>
      <trkpt lat="48.72074" lon="2.04593">
        <ele>161</ele>
        <time>2012-06-10T12:08:18Z</time>
      </trkpt>
      <trkpt lat="48.72075" lon="2.046">
        <ele>161</ele>
        <time>2012-06-10T12:08:22Z</time>
      </trkpt>
      <trkpt lat="48.72076" lon="2.04607">
        <ele>161</ele>
        <time>2012-06-10T12:08:25Z</time>
      </trkpt>
      <trkpt lat="48.72076" lon="2.04614">
        <ele>161</ele>
        <time>2012-06-10T12:08:28Z</time>
      </trkpt>
      <trkpt lat="48.72076" lon="2.04623">
        <ele>161</ele>
        <time>2012-06-10T12:08:33Z</time>
      </trkpt>
      <trkpt lat="48.72078" lon="2.04631">
        <ele>161</ele>
        <time>2012-06-10T12:08:36Z</time>
      </trkpt>
      <trkpt lat="48.7208" lon="2.04638">
        <ele>161</ele>
        <time>2012-06-10T12:08:39Z</time>
      </trkpt>
      <trkpt lat="48.72079" lon="2.04651">
        <ele>161</ele>
        <time>2012-06-10T12:08:45Z</time>
      </trkpt>
      <trkpt lat="48.72079" lon="2.04659">
        <ele>161</ele>
        <time>2012-06-10T12:08:51Z</time>
      </trkpt>
      <trkpt lat="48.7208" lon="2.04668">
        <ele>161</ele>
        <time>2012-06-10T12:08:54Z</time>
      </trkpt>
      <trkpt lat="48.72079" lon="2.04677">
        <ele>161</ele>
        <time>2012-06-10T12:08:58Z</time>
      </trkpt>
      <trkpt lat="48.7208" lon="2.04685">
        <ele>161</ele>
        <time>2012-06-10T12:09:01Z</time>
      </trkpt>
      <trkpt lat="48.72079" lon="2.04692">
        <ele>161</ele>
        <time>2012-06-10T12:09:05Z</time>
      </trkpt>
      <trkpt lat="48.72081" lon="2.04701">
        <ele>161</ele>
        <time>2012-06-10T12:09:09Z</time>
      </trkpt>
      <trkpt lat="48.72084" lon="2.04715">
        <ele>155</ele>
        <time>2012-06-10T12:09:16Z</time>
      </trkpt>
      <trkpt lat="48.72087" lon="2.04721">
        <ele>155</ele>
        <time>2012-06-10T12:09:19Z</time>
      </trkpt>
      <trkpt lat="48.72088" lon="2.04729">
        <ele>156</ele>
        <time>2012-06-10T12:09:23Z</time>
      </trkpt>
      <trkpt lat="48.72087" lon="2.04738">
        <ele>157</ele>
        <time>2012-06-10T12:09:28Z</time>
      </trkpt>
      <trkpt lat="48.72088" lon="2.04747">
        <ele>159</ele>
        <time>2012-06-10T12:09:31Z</time>
      </trkpt>
      <trkpt lat="48.72088" lon="2.04753">
        <ele>159</ele>
        <time>2012-06-10T12:09:35Z</time>
      </trkpt>
      <trkpt lat="48.7209" lon="2.04761">
        <ele>158</ele>
        <time>2012-06-10T12:09:40Z</time>
      </trkpt>
      <trkpt lat="48.72089" lon="2.04768">
        <ele>157</ele>
        <time>2012-06-10T12:09:45Z</time>
      </trkpt>
      <trkpt lat="48.72092" lon="2.04774">
        <ele>157</ele>
        <time>2012-06-10T12:09:49Z</time>
      </trkpt>
      <trkpt lat="48.72093" lon="2.04781">
        <ele>156</ele>
        <time>2012-06-10T12:09:52Z</time>
      </trkpt>
      <trkpt lat="48.72095" lon="2.04789">
        <ele>156</ele>
        <time>2012-06-10T12:09:57Z</time>
      </trkpt>
      <trkpt lat="48.72094" lon="2.04797">
        <ele>157</ele>
        <time>2012-06-10T12:10:02Z</time>
      </trkpt>
      <trkpt lat="48.72093" lon="2.04806">
        <ele>157</ele>
        <time>2012-06-10T12:10:05Z</time>
      </trkpt>
      <trkpt lat="48.72091" lon="2.04814">
        <ele>158</ele>
        <time>2012-06-10T12:10:08Z</time>
      </trkpt>
      <trkpt lat="48.72092" lon="2.04822">
        <ele>159</ele>
        <time>2012-06-10T12:10:12Z</time>
      </trkpt>
      <trkpt lat="48.7209" lon="2.04831">
        <ele>160</ele>
        <time>2012-06-10T12:10:15Z</time>
      </trkpt>
      <trkpt lat="48.72091" lon="2.04839">
        <ele>161</ele>
        <time>2012-06-10T12:10:18Z</time>
      </trkpt>
      <trkpt lat="48.72094" lon="2.04846">
        <ele>160</ele>
        <time>2012-06-10T12:10:23Z</time>
      </trkpt>
      <trkpt lat="48.72097" lon="2.04852">
        <ele>160</ele>
        <time>2012-06-10T12:10:28Z</time>
      </trkpt>
      <trkpt lat="48.72097" lon="2.04859">
        <ele>160</ele>
        <time>2012-06-10T12:10:32Z</time>
      </trkpt>
      <trkpt lat="48.721" lon="2.04866">
        <ele>160</ele>
        <time>2012-06-10T12:10:36Z</time>
      </trkpt>
      <trkpt lat="48.72099" lon="2.04874">
        <ele>160</ele>
        <time>2012-06-10T12:10:43Z</time>
      </trkpt>
      <trkpt lat="48.72099" lon="2.04882">
        <ele>160</ele>
        <time>2012-06-10T12:10:49Z</time>
      </trkpt>
      <trkpt lat="48.72101" lon="2.04889">
        <ele>160</ele>
        <time>2012-06-10T12:10:55Z</time>
      </trkpt>
      <trkpt lat="48.72096" lon="2.04892">
        <ele>161</ele>
        <time>2012-06-10T12:11:03Z</time>
      </trkpt>
      <trkpt lat="48.72091" lon="2.04892">
        <ele>161</ele>
        <time>2012-06-10T12:11:07Z</time>
      </trkpt>
      <trkpt lat="48.72087" lon="2.04897">
        <ele>161</ele>
        <time>2012-06-10T12:11:26Z</time>
      </trkpt>
      <trkpt lat="48.72086" lon="2.04891">
        <ele>161</ele>
        <time>2012-06-10T12:12:05Z</time>
      </trkpt>
      <trkpt lat="48.72086" lon="2.04883">
        <ele>160</ele>
        <time>2012-06-10T12:12:27Z</time>
      </trkpt>
      <trkpt lat="48.72093" lon="2.04878">
        <ele>160</ele>
        <time>2012-06-10T12:13:00Z</time>
      </trkpt>
      <trkpt lat="48.72092" lon="2.0487">
        <ele>160</ele>
        <time>2012-06-10T12:13:16Z</time>
      </trkpt>
      <trkpt lat="48.72088" lon="2.04875">
        <ele>160</ele>
        <time>2012-06-10T12:13:33Z</time>
      </trkpt>
      <trkpt lat="48.72093" lon="2.04875">
        <ele>160</ele>
        <time>2012-06-10T12:13:47Z</time>
      </trkpt>
      <trkpt lat="48.72098" lon="2.0488">
        <ele>160</ele>
        <time>2012-06-10T12:14:21Z</time>
      </trkpt>
      <trkpt lat="48.72097" lon="2.04887">
        <ele>160</ele>
        <time>2012-06-10T12:14:39Z</time>
      </trkpt>
      <trkpt lat="48.72093" lon="2.04891">
        <ele>161</ele>
        <time>2012-06-10T12:14:43Z</time>
      </trkpt>
      <trkpt lat="48.72089" lon="2.04894">
        <ele>161</ele>
        <time>2012-06-10T12:14:50Z</time>
      </trkpt>
      <trkpt lat="48.72086" lon="2.049">
        <ele>161</ele>
        <time>2012-06-10T12:15:19Z</time>
      </trkpt>
      <trkpt lat="48.72081" lon="2.04899">
        <ele>162</ele>
        <time>2012-06-10T12:15:47Z</time>
      </trkpt>
      <trkpt lat="48.72086" lon="2.04898">
        <ele>161</ele>
        <time>2012-06-10T12:15:54Z</time>
      </trkpt>
      <trkpt lat="48.72088" lon="2.04891">
        <ele>161</ele>
        <time>2012-06-10T12:16:48Z</time>
      </trkpt>
      <trkpt lat="48.72092" lon="2.04894">
        <ele>161</ele>
        <time>2012-06-10T12:18:03Z</time>
      </trkpt>
      <trkpt lat="48.72089" lon="2.04899">
        <ele>161</ele>
        <time>2012-06-10T12:18:22Z</time>
      </trkpt>
      <trkpt lat="48.72084" lon="2.049">
        <ele>161</ele>
        <time>2012-06-10T12:18:31Z</time>
      </trkpt>
      <trkpt lat="48.72089" lon="2.0489">
        <ele>161</ele>
        <time>2012-06-10T12:19:16Z</time>
      </trkpt>
      <trkpt lat="48.7209" lon="2.04892">
        <ele>161</ele>
        <time>2012-06-10T12:20:40Z</time>
      </trkpt>
      <trkpt lat="48.72086" lon="2.04897">
        <ele>161</ele>
        <time>2012-06-10T12:21:58Z</time>
      </trkpt>
      <trkpt lat="48.72084" lon="2.04903">
        <ele>162</ele>
        <time>2012-06-10T12:22:19Z</time>
      </trkpt>
      <trkpt lat="48.72085" lon="2.04896">
        <ele>161</ele>
        <time>2012-06-10T12:22:35Z</time>
      </trkpt>
      <trkpt lat="48.72086" lon="2.04889">
        <ele>161</ele>
        <time>2012-06-10T12:22:41Z</time>
      </trkpt>
      <trkpt lat="48.72085" lon="2.04896">
        <ele>161</ele>
        <time>2012-06-10T12:22:59Z</time>
      </trkpt>
      <trkpt lat="48.72083" lon="2.04903">
        <ele>162</ele>
        <time>2012-06-10T12:23:37Z</time>
      </trkpt>
      <trkpt lat="48.72084" lon="2.04895">
        <ele>161</ele>
        <time>2012-06-10T12:23:49Z</time>
      </trkpt>
      <trkpt lat="48.72088" lon="2.04894">
        <ele>161</ele>
        <time>2012-06-10T12:25:59Z</time>
      </trkpt>
      <trkpt lat="48.72093" lon="2.04895">
        <ele>161</ele>
        <time>2012-06-10T12:27:12Z</time>
      </trkpt>
      <trkpt lat="48.72091" lon="2.04889">
        <ele>161</ele>
        <time>2012-06-10T12:27:59Z</time>
      </trkpt>
      <trkpt lat="48.72092" lon="2.04891">
        <ele>161</ele>
        <time>2012-06-10T12:30:36Z</time>
      </trkpt>
      <trkpt lat="48.72087" lon="2.04892">
        <ele>161</ele>
        <time>2012-06-10T12:30:46Z</time>
      </trkpt>
      <trkpt lat="48.72092" lon="2.04894">
        <ele>161</ele>
        <time>2012-06-10T12:30:55Z</time>
      </trkpt>
      <trkpt lat="48.72087" lon="2.04895">
        <ele>161</ele>
        <time>2012-06-10T12:31:38Z</time>
      </trkpt>
      <trkpt lat="48.72089" lon="2.04889">
        <ele>161</ele>
        <time>2012-06-10T12:32:00Z</time>
      </trkpt>
      <trkpt lat="48.72094" lon="2.04887">
        <ele>160</ele>
        <time>2012-06-10T12:32:46Z</time>
      </trkpt>
      <trkpt lat="48.7209" lon="2.04891">
        <ele>161</ele>
        <time>2012-06-10T12:33:09Z</time>
      </trkpt>
      <trkpt lat="48.72094" lon="2.04894">
        <ele>161</ele>
        <time>2012-06-10T12:33:26Z</time>
      </trkpt>
      <trkpt lat="48.7209" lon="2.04896">
        <ele>161</ele>
        <time>2012-06-10T12:34:07Z</time>
      </trkpt>
      <trkpt lat="48.72085" lon="2.04893">
        <ele>161</ele>
        <time>2012-06-10T12:34:17Z</time>
      </trkpt>
      <trkpt lat="48.72089" lon="2.04888">
        <ele>161</ele>
        <time>2012-06-10T12:34:22Z</time>
      </trkpt>
      <trkpt lat="48.72095" lon="2.04887">
        <ele>160</ele>
        <time>2012-06-10T12:34:25Z</time>
      </trkpt>
      <trkpt lat="48.72095" lon="2.0489">
        <ele>161</ele>
        <time>2012-06-10T12:34:40Z</time>
      </trkpt>
      <trkpt lat="48.72086" lon="2.04889">
        <ele>161</ele>
        <time>2012-06-10T12:35:00Z</time>
      </trkpt>
      <trkpt lat="48.72081" lon="2.04892">
        <ele>162</ele>
        <time>2012-06-10T12:35:14Z</time>
      </trkpt>
      <trkpt lat="48.72087" lon="2.04889">
        <ele>161</ele>
        <time>2012-06-10T12:35:49Z</time>
      </trkpt>
      <trkpt lat="48.72092" lon="2.04887">
        <ele>160</ele>
        <time>2012-06-10T12:35:53Z</time>
      </trkpt>
      <trkpt lat="48.72087" lon="2.04888">
        <ele>161</ele>
        <time>2012-06-10T12:36:00Z</time>
      </trkpt>
      <trkpt lat="48.7209" lon="2.04894">
        <ele>161</ele>
        <time>2012-06-10T12:37:36Z</time>
      </trkpt>
      <trkpt lat="48.72085" lon="2.04893">
        <ele>161</ele>
        <time>2012-06-10T12:38:26Z</time>
      </trkpt>
      <trkpt lat="48.72081" lon="2.04897">
        <ele>162</ele>
        <time>2012-06-10T12:39:12Z</time>
      </trkpt>
      <trkpt lat="48.72089" lon="2.04894">
        <ele>161</ele>
        <time>2012-06-10T12:40:38Z</time>
      </trkpt>
      <trkpt lat="48.72086" lon="2.04882">
        <ele>160</ele>
        <time>2012-06-10T12:42:36Z</time>
      </trkpt>
      <trkpt lat="48.72081" lon="2.04884">
        <ele>161</ele>
        <time>2012-06-10T12:44:28Z</time>
      </trkpt>
      <trkpt lat="48.72086" lon="2.04887">
        <ele>161</ele>
        <time>2012-06-10T12:44:45Z</time>
      </trkpt>
      <trkpt lat="48.72082" lon="2.04885">
        <ele>162</ele>
        <time>2012-06-10T12:46:45Z</time>
      </trkpt>
      <trkpt lat="48.72091" lon="2.0489">
        <ele>161</ele>
        <time>2012-06-10T12:47:38Z</time>
      </trkpt>
      <trkpt lat="48.7209" lon="2.04896">
        <ele>161</ele>
        <time>2012-06-10T12:47:49Z</time>
      </trkpt>
      <trkpt lat="48.72091" lon="2.04896">
        <ele>161</ele>
        <time>2012-06-10T12:50:34Z</time>
      </trkpt>
      <trkpt lat="48.72091" lon="2.04903">
        <ele>161</ele>
        <time>2012-06-10T12:50:55Z</time>
      </trkpt>
      <trkpt lat="48.72083" lon="2.04905">
        <ele>162</ele>
        <time>2012-06-10T12:52:01Z</time>
      </trkpt>
      <trkpt lat="48.7208" lon="2.04911">
        <ele>162</ele>
        <time>2012-06-10T12:52:27Z</time>
      </trkpt>
      <trkpt lat="48.72081" lon="2.04904">
        <ele>162</ele>
        <time>2012-06-10T12:53:21Z</time>
      </trkpt>
      <trkpt lat="48.72086" lon="2.04901">
        <ele>161</ele>
        <time>2012-06-10T12:55:27Z</time>
      </trkpt>
      <trkpt lat="48.72091" lon="2.04902">
        <ele>161</ele>
        <time>2012-06-10T12:55:33Z</time>
      </trkpt>
      <trkpt lat="48.72096" lon="2.04902">
        <ele>161</ele>
        <time>2012-06-10T12:56:50Z</time>
      </trkpt>
      <trkpt lat="48.72094" lon="2.04906">
        <ele>161</ele>
        <time>2012-06-10T12:57:38Z</time>
      </trkpt>
      <trkpt lat="48.72091" lon="2.04914">
        <ele>162</ele>
        <time>2012-06-10T12:58:58Z</time>
      </trkpt>
      <trkpt lat="48.72095" lon="2.0491">
        <ele>161</ele>
        <time>2012-06-10T12:59:07Z</time>
      </trkpt>
      <trkpt lat="48.72089" lon="2.04908">
        <ele>162</ele>
        <time>2012-06-10T13:00:04Z</time>
      </trkpt>
      <trkpt lat="48.72081" lon="2.04902">
        <ele>162</ele>
        <time>2012-06-10T13:01:17Z</time>
      </trkpt>
      <trkpt lat="48.72079" lon="2.04901">
        <ele>162</ele>
        <time>2012-06-10T13:02:41Z</time>
      </trkpt>
      <trkpt lat="48.72074" lon="2.04903">
        <ele>162</ele>
        <time>2012-06-10T13:02:56Z</time>
      </trkpt>
      <trkpt lat="48.72081" lon="2.04904">
        <ele>162</ele>
        <time>2012-06-10T13:03:37Z</time>
      </trkpt>
      <trkpt lat="48.72086" lon="2.04903">
        <ele>161</ele>
        <time>2012-06-10T13:03:54Z</time>
      </trkpt>
      <trkpt lat="48.72094" lon="2.04898">
        <ele>161</ele>
        <time>2012-06-10T13:04:30Z</time>
      </trkpt>
      <trkpt lat="48.7209" lon="2.04902">
        <ele>161</ele>
        <time>2012-06-10T13:04:52Z</time>
      </trkpt>
      <trkpt lat="48.72084" lon="2.04904">
        <ele>162</ele>
        <time>2012-06-10T13:05:22Z</time>
      </trkpt>
      <trkpt lat="48.72093" lon="2.04903">
        <ele>161</ele>
        <time>2012-06-10T13:06:00Z</time>
      </trkpt>
      <trkpt lat="48.7209" lon="2.04908">
        <ele>162</ele>
        <time>2012-06-10T13:06:29Z</time>
      </trkpt>
      <trkpt lat="48.72086" lon="2.04903">
        <ele>161</ele>
        <time>2012-06-10T13:06:47Z</time>
      </trkpt>
      <trkpt lat="48.72091" lon="2.04904">
        <ele>161</ele>
        <time>2012-06-10T13:08:12Z</time>
      </trkpt>
      <trkpt lat="48.72096" lon="2.04901">
        <ele>161</ele>
        <time>2012-06-10T13:08:36Z</time>
      </trkpt>
      <trkpt lat="48.721" lon="2.04899">
        <ele>161</ele>
        <time>2012-06-10T13:09:22Z</time>
      </trkpt>
      <trkpt lat="48.72096" lon="2.04901">
        <ele>161</ele>
        <time>2012-06-10T13:09:31Z</time>
      </trkpt>
      <trkpt lat="48.72102" lon="2.04897">
        <ele>161</ele>
        <time>2012-06-10T13:12:28Z</time>
      </trkpt>
      <trkpt lat="48.72099" lon="2.04903">
        <ele>161</ele>
        <time>2012-06-10T13:13:04Z</time>
      </trkpt>
      <trkpt lat="48.7209" lon="2.04904">
        <ele>161</ele>
        <time>2012-06-10T13:14:11Z</time>
      </trkpt>
      <trkpt lat="48.72093" lon="2.049">
        <ele>161</ele>
        <time>2012-06-10T13:15:20Z</time>
      </trkpt>
      <trkpt lat="48.72097" lon="2.04896">
        <ele>161</ele>
        <time>2012-06-10T13:15:50Z</time>
      </trkpt>
      <trkpt lat="48.72095" lon="2.0489">
        <ele>161</ele>
        <time>2012-06-10T13:18:47Z</time>
      </trkpt>
      <trkpt lat="48.72098" lon="2.04896">
        <ele>161</ele>
        <time>2012-06-10T13:19:34Z</time>
      </trkpt>
      <trkpt lat="48.72102" lon="2.04901">
        <ele>161</ele>
        <time>2012-06-10T13:20:40Z</time>
      </trkpt>
      <trkpt lat="48.72093" lon="2.04899">
        <ele>161</ele>
        <time>2012-06-10T13:21:05Z</time>
      </trkpt>
      <trkpt lat="48.72088" lon="2.04896">
        <ele>161</ele>
        <time>2012-06-10T13:21:26Z</time>
      </trkpt>
      <trkpt lat="48.72084" lon="2.04897">
        <ele>161</ele>
        <time>2012-06-10T13:21:38Z</time>
      </trkpt>
      <trkpt lat="48.72086" lon="2.04891">
        <ele>161</ele>
        <time>2012-06-10T13:22:54Z</time>
      </trkpt>
      <trkpt lat="48.72083" lon="2.04885">
        <ele>162</ele>
        <time>2012-06-10T13:23:09Z</time>
      </trkpt>
      <trkpt lat="48.72091" lon="2.04893">
        <ele>161</ele>
        <time>2012-06-10T13:23:36Z</time>
      </trkpt>
      <trkpt lat="48.72087" lon="2.04899">
        <ele>161</ele>
        <time>2012-06-10T13:23:48Z</time>
      </trkpt>
      <trkpt lat="48.72083" lon="2.04905">
        <ele>162</ele>
        <time>2012-06-10T13:24:29Z</time>
      </trkpt>
      <trkpt lat="48.72078" lon="2.04907">
        <ele>162</ele>
        <time>2012-06-10T13:25:09Z</time>
      </trkpt>
      <trkpt lat="48.7208" lon="2.049">
        <ele>162</ele>
        <time>2012-06-10T13:26:14Z</time>
      </trkpt>
      <trkpt lat="48.72083" lon="2.04895">
        <ele>162</ele>
        <time>2012-06-10T13:26:22Z</time>
      </trkpt>
      <trkpt lat="48.72081" lon="2.04889">
        <ele>162</ele>
        <time>2012-06-10T13:27:32Z</time>
      </trkpt>
      <trkpt lat="48.72076" lon="2.04885">
        <ele>161</ele>
        <time>2012-06-10T13:31:53Z</time>
      </trkpt>
      <trkpt lat="48.72081" lon="2.04887">
        <ele>162</ele>
        <time>2012-06-10T13:32:49Z</time>
      </trkpt>
      <trkpt lat="48.72085" lon="2.04891">
        <ele>161</ele>
        <time>2012-06-10T13:33:03Z</time>
      </trkpt>
      <trkpt lat="48.7209" lon="2.0489">
        <ele>161</ele>
        <time>2012-06-10T13:33:38Z</time>
      </trkpt>
      <trkpt lat="48.72095" lon="2.04892">
        <ele>161</ele>
        <time>2012-06-10T13:35:26Z</time>
      </trkpt>
      <trkpt lat="48.72089" lon="2.04892">
        <ele>161</ele>
        <time>2012-06-10T13:39:19Z</time>
      </trkpt>
      <trkpt lat="48.72085" lon="2.04889">
        <ele>161</ele>
        <time>2012-06-10T13:39:59Z</time>
      </trkpt>
      <trkpt lat="48.72081" lon="2.04894">
        <ele>162</ele>
        <time>2012-06-10T13:42:23Z</time>
      </trkpt>
      <trkpt lat="48.72079" lon="2.04888">
        <ele>162</ele>
        <time>2012-06-10T13:44:38Z</time>
      </trkpt>
      <trkpt lat="48.7208" lon="2.04881">
        <ele>161</ele>
        <time>2012-06-10T13:45:57Z</time>
      </trkpt>
      <trkpt lat="48.72085" lon="2.04879">
        <ele>160</ele>
        <time>2012-06-10T13:46:51Z</time>
      </trkpt>
      <trkpt lat="48.72086" lon="2.04887">
        <ele>161</ele>
        <time>2012-06-10T13:48:23Z</time>
      </trkpt>
      <trkpt lat="48.72085" lon="2.04893">
        <ele>161</ele>
        <time>2012-06-10T13:49:22Z</time>
      </trkpt>
      <trkpt lat="48.7209" lon="2.04893">
        <ele>161</ele>
        <time>2012-06-10T13:50:06Z</time>
      </trkpt>
      <trkpt lat="48.72094" lon="2.04896">
        <ele>161</ele>
        <time>2012-06-10T13:50:14Z</time>
      </trkpt>
      <trkpt lat="48.7209" lon="2.0489">
        <ele>161</ele>
        <time>2012-06-10T13:50:23Z</time>
      </trkpt>
      <trkpt lat="48.72086" lon="2.04887">
        <ele>161</ele>
        <time>2012-06-10T13:51:13Z</time>
      </trkpt>
      <trkpt lat="48.7209" lon="2.04883">
        <ele>160</ele>
        <time>2012-06-10T13:51:36Z</time>
      </trkpt>
      <trkpt lat="48.72094" lon="2.04885">
        <ele>160</ele>
        <time>2012-06-10T13:51:41Z</time>
      </trkpt>
      <trkpt lat="48.72099" lon="2.04882">
        <ele>160</ele>
        <time>2012-06-10T13:52:02Z</time>
      </trkpt>
      <trkpt lat="48.72097" lon="2.04884">
        <ele>160</ele>
        <time>2012-06-10T13:53:26Z</time>
      </trkpt>
      <trkpt lat="48.72092" lon="2.04886">
        <ele>160</ele>
        <time>2012-06-10T13:53:33Z</time>
      </trkpt>
      <trkpt lat="48.72092" lon="2.04893">
        <ele>161</ele>
        <time>2012-06-10T13:53:52Z</time>
      </trkpt>
      <trkpt lat="48.72089" lon="2.04888">
        <ele>161</ele>
        <time>2012-06-10T13:54:18Z</time>
      </trkpt>
      <trkpt lat="48.72093" lon="2.04884">
        <ele>160</ele>
        <time>2012-06-10T13:54:28Z</time>
      </trkpt>
      <trkpt lat="48.72095" lon="2.04876">
        <ele>160</ele>
        <time>2012-06-10T13:54:42Z</time>
      </trkpt>
      <trkpt lat="48.72099" lon="2.04873">
        <ele>160</ele>
        <time>2012-06-10T13:54:56Z</time>
      </trkpt>
      <trkpt lat="48.72095" lon="2.04875">
        <ele>160</ele>
        <time>2012-06-10T13:56:32Z</time>
      </trkpt>
      <trkpt lat="48.72104" lon="2.04877">
        <ele>160</ele>
        <time>2012-06-10T13:57:02Z</time>
      </trkpt>
      <trkpt lat="48.72099" lon="2.04875">
        <ele>160</ele>
        <time>2012-06-10T13:57:16Z</time>
      </trkpt>
      <trkpt lat="48.72102" lon="2.04881">
        <ele>160</ele>
        <time>2012-06-10T13:58:56Z</time>
      </trkpt>
      <trkpt lat="48.72099" lon="2.04886">
        <ele>160</ele>
        <time>2012-06-10T13:59:04Z</time>
      </trkpt>
      <trkpt lat="48.72094" lon="2.04887">
        <ele>160</ele>
        <time>2012-06-10T13:59:08Z</time>
      </trkpt>
      <trkpt lat="48.72096" lon="2.04879">
        <ele>160</ele>
        <time>2012-06-10T13:59:23Z</time>
      </trkpt>
      <trkpt lat="48.72097" lon="2.0487">
        <ele>160</ele>
        <time>2012-06-10T13:59:27Z</time>
      </trkpt>
      <trkpt lat="48.72097" lon="2.04863">
        <ele>160</ele>
        <time>2012-06-10T13:59:30Z</time>
      </trkpt>
      <trkpt lat="48.72095" lon="2.04856">
        <ele>160</ele>
        <time>2012-06-10T13:59:34Z</time>
      </trkpt>
      <trkpt lat="48.72092" lon="2.04848">
        <ele>160</ele>
        <time>2012-06-10T13:59:38Z</time>
      </trkpt>
      <trkpt lat="48.7209" lon="2.04841">
        <ele>161</ele>
        <time>2012-06-10T13:59:41Z</time>
      </trkpt>
      <trkpt lat="48.72089" lon="2.04834">
        <ele>161</ele>
        <time>2012-06-10T13:59:45Z</time>
      </trkpt>
      <trkpt lat="48.72087" lon="2.04828">
        <ele>160</ele>
        <time>2012-06-10T13:59:50Z</time>
      </trkpt>
      <trkpt lat="48.72083" lon="2.04822">
        <ele>162</ele>
        <time>2012-06-10T13:59:55Z</time>
      </trkpt>
      <trkpt lat="48.72079" lon="2.04817">
        <ele>161</ele>
        <time>2012-06-10T13:59:59Z</time>
      </trkpt>
      <trkpt lat="48.72077" lon="2.04811">
        <ele>161</ele>
        <time>2012-06-10T14:00:02Z</time>
      </trkpt>
      <trkpt lat="48.72073" lon="2.04805">
        <ele>161</ele>
        <time>2012-06-10T14:00:07Z</time>
      </trkpt>
      <trkpt lat="48.7207" lon="2.04799">
        <ele>161</ele>
        <time>2012-06-10T14:00:11Z</time>
      </trkpt>
      <trkpt lat="48.72066" lon="2.04792">
        <ele>161</ele>
        <time>2012-06-10T14:00:16Z</time>
      </trkpt>
      <trkpt lat="48.72065" lon="2.04784">
        <ele>161</ele>
        <time>2012-06-10T14:00:18Z</time>
      </trkpt>
      <trkpt lat="48.7206" lon="2.04785">
        <ele>161</ele>
        <time>2012-06-10T14:00:25Z</time>
      </trkpt>
      <trkpt lat="48.72063" lon="2.04784">
        <ele>161</ele>
        <time>2012-06-10T14:01:13Z</time>
      </trkpt>
      <trkpt lat="48.72068" lon="2.04781">
        <ele>161</ele>
        <time>2012-06-10T14:01:19Z</time>
      </trkpt>
      <trkpt lat="48.72072" lon="2.04785">
        <ele>161</ele>
        <time>2012-06-10T14:01:22Z</time>
      </trkpt>
      <trkpt lat="48.72075" lon="2.04792">
        <ele>161</ele>
        <time>2012-06-10T14:01:24Z</time>
      </trkpt>
      <trkpt lat="48.72078" lon="2.04798">
        <ele>161</ele>
        <time>2012-06-10T14:01:26Z</time>
      </trkpt>
      <trkpt lat="48.7208" lon="2.04805">
        <ele>161</ele>
        <time>2012-06-10T14:01:30Z</time>
      </trkpt>
      <trkpt lat="48.72087" lon="2.04815">
        <ele>158</ele>
        <time>2012-06-10T14:01:35Z</time>
      </trkpt>
      <trkpt lat="48.7209" lon="2.04821">
        <ele>159</ele>
        <time>2012-06-10T14:01:40Z</time>
      </trkpt>
      <trkpt lat="48.72091" lon="2.04829">
        <ele>160</ele>
        <time>2012-06-10T14:01:43Z</time>
      </trkpt>
      <trkpt lat="48.72094" lon="2.04836">
        <ele>161</ele>
        <time>2012-06-10T14:01:50Z</time>
      </trkpt>
      <trkpt lat="48.72096" lon="2.04843">
        <ele>160</ele>
        <time>2012-06-10T14:01:54Z</time>
      </trkpt>
      <trkpt lat="48.72098" lon="2.04851">
        <ele>160</ele>
        <time>2012-06-10T14:01:57Z</time>
      </trkpt>
      <trkpt lat="48.721" lon="2.04859">
        <ele>160</ele>
        <time>2012-06-10T14:02:00Z</time>
      </trkpt>
      <trkpt lat="48.721" lon="2.04867">
        <ele>160</ele>
        <time>2012-06-10T14:02:03Z</time>
      </trkpt>
      <trkpt lat="48.72099" lon="2.04882">
        <ele>160</ele>
        <time>2012-06-10T14:02:10Z</time>
      </trkpt>
      <trkpt lat="48.72095" lon="2.04886">
        <ele>160</ele>
        <time>2012-06-10T14:02:30Z</time>
      </trkpt>
      <trkpt lat="48.72097" lon="2.04887">
        <ele>160</ele>
        <time>2012-06-10T14:03:05Z</time>
      </trkpt>
      <trkpt lat="48.72101" lon="2.04884">
        <ele>160</ele>
        <time>2012-06-10T14:03:54Z</time>
      </trkpt>
      <trkpt lat="48.72107" lon="2.04887">
        <ele>160</ele>
        <time>2012-06-10T14:05:13Z</time>
      </trkpt>
      <trkpt lat="48.72102" lon="2.04889">
        <ele>160</ele>
        <time>2012-06-10T14:06:03Z</time>
      </trkpt>
      <trkpt lat="48.72098" lon="2.04887">
        <ele>160</ele>
        <time>2012-06-10T14:06:08Z</time>
      </trkpt>
      <trkpt lat="48.72103" lon="2.04887">
        <ele>160</ele>
        <time>2012-06-10T14:06:31Z</time>
      </trkpt>
      <trkpt lat="48.721" lon="2.04893">
        <ele>160</ele>
        <time>2012-06-10T14:07:05Z</time>
      </trkpt>
      <trkpt lat="48.72107" lon="2.04899">
        <ele>160</ele>
        <time>2012-06-10T14:07:29Z</time>
      </trkpt>
      <trkpt lat="48.72102" lon="2.049">
        <ele>161</ele>
        <time>2012-06-10T14:07:49Z</time>
      </trkpt>
      <trkpt lat="48.72099" lon="2.04894">
        <ele>161</ele>
        <time>2012-06-10T14:08:06Z</time>
      </trkpt>
      <trkpt lat="48.72098" lon="2.04904">
        <ele>161</ele>
        <time>2012-06-10T14:08:32Z</time>
      </trkpt>
      <trkpt lat="48.72097" lon="2.04911">
        <ele>161</ele>
        <time>2012-06-10T14:09:01Z</time>
      </trkpt>
      <trkpt lat="48.72104" lon="2.04905">
        <ele>161</ele>
        <time>2012-06-10T14:10:49Z</time>
      </trkpt>
      <trkpt lat="48.72104" lon="2.04905">
        <ele>161</ele>
        <time>2012-06-10T14:11:47Z</time>
      </trkpt>
      <trkpt lat="48.72104" lon="2.04908">
        <ele>161</ele>
        <time>2012-06-10T14:12:25Z</time>
      </trkpt>
      <trkpt lat="48.72107" lon="2.04914">
        <ele>161</ele>
        <time>2012-06-10T14:12:30Z</time>
      </trkpt>
      <trkpt lat="48.72109" lon="2.04922">
        <ele>163</ele>
        <time>2012-06-10T14:12:35Z</time>
      </trkpt>
      <trkpt lat="48.7211" lon="2.04929">
        <ele>163</ele>
        <time>2012-06-10T14:12:42Z</time>
      </trkpt>
      <trkpt lat="48.72112" lon="2.04937">
        <ele>163</ele>
        <time>2012-06-10T14:12:47Z</time>
      </trkpt>
      <trkpt lat="48.7211" lon="2.04943">
        <ele>163</ele>
        <time>2012-06-10T14:12:52Z</time>
      </trkpt>
      <trkpt lat="48.72108" lon="2.0495">
        <ele>163</ele>
        <time>2012-06-10T14:12:57Z</time>
      </trkpt>
      <trkpt lat="48.72108" lon="2.04958">
        <ele>163</ele>
        <time>2012-06-10T14:13:05Z</time>
      </trkpt>
      <trkpt lat="48.72115" lon="2.04968">
        <ele>163</ele>
        <time>2012-06-10T14:13:15Z</time>
      </trkpt>
      <trkpt lat="48.72116" lon="2.04976">
        <ele>163</ele>
        <time>2012-06-10T14:13:26Z</time>
      </trkpt>
      <trkpt lat="48.7212" lon="2.04989">
        <ele>163</ele>
        <time>2012-06-10T14:13:32Z</time>
      </trkpt>
      <trkpt lat="48.72123" lon="2.04995">
        <ele>163</ele>
        <time>2012-06-10T14:13:35Z</time>
      </trkpt>
      <trkpt lat="48.72128" lon="2.05001">
        <ele>164</ele>
        <time>2012-06-10T14:13:38Z</time>
      </trkpt>
      <trkpt lat="48.72129" lon="2.0501">
        <ele>164</ele>
        <time>2012-06-10T14:13:42Z</time>
      </trkpt>
      <trkpt lat="48.72129" lon="2.05017">
        <ele>165</ele>
        <time>2012-06-10T14:13:47Z</time>
      </trkpt>
      <trkpt lat="48.72129" lon="2.05025">
        <ele>165</ele>
        <time>2012-06-10T14:13:51Z</time>
      </trkpt>
      <trkpt lat="48.7213" lon="2.05032">
        <ele>165</ele>
        <time>2012-06-10T14:13:55Z</time>
      </trkpt>
      <trkpt lat="48.72131" lon="2.05041">
        <ele>165</ele>
        <time>2012-06-10T14:14:01Z</time>
      </trkpt>
      <trkpt lat="48.72132" lon="2.05049">
        <ele>165</ele>
        <time>2012-06-10T14:14:05Z</time>
      </trkpt>
      <trkpt lat="48.72132" lon="2.05056">
        <ele>165</ele>
        <time>2012-06-10T14:14:10Z</time>
      </trkpt>
      <trkpt lat="48.72132" lon="2.05064">
        <ele>165</ele>
        <time>2012-06-10T14:14:15Z</time>
      </trkpt>
      <trkpt lat="48.72132" lon="2.05072">
        <ele>165</ele>
        <time>2012-06-10T14:14:19Z</time>
      </trkpt>
      <trkpt lat="48.72135" lon="2.0508">
        <ele>165</ele>
        <time>2012-06-10T14:14:23Z</time>
      </trkpt>
      <trkpt lat="48.72139" lon="2.05085">
        <ele>166</ele>
        <time>2012-06-10T14:14:28Z</time>
      </trkpt>
      <trkpt lat="48.72141" lon="2.05093">
        <ele>166</ele>
        <time>2012-06-10T14:14:32Z</time>
      </trkpt>
      <trkpt lat="48.72141" lon="2.05101">
        <ele>166</ele>
        <time>2012-06-10T14:14:36Z</time>
      </trkpt>
      <trkpt lat="48.72139" lon="2.05109">
        <ele>166</ele>
        <time>2012-06-10T14:14:41Z</time>
      </trkpt>
      <trkpt lat="48.72141" lon="2.05117">
        <ele>166</ele>
        <time>2012-06-10T14:14:45Z</time>
      </trkpt>
      <trkpt lat="48.72142" lon="2.05131">
        <ele>166</ele>
        <time>2012-06-10T14:14:52Z</time>
      </trkpt>
      <trkpt lat="48.72142" lon="2.05138">
        <ele>166</ele>
        <time>2012-06-10T14:14:56Z</time>
      </trkpt>
      <trkpt lat="48.7214" lon="2.05145">
        <ele>166</ele>
        <time>2012-06-10T14:15:02Z</time>
      </trkpt>
      <trkpt lat="48.72142" lon="2.05153">
        <ele>166</ele>
        <time>2012-06-10T14:15:06Z</time>
      </trkpt>
      <trkpt lat="48.72143" lon="2.05162">
        <ele>166</ele>
        <time>2012-06-10T14:15:09Z</time>
      </trkpt>
      <trkpt lat="48.72145" lon="2.05169">
        <ele>166</ele>
        <time>2012-06-10T14:15:12Z</time>
      </trkpt>
      <trkpt lat="48.72147" lon="2.05177">
        <ele>166</ele>
        <time>2012-06-10T14:15:16Z</time>
      </trkpt>
      <trkpt lat="48.72148" lon="2.05184">
        <ele>166</ele>
        <time>2012-06-10T14:15:20Z</time>
      </trkpt>
      <trkpt lat="48.72148" lon="2.05193">
        <ele>166</ele>
        <time>2012-06-10T14:15:25Z</time>
      </trkpt>
      <trkpt lat="48.72148" lon="2.052">
        <ele>166</ele>
        <time>2012-06-10T14:15:29Z</time>
      </trkpt>
      <trkpt lat="48.72147" lon="2.05208">
        <ele>166</ele>
        <time>2012-06-10T14:15:33Z</time>
      </trkpt>
      <trkpt lat="48.72152" lon="2.0522">
        <ele>166</ele>
        <time>2012-06-10T14:15:39Z</time>
      </trkpt>
      <trkpt lat="48.72149" lon="2.05227">
        <ele>166</ele>
        <time>2012-06-10T14:15:44Z</time>
      </trkpt>
      <trkpt lat="48.72148" lon="2.05235">
        <ele>166</ele>
        <time>2012-06-10T14:15:52Z</time>
      </trkpt>
      <trkpt lat="48.72151" lon="2.05241">
        <ele>166</ele>
        <time>2012-06-10T14:15:55Z</time>
      </trkpt>
      <trkpt lat="48.72152" lon="2.05247">
        <ele>166</ele>
        <time>2012-06-10T14:15:58Z</time>
      </trkpt>
      <trkpt lat="48.72152" lon="2.05256">
        <ele>164</ele>
        <time>2012-06-10T14:16:01Z</time>
      </trkpt>
      <trkpt lat="48.7215" lon="2.05263">
        <ele>164</ele>
        <time>2012-06-10T14:16:05Z</time>
      </trkpt>
      <trkpt lat="48.7215" lon="2.0527">
        <ele>164</ele>
        <time>2012-06-10T14:16:11Z</time>
      </trkpt>
      <trkpt lat="48.72151" lon="2.05278">
        <ele>164</ele>
        <time>2012-06-10T14:16:15Z</time>
      </trkpt>
      <trkpt lat="48.72152" lon="2.05286">
        <ele>163</ele>
        <time>2012-06-10T14:16:19Z</time>
      </trkpt>
      <trkpt lat="48.72153" lon="2.05293">
        <ele>163</ele>
        <time>2012-06-10T14:16:22Z</time>
      </trkpt>
      <trkpt lat="48.72152" lon="2.05301">
        <ele>163</ele>
        <time>2012-06-10T14:16:25Z</time>
      </trkpt>
      <trkpt lat="48.72149" lon="2.05308">
        <ele>163</ele>
        <time>2012-06-10T14:16:28Z</time>
      </trkpt>
      <trkpt lat="48.72145" lon="2.05313">
        <ele>162</ele>
        <time>2012-06-10T14:16:31Z</time>
      </trkpt>
      <trkpt lat="48.72142" lon="2.05321">
        <ele>162</ele>
        <time>2012-06-10T14:16:34Z</time>
      </trkpt>
      <trkpt lat="48.72138" lon="2.05327">
        <ele>162</ele>
        <time>2012-06-10T14:16:37Z</time>
      </trkpt>
      <trkpt lat="48.72133" lon="2.0533">
        <ele>163</ele>
        <time>2012-06-10T14:16:41Z</time>
      </trkpt>
      <trkpt lat="48.72128" lon="2.05331">
        <ele>163</ele>
        <time>2012-06-10T14:16:44Z</time>
      </trkpt>
      <trkpt lat="48.72123" lon="2.0533">
        <ele>163</ele>
        <time>2012-06-10T14:16:48Z</time>
      </trkpt>
      <trkpt lat="48.72118" lon="2.05332">
        <ele>163</ele>
        <time>2012-06-10T14:16:50Z</time>
      </trkpt>
      <trkpt lat="48.72113" lon="2.05336">
        <ele>159</ele>
        <time>2012-06-10T14:16:54Z</time>
      </trkpt>
      <trkpt lat="48.72109" lon="2.05336">
        <ele>159</ele>
        <time>2012-06-10T14:16:57Z</time>
      </trkpt>
      <trkpt lat="48.72104" lon="2.05335">
        <ele>160</ele>
        <time>2012-06-10T14:17:01Z</time>
      </trkpt>
      <trkpt lat="48.72099" lon="2.05335">
        <ele>161</ele>
        <time>2012-06-10T14:17:04Z</time>
      </trkpt>
      <trkpt lat="48.72094" lon="2.05333">
        <ele>164</ele>
        <time>2012-06-10T14:17:07Z</time>
      </trkpt>
      <trkpt lat="48.72089" lon="2.05332">
        <ele>164</ele>
        <time>2012-06-10T14:17:10Z</time>
      </trkpt>
      <trkpt lat="48.72084" lon="2.05328">
        <ele>164</ele>
        <time>2012-06-10T14:17:15Z</time>
      </trkpt>
      <trkpt lat="48.72078" lon="2.05327">
        <ele>164</ele>
        <time>2012-06-10T14:17:20Z</time>
      </trkpt>
      <trkpt lat="48.72072" lon="2.05327">
        <ele>164</ele>
        <time>2012-06-10T14:17:26Z</time>
      </trkpt>
      <trkpt lat="48.72068" lon="2.05325">
        <ele>164</ele>
        <time>2012-06-10T14:17:30Z</time>
      </trkpt>
      <trkpt lat="48.72063" lon="2.05327">
        <ele>164</ele>
        <time>2012-06-10T14:17:34Z</time>
      </trkpt>
      <trkpt lat="48.72057" lon="2.05326">
        <ele>165</ele>
        <time>2012-06-10T14:17:38Z</time>
      </trkpt>
      <trkpt lat="48.72048" lon="2.05323">
        <ele>165</ele>
        <time>2012-06-10T14:17:46Z</time>
      </trkpt>
      <trkpt lat="48.72042" lon="2.05324">
        <ele>165</ele>
        <time>2012-06-10T14:17:52Z</time>
      </trkpt>
      <trkpt lat="48.72037" lon="2.05325">
        <ele>164</ele>
        <time>2012-06-10T14:17:57Z</time>
      </trkpt>
      <trkpt lat="48.72031" lon="2.05325">
        <ele>164</ele>
        <time>2012-06-10T14:18:02Z</time>
      </trkpt>
      <trkpt lat="48.72026" lon="2.05323">
        <ele>164</ele>
        <time>2012-06-10T14:18:06Z</time>
      </trkpt>
      <trkpt lat="48.7202" lon="2.05323">
        <ele>164</ele>
        <time>2012-06-10T14:18:10Z</time>
      </trkpt>
      <trkpt lat="48.72015" lon="2.05323">
        <ele>164</ele>
        <time>2012-06-10T14:18:16Z</time>
      </trkpt>
      <trkpt lat="48.72009" lon="2.05324">
        <ele>164</ele>
        <time>2012-06-10T14:18:23Z</time>
      </trkpt>
      <trkpt lat="48.72004" lon="2.05322">
        <ele>164</ele>
        <time>2012-06-10T14:18:27Z</time>
      </trkpt>
      <trkpt lat="48.71999" lon="2.05319">
        <ele>163</ele>
        <time>2012-06-10T14:18:31Z</time>
      </trkpt>
      <trkpt lat="48.71994" lon="2.05319">
        <ele>163</ele>
        <time>2012-06-10T14:18:37Z</time>
      </trkpt>
      <trkpt lat="48.71989" lon="2.05319">
        <ele>163</ele>
        <time>2012-06-10T14:18:41Z</time>
      </trkpt>
      <trkpt lat="48.71984" lon="2.0532">
        <ele>163</ele>
        <time>2012-06-10T14:18:47Z</time>
      </trkpt>
      <trkpt lat="48.7198" lon="2.05318">
        <ele>163</ele>
        <time>2012-06-10T14:18:51Z</time>
      </trkpt>
      <trkpt lat="48.71975" lon="2.05313">
        <ele>163</ele>
        <time>2012-06-10T14:18:55Z</time>
      </trkpt>
      <trkpt lat="48.71974" lon="2.05306">
        <ele>163</ele>
        <time>2012-06-10T14:19:00Z</time>
      </trkpt>
      <trkpt lat="48.71973" lon="2.05299">
        <ele>163</ele>
        <time>2012-06-10T14:19:04Z</time>
      </trkpt>
      <trkpt lat="48.71968" lon="2.05293">
        <ele>163</ele>
        <time>2012-06-10T14:19:09Z</time>
      </trkpt>
      <trkpt lat="48.71965" lon="2.05289">
        <ele>163</ele>
        <time>2012-06-10T14:19:12Z</time>
      </trkpt>
      <trkpt lat="48.71959" lon="2.05285">
        <ele>163</ele>
        <time>2012-06-10T14:19:16Z</time>
      </trkpt>
      <trkpt lat="48.71955" lon="2.0528">
        <ele>163</ele>
        <time>2012-06-10T14:19:21Z</time>
      </trkpt>
      <trkpt lat="48.71951" lon="2.05276">
        <ele>162</ele>
        <time>2012-06-10T14:19:24Z</time>
      </trkpt>
      <trkpt lat="48.71946" lon="2.05272">
        <ele>162</ele>
        <time>2012-06-10T14:19:29Z</time>
      </trkpt>
      <trkpt lat="48.71942" lon="2.05266">
        <ele>162</ele>
        <time>2012-06-10T14:19:32Z</time>
      </trkpt>
      <trkpt lat="48.71936" lon="2.05262">
        <ele>162</ele>
        <time>2012-06-10T14:19:35Z</time>
      </trkpt>
      <trkpt lat="48.71932" lon="2.05259">
        <ele>162</ele>
        <time>2012-06-10T14:19:37Z</time>
      </trkpt>
      <trkpt lat="48.71926" lon="2.05258">
        <ele>162</ele>
        <time>2012-06-10T14:19:41Z</time>
      </trkpt>
      <trkpt lat="48.7192" lon="2.05259">
        <ele>161</ele>
        <time>2012-06-10T14:19:47Z</time>
      </trkpt>
      <trkpt lat="48.71916" lon="2.0526">
        <ele>161</ele>
        <time>2012-06-10T14:19:51Z</time>
      </trkpt>
      <trkpt lat="48.71906" lon="2.05261">
        <ele>161</ele>
        <time>2012-06-10T14:19:59Z</time>
      </trkpt>
      <trkpt lat="48.71901" lon="2.0526">
        <ele>161</ele>
        <time>2012-06-10T14:20:04Z</time>
      </trkpt>
      <trkpt lat="48.71892" lon="2.05261">
        <ele>162</ele>
        <time>2012-06-10T14:20:12Z</time>
      </trkpt>
      <trkpt lat="48.71886" lon="2.05261">
        <ele>162</ele>
        <time>2012-06-10T14:20:16Z</time>
      </trkpt>
      <trkpt lat="48.71876" lon="2.05258">
        <ele>162</ele>
        <time>2012-06-10T14:20:26Z</time>
      </trkpt>
      <trkpt lat="48.71871" lon="2.05255">
        <ele>162</ele>
        <time>2012-06-10T14:20:30Z</time>
      </trkpt>
      <trkpt lat="48.71865" lon="2.05255">
        <ele>163</ele>
        <time>2012-06-10T14:20:34Z</time>
      </trkpt>
      <trkpt lat="48.7186" lon="2.05255">
        <ele>163</ele>
        <time>2012-06-10T14:20:38Z</time>
      </trkpt>
      <trkpt lat="48.71855" lon="2.05253">
        <ele>163</ele>
        <time>2012-06-10T14:20:41Z</time>
      </trkpt>
      <trkpt lat="48.7185" lon="2.0525">
        <ele>164</ele>
        <time>2012-06-10T14:20:46Z</time>
      </trkpt>
      <trkpt lat="48.71841" lon="2.05244">
        <ele>164</ele>
        <time>2012-06-10T14:20:53Z</time>
      </trkpt>
      <trkpt lat="48.71835" lon="2.05241">
        <ele>164</ele>
        <time>2012-06-10T14:20:57Z</time>
      </trkpt>
      <trkpt lat="48.7183" lon="2.05241">
        <ele>164</ele>
        <time>2012-06-10T14:21:00Z</time>
      </trkpt>
      <trkpt lat="48.71825" lon="2.0524">
        <ele>164</ele>
        <time>2012-06-10T14:21:04Z</time>
      </trkpt>
      <trkpt lat="48.71819" lon="2.0524">
        <ele>163</ele>
        <time>2012-06-10T14:21:09Z</time>
      </trkpt>
      <trkpt lat="48.71814" lon="2.05239">
        <ele>163</ele>
        <time>2012-06-10T14:21:14Z</time>
      </trkpt>
      <trkpt lat="48.71809" lon="2.05239">
        <ele>163</ele>
        <time>2012-06-10T14:21:17Z</time>
      </trkpt>
      <trkpt lat="48.71805" lon="2.05241">
        <ele>162</ele>
        <time>2012-06-10T14:21:21Z</time>
      </trkpt>
      <trkpt lat="48.71799" lon="2.05242">
        <ele>162</ele>
        <time>2012-06-10T14:21:25Z</time>
      </trkpt>
      <trkpt lat="48.71789" lon="2.05244">
        <ele>162</ele>
        <time>2012-06-10T14:21:33Z</time>
      </trkpt>
      <trkpt lat="48.71784" lon="2.05244">
        <ele>161</ele>
        <time>2012-06-10T14:21:37Z</time>
      </trkpt>
      <trkpt lat="48.71778" lon="2.05244">
        <ele>161</ele>
        <time>2012-06-10T14:21:40Z</time>
      </trkpt>
      <trkpt lat="48.71773" lon="2.05244">
        <ele>161</ele>
        <time>2012-06-10T14:21:45Z</time>
      </trkpt>
      <trkpt lat="48.71768" lon="2.05246">
        <ele>160</ele>
        <time>2012-06-10T14:21:48Z</time>
      </trkpt>
      <trkpt lat="48.71763" lon="2.05247">
        <ele>160</ele>
        <time>2012-06-10T14:21:53Z</time>
      </trkpt>
      <trkpt lat="48.71758" lon="2.05246">
        <ele>160</ele>
        <time>2012-06-10T14:21:57Z</time>
      </trkpt>
      <trkpt lat="48.71753" lon="2.05249">
        <ele>159</ele>
        <time>2012-06-10T14:22:00Z</time>
      </trkpt>
      <trkpt lat="48.71749" lon="2.05253">
        <ele>159</ele>
        <time>2012-06-10T14:22:05Z</time>
      </trkpt>
      <trkpt lat="48.71745" lon="2.05253">
        <ele>159</ele>
        <time>2012-06-10T14:22:10Z</time>
      </trkpt>
      <trkpt lat="48.71739" lon="2.05256">
        <ele>159</ele>
        <time>2012-06-10T14:22:14Z</time>
      </trkpt>
      <trkpt lat="48.71735" lon="2.05258">
        <ele>158</ele>
        <time>2012-06-10T14:22:18Z</time>
      </trkpt>
      <trkpt lat="48.7173" lon="2.05259">
        <ele>158</ele>
        <time>2012-06-10T14:22:22Z</time>
      </trkpt>
      <trkpt lat="48.71725" lon="2.05258">
        <ele>158</ele>
        <time>2012-06-10T14:22:26Z</time>
      </trkpt>
      <trkpt lat="48.71719" lon="2.0526">
        <ele>159</ele>
        <time>2012-06-10T14:22:30Z</time>
      </trkpt>
      <trkpt lat="48.71714" lon="2.05259">
        <ele>159</ele>
        <time>2012-06-10T14:22:33Z</time>
      </trkpt>
      <trkpt lat="48.71709" lon="2.05258">
        <ele>159</ele>
        <time>2012-06-10T14:22:37Z</time>
      </trkpt>
      <trkpt lat="48.71703" lon="2.05257">
        <ele>159</ele>
        <time>2012-06-10T14:22:40Z</time>
      </trkpt>
      <trkpt lat="48.71695" lon="2.05263">
        <ele>159</ele>
        <time>2012-06-10T14:22:50Z</time>
      </trkpt>
      <trkpt lat="48.7169" lon="2.05265">
        <ele>160</ele>
        <time>2012-06-10T14:22:54Z</time>
      </trkpt>
      <trkpt lat="48.71685" lon="2.05264">
        <ele>160</ele>
        <time>2012-06-10T14:22:57Z</time>
      </trkpt>
      <trkpt lat="48.71679" lon="2.0526">
        <ele>161</ele>
        <time>2012-06-10T14:23:02Z</time>
      </trkpt>
      <trkpt lat="48.71675" lon="2.05262">
        <ele>161</ele>
        <time>2012-06-10T14:23:05Z</time>
      </trkpt>
      <trkpt lat="48.7167" lon="2.05265">
        <ele>161</ele>
        <time>2012-06-10T14:23:09Z</time>
      </trkpt>
      <trkpt lat="48.71666" lon="2.05267">
        <ele>164</ele>
        <time>2012-06-10T14:23:12Z</time>
      </trkpt>
      <trkpt lat="48.7166" lon="2.05269">
        <ele>164</ele>
        <time>2012-06-10T14:23:18Z</time>
      </trkpt>
      <trkpt lat="48.71656" lon="2.05274">
        <ele>164</ele>
        <time>2012-06-10T14:23:23Z</time>
      </trkpt>
      <trkpt lat="48.71652" lon="2.05279">
        <ele>164</ele>
        <time>2012-06-10T14:23:27Z</time>
      </trkpt>
      <trkpt lat="48.71647" lon="2.05281">
        <ele>164</ele>
        <time>2012-06-10T14:23:30Z</time>
      </trkpt>
      <trkpt lat="48.71643" lon="2.05282">
        <ele>164</ele>
        <time>2012-06-10T14:23:34Z</time>
      </trkpt>
      <trkpt lat="48.71638" lon="2.05285">
        <ele>164</ele>
        <time>2012-06-10T14:23:37Z</time>
      </trkpt>
      <trkpt lat="48.71634" lon="2.05288">
        <ele>165</ele>
        <time>2012-06-10T14:23:40Z</time>
      </trkpt>
      <trkpt lat="48.7163" lon="2.05291">
        <ele>165</ele>
        <time>2012-06-10T14:23:43Z</time>
      </trkpt>
      <trkpt lat="48.71626" lon="2.05296">
        <ele>165</ele>
        <time>2012-06-10T14:23:47Z</time>
      </trkpt>
      <trkpt lat="48.71622" lon="2.05299">
        <ele>165</ele>
        <time>2012-06-10T14:23:50Z</time>
      </trkpt>
      <trkpt lat="48.71618" lon="2.05302">
        <ele>165</ele>
        <time>2012-06-10T14:23:55Z</time>
      </trkpt>
      <trkpt lat="48.71613" lon="2.05306">
        <ele>166</ele>
        <time>2012-06-10T14:23:59Z</time>
      </trkpt>
      <trkpt lat="48.71609" lon="2.0531">
        <ele>166</ele>
        <time>2012-06-10T14:24:02Z</time>
      </trkpt>
      <trkpt lat="48.71604" lon="2.05314">
        <ele>167</ele>
        <time>2012-06-10T14:24:06Z</time>
      </trkpt>
      <trkpt lat="48.716" lon="2.05319">
        <ele>167</ele>
        <time>2012-06-10T14:24:11Z</time>
      </trkpt>
      <trkpt lat="48.71595" lon="2.05323">
        <ele>168</ele>
        <time>2012-06-10T14:24:16Z</time>
      </trkpt>
      <trkpt lat="48.71591" lon="2.05328">
        <ele>169</ele>
        <time>2012-06-10T14:24:19Z</time>
      </trkpt>
      <trkpt lat="48.71587" lon="2.05331">
        <ele>170</ele>
        <time>2012-06-10T14:24:24Z</time>
      </trkpt>
      <trkpt lat="48.71583" lon="2.05335">
        <ele>171</ele>
        <time>2012-06-10T14:24:30Z</time>
      </trkpt>
      <trkpt lat="48.71579" lon="2.05337">
        <ele>171</ele>
        <time>2012-06-10T14:24:34Z</time>
      </trkpt>
      <trkpt lat="48.71572" lon="2.05341">
        <ele>171</ele>
        <time>2012-06-10T14:24:38Z</time>
      </trkpt>
      <trkpt lat="48.71568" lon="2.05342">
        <ele>171</ele>
        <time>2012-06-10T14:24:41Z</time>
      </trkpt>
      <trkpt lat="48.71562" lon="2.05345">
        <ele>171</ele>
        <time>2012-06-10T14:24:46Z</time>
      </trkpt>
      <trkpt lat="48.71557" lon="2.05345">
        <ele>171</ele>
        <time>2012-06-10T14:24:50Z</time>
      </trkpt>
      <trkpt lat="48.71553" lon="2.05346">
        <ele>171</ele>
        <time>2012-06-10T14:24:57Z</time>
      </trkpt>
      <trkpt lat="48.71544" lon="2.05353">
        <ele>171</ele>
        <time>2012-06-10T14:25:04Z</time>
      </trkpt>
      <trkpt lat="48.7154" lon="2.05354">
        <ele>171</ele>
        <time>2012-06-10T14:25:08Z</time>
      </trkpt>
      <trkpt lat="48.71535" lon="2.05355">
        <ele>171</ele>
        <time>2012-06-10T14:25:12Z</time>
      </trkpt>
      <trkpt lat="48.7153" lon="2.05356">
        <ele>171</ele>
        <time>2012-06-10T14:25:16Z</time>
      </trkpt>
      <trkpt lat="48.71526" lon="2.05358">
        <ele>171</ele>
        <time>2012-06-10T14:25:19Z</time>
      </trkpt>
      <trkpt lat="48.71521" lon="2.0536">
        <ele>171</ele>
        <time>2012-06-10T14:25:22Z</time>
      </trkpt>
      <trkpt lat="48.71516" lon="2.05359">
        <ele>171</ele>
        <time>2012-06-10T14:25:26Z</time>
      </trkpt>
      <trkpt lat="48.71511" lon="2.0536">
        <ele>171</ele>
        <time>2012-06-10T14:25:29Z</time>
      </trkpt>
      <trkpt lat="48.71507" lon="2.05361">
        <ele>171</ele>
        <time>2012-06-10T14:25:34Z</time>
      </trkpt>
      <trkpt lat="48.71501" lon="2.0536">
        <ele>171</ele>
        <time>2012-06-10T14:25:38Z</time>
      </trkpt>
      <trkpt lat="48.71495" lon="2.0536">
        <ele>172</ele>
        <time>2012-06-10T14:25:45Z</time>
      </trkpt>
      <trkpt lat="48.7149" lon="2.05359">
        <ele>172</ele>
        <time>2012-06-10T14:25:50Z</time>
      </trkpt>
      <trkpt lat="48.71486" lon="2.0536">
        <ele>172</ele>
        <time>2012-06-10T14:25:55Z</time>
      </trkpt>
      <trkpt lat="48.7148" lon="2.0536">
        <ele>173</ele>
        <time>2012-06-10T14:25:58Z</time>
      </trkpt>
      <trkpt lat="48.71475" lon="2.05359">
        <ele>173</ele>
        <time>2012-06-10T14:26:02Z</time>
      </trkpt>
      <trkpt lat="48.71469" lon="2.0536">
        <ele>173</ele>
        <time>2012-06-10T14:26:06Z</time>
      </trkpt>
      <trkpt lat="48.71465" lon="2.05359">
        <ele>173</ele>
        <time>2012-06-10T14:26:09Z</time>
      </trkpt>
      <trkpt lat="48.71459" lon="2.05359">
        <ele>173</ele>
        <time>2012-06-10T14:26:14Z</time>
      </trkpt>
      <trkpt lat="48.71454" lon="2.0536">
        <ele>173</ele>
        <time>2012-06-10T14:26:18Z</time>
      </trkpt>
      <trkpt lat="48.71449" lon="2.05358">
        <ele>173</ele>
        <time>2012-06-10T14:26:21Z</time>
      </trkpt>
      <trkpt lat="48.71445" lon="2.05356">
        <ele>173</ele>
        <time>2012-06-10T14:26:25Z</time>
      </trkpt>
      <trkpt lat="48.7144" lon="2.05352">
        <ele>173</ele>
        <time>2012-06-10T14:26:28Z</time>
      </trkpt>
      <trkpt lat="48.71434" lon="2.05348">
        <ele>173</ele>
        <time>2012-06-10T14:26:32Z</time>
      </trkpt>
      <trkpt lat="48.7143" lon="2.05346">
        <ele>173</ele>
        <time>2012-06-10T14:26:35Z</time>
      </trkpt>
      <trkpt lat="48.71425" lon="2.05346">
        <ele>172</ele>
        <time>2012-06-10T14:26:39Z</time>
      </trkpt>
      <trkpt lat="48.7142" lon="2.05344">
        <ele>172</ele>
        <time>2012-06-10T14:26:44Z</time>
      </trkpt>
      <trkpt lat="48.71416" lon="2.05347">
        <ele>172</ele>
        <time>2012-06-10T14:26:50Z</time>
      </trkpt>
      <trkpt lat="48.7141" lon="2.05345">
        <ele>172</ele>
        <time>2012-06-10T14:26:54Z</time>
      </trkpt>
      <trkpt lat="48.71405" lon="2.05343">
        <ele>172</ele>
        <time>2012-06-10T14:26:58Z</time>
      </trkpt>
      <trkpt lat="48.71399" lon="2.05342">
        <ele>172</ele>
        <time>2012-06-10T14:27:01Z</time>
      </trkpt>
      <trkpt lat="48.71394" lon="2.05338">
        <ele>172</ele>
        <time>2012-06-10T14:27:05Z</time>
      </trkpt>
      <trkpt lat="48.71389" lon="2.05335">
        <ele>172</ele>
        <time>2012-06-10T14:27:10Z</time>
      </trkpt>
      <trkpt lat="48.71384" lon="2.05332">
        <ele>170</ele>
        <time>2012-06-10T14:27:13Z</time>
      </trkpt>
      <trkpt lat="48.71379" lon="2.05332">
        <ele>170</ele>
        <time>2012-06-10T14:27:17Z</time>
      </trkpt>
      <trkpt lat="48.71373" lon="2.05329">
        <ele>170</ele>
        <time>2012-06-10T14:27:22Z</time>
      </trkpt>
      <trkpt lat="48.71368" lon="2.05327">
        <ele>170</ele>
        <time>2012-06-10T14:27:26Z</time>
      </trkpt>
      <trkpt lat="48.71363" lon="2.05326">
        <ele>170</ele>
        <time>2012-06-10T14:27:31Z</time>
      </trkpt>
      <trkpt lat="48.71357" lon="2.05323">
        <ele>170</ele>
        <time>2012-06-10T14:27:36Z</time>
      </trkpt>
      <trkpt lat="48.71352" lon="2.05321">
        <ele>170</ele>
        <time>2012-06-10T14:27:40Z</time>
      </trkpt>
      <trkpt lat="48.71347" lon="2.05318">
        <ele>170</ele>
        <time>2012-06-10T14:27:44Z</time>
      </trkpt>
      <trkpt lat="48.71342" lon="2.05317">
        <ele>170</ele>
        <time>2012-06-10T14:27:48Z</time>
      </trkpt>
      <trkpt lat="48.71338" lon="2.05313">
        <ele>170</ele>
        <time>2012-06-10T14:27:52Z</time>
      </trkpt>
      <trkpt lat="48.71332" lon="2.0531">
        <ele>171</ele>
        <time>2012-06-10T14:27:56Z</time>
      </trkpt>
      <trkpt lat="48.71328" lon="2.05312">
        <ele>171</ele>
        <time>2012-06-10T14:28:00Z</time>
      </trkpt>
      <trkpt lat="48.71323" lon="2.05316">
        <ele>171</ele>
        <time>2012-06-10T14:28:06Z</time>
      </trkpt>
      <trkpt lat="48.71318" lon="2.05318">
        <ele>171</ele>
        <time>2012-06-10T14:28:10Z</time>
      </trkpt>
      <trkpt lat="48.71309" lon="2.05318">
        <ele>171</ele>
        <time>2012-06-10T14:28:19Z</time>
      </trkpt>
      <trkpt lat="48.71304" lon="2.05322">
        <ele>171</ele>
        <time>2012-06-10T14:28:24Z</time>
      </trkpt>
      <trkpt lat="48.71294" lon="2.05322">
        <ele>172</ele>
        <time>2012-06-10T14:28:32Z</time>
      </trkpt>
      <trkpt lat="48.71289" lon="2.05325">
        <ele>172</ele>
        <time>2012-06-10T14:28:37Z</time>
      </trkpt>
      <trkpt lat="48.71281" lon="2.0533">
        <ele>172</ele>
        <time>2012-06-10T14:28:44Z</time>
      </trkpt>
      <trkpt lat="48.71276" lon="2.05328">
        <ele>172</ele>
        <time>2012-06-10T14:28:48Z</time>
      </trkpt>
      <trkpt lat="48.71274" lon="2.05321">
        <ele>172</ele>
        <time>2012-06-10T14:28:52Z</time>
      </trkpt>
      <trkpt lat="48.7127" lon="2.05316">
        <ele>172</ele>
        <time>2012-06-10T14:28:55Z</time>
      </trkpt>
      <trkpt lat="48.71267" lon="2.0531">
        <ele>172</ele>
        <time>2012-06-10T14:29:00Z</time>
      </trkpt>
      <trkpt lat="48.71263" lon="2.05306">
        <ele>172</ele>
        <time>2012-06-10T14:29:06Z</time>
      </trkpt>
      <trkpt lat="48.71261" lon="2.05298">
        <ele>172</ele>
        <time>2012-06-10T14:29:12Z</time>
      </trkpt>
      <trkpt lat="48.71258" lon="2.05292">
        <ele>172</ele>
        <time>2012-06-10T14:29:16Z</time>
      </trkpt>
      <trkpt lat="48.71254" lon="2.05288">
        <ele>172</ele>
        <time>2012-06-10T14:29:19Z</time>
      </trkpt>
      <trkpt lat="48.71251" lon="2.05281">
        <ele>172</ele>
        <time>2012-06-10T14:29:23Z</time>
      </trkpt>
      <trkpt lat="48.71248" lon="2.05274">
        <ele>173</ele>
        <time>2012-06-10T14:29:27Z</time>
      </trkpt>
      <trkpt lat="48.71244" lon="2.05268">
        <ele>173</ele>
        <time>2012-06-10T14:29:31Z</time>
      </trkpt>
      <trkpt lat="48.71239" lon="2.05263">
        <ele>173</ele>
        <time>2012-06-10T14:29:35Z</time>
      </trkpt>
      <trkpt lat="48.71239" lon="2.05257">
        <ele>173</ele>
        <time>2012-06-10T14:29:42Z</time>
      </trkpt>
      <trkpt lat="48.71237" lon="2.0525">
        <ele>173</ele>
        <time>2012-06-10T14:29:47Z</time>
      </trkpt>
      <trkpt lat="48.7123" lon="2.05241">
        <ele>173</ele>
        <time>2012-06-10T14:29:54Z</time>
      </trkpt>
      <trkpt lat="48.71225" lon="2.05239">
        <ele>173</ele>
        <time>2012-06-10T14:29:58Z</time>
      </trkpt>
      <trkpt lat="48.71221" lon="2.05235">
        <ele>173</ele>
        <time>2012-06-10T14:30:02Z</time>
      </trkpt>
      <trkpt lat="48.71217" lon="2.05227">
        <ele>173</ele>
        <time>2012-06-10T14:30:07Z</time>
      </trkpt>
      <trkpt lat="48.71213" lon="2.05223">
        <ele>173</ele>
        <time>2012-06-10T14:30:11Z</time>
      </trkpt>
      <trkpt lat="48.7121" lon="2.05216">
        <ele>173</ele>
        <time>2012-06-10T14:30:15Z</time>
      </trkpt>
      <trkpt lat="48.71204" lon="2.05207">
        <ele>172</ele>
        <time>2012-06-10T14:30:25Z</time>
      </trkpt>
      <trkpt lat="48.71201" lon="2.05202">
        <ele>172</ele>
        <time>2012-06-10T14:30:30Z</time>
      </trkpt>
      <trkpt lat="48.71198" lon="2.05195">
        <ele>172</ele>
        <time>2012-06-10T14:30:34Z</time>
      </trkpt>
      <trkpt lat="48.71194" lon="2.0519">
        <ele>172</ele>
        <time>2012-06-10T14:30:37Z</time>
      </trkpt>
      <trkpt lat="48.71189" lon="2.05185">
        <ele>172</ele>
        <time>2012-06-10T14:30:41Z</time>
      </trkpt>
      <trkpt lat="48.71183" lon="2.05176">
        <ele>172</ele>
        <time>2012-06-10T14:30:47Z</time>
      </trkpt>
      <trkpt lat="48.71178" lon="2.05172">
        <ele>172</ele>
        <time>2012-06-10T14:30:52Z</time>
      </trkpt>
      <trkpt lat="48.71174" lon="2.05168">
        <ele>171</ele>
        <time>2012-06-10T14:30:56Z</time>
      </trkpt>
      <trkpt lat="48.7117" lon="2.05162">
        <ele>171</ele>
        <time>2012-06-10T14:31:01Z</time>
      </trkpt>
      <trkpt lat="48.71166" lon="2.05157">
        <ele>171</ele>
        <time>2012-06-10T14:31:05Z</time>
      </trkpt>
      <trkpt lat="48.71162" lon="2.05154">
        <ele>171</ele>
        <time>2012-06-10T14:31:10Z</time>
      </trkpt>
      <trkpt lat="48.71159" lon="2.05148">
        <ele>171</ele>
        <time>2012-06-10T14:31:15Z</time>
      </trkpt>
      <trkpt lat="48.71154" lon="2.05142">
        <ele>172</ele>
        <time>2012-06-10T14:31:21Z</time>
      </trkpt>
      <trkpt lat="48.7115" lon="2.05137">
        <ele>172</ele>
        <time>2012-06-10T14:31:26Z</time>
      </trkpt>
      <trkpt lat="48.71146" lon="2.05132">
        <ele>172</ele>
        <time>2012-06-10T14:31:31Z</time>
      </trkpt>
      <trkpt lat="48.71144" lon="2.05124">
        <ele>172</ele>
        <time>2012-06-10T14:31:34Z</time>
      </trkpt>
      <trkpt lat="48.71142" lon="2.05118">
        <ele>172</ele>
        <time>2012-06-10T14:31:38Z</time>
      </trkpt>
      <trkpt lat="48.71139" lon="2.05109">
        <ele>172</ele>
        <time>2012-06-10T14:31:41Z</time>
      </trkpt>
      <trkpt lat="48.71136" lon="2.05101">
        <ele>172</ele>
        <time>2012-06-10T14:31:45Z</time>
      </trkpt>
      <trkpt lat="48.71132" lon="2.05096">
        <ele>172</ele>
        <time>2012-06-10T14:31:49Z</time>
      </trkpt>
      <trkpt lat="48.71128" lon="2.0509">
        <ele>172</ele>
        <time>2012-06-10T14:31:53Z</time>
      </trkpt>
      <trkpt lat="48.71125" lon="2.05085">
        <ele>172</ele>
        <time>2012-06-10T14:31:57Z</time>
      </trkpt>
      <trkpt lat="48.71123" lon="2.05077">
        <ele>172</ele>
        <time>2012-06-10T14:32:01Z</time>
      </trkpt>
      <trkpt lat="48.7112" lon="2.05071">
        <ele>172</ele>
        <time>2012-06-10T14:32:07Z</time>
      </trkpt>
      <trkpt lat="48.71117" lon="2.05065">
        <ele>172</ele>
        <time>2012-06-10T14:32:11Z</time>
      </trkpt>
      <trkpt lat="48.71113" lon="2.05059">
        <ele>171</ele>
        <time>2012-06-10T14:32:14Z</time>
      </trkpt>
      <trkpt lat="48.71111" lon="2.05053">
        <ele>171</ele>
        <time>2012-06-10T14:32:17Z</time>
      </trkpt>
      <trkpt lat="48.71107" lon="2.05049">
        <ele>171</ele>
        <time>2012-06-10T14:32:21Z</time>
      </trkpt>
      <trkpt lat="48.71103" lon="2.05043">
        <ele>171</ele>
        <time>2012-06-10T14:32:26Z</time>
      </trkpt>
      <trkpt lat="48.711" lon="2.05037">
        <ele>171</ele>
        <time>2012-06-10T14:32:29Z</time>
      </trkpt>
      <trkpt lat="48.71097" lon="2.05031">
        <ele>171</ele>
        <time>2012-06-10T14:32:32Z</time>
      </trkpt>
      <trkpt lat="48.71094" lon="2.05024">
        <ele>171</ele>
        <time>2012-06-10T14:32:34Z</time>
      </trkpt>
      <trkpt lat="48.71091" lon="2.05017">
        <ele>170</ele>
        <time>2012-06-10T14:32:39Z</time>
      </trkpt>
      <trkpt lat="48.71088" lon="2.05011">
        <ele>170</ele>
        <time>2012-06-10T14:32:44Z</time>
      </trkpt>
      <trkpt lat="48.71081" lon="2.05">
        <ele>168</ele>
        <time>2012-06-10T14:32:53Z</time>
      </trkpt>
      <trkpt lat="48.71077" lon="2.04996">
        <ele>167</ele>
        <time>2012-06-10T14:33:00Z</time>
      </trkpt>
      <trkpt lat="48.71073" lon="2.0499">
        <ele>166</ele>
        <time>2012-06-10T14:33:04Z</time>
      </trkpt>
      <trkpt lat="48.71069" lon="2.04985">
        <ele>166</ele>
        <time>2012-06-10T14:33:09Z</time>
      </trkpt>
      <trkpt lat="48.71066" lon="2.0498">
        <ele>165</ele>
        <time>2012-06-10T14:33:12Z</time>
      </trkpt>
      <trkpt lat="48.71062" lon="2.04975">
        <ele>164</ele>
        <time>2012-06-10T14:33:16Z</time>
      </trkpt>
      <trkpt lat="48.71058" lon="2.0497">
        <ele>164</ele>
        <time>2012-06-10T14:33:20Z</time>
      </trkpt>
      <trkpt lat="48.71055" lon="2.04962">
        <ele>164</ele>
        <time>2012-06-10T14:33:24Z</time>
      </trkpt>
      <trkpt lat="48.71051" lon="2.04957">
        <ele>163</ele>
        <time>2012-06-10T14:33:28Z</time>
      </trkpt>
      <trkpt lat="48.71049" lon="2.04949">
        <ele>163</ele>
        <time>2012-06-10T14:33:32Z</time>
      </trkpt>
      <trkpt lat="48.71045" lon="2.04944">
        <ele>163</ele>
        <time>2012-06-10T14:33:37Z</time>
      </trkpt>
      <trkpt lat="48.71043" lon="2.04938">
        <ele>162</ele>
        <time>2012-06-10T14:33:40Z</time>
      </trkpt>
      <trkpt lat="48.71039" lon="2.04933">
        <ele>162</ele>
        <time>2012-06-10T14:33:45Z</time>
      </trkpt>
      <trkpt lat="48.71035" lon="2.04929">
        <ele>161</ele>
        <time>2012-06-10T14:33:49Z</time>
      </trkpt>
      <trkpt lat="48.71031" lon="2.04923">
        <ele>161</ele>
        <time>2012-06-10T14:33:53Z</time>
      </trkpt>
      <trkpt lat="48.71027" lon="2.04918">
        <ele>160</ele>
        <time>2012-06-10T14:33:57Z</time>
      </trkpt>
      <trkpt lat="48.71024" lon="2.04911">
        <ele>157</ele>
        <time>2012-06-10T14:34:02Z</time>
      </trkpt>
      <trkpt lat="48.71019" lon="2.04908">
        <ele>157</ele>
        <time>2012-06-10T14:34:06Z</time>
      </trkpt>
      <trkpt lat="48.71017" lon="2.04902">
        <ele>157</ele>
        <time>2012-06-10T14:34:10Z</time>
      </trkpt>
      <trkpt lat="48.71016" lon="2.04894">
        <ele>156</ele>
        <time>2012-06-10T14:34:13Z</time>
      </trkpt>
      <trkpt lat="48.71016" lon="2.04885">
        <ele>156</ele>
        <time>2012-06-10T14:34:17Z</time>
      </trkpt>
      <trkpt lat="48.71018" lon="2.04878">
        <ele>156</ele>
        <time>2012-06-10T14:34:20Z</time>
      </trkpt>
      <trkpt lat="48.71022" lon="2.04874">
        <ele>156</ele>
        <time>2012-06-10T14:34:24Z</time>
      </trkpt>
      <trkpt lat="48.7103" lon="2.04867">
        <ele>156</ele>
        <time>2012-06-10T14:34:31Z</time>
      </trkpt>
      <trkpt lat="48.71034" lon="2.04862">
        <ele>157</ele>
        <time>2012-06-10T14:34:36Z</time>
      </trkpt>
      <trkpt lat="48.71038" lon="2.04858">
        <ele>157</ele>
        <time>2012-06-10T14:34:40Z</time>
      </trkpt>
      <trkpt lat="48.71042" lon="2.04852">
        <ele>157</ele>
        <time>2012-06-10T14:34:43Z</time>
      </trkpt>
      <trkpt lat="48.71047" lon="2.04849">
        <ele>158</ele>
        <time>2012-06-10T14:34:47Z</time>
      </trkpt>
      <trkpt lat="48.71051" lon="2.04845">
        <ele>158</ele>
        <time>2012-06-10T14:34:52Z</time>
      </trkpt>
      <trkpt lat="48.71055" lon="2.0484">
        <ele>159</ele>
        <time>2012-06-10T14:34:57Z</time>
      </trkpt>
      <trkpt lat="48.71059" lon="2.04835">
        <ele>159</ele>
        <time>2012-06-10T14:35:01Z</time>
      </trkpt>
      <trkpt lat="48.71063" lon="2.04829">
        <ele>158</ele>
        <time>2012-06-10T14:35:05Z</time>
      </trkpt>
      <trkpt lat="48.71067" lon="2.04823">
        <ele>159</ele>
        <time>2012-06-10T14:35:10Z</time>
      </trkpt>
      <trkpt lat="48.7107" lon="2.04817">
        <ele>159</ele>
        <time>2012-06-10T14:35:15Z</time>
      </trkpt>
      <trkpt lat="48.71073" lon="2.04811">
        <ele>159</ele>
        <time>2012-06-10T14:35:20Z</time>
      </trkpt>
      <trkpt lat="48.71082" lon="2.04805">
        <ele>159</ele>
        <time>2012-06-10T14:35:26Z</time>
      </trkpt>
      <trkpt lat="48.71086" lon="2.04801">
        <ele>167</ele>
        <time>2012-06-10T14:35:30Z</time>
      </trkpt>
      <trkpt lat="48.71091" lon="2.04797">
        <ele>167</ele>
        <time>2012-06-10T14:35:34Z</time>
      </trkpt>
      <trkpt lat="48.71095" lon="2.04791">
        <ele>167</ele>
        <time>2012-06-10T14:35:38Z</time>
      </trkpt>
      <trkpt lat="48.71099" lon="2.04786">
        <ele>167</ele>
        <time>2012-06-10T14:35:42Z</time>
      </trkpt>
      <trkpt lat="48.71104" lon="2.04782">
        <ele>167</ele>
        <time>2012-06-10T14:35:46Z</time>
      </trkpt>
      <trkpt lat="48.71106" lon="2.04775">
        <ele>167</ele>
        <time>2012-06-10T14:35:50Z</time>
      </trkpt>
      <trkpt lat="48.7111" lon="2.04771">
        <ele>168</ele>
        <time>2012-06-10T14:35:54Z</time>
      </trkpt>
      <trkpt lat="48.71115" lon="2.04767">
        <ele>168</ele>
        <time>2012-06-10T14:35:58Z</time>
      </trkpt>
      <trkpt lat="48.71119" lon="2.04763">
        <ele>168</ele>
        <time>2012-06-10T14:36:03Z</time>
      </trkpt>
      <trkpt lat="48.71123" lon="2.04756">
        <ele>168</ele>
        <time>2012-06-10T14:36:08Z</time>
      </trkpt>
      <trkpt lat="48.71125" lon="2.0475">
        <ele>167</ele>
        <time>2012-06-10T14:36:12Z</time>
      </trkpt>
      <trkpt lat="48.7113" lon="2.04744">
        <ele>167</ele>
        <time>2012-06-10T14:36:15Z</time>
      </trkpt>
      <trkpt lat="48.71134" lon="2.04738">
        <ele>167</ele>
        <time>2012-06-10T14:36:20Z</time>
      </trkpt>
      <trkpt lat="48.71137" lon="2.04733">
        <ele>168</ele>
        <time>2012-06-10T14:36:25Z</time>
      </trkpt>
      <trkpt lat="48.71142" lon="2.04733">
        <ele>168</ele>
        <time>2012-06-10T14:36:30Z</time>
      </trkpt>
      <trkpt lat="48.71145" lon="2.04727">
        <ele>168</ele>
        <time>2012-06-10T14:36:34Z</time>
      </trkpt>
      <trkpt lat="48.71148" lon="2.0472">
        <ele>168</ele>
        <time>2012-06-10T14:36:39Z</time>
      </trkpt>
      <trkpt lat="48.71152" lon="2.04716">
        <ele>168</ele>
        <time>2012-06-10T14:36:43Z</time>
      </trkpt>
      <trkpt lat="48.71157" lon="2.04712">
        <ele>167</ele>
        <time>2012-06-10T14:36:46Z</time>
      </trkpt>
      <trkpt lat="48.71161" lon="2.04706">
        <ele>167</ele>
        <time>2012-06-10T14:36:50Z</time>
      </trkpt>
      <trkpt lat="48.71164" lon="2.047">
        <ele>167</ele>
        <time>2012-06-10T14:36:55Z</time>
      </trkpt>
      <trkpt lat="48.71164" lon="2.04691">
        <ele>167</ele>
        <time>2012-06-10T14:37:01Z</time>
      </trkpt>
      <trkpt lat="48.71162" lon="2.04678">
        <ele>167</ele>
        <time>2012-06-10T14:37:09Z</time>
      </trkpt>
      <trkpt lat="48.71157" lon="2.04674">
        <ele>167</ele>
        <time>2012-06-10T14:37:13Z</time>
      </trkpt>
      <trkpt lat="48.71157" lon="2.04666">
        <ele>165</ele>
        <time>2012-06-10T14:37:17Z</time>
      </trkpt>
      <trkpt lat="48.71158" lon="2.04658">
        <ele>164</ele>
        <time>2012-06-10T14:37:22Z</time>
      </trkpt>
      <trkpt lat="48.71158" lon="2.04651">
        <ele>164</ele>
        <time>2012-06-10T14:37:26Z</time>
      </trkpt>
      <trkpt lat="48.71159" lon="2.04642">
        <ele>163</ele>
        <time>2012-06-10T14:37:30Z</time>
      </trkpt>
      <trkpt lat="48.71157" lon="2.04635">
        <ele>162</ele>
        <time>2012-06-10T14:37:35Z</time>
      </trkpt>
      <trkpt lat="48.71158" lon="2.0462">
        <ele>161</ele>
        <time>2012-06-10T14:37:45Z</time>
      </trkpt>
      <trkpt lat="48.71158" lon="2.04613">
        <ele>161</ele>
        <time>2012-06-10T14:37:49Z</time>
      </trkpt>
      <trkpt lat="48.71156" lon="2.04606">
        <ele>160</ele>
        <time>2012-06-10T14:37:53Z</time>
      </trkpt>
      <trkpt lat="48.71156" lon="2.04597">
        <ele>160</ele>
        <time>2012-06-10T14:37:57Z</time>
      </trkpt>
      <trkpt lat="48.71156" lon="2.04589">
        <ele>160</ele>
        <time>2012-06-10T14:38:02Z</time>
      </trkpt>
      <trkpt lat="48.71158" lon="2.0458">
        <ele>159</ele>
        <time>2012-06-10T14:38:05Z</time>
      </trkpt>
      <trkpt lat="48.71158" lon="2.04573">
        <ele>158</ele>
        <time>2012-06-10T14:38:10Z</time>
      </trkpt>
      <trkpt lat="48.71158" lon="2.04559">
        <ele>157</ele>
        <time>2012-06-10T14:38:18Z</time>
      </trkpt>
      <trkpt lat="48.71158" lon="2.04551">
        <ele>157</ele>
        <time>2012-06-10T14:38:23Z</time>
      </trkpt>
      <trkpt lat="48.7116" lon="2.04543">
        <ele>157</ele>
        <time>2012-06-10T14:38:26Z</time>
      </trkpt>
      <trkpt lat="48.71159" lon="2.04536">
        <ele>157</ele>
        <time>2012-06-10T14:38:30Z</time>
      </trkpt>
      <trkpt lat="48.71159" lon="2.04527">
        <ele>157</ele>
        <time>2012-06-10T14:38:34Z</time>
      </trkpt>
      <trkpt lat="48.71159" lon="2.04519">
        <ele>157</ele>
        <time>2012-06-10T14:38:39Z</time>
      </trkpt>
      <trkpt lat="48.7116" lon="2.04511">
        <ele>158</ele>
        <time>2012-06-10T14:38:44Z</time>
      </trkpt>
      <trkpt lat="48.71161" lon="2.04504">
        <ele>158</ele>
        <time>2012-06-10T14:38:47Z</time>
      </trkpt>
      <trkpt lat="48.71162" lon="2.04497">
        <ele>158</ele>
        <time>2012-06-10T14:38:52Z</time>
      </trkpt>
      <trkpt lat="48.71162" lon="2.04489">
        <ele>157</ele>
        <time>2012-06-10T14:38:57Z</time>
      </trkpt>
      <trkpt lat="48.71163" lon="2.0448">
        <ele>157</ele>
        <time>2012-06-10T14:39:00Z</time>
      </trkpt>
      <trkpt lat="48.71163" lon="2.04472">
        <ele>156</ele>
        <time>2012-06-10T14:39:05Z</time>
      </trkpt>
      <trkpt lat="48.71162" lon="2.04464">
        <ele>156</ele>
        <time>2012-06-10T14:39:11Z</time>
      </trkpt>
      <trkpt lat="48.71162" lon="2.04455">
        <ele>156</ele>
        <time>2012-06-10T14:39:14Z</time>
      </trkpt>
      <trkpt lat="48.71162" lon="2.04446">
        <ele>156</ele>
        <time>2012-06-10T14:39:19Z</time>
      </trkpt>
      <trkpt lat="48.71162" lon="2.04439">
        <ele>157</ele>
        <time>2012-06-10T14:39:23Z</time>
      </trkpt>
      <trkpt lat="48.71163" lon="2.04431">
        <ele>157</ele>
        <time>2012-06-10T14:39:26Z</time>
      </trkpt>
      <trkpt lat="48.71163" lon="2.04423">
        <ele>158</ele>
        <time>2012-06-10T14:39:31Z</time>
      </trkpt>
      <trkpt lat="48.71164" lon="2.04415">
        <ele>158</ele>
        <time>2012-06-10T14:39:36Z</time>
      </trkpt>
      <trkpt lat="48.71163" lon="2.04408">
        <ele>158</ele>
        <time>2012-06-10T14:39:39Z</time>
      </trkpt>
      <trkpt lat="48.71163" lon="2.04401">
        <ele>157</ele>
        <time>2012-06-10T14:39:43Z</time>
      </trkpt>
      <trkpt lat="48.71164" lon="2.04394">
        <ele>156</ele>
        <time>2012-06-10T14:39:46Z</time>
      </trkpt>
      <trkpt lat="48.71165" lon="2.04385">
        <ele>156</ele>
        <time>2012-06-10T14:39:51Z</time>
      </trkpt>
      <trkpt lat="48.71165" lon="2.04377">
        <ele>156</ele>
        <time>2012-06-10T14:39:56Z</time>
      </trkpt>
      <trkpt lat="48.71166" lon="2.04369">
        <ele>156</ele>
        <time>2012-06-10T14:39:59Z</time>
      </trkpt>
      <trkpt lat="48.71167" lon="2.04354">
        <ele>156</ele>
        <time>2012-06-10T14:40:08Z</time>
      </trkpt>
      <trkpt lat="48.71166" lon="2.04346">
        <ele>157</ele>
        <time>2012-06-10T14:40:13Z</time>
      </trkpt>
      <trkpt lat="48.71168" lon="2.04339">
        <ele>158</ele>
        <time>2012-06-10T14:40:17Z</time>
      </trkpt>
      <trkpt lat="48.71169" lon="2.0433">
        <ele>158</ele>
        <time>2012-06-10T14:40:21Z</time>
      </trkpt>
      <trkpt lat="48.71165" lon="2.04323">
        <ele>157</ele>
        <time>2012-06-10T14:40:26Z</time>
      </trkpt>
      <trkpt lat="48.71163" lon="2.04316">
        <ele>157</ele>
        <time>2012-06-10T14:40:32Z</time>
      </trkpt>
      <trkpt lat="48.71161" lon="2.04309">
        <ele>156</ele>
        <time>2012-06-10T14:40:39Z</time>
      </trkpt>
      <trkpt lat="48.71159" lon="2.04301">
        <ele>156</ele>
        <time>2012-06-10T14:40:44Z</time>
      </trkpt>
      <trkpt lat="48.71157" lon="2.04294">
        <ele>156</ele>
        <time>2012-06-10T14:40:48Z</time>
      </trkpt>
      <trkpt lat="48.71157" lon="2.04285">
        <ele>156</ele>
        <time>2012-06-10T14:40:52Z</time>
      </trkpt>
      <trkpt lat="48.71157" lon="2.04276">
        <ele>156</ele>
        <time>2012-06-10T14:40:57Z</time>
      </trkpt>
      <trkpt lat="48.71156" lon="2.04269">
        <ele>156</ele>
        <time>2012-06-10T14:41:00Z</time>
      </trkpt>
      <trkpt lat="48.71152" lon="2.04264">
        <ele>156</ele>
        <time>2012-06-10T14:41:18Z</time>
      </trkpt>
      <trkpt lat="48.71149" lon="2.04256">
        <ele>156</ele>
        <time>2012-06-10T14:41:47Z</time>
      </trkpt>
      <trkpt lat="48.71151" lon="2.04249">
        <ele>157</ele>
        <time>2012-06-10T14:42:02Z</time>
      </trkpt>
      <trkpt lat="48.71149" lon="2.04241">
        <ele>156</ele>
        <time>2012-06-10T14:42:07Z</time>
      </trkpt>
      <trkpt lat="48.71145" lon="2.04229">
        <ele>156</ele>
        <time>2012-06-10T14:42:35Z</time>
      </trkpt>
      <trkpt lat="48.71143" lon="2.04222">
        <ele>156</ele>
        <time>2012-06-10T14:42:40Z</time>
      </trkpt>
      <trkpt lat="48.7114" lon="2.04208">
        <ele>156</ele>
        <time>2012-06-10T14:42:50Z</time>
      </trkpt>
      <trkpt lat="48.71139" lon="2.042">
        <ele>156</ele>
        <time>2012-06-10T14:42:55Z</time>
      </trkpt>
      <trkpt lat="48.71137" lon="2.04193">
        <ele>156</ele>
        <time>2012-06-10T14:42:59Z</time>
      </trkpt>
      <trkpt lat="48.71135" lon="2.04185">
        <ele>156</ele>
        <time>2012-06-10T14:43:04Z</time>
      </trkpt>
      <trkpt lat="48.71132" lon="2.04178">
        <ele>156</ele>
        <time>2012-06-10T14:43:08Z</time>
      </trkpt>
      <trkpt lat="48.7113" lon="2.04171">
        <ele>156</ele>
        <time>2012-06-10T14:43:12Z</time>
      </trkpt>
      <trkpt lat="48.71128" lon="2.04165">
        <ele>155</ele>
        <time>2012-06-10T14:43:16Z</time>
      </trkpt>
      <trkpt lat="48.71125" lon="2.04158">
        <ele>155</ele>
        <time>2012-06-10T14:43:20Z</time>
      </trkpt>
      <trkpt lat="48.71123" lon="2.04152">
        <ele>154</ele>
        <time>2012-06-10T14:43:24Z</time>
      </trkpt>
      <trkpt lat="48.71119" lon="2.04147">
        <ele>154</ele>
        <time>2012-06-10T14:43:29Z</time>
      </trkpt>
      <trkpt lat="48.71115" lon="2.04144">
        <ele>154</ele>
        <time>2012-06-10T14:43:34Z</time>
      </trkpt>
      <trkpt lat="48.7111" lon="2.04144">
        <ele>154</ele>
        <time>2012-06-10T14:43:38Z</time>
      </trkpt>
      <trkpt lat="48.71105" lon="2.04144">
        <ele>154</ele>
        <time>2012-06-10T14:43:42Z</time>
      </trkpt>
      <trkpt lat="48.71096" lon="2.04146">
        <ele>154</ele>
        <time>2012-06-10T14:43:53Z</time>
      </trkpt>
      <trkpt lat="48.71091" lon="2.04145">
        <ele>154</ele>
        <time>2012-06-10T14:43:57Z</time>
      </trkpt>
      <trkpt lat="48.71086" lon="2.04143">
        <ele>154</ele>
        <time>2012-06-10T14:44:01Z</time>
      </trkpt>
      <trkpt lat="48.7108" lon="2.0414">
        <ele>149</ele>
        <time>2012-06-10T14:44:06Z</time>
      </trkpt>
      <trkpt lat="48.71076" lon="2.04135">
        <ele>148</ele>
        <time>2012-06-10T14:44:11Z</time>
      </trkpt>
      <trkpt lat="48.71072" lon="2.04131">
        <ele>148</ele>
        <time>2012-06-10T14:44:15Z</time>
      </trkpt>
      <trkpt lat="48.71068" lon="2.04126">
        <ele>147</ele>
        <time>2012-06-10T14:44:19Z</time>
      </trkpt>
      <trkpt lat="48.71063" lon="2.04123">
        <ele>147</ele>
        <time>2012-06-10T14:44:26Z</time>
      </trkpt>
      <trkpt lat="48.71054" lon="2.04119">
        <ele>146</ele>
        <time>2012-06-10T14:44:35Z</time>
      </trkpt>
      <trkpt lat="48.71049" lon="2.04118">
        <ele>145</ele>
        <time>2012-06-10T14:44:40Z</time>
      </trkpt>
      <trkpt lat="48.71045" lon="2.04122">
        <ele>145</ele>
        <time>2012-06-10T14:44:45Z</time>
      </trkpt>
      <trkpt lat="48.71042" lon="2.04128">
        <ele>145</ele>
        <time>2012-06-10T14:44:51Z</time>
      </trkpt>
      <trkpt lat="48.71037" lon="2.04128">
        <ele>145</ele>
        <time>2012-06-10T14:45:06Z</time>
      </trkpt>
      <trkpt lat="48.71032" lon="2.04128">
        <ele>145</ele>
        <time>2012-06-10T14:45:08Z</time>
      </trkpt>
      <trkpt lat="48.71027" lon="2.04134">
        <ele>145</ele>
        <time>2012-06-10T14:45:13Z</time>
      </trkpt>
      <trkpt lat="48.71024" lon="2.04138">
        <ele>145</ele>
        <time>2012-06-10T14:45:18Z</time>
      </trkpt>
      <trkpt lat="48.71019" lon="2.04142">
        <ele>145</ele>
        <time>2012-06-10T14:45:22Z</time>
      </trkpt>
      <trkpt lat="48.71014" lon="2.04145">
        <ele>145</ele>
        <time>2012-06-10T14:45:27Z</time>
      </trkpt>
      <trkpt lat="48.71012" lon="2.04138">
        <ele>145</ele>
        <time>2012-06-10T14:45:48Z</time>
      </trkpt>
      <trkpt lat="48.71012" lon="2.04146">
        <ele>145</ele>
        <time>2012-06-10T14:46:10Z</time>
      </trkpt>
      <trkpt lat="48.71013" lon="2.04154">
        <ele>145</ele>
        <time>2012-06-10T14:46:27Z</time>
      </trkpt>
      <trkpt lat="48.71011" lon="2.04162">
        <ele>146</ele>
        <time>2012-06-10T14:46:30Z</time>
      </trkpt>
      <trkpt lat="48.71009" lon="2.04169">
        <ele>148</ele>
        <time>2012-06-10T14:46:35Z</time>
      </trkpt>
      <trkpt lat="48.71008" lon="2.04178">
        <ele>148</ele>
        <time>2012-06-10T14:46:40Z</time>
      </trkpt>
      <trkpt lat="48.71011" lon="2.04184">
        <ele>149</ele>
        <time>2012-06-10T14:46:45Z</time>
      </trkpt>
      <trkpt lat="48.71017" lon="2.04188">
        <ele>149</ele>
        <time>2012-06-10T14:46:49Z</time>
      </trkpt>
      <trkpt lat="48.71022" lon="2.04191">
        <ele>150</ele>
        <time>2012-06-10T14:46:51Z</time>
      </trkpt>
      <trkpt lat="48.71032" lon="2.0419">
        <ele>150</ele>
        <time>2012-06-10T14:47:05Z</time>
      </trkpt>
      <trkpt lat="48.7103" lon="2.04198">
        <ele>150</ele>
        <time>2012-06-10T14:47:08Z</time>
      </trkpt>
      <trkpt lat="48.71024" lon="2.04205">
        <ele>150</ele>
        <time>2012-06-10T14:47:11Z</time>
      </trkpt>
      <trkpt lat="48.7102" lon="2.04212">
        <ele>150</ele>
        <time>2012-06-10T14:47:14Z</time>
      </trkpt>
      <trkpt lat="48.71017" lon="2.04217">
        <ele>150</ele>
        <time>2012-06-10T14:47:16Z</time>
      </trkpt>
      <trkpt lat="48.71012" lon="2.04221">
        <ele>149</ele>
        <time>2012-06-10T14:47:19Z</time>
      </trkpt>
      <trkpt lat="48.71008" lon="2.04225">
        <ele>149</ele>
        <time>2012-06-10T14:47:22Z</time>
      </trkpt>
      <trkpt lat="48.71003" lon="2.04225">
        <ele>149</ele>
        <time>2012-06-10T14:47:27Z</time>
      </trkpt>
      <trkpt lat="48.70998" lon="2.04222">
        <ele>139</ele>
        <time>2012-06-10T14:47:31Z</time>
      </trkpt>
      <trkpt lat="48.70993" lon="2.04219">
        <ele>138</ele>
        <time>2012-06-10T14:47:35Z</time>
      </trkpt>
      <trkpt lat="48.70988" lon="2.04217">
        <ele>138</ele>
        <time>2012-06-10T14:47:40Z</time>
      </trkpt>
      <trkpt lat="48.70984" lon="2.04212">
        <ele>137</ele>
        <time>2012-06-10T14:47:45Z</time>
      </trkpt>
      <trkpt lat="48.70981" lon="2.04206">
        <ele>137</ele>
        <time>2012-06-10T14:48:02Z</time>
      </trkpt>
      <trkpt lat="48.7098" lon="2.04198">
        <ele>137</ele>
        <time>2012-06-10T14:48:06Z</time>
      </trkpt>
      <trkpt lat="48.7098" lon="2.04189">
        <ele>137</ele>
        <time>2012-06-10T14:48:10Z</time>
      </trkpt>
      <trkpt lat="48.70978" lon="2.04183">
        <ele>137</ele>
        <time>2012-06-10T14:48:15Z</time>
      </trkpt>
      <trkpt lat="48.70975" lon="2.04177">
        <ele>137</ele>
        <time>2012-06-10T14:48:22Z</time>
      </trkpt>
      <trkpt lat="48.70972" lon="2.04183">
        <ele>136</ele>
        <time>2012-06-10T14:48:28Z</time>
      </trkpt>
      <trkpt lat="48.70969" lon="2.04196">
        <ele>135</ele>
        <time>2012-06-10T14:48:43Z</time>
      </trkpt>
      <trkpt lat="48.70971" lon="2.04203">
        <ele>135</ele>
        <time>2012-06-10T14:49:21Z</time>
      </trkpt>
      <trkpt lat="48.70969" lon="2.04195">
        <ele>135</ele>
        <time>2012-06-10T14:49:51Z</time>
      </trkpt>
      <trkpt lat="48.70971" lon="2.04187">
        <ele>136</ele>
        <time>2012-06-10T14:49:59Z</time>
      </trkpt>
      <trkpt lat="48.70974" lon="2.04181">
        <ele>136</ele>
        <time>2012-06-10T14:50:05Z</time>
      </trkpt>
      <trkpt lat="48.70982" lon="2.04188">
        <ele>138</ele>
        <time>2012-06-10T14:50:13Z</time>
      </trkpt>
      <trkpt lat="48.70984" lon="2.04194">
        <ele>137</ele>
        <time>2012-06-10T14:50:16Z</time>
      </trkpt>
      <trkpt lat="48.70988" lon="2.042">
        <ele>138</ele>
        <time>2012-06-10T14:50:20Z</time>
      </trkpt>
      <trkpt lat="48.70993" lon="2.04201">
        <ele>138</ele>
        <time>2012-06-10T14:50:24Z</time>
      </trkpt>
      <trkpt lat="48.70998" lon="2.04203">
        <ele>138</ele>
        <time>2012-06-10T14:50:28Z</time>
      </trkpt>
      <trkpt lat="48.71003" lon="2.04207">
        <ele>149</ele>
        <time>2012-06-10T14:50:32Z</time>
      </trkpt>
      <trkpt lat="48.7101" lon="2.042">
        <ele>149</ele>
        <time>2012-06-10T14:50:49Z</time>
      </trkpt>
      <trkpt lat="48.71009" lon="2.04193">
        <ele>149</ele>
        <time>2012-06-10T14:50:53Z</time>
      </trkpt>
      <trkpt lat="48.71021" lon="2.04188">
        <ele>149</ele>
        <time>2012-06-10T14:51:12Z</time>
      </trkpt>
      <trkpt lat="48.71027" lon="2.04186">
        <ele>150</ele>
        <time>2012-06-10T14:51:14Z</time>
      </trkpt>
      <trkpt lat="48.71031" lon="2.04183">
        <ele>150</ele>
        <time>2012-06-10T14:51:17Z</time>
      </trkpt>
      <trkpt lat="48.71027" lon="2.04181">
        <ele>150</ele>
        <time>2012-06-10T14:51:26Z</time>
      </trkpt>
      <trkpt lat="48.71024" lon="2.04175">
        <ele>149</ele>
        <time>2012-06-10T14:51:34Z</time>
      </trkpt>
      <trkpt lat="48.71027" lon="2.04182">
        <ele>150</ele>
        <time>2012-06-10T14:51:45Z</time>
      </trkpt>
      <trkpt lat="48.71011" lon="2.04139">
        <ele>145</ele>
        <time>2012-06-10T14:52:59Z</time>
      </trkpt>
      <trkpt lat="48.71011" lon="2.04151">
        <ele>145</ele>
        <time>2012-06-10T14:56:07Z</time>
      </trkpt>
      <trkpt lat="48.71008" lon="2.04156">
        <ele>146</ele>
        <time>2012-06-10T14:56:12Z</time>
      </trkpt>
      <trkpt lat="48.71004" lon="2.04162">
        <ele>146</ele>
        <time>2012-06-10T14:56:16Z</time>
      </trkpt>
      <trkpt lat="48.70999" lon="2.04166">
        <ele>145</ele>
        <time>2012-06-10T14:56:20Z</time>
      </trkpt>
      <trkpt lat="48.70995" lon="2.04166">
        <ele>142</ele>
        <time>2012-06-10T14:56:24Z</time>
      </trkpt>
      <trkpt lat="48.7099" lon="2.04163">
        <ele>139</ele>
        <time>2012-06-10T14:56:29Z</time>
      </trkpt>
      <trkpt lat="48.70984" lon="2.04161">
        <ele>137</ele>
        <time>2012-06-10T14:56:33Z</time>
      </trkpt>
      <trkpt lat="48.70974" lon="2.0416">
        <ele>133</ele>
        <time>2012-06-10T14:56:41Z</time>
      </trkpt>
      <trkpt lat="48.70969" lon="2.04163">
        <ele>132</ele>
        <time>2012-06-10T14:56:45Z</time>
      </trkpt>
      <trkpt lat="48.70964" lon="2.04166">
        <ele>131</ele>
        <time>2012-06-10T14:56:50Z</time>
      </trkpt>
      <trkpt lat="48.70961" lon="2.04172">
        <ele>134</ele>
        <time>2012-06-10T14:56:55Z</time>
      </trkpt>
      <trkpt lat="48.70958" lon="2.04178">
        <ele>133</ele>
        <time>2012-06-10T14:57:00Z</time>
      </trkpt>
      <trkpt lat="48.70956" lon="2.04186">
        <ele>133</ele>
        <time>2012-06-10T14:57:03Z</time>
      </trkpt>
      <trkpt lat="48.70956" lon="2.04195">
        <ele>133</ele>
        <time>2012-06-10T14:57:06Z</time>
      </trkpt>
      <trkpt lat="48.70958" lon="2.04203">
        <ele>133</ele>
        <time>2012-06-10T14:57:10Z</time>
      </trkpt>
      <trkpt lat="48.70956" lon="2.04211">
        <ele>133</ele>
        <time>2012-06-10T14:57:13Z</time>
      </trkpt>
      <trkpt lat="48.70954" lon="2.04218">
        <ele>133</ele>
        <time>2012-06-10T14:57:19Z</time>
      </trkpt>
      <trkpt lat="48.7095" lon="2.0422">
        <ele>132</ele>
        <time>2012-06-10T14:57:23Z</time>
      </trkpt>
      <trkpt lat="48.70947" lon="2.04213">
        <ele>132</ele>
        <time>2012-06-10T14:57:28Z</time>
      </trkpt>
      <trkpt lat="48.70947" lon="2.04206">
        <ele>132</ele>
        <time>2012-06-10T14:57:31Z</time>
      </trkpt>
      <trkpt lat="48.70948" lon="2.04199">
        <ele>132</ele>
        <time>2012-06-10T14:57:34Z</time>
      </trkpt>
      <trkpt lat="48.70949" lon="2.04191">
        <ele>132</ele>
        <time>2012-06-10T14:57:39Z</time>
      </trkpt>
      <trkpt lat="48.70948" lon="2.04183">
        <ele>131</ele>
        <time>2012-06-10T14:57:42Z</time>
      </trkpt>
      <trkpt lat="48.70947" lon="2.04175">
        <ele>130</ele>
        <time>2012-06-10T14:57:47Z</time>
      </trkpt>
      <trkpt lat="48.70947" lon="2.04162">
        <ele>126</ele>
        <time>2012-06-10T14:57:57Z</time>
      </trkpt>
      <trkpt lat="48.70942" lon="2.04164">
        <ele>125</ele>
        <time>2012-06-10T14:58:07Z</time>
      </trkpt>
      <trkpt lat="48.7094" lon="2.04171">
        <ele>128</ele>
        <time>2012-06-10T14:58:10Z</time>
      </trkpt>
      <trkpt lat="48.70935" lon="2.04177">
        <ele>128</ele>
        <time>2012-06-10T14:58:15Z</time>
      </trkpt>
      <trkpt lat="48.70932" lon="2.04183">
        <ele>128</ele>
        <time>2012-06-10T14:58:19Z</time>
      </trkpt>
      <trkpt lat="48.70923" lon="2.04182">
        <ele>126</ele>
        <time>2012-06-10T14:58:29Z</time>
      </trkpt>
      <trkpt lat="48.7092" lon="2.04176">
        <ele>124</ele>
        <time>2012-06-10T14:58:35Z</time>
      </trkpt>
      <trkpt lat="48.70917" lon="2.0417">
        <ele>121</ele>
        <time>2012-06-10T14:58:42Z</time>
      </trkpt>
      <trkpt lat="48.70916" lon="2.04162">
        <ele>117</ele>
        <time>2012-06-10T14:58:48Z</time>
      </trkpt>
      <trkpt lat="48.70914" lon="2.04155">
        <ele>114</ele>
        <time>2012-06-10T14:58:53Z</time>
      </trkpt>
      <trkpt lat="48.70913" lon="2.04148">
        <ele>112</ele>
        <time>2012-06-10T14:58:59Z</time>
      </trkpt>
      <trkpt lat="48.70912" lon="2.04141">
        <ele>110</ele>
        <time>2012-06-10T14:59:02Z</time>
      </trkpt>
      <trkpt lat="48.70911" lon="2.04134">
        <ele>109</ele>
        <time>2012-06-10T14:59:07Z</time>
      </trkpt>
      <trkpt lat="48.7091" lon="2.04127">
        <ele>109</ele>
        <time>2012-06-10T14:59:12Z</time>
      </trkpt>
      <trkpt lat="48.70909" lon="2.04119">
        <ele>108</ele>
        <time>2012-06-10T14:59:17Z</time>
      </trkpt>
      <trkpt lat="48.70907" lon="2.04113">
        <ele>108</ele>
        <time>2012-06-10T14:59:23Z</time>
      </trkpt>
      <trkpt lat="48.70906" lon="2.04105">
        <ele>108</ele>
        <time>2012-06-10T14:59:26Z</time>
      </trkpt>
      <trkpt lat="48.70905" lon="2.04097">
        <ele>108</ele>
        <time>2012-06-10T14:59:32Z</time>
      </trkpt>
      <trkpt lat="48.70903" lon="2.04088">
        <ele>108</ele>
        <time>2012-06-10T14:59:35Z</time>
      </trkpt>
      <trkpt lat="48.70901" lon="2.04082">
        <ele>106</ele>
        <time>2012-06-10T14:59:40Z</time>
      </trkpt>
      <trkpt lat="48.70896" lon="2.04078">
        <ele>104</ele>
        <time>2012-06-10T14:59:43Z</time>
      </trkpt>
      <trkpt lat="48.70891" lon="2.04073">
        <ele>103</ele>
        <time>2012-06-10T14:59:49Z</time>
      </trkpt>
      <trkpt lat="48.70889" lon="2.04081">
        <ele>103</ele>
        <time>2012-06-10T14:59:55Z</time>
      </trkpt>
      <trkpt lat="48.70887" lon="2.04087">
        <ele>106</ele>
        <time>2012-06-10T14:59:59Z</time>
      </trkpt>
      <trkpt lat="48.70883" lon="2.04094">
        <ele>105</ele>
        <time>2012-06-10T15:00:05Z</time>
      </trkpt>
      <trkpt lat="48.7088" lon="2.041">
        <ele>105</ele>
        <time>2012-06-10T15:00:09Z</time>
      </trkpt>
      <trkpt lat="48.70876" lon="2.04105">
        <ele>105</ele>
        <time>2012-06-10T15:00:14Z</time>
      </trkpt>
      <trkpt lat="48.70872" lon="2.04111">
        <ele>104</ele>
        <time>2012-06-10T15:00:18Z</time>
      </trkpt>
      <trkpt lat="48.70868" lon="2.04116">
        <ele>104</ele>
        <time>2012-06-10T15:00:23Z</time>
      </trkpt>
      <trkpt lat="48.7086" lon="2.04117">
        <ele>103</ele>
        <time>2012-06-10T15:00:32Z</time>
      </trkpt>
      <trkpt lat="48.70855" lon="2.04114">
        <ele>102</ele>
        <time>2012-06-10T15:00:35Z</time>
      </trkpt>
      <trkpt lat="48.7085" lon="2.04111">
        <ele>102</ele>
        <time>2012-06-10T15:00:41Z</time>
      </trkpt>
      <trkpt lat="48.70846" lon="2.04107">
        <ele>101</ele>
        <time>2012-06-10T15:00:45Z</time>
      </trkpt>
      <trkpt lat="48.70841" lon="2.04104">
        <ele>100</ele>
        <time>2012-06-10T15:00:50Z</time>
      </trkpt>
      <trkpt lat="48.70837" lon="2.04097">
        <ele>98</ele>
        <time>2012-06-10T15:00:55Z</time>
      </trkpt>
      <trkpt lat="48.70833" lon="2.04098">
        <ele>93</ele>
        <time>2012-06-10T15:00:59Z</time>
      </trkpt>
      <trkpt lat="48.70827" lon="2.04099">
        <ele>93</ele>
        <time>2012-06-10T15:01:07Z</time>
      </trkpt>
      <trkpt lat="48.70819" lon="2.041">
        <ele>92</ele>
        <time>2012-06-10T15:01:24Z</time>
      </trkpt>
      <trkpt lat="48.70814" lon="2.04099">
        <ele>92</ele>
        <time>2012-06-10T15:01:33Z</time>
      </trkpt>
      <trkpt lat="48.70808" lon="2.04098">
        <ele>92</ele>
        <time>2012-06-10T15:01:36Z</time>
      </trkpt>
      <trkpt lat="48.70803" lon="2.04099">
        <ele>92</ele>
        <time>2012-06-10T15:01:41Z</time>
      </trkpt>
      <trkpt lat="48.70799" lon="2.04102">
        <ele>91</ele>
        <time>2012-06-10T15:01:44Z</time>
      </trkpt>
      <trkpt lat="48.70795" lon="2.04107">
        <ele>91</ele>
        <time>2012-06-10T15:01:49Z</time>
      </trkpt>
      <trkpt lat="48.70789" lon="2.04112">
        <ele>91</ele>
        <time>2012-06-10T15:01:52Z</time>
      </trkpt>
      <trkpt lat="48.70787" lon="2.0412">
        <ele>91</ele>
        <time>2012-06-10T15:01:55Z</time>
      </trkpt>
      <trkpt lat="48.70782" lon="2.04124">
        <ele>91</ele>
        <time>2012-06-10T15:01:59Z</time>
      </trkpt>
      <trkpt lat="48.70776" lon="2.04125">
        <ele>90</ele>
        <time>2012-06-10T15:02:04Z</time>
      </trkpt>
      <trkpt lat="48.70771" lon="2.04128">
        <ele>90</ele>
        <time>2012-06-10T15:02:08Z</time>
      </trkpt>
      <trkpt lat="48.70765" lon="2.04127">
        <ele>90</ele>
        <time>2012-06-10T15:02:12Z</time>
      </trkpt>
      <trkpt lat="48.7076" lon="2.04127">
        <ele>90</ele>
        <time>2012-06-10T15:02:17Z</time>
      </trkpt>
      <trkpt lat="48.70755" lon="2.04126">
        <ele>90</ele>
        <time>2012-06-10T15:02:20Z</time>
      </trkpt>
      <trkpt lat="48.7075" lon="2.0412">
        <ele>90</ele>
        <time>2012-06-10T15:02:25Z</time>
      </trkpt>
      <trkpt lat="48.70752" lon="2.04129">
        <ele>89</ele>
        <time>2012-06-10T15:02:31Z</time>
      </trkpt>
      <trkpt lat="48.70754" lon="2.04136">
        <ele>89</ele>
        <time>2012-06-10T15:02:33Z</time>
      </trkpt>
      <trkpt lat="48.70758" lon="2.04142">
        <ele>89</ele>
        <time>2012-06-10T15:02:37Z</time>
      </trkpt>
      <trkpt lat="48.7076" lon="2.04157">
        <ele>88</ele>
        <time>2012-06-10T15:02:46Z</time>
      </trkpt>
      <trkpt lat="48.70761" lon="2.04166">
        <ele>88</ele>
        <time>2012-06-10T15:02:52Z</time>
      </trkpt>
      <trkpt lat="48.70761" lon="2.04173">
        <ele>88</ele>
        <time>2012-06-10T15:02:56Z</time>
      </trkpt>
      <trkpt lat="48.70761" lon="2.04181">
        <ele>89</ele>
        <time>2012-06-10T15:03:00Z</time>
      </trkpt>
      <trkpt lat="48.70761" lon="2.04195">
        <ele>90</ele>
        <time>2012-06-10T15:03:09Z</time>
      </trkpt>
      <trkpt lat="48.70761" lon="2.04203">
        <ele>90</ele>
        <time>2012-06-10T15:03:14Z</time>
      </trkpt>
      <trkpt lat="48.70763" lon="2.04211">
        <ele>90</ele>
        <time>2012-06-10T15:03:18Z</time>
      </trkpt>
      <trkpt lat="48.70764" lon="2.04219">
        <ele>90</ele>
        <time>2012-06-10T15:03:22Z</time>
      </trkpt>
      <trkpt lat="48.70763" lon="2.04227">
        <ele>90</ele>
        <time>2012-06-10T15:03:27Z</time>
      </trkpt>
      <trkpt lat="48.70763" lon="2.04234">
        <ele>90</ele>
        <time>2012-06-10T15:03:30Z</time>
      </trkpt>
      <trkpt lat="48.70764" lon="2.04242">
        <ele>89</ele>
        <time>2012-06-10T15:03:35Z</time>
      </trkpt>
      <trkpt lat="48.70763" lon="2.0425">
        <ele>89</ele>
        <time>2012-06-10T15:03:40Z</time>
      </trkpt>
      <trkpt lat="48.70764" lon="2.04258">
        <ele>89</ele>
        <time>2012-06-10T15:03:45Z</time>
      </trkpt>
      <trkpt lat="48.70763" lon="2.04265">
        <ele>90</ele>
        <time>2012-06-10T15:03:48Z</time>
      </trkpt>
      <trkpt lat="48.70764" lon="2.04275">
        <ele>90</ele>
        <time>2012-06-10T15:03:53Z</time>
      </trkpt>
      <trkpt lat="48.70763" lon="2.04282">
        <ele>91</ele>
        <time>2012-06-10T15:03:58Z</time>
      </trkpt>
      <trkpt lat="48.70763" lon="2.04291">
        <ele>91</ele>
        <time>2012-06-10T15:04:02Z</time>
      </trkpt>
      <trkpt lat="48.70761" lon="2.04298">
        <ele>91</ele>
        <time>2012-06-10T15:04:05Z</time>
      </trkpt>
      <trkpt lat="48.7076" lon="2.04306">
        <ele>90</ele>
        <time>2012-06-10T15:04:10Z</time>
      </trkpt>
      <trkpt lat="48.70759" lon="2.04313">
        <ele>90</ele>
        <time>2012-06-10T15:04:16Z</time>
      </trkpt>
      <trkpt lat="48.70759" lon="2.04321">
        <ele>90</ele>
        <time>2012-06-10T15:04:20Z</time>
      </trkpt>
      <trkpt lat="48.7076" lon="2.04328">
        <ele>89</ele>
        <time>2012-06-10T15:04:24Z</time>
      </trkpt>
      <trkpt lat="48.70759" lon="2.04335">
        <ele>89</ele>
        <time>2012-06-10T15:04:28Z</time>
      </trkpt>
      <trkpt lat="48.70758" lon="2.04344">
        <ele>89</ele>
        <time>2012-06-10T15:04:32Z</time>
      </trkpt>
      <trkpt lat="48.70757" lon="2.04351">
        <ele>89</ele>
        <time>2012-06-10T15:04:36Z</time>
      </trkpt>
      <trkpt lat="48.70757" lon="2.04359">
        <ele>90</ele>
        <time>2012-06-10T15:04:40Z</time>
      </trkpt>
      <trkpt lat="48.70758" lon="2.04366">
        <ele>90</ele>
        <time>2012-06-10T15:04:44Z</time>
      </trkpt>
      <trkpt lat="48.70759" lon="2.04374">
        <ele>90</ele>
        <time>2012-06-10T15:04:48Z</time>
      </trkpt>
      <trkpt lat="48.70757" lon="2.04382">
        <ele>89</ele>
        <time>2012-06-10T15:04:51Z</time>
      </trkpt>
      <trkpt lat="48.70752" lon="2.04388">
        <ele>89</ele>
        <time>2012-06-10T15:04:54Z</time>
      </trkpt>
      <trkpt lat="48.70748" lon="2.04392">
        <ele>85</ele>
        <time>2012-06-10T15:04:56Z</time>
      </trkpt>
      <trkpt lat="48.70742" lon="2.04396">
        <ele>85</ele>
        <time>2012-06-10T15:04:58Z</time>
      </trkpt>
      <trkpt lat="48.70737" lon="2.044">
        <ele>85</ele>
        <time>2012-06-10T15:05:02Z</time>
      </trkpt>
      <trkpt lat="48.70731" lon="2.04404">
        <ele>85</ele>
        <time>2012-06-10T15:05:05Z</time>
      </trkpt>
      <trkpt lat="48.70726" lon="2.04406">
        <ele>84</ele>
        <time>2012-06-10T15:05:07Z</time>
      </trkpt>
      <trkpt lat="48.70723" lon="2.04412">
        <ele>84</ele>
        <time>2012-06-10T15:05:13Z</time>
      </trkpt>
      <trkpt lat="48.70722" lon="2.04419">
        <ele>84</ele>
        <time>2012-06-10T15:05:15Z</time>
      </trkpt>
      <trkpt lat="48.70721" lon="2.04429">
        <ele>84</ele>
        <time>2012-06-10T15:05:21Z</time>
      </trkpt>
      <trkpt lat="48.70718" lon="2.04435">
        <ele>84</ele>
        <time>2012-06-10T15:05:27Z</time>
      </trkpt>
      <trkpt lat="48.70712" lon="2.04436">
        <ele>84</ele>
        <time>2012-06-10T15:05:29Z</time>
      </trkpt>
      <trkpt lat="48.70702" lon="2.04431">
        <ele>83</ele>
        <time>2012-06-10T15:05:36Z</time>
      </trkpt>
      <trkpt lat="48.70695" lon="2.04428">
        <ele>83</ele>
        <time>2012-06-10T15:05:39Z</time>
      </trkpt>
      <trkpt lat="48.7069" lon="2.04427">
        <ele>82</ele>
        <time>2012-06-10T15:05:44Z</time>
      </trkpt>
      <trkpt lat="48.70686" lon="2.04423">
        <ele>82</ele>
        <time>2012-06-10T15:05:49Z</time>
      </trkpt>
      <trkpt lat="48.70682" lon="2.04419">
        <ele>82</ele>
        <time>2012-06-10T15:05:53Z</time>
      </trkpt>
      <trkpt lat="48.70678" lon="2.04415">
        <ele>81</ele>
        <time>2012-06-10T15:06:02Z</time>
      </trkpt>
      <trkpt lat="48.70673" lon="2.04415">
        <ele>81</ele>
        <time>2012-06-10T15:06:32Z</time>
      </trkpt>
      <trkpt lat="48.70672" lon="2.04422">
        <ele>81</ele>
        <time>2012-06-10T15:06:48Z</time>
      </trkpt>
      <trkpt lat="48.70672" lon="2.04429">
        <ele>81</ele>
        <time>2012-06-10T15:06:51Z</time>
      </trkpt>
      <trkpt lat="48.70673" lon="2.04437">
        <ele>82</ele>
        <time>2012-06-10T15:06:55Z</time>
      </trkpt>
      <trkpt lat="48.70672" lon="2.04451">
        <ele>82</ele>
        <time>2012-06-10T15:07:03Z</time>
      </trkpt>
      <trkpt lat="48.70671" lon="2.04458">
        <ele>83</ele>
        <time>2012-06-10T15:07:07Z</time>
      </trkpt>
      <trkpt lat="48.7067" lon="2.04466">
        <ele>83</ele>
        <time>2012-06-10T15:07:12Z</time>
      </trkpt>
      <trkpt lat="48.70669" lon="2.04474">
        <ele>83</ele>
        <time>2012-06-10T15:07:16Z</time>
      </trkpt>
      <trkpt lat="48.70669" lon="2.04482">
        <ele>83</ele>
        <time>2012-06-10T15:07:19Z</time>
      </trkpt>
      <trkpt lat="48.70668" lon="2.0449">
        <ele>82</ele>
        <time>2012-06-10T15:07:25Z</time>
      </trkpt>
      <trkpt lat="48.70669" lon="2.04498">
        <ele>82</ele>
        <time>2012-06-10T15:07:40Z</time>
      </trkpt>
      <trkpt lat="48.70669" lon="2.04506">
        <ele>82</ele>
        <time>2012-06-10T15:07:45Z</time>
      </trkpt>
      <trkpt lat="48.70669" lon="2.04514">
        <ele>83</ele>
        <time>2012-06-10T15:07:48Z</time>
      </trkpt>
      <trkpt lat="48.70669" lon="2.04522">
        <ele>83</ele>
        <time>2012-06-10T15:07:52Z</time>
      </trkpt>
      <trkpt lat="48.70669" lon="2.04529">
        <ele>83</ele>
        <time>2012-06-10T15:07:57Z</time>
      </trkpt>
      <trkpt lat="48.70668" lon="2.04537">
        <ele>83</ele>
        <time>2012-06-10T15:08:01Z</time>
      </trkpt>
      <trkpt lat="48.70667" lon="2.04543">
        <ele>80</ele>
        <time>2012-06-10T15:08:05Z</time>
      </trkpt>
      <trkpt lat="48.70665" lon="2.04551">
        <ele>80</ele>
        <time>2012-06-10T15:08:12Z</time>
      </trkpt>
      <trkpt lat="48.70665" lon="2.04559">
        <ele>80</ele>
        <time>2012-06-10T15:08:17Z</time>
      </trkpt>
      <trkpt lat="48.70662" lon="2.04566">
        <ele>80</ele>
        <time>2012-06-10T15:08:21Z</time>
      </trkpt>
      <trkpt lat="48.70654" lon="2.0457">
        <ele>80</ele>
        <time>2012-06-10T15:08:25Z</time>
      </trkpt>
      <trkpt lat="48.70647" lon="2.04572">
        <ele>80</ele>
        <time>2012-06-10T15:08:28Z</time>
      </trkpt>
      <trkpt lat="48.70641" lon="2.04573">
        <ele>80</ele>
        <time>2012-06-10T15:08:32Z</time>
      </trkpt>
      <trkpt lat="48.70632" lon="2.04573">
        <ele>79</ele>
        <time>2012-06-10T15:08:38Z</time>
      </trkpt>
      <trkpt lat="48.70627" lon="2.04572">
        <ele>79</ele>
        <time>2012-06-10T15:08:42Z</time>
      </trkpt>
      <trkpt lat="48.70622" lon="2.04572">
        <ele>79</ele>
        <time>2012-06-10T15:08:45Z</time>
      </trkpt>
      <trkpt lat="48.70617" lon="2.04573">
        <ele>79</ele>
        <time>2012-06-10T15:08:49Z</time>
      </trkpt>
      <trkpt lat="48.70611" lon="2.0457">
        <ele>79</ele>
        <time>2012-06-10T15:08:52Z</time>
      </trkpt>
      <trkpt lat="48.70607" lon="2.04572">
        <ele>79</ele>
        <time>2012-06-10T15:08:57Z</time>
      </trkpt>
      <trkpt lat="48.70601" lon="2.04573">
        <ele>79</ele>
        <time>2012-06-10T15:09:00Z</time>
      </trkpt>
      <trkpt lat="48.70597" lon="2.04577">
        <ele>79</ele>
        <time>2012-06-10T15:09:03Z</time>
      </trkpt>
      <trkpt lat="48.70594" lon="2.04584">
        <ele>78</ele>
        <time>2012-06-10T15:09:08Z</time>
      </trkpt>
      <trkpt lat="48.7059" lon="2.0459">
        <ele>78</ele>
        <time>2012-06-10T15:09:11Z</time>
      </trkpt>
      <trkpt lat="48.70587" lon="2.04596">
        <ele>78</ele>
        <time>2012-06-10T15:09:16Z</time>
      </trkpt>
      <trkpt lat="48.70586" lon="2.04604">
        <ele>79</ele>
        <time>2012-06-10T15:09:20Z</time>
      </trkpt>
      <trkpt lat="48.70583" lon="2.04611">
        <ele>79</ele>
        <time>2012-06-10T15:09:24Z</time>
      </trkpt>
      <trkpt lat="48.70581" lon="2.04617">
        <ele>79</ele>
        <time>2012-06-10T15:09:28Z</time>
      </trkpt>
      <trkpt lat="48.70578" lon="2.04624">
        <ele>79</ele>
        <time>2012-06-10T15:09:32Z</time>
      </trkpt>
      <trkpt lat="48.70576" lon="2.04631">
        <ele>79</ele>
        <time>2012-06-10T15:09:38Z</time>
      </trkpt>
      <trkpt lat="48.70572" lon="2.04637">
        <ele>79</ele>
        <time>2012-06-10T15:09:43Z</time>
      </trkpt>
      <trkpt lat="48.70569" lon="2.04643">
        <ele>79</ele>
        <time>2012-06-10T15:09:46Z</time>
      </trkpt>
      <trkpt lat="48.70565" lon="2.04655">
        <ele>79</ele>
        <time>2012-06-10T15:09:53Z</time>
      </trkpt>
      <trkpt lat="48.70562" lon="2.04661">
        <ele>79</ele>
        <time>2012-06-10T15:09:57Z</time>
      </trkpt>
      <trkpt lat="48.70558" lon="2.04666">
        <ele>79</ele>
        <time>2012-06-10T15:10:01Z</time>
      </trkpt>
      <trkpt lat="48.70554" lon="2.0467">
        <ele>79</ele>
        <time>2012-06-10T15:10:04Z</time>
      </trkpt>
      <trkpt lat="48.7055" lon="2.04675">
        <ele>79</ele>
        <time>2012-06-10T15:10:08Z</time>
      </trkpt>
      <trkpt lat="48.70546" lon="2.04679">
        <ele>79</ele>
        <time>2012-06-10T15:10:12Z</time>
      </trkpt>
      <trkpt lat="48.70542" lon="2.04685">
        <ele>79</ele>
        <time>2012-06-10T15:10:17Z</time>
      </trkpt>
      <trkpt lat="48.70538" lon="2.04688">
        <ele>79</ele>
        <time>2012-06-10T15:10:20Z</time>
      </trkpt>
      <trkpt lat="48.70533" lon="2.04693">
        <ele>79</ele>
        <time>2012-06-10T15:10:25Z</time>
      </trkpt>
      <trkpt lat="48.70529" lon="2.04697">
        <ele>79</ele>
        <time>2012-06-10T15:10:28Z</time>
      </trkpt>
      <trkpt lat="48.70524" lon="2.04699">
        <ele>79</ele>
        <time>2012-06-10T15:10:32Z</time>
      </trkpt>
      <trkpt lat="48.70515" lon="2.04702">
        <ele>79</ele>
        <time>2012-06-10T15:10:39Z</time>
      </trkpt>
      <trkpt lat="48.70509" lon="2.04707">
        <ele>80</ele>
        <time>2012-06-10T15:10:44Z</time>
      </trkpt>
      <trkpt lat="48.70502" lon="2.04715">
        <ele>80</ele>
        <time>2012-06-10T15:10:53Z</time>
      </trkpt>
      <trkpt lat="48.70498" lon="2.04722">
        <ele>81</ele>
        <time>2012-06-10T15:10:57Z</time>
      </trkpt>
      <trkpt lat="48.70493" lon="2.04726">
        <ele>81</ele>
        <time>2012-06-10T15:11:00Z</time>
      </trkpt>
      <trkpt lat="48.70488" lon="2.04729">
        <ele>81</ele>
        <time>2012-06-10T15:11:05Z</time>
      </trkpt>
      <trkpt lat="48.70484" lon="2.04731">
        <ele>81</ele>
        <time>2012-06-10T15:11:07Z</time>
      </trkpt>
      <trkpt lat="48.70475" lon="2.04738">
        <ele>81</ele>
        <time>2012-06-10T15:11:15Z</time>
      </trkpt>
      <trkpt lat="48.70472" lon="2.04743">
        <ele>81</ele>
        <time>2012-06-10T15:11:20Z</time>
      </trkpt>
      <trkpt lat="48.70467" lon="2.04747">
        <ele>82</ele>
        <time>2012-06-10T15:11:24Z</time>
      </trkpt>
      <trkpt lat="48.70462" lon="2.04751">
        <ele>82</ele>
        <time>2012-06-10T15:11:28Z</time>
      </trkpt>
      <trkpt lat="48.70458" lon="2.04757">
        <ele>82</ele>
        <time>2012-06-10T15:11:32Z</time>
      </trkpt>
      <trkpt lat="48.70453" lon="2.04761">
        <ele>83</ele>
        <time>2012-06-10T15:11:36Z</time>
      </trkpt>
      <trkpt lat="48.70449" lon="2.04764">
        <ele>83</ele>
        <time>2012-06-10T15:11:40Z</time>
      </trkpt>
      <trkpt lat="48.70444" lon="2.04767">
        <ele>83</ele>
        <time>2012-06-10T15:11:45Z</time>
      </trkpt>
      <trkpt lat="48.70439" lon="2.04769">
        <ele>83</ele>
        <time>2012-06-10T15:11:48Z</time>
      </trkpt>
      <trkpt lat="48.70433" lon="2.04773">
        <ele>83</ele>
        <time>2012-06-10T15:11:53Z</time>
      </trkpt>
      <trkpt lat="48.7043" lon="2.04778">
        <ele>83</ele>
        <time>2012-06-10T15:11:58Z</time>
      </trkpt>
      <trkpt lat="48.70427" lon="2.04785">
        <ele>83</ele>
        <time>2012-06-10T15:12:05Z</time>
      </trkpt>
      <trkpt lat="48.70426" lon="2.04792">
        <ele>83</ele>
        <time>2012-06-10T15:12:08Z</time>
      </trkpt>
      <trkpt lat="48.70425" lon="2.048">
        <ele>83</ele>
        <time>2012-06-10T15:12:13Z</time>
      </trkpt>
      <trkpt lat="48.70423" lon="2.04807">
        <ele>83</ele>
        <time>2012-06-10T15:12:17Z</time>
      </trkpt>
      <trkpt lat="48.70422" lon="2.04814">
        <ele>84</ele>
        <time>2012-06-10T15:12:21Z</time>
      </trkpt>
      <trkpt lat="48.70422" lon="2.04821">
        <ele>84</ele>
        <time>2012-06-10T15:12:26Z</time>
      </trkpt>
      <trkpt lat="48.7042" lon="2.04828">
        <ele>84</ele>
        <time>2012-06-10T15:12:30Z</time>
      </trkpt>
      <trkpt lat="48.70419" lon="2.04836">
        <ele>85</ele>
        <time>2012-06-10T15:12:38Z</time>
      </trkpt>
      <trkpt lat="48.70418" lon="2.04844">
        <ele>84</ele>
        <time>2012-06-10T15:12:44Z</time>
      </trkpt>
      <trkpt lat="48.70416" lon="2.04851">
        <ele>85</ele>
        <time>2012-06-10T15:12:48Z</time>
      </trkpt>
      <trkpt lat="48.70414" lon="2.04858">
        <ele>85</ele>
        <time>2012-06-10T15:12:53Z</time>
      </trkpt>
      <trkpt lat="48.70412" lon="2.04865">
        <ele>85</ele>
        <time>2012-06-10T15:12:58Z</time>
      </trkpt>
      <trkpt lat="48.70409" lon="2.04871">
        <ele>85</ele>
        <time>2012-06-10T15:13:02Z</time>
      </trkpt>
      <trkpt lat="48.70406" lon="2.04877">
        <ele>85</ele>
        <time>2012-06-10T15:13:06Z</time>
      </trkpt>
      <trkpt lat="48.70403" lon="2.04883">
        <ele>85</ele>
        <time>2012-06-10T15:13:10Z</time>
      </trkpt>
      <trkpt lat="48.70401" lon="2.0489">
        <ele>85</ele>
        <time>2012-06-10T15:13:15Z</time>
      </trkpt>
      <trkpt lat="48.70397" lon="2.04897">
        <ele>85</ele>
        <time>2012-06-10T15:13:19Z</time>
      </trkpt>
      <trkpt lat="48.70394" lon="2.04903">
        <ele>85</ele>
        <time>2012-06-10T15:13:23Z</time>
      </trkpt>
      <trkpt lat="48.70391" lon="2.04909">
        <ele>85</ele>
        <time>2012-06-10T15:13:27Z</time>
      </trkpt>
      <trkpt lat="48.70388" lon="2.04915">
        <ele>85</ele>
        <time>2012-06-10T15:13:31Z</time>
      </trkpt>
      <trkpt lat="48.70384" lon="2.04921">
        <ele>84</ele>
        <time>2012-06-10T15:13:35Z</time>
      </trkpt>
      <trkpt lat="48.70381" lon="2.04928">
        <ele>84</ele>
        <time>2012-06-10T15:13:39Z</time>
      </trkpt>
      <trkpt lat="48.70377" lon="2.04934">
        <ele>84</ele>
        <time>2012-06-10T15:13:43Z</time>
      </trkpt>
      <trkpt lat="48.70374" lon="2.04941">
        <ele>84</ele>
        <time>2012-06-10T15:13:47Z</time>
      </trkpt>
      <trkpt lat="48.70371" lon="2.04947">
        <ele>84</ele>
        <time>2012-06-10T15:13:51Z</time>
      </trkpt>
      <trkpt lat="48.70369" lon="2.04954">
        <ele>84</ele>
        <time>2012-06-10T15:13:56Z</time>
      </trkpt>
      <trkpt lat="48.70367" lon="2.0496">
        <ele>84</ele>
        <time>2012-06-10T15:14:00Z</time>
      </trkpt>
      <trkpt lat="48.70362" lon="2.04974">
        <ele>84</ele>
        <time>2012-06-10T15:14:08Z</time>
      </trkpt>
      <trkpt lat="48.7036" lon="2.04982">
        <ele>84</ele>
        <time>2012-06-10T15:14:12Z</time>
      </trkpt>
      <trkpt lat="48.70359" lon="2.0499">
        <ele>84</ele>
        <time>2012-06-10T15:14:16Z</time>
      </trkpt>
      <trkpt lat="48.70356" lon="2.04997">
        <ele>84</ele>
        <time>2012-06-10T15:14:19Z</time>
      </trkpt>
      <trkpt lat="48.70356" lon="2.05005">
        <ele>84</ele>
        <time>2012-06-10T15:14:23Z</time>
      </trkpt>
      <trkpt lat="48.70354" lon="2.05011">
        <ele>84</ele>
        <time>2012-06-10T15:14:27Z</time>
      </trkpt>
      <trkpt lat="48.70352" lon="2.05018">
        <ele>84</ele>
        <time>2012-06-10T15:14:30Z</time>
      </trkpt>
      <trkpt lat="48.70346" lon="2.05031">
        <ele>84</ele>
        <time>2012-06-10T15:14:38Z</time>
      </trkpt>
      <trkpt lat="48.70344" lon="2.05038">
        <ele>84</ele>
        <time>2012-06-10T15:14:42Z</time>
      </trkpt>
      <trkpt lat="48.70339" lon="2.05051">
        <ele>84</ele>
        <time>2012-06-10T15:14:49Z</time>
      </trkpt>
      <trkpt lat="48.70335" lon="2.05058">
        <ele>84</ele>
        <time>2012-06-10T15:14:53Z</time>
      </trkpt>
      <trkpt lat="48.70331" lon="2.05069">
        <ele>85</ele>
        <time>2012-06-10T15:14:59Z</time>
      </trkpt>
      <trkpt lat="48.70327" lon="2.05075">
        <ele>85</ele>
        <time>2012-06-10T15:15:03Z</time>
      </trkpt>
      <trkpt lat="48.70325" lon="2.05081">
        <ele>85</ele>
        <time>2012-06-10T15:15:06Z</time>
      </trkpt>
      <trkpt lat="48.70322" lon="2.05087">
        <ele>85</ele>
        <time>2012-06-10T15:15:10Z</time>
      </trkpt>
      <trkpt lat="48.70319" lon="2.05094">
        <ele>86</ele>
        <time>2012-06-10T15:15:14Z</time>
      </trkpt>
      <trkpt lat="48.70316" lon="2.05101">
        <ele>86</ele>
        <time>2012-06-10T15:15:18Z</time>
      </trkpt>
      <trkpt lat="48.70314" lon="2.05108">
        <ele>86</ele>
        <time>2012-06-10T15:15:22Z</time>
      </trkpt>
      <trkpt lat="48.70311" lon="2.05116">
        <ele>86</ele>
        <time>2012-06-10T15:15:26Z</time>
      </trkpt>
      <trkpt lat="48.70309" lon="2.05123">
        <ele>87</ele>
        <time>2012-06-10T15:15:30Z</time>
      </trkpt>
      <trkpt lat="48.70307" lon="2.0513">
        <ele>87</ele>
        <time>2012-06-10T15:15:34Z</time>
      </trkpt>
      <trkpt lat="48.70303" lon="2.05136">
        <ele>87</ele>
        <time>2012-06-10T15:15:39Z</time>
      </trkpt>
      <trkpt lat="48.703" lon="2.05144">
        <ele>87</ele>
        <time>2012-06-10T15:15:43Z</time>
      </trkpt>
      <trkpt lat="48.70297" lon="2.0515">
        <ele>87</ele>
        <time>2012-06-10T15:15:47Z</time>
      </trkpt>
      <trkpt lat="48.70293" lon="2.05155">
        <ele>87</ele>
        <time>2012-06-10T15:15:51Z</time>
      </trkpt>
      <trkpt lat="48.70291" lon="2.05162">
        <ele>87</ele>
        <time>2012-06-10T15:15:55Z</time>
      </trkpt>
      <trkpt lat="48.70288" lon="2.05169">
        <ele>88</ele>
        <time>2012-06-10T15:16:01Z</time>
      </trkpt>
      <trkpt lat="48.70286" lon="2.05176">
        <ele>88</ele>
        <time>2012-06-10T15:16:05Z</time>
      </trkpt>
      <trkpt lat="48.70285" lon="2.05184">
        <ele>88</ele>
        <time>2012-06-10T15:16:09Z</time>
      </trkpt>
      <trkpt lat="48.70282" lon="2.05191">
        <ele>88</ele>
        <time>2012-06-10T15:16:14Z</time>
      </trkpt>
      <trkpt lat="48.70279" lon="2.05198">
        <ele>88</ele>
        <time>2012-06-10T15:16:19Z</time>
      </trkpt>
      <trkpt lat="48.70275" lon="2.05204">
        <ele>88</ele>
        <time>2012-06-10T15:16:23Z</time>
      </trkpt>
      <trkpt lat="48.70272" lon="2.0521">
        <ele>88</ele>
        <time>2012-06-10T15:16:26Z</time>
      </trkpt>
      <trkpt lat="48.7027" lon="2.05216">
        <ele>88</ele>
        <time>2012-06-10T15:16:30Z</time>
      </trkpt>
      <trkpt lat="48.70267" lon="2.05222">
        <ele>88</ele>
        <time>2012-06-10T15:16:35Z</time>
      </trkpt>
      <trkpt lat="48.70265" lon="2.05229">
        <ele>89</ele>
        <time>2012-06-10T15:16:40Z</time>
      </trkpt>
      <trkpt lat="48.70262" lon="2.05236">
        <ele>89</ele>
        <time>2012-06-10T15:16:43Z</time>
      </trkpt>
      <trkpt lat="48.70258" lon="2.05241">
        <ele>89</ele>
        <time>2012-06-10T15:16:46Z</time>
      </trkpt>
      <trkpt lat="48.70255" lon="2.05247">
        <ele>90</ele>
        <time>2012-06-10T15:16:49Z</time>
      </trkpt>
      <trkpt lat="48.70252" lon="2.05253">
        <ele>89</ele>
        <time>2012-06-10T15:16:53Z</time>
      </trkpt>
      <trkpt lat="48.70249" lon="2.05259">
        <ele>90</ele>
        <time>2012-06-10T15:16:56Z</time>
      </trkpt>
      <trkpt lat="48.70246" lon="2.05266">
        <ele>90</ele>
        <time>2012-06-10T15:17:00Z</time>
      </trkpt>
      <trkpt lat="48.70243" lon="2.05272">
        <ele>90</ele>
        <time>2012-06-10T15:17:04Z</time>
      </trkpt>
      <trkpt lat="48.70239" lon="2.05278">
        <ele>90</ele>
        <time>2012-06-10T15:17:08Z</time>
      </trkpt>
      <trkpt lat="48.70233" lon="2.0529">
        <ele>90</ele>
        <time>2012-06-10T15:17:15Z</time>
      </trkpt>
      <trkpt lat="48.70229" lon="2.05295">
        <ele>90</ele>
        <time>2012-06-10T15:17:19Z</time>
      </trkpt>
      <trkpt lat="48.70225" lon="2.053">
        <ele>90</ele>
        <time>2012-06-10T15:17:23Z</time>
      </trkpt>
      <trkpt lat="48.7022" lon="2.05302">
        <ele>90</ele>
        <time>2012-06-10T15:17:27Z</time>
      </trkpt>
      <trkpt lat="48.70215" lon="2.05304">
        <ele>90</ele>
        <time>2012-06-10T15:17:31Z</time>
      </trkpt>
      <trkpt lat="48.70212" lon="2.05309">
        <ele>90</ele>
        <time>2012-06-10T15:17:35Z</time>
      </trkpt>
      <trkpt lat="48.70211" lon="2.05316">
        <ele>90</ele>
        <time>2012-06-10T15:17:39Z</time>
      </trkpt>
      <trkpt lat="48.70208" lon="2.05323">
        <ele>90</ele>
        <time>2012-06-10T15:17:43Z</time>
      </trkpt>
      <trkpt lat="48.70207" lon="2.05331">
        <ele>90</ele>
        <time>2012-06-10T15:17:48Z</time>
      </trkpt>
      <trkpt lat="48.70206" lon="2.05339">
        <ele>88</ele>
        <time>2012-06-10T15:17:52Z</time>
      </trkpt>
      <trkpt lat="48.70206" lon="2.05346">
        <ele>88</ele>
        <time>2012-06-10T15:17:56Z</time>
      </trkpt>
      <trkpt lat="48.70207" lon="2.05356">
        <ele>88</ele>
        <time>2012-06-10T15:18:01Z</time>
      </trkpt>
      <trkpt lat="48.70207" lon="2.05363">
        <ele>88</ele>
        <time>2012-06-10T15:18:04Z</time>
      </trkpt>
      <trkpt lat="48.70207" lon="2.0537">
        <ele>88</ele>
        <time>2012-06-10T15:18:08Z</time>
      </trkpt>
      <trkpt lat="48.70208" lon="2.05378">
        <ele>87</ele>
        <time>2012-06-10T15:18:12Z</time>
      </trkpt>
      <trkpt lat="48.7021" lon="2.05386">
        <ele>87</ele>
        <time>2012-06-10T15:18:16Z</time>
      </trkpt>
      <trkpt lat="48.70211" lon="2.05393">
        <ele>87</ele>
        <time>2012-06-10T15:18:20Z</time>
      </trkpt>
      <trkpt lat="48.70213" lon="2.054">
        <ele>87</ele>
        <time>2012-06-10T15:18:24Z</time>
      </trkpt>
      <trkpt lat="48.70213" lon="2.05409">
        <ele>87</ele>
        <time>2012-06-10T15:18:28Z</time>
      </trkpt>
      <trkpt lat="48.70215" lon="2.05416">
        <ele>86</ele>
        <time>2012-06-10T15:18:32Z</time>
      </trkpt>
      <trkpt lat="48.70216" lon="2.05424">
        <ele>84</ele>
        <time>2012-06-10T15:18:36Z</time>
      </trkpt>
      <trkpt lat="48.70215" lon="2.05432">
        <ele>84</ele>
        <time>2012-06-10T15:18:40Z</time>
      </trkpt>
      <trkpt lat="48.70215" lon="2.0544">
        <ele>84</ele>
        <time>2012-06-10T15:18:44Z</time>
      </trkpt>
      <trkpt lat="48.70216" lon="2.05448">
        <ele>84</ele>
        <time>2012-06-10T15:18:48Z</time>
      </trkpt>
      <trkpt lat="48.70216" lon="2.05455">
        <ele>84</ele>
        <time>2012-06-10T15:18:52Z</time>
      </trkpt>
      <trkpt lat="48.70218" lon="2.05463">
        <ele>83</ele>
        <time>2012-06-10T15:18:56Z</time>
      </trkpt>
      <trkpt lat="48.70219" lon="2.05472">
        <ele>83</ele>
        <time>2012-06-10T15:19:00Z</time>
      </trkpt>
      <trkpt lat="48.70219" lon="2.0548">
        <ele>83</ele>
        <time>2012-06-10T15:19:04Z</time>
      </trkpt>
      <trkpt lat="48.7022" lon="2.05487">
        <ele>83</ele>
        <time>2012-06-10T15:19:08Z</time>
      </trkpt>
      <trkpt lat="48.7022" lon="2.05494">
        <ele>82</ele>
        <time>2012-06-10T15:19:12Z</time>
      </trkpt>
      <trkpt lat="48.70221" lon="2.05502">
        <ele>82</ele>
        <time>2012-06-10T15:19:16Z</time>
      </trkpt>
      <trkpt lat="48.70221" lon="2.0551">
        <ele>82</ele>
        <time>2012-06-10T15:19:20Z</time>
      </trkpt>
      <trkpt lat="48.70223" lon="2.05517">
        <ele>82</ele>
        <time>2012-06-10T15:19:24Z</time>
      </trkpt>
      <trkpt lat="48.70224" lon="2.05525">
        <ele>82</ele>
        <time>2012-06-10T15:19:28Z</time>
      </trkpt>
      <trkpt lat="48.70226" lon="2.05532">
        <ele>82</ele>
        <time>2012-06-10T15:19:32Z</time>
      </trkpt>
      <trkpt lat="48.70228" lon="2.0554">
        <ele>82</ele>
        <time>2012-06-10T15:19:36Z</time>
      </trkpt>
      <trkpt lat="48.70229" lon="2.05548">
        <ele>82</ele>
        <time>2012-06-10T15:19:40Z</time>
      </trkpt>
      <trkpt lat="48.70228" lon="2.05556">
        <ele>82</ele>
        <time>2012-06-10T15:19:43Z</time>
      </trkpt>
      <trkpt lat="48.70231" lon="2.05569">
        <ele>82</ele>
        <time>2012-06-10T15:19:51Z</time>
      </trkpt>
      <trkpt lat="48.70233" lon="2.05576">
        <ele>82</ele>
        <time>2012-06-10T15:19:55Z</time>
      </trkpt>
      <trkpt lat="48.70234" lon="2.05584">
        <ele>82</ele>
        <time>2012-06-10T15:19:59Z</time>
      </trkpt>
      <trkpt lat="48.70235" lon="2.05591">
        <ele>82</ele>
        <time>2012-06-10T15:20:03Z</time>
      </trkpt>
      <trkpt lat="48.70236" lon="2.05599">
        <ele>83</ele>
        <time>2012-06-10T15:20:07Z</time>
      </trkpt>
      <trkpt lat="48.70237" lon="2.05606">
        <ele>83</ele>
        <time>2012-06-10T15:20:11Z</time>
      </trkpt>
      <trkpt lat="48.70239" lon="2.05614">
        <ele>83</ele>
        <time>2012-06-10T15:20:15Z</time>
      </trkpt>
      <trkpt lat="48.7024" lon="2.05621">
        <ele>83</ele>
        <time>2012-06-10T15:20:19Z</time>
      </trkpt>
      <trkpt lat="48.70242" lon="2.05628">
        <ele>83</ele>
        <time>2012-06-10T15:20:23Z</time>
      </trkpt>
      <trkpt lat="48.70243" lon="2.05636">
        <ele>83</ele>
        <time>2012-06-10T15:20:27Z</time>
      </trkpt>
      <trkpt lat="48.70244" lon="2.05644">
        <ele>83</ele>
        <time>2012-06-10T15:20:31Z</time>
      </trkpt>
      <trkpt lat="48.70246" lon="2.05651">
        <ele>83</ele>
        <time>2012-06-10T15:20:35Z</time>
      </trkpt>
      <trkpt lat="48.70247" lon="2.05659">
        <ele>82</ele>
        <time>2012-06-10T15:20:39Z</time>
      </trkpt>
      <trkpt lat="48.70249" lon="2.05666">
        <ele>81</ele>
        <time>2012-06-10T15:20:43Z</time>
      </trkpt>
      <trkpt lat="48.70251" lon="2.05673">
        <ele>81</ele>
        <time>2012-06-10T15:20:47Z</time>
      </trkpt>
      <trkpt lat="48.70252" lon="2.05681">
        <ele>81</ele>
        <time>2012-06-10T15:20:51Z</time>
      </trkpt>
      <trkpt lat="48.70254" lon="2.05689">
        <ele>81</ele>
        <time>2012-06-10T15:20:55Z</time>
      </trkpt>
      <trkpt lat="48.70256" lon="2.05695">
        <ele>81</ele>
        <time>2012-06-10T15:20:59Z</time>
      </trkpt>
      <trkpt lat="48.70257" lon="2.05702">
        <ele>81</ele>
        <time>2012-06-10T15:21:03Z</time>
      </trkpt>
      <trkpt lat="48.70259" lon="2.05709">
        <ele>81</ele>
        <time>2012-06-10T15:21:07Z</time>
      </trkpt>
      <trkpt lat="48.70261" lon="2.05717">
        <ele>81</ele>
        <time>2012-06-10T15:21:11Z</time>
      </trkpt>
      <trkpt lat="48.70264" lon="2.05724">
        <ele>81</ele>
        <time>2012-06-10T15:21:15Z</time>
      </trkpt>
      <trkpt lat="48.70265" lon="2.05731">
        <ele>81</ele>
        <time>2012-06-10T15:21:19Z</time>
      </trkpt>
      <trkpt lat="48.70266" lon="2.05739">
        <ele>81</ele>
        <time>2012-06-10T15:21:23Z</time>
      </trkpt>
      <trkpt lat="48.70267" lon="2.05747">
        <ele>82</ele>
        <time>2012-06-10T15:21:27Z</time>
      </trkpt>
      <trkpt lat="48.70269" lon="2.05754">
        <ele>82</ele>
        <time>2012-06-10T15:21:31Z</time>
      </trkpt>
      <trkpt lat="48.7027" lon="2.05762">
        <ele>82</ele>
        <time>2012-06-10T15:21:35Z</time>
      </trkpt>
      <trkpt lat="48.70271" lon="2.05768">
        <ele>82</ele>
        <time>2012-06-10T15:21:39Z</time>
      </trkpt>
      <trkpt lat="48.70271" lon="2.05777">
        <ele>82</ele>
        <time>2012-06-10T15:21:43Z</time>
      </trkpt>
      <trkpt lat="48.70272" lon="2.05784">
        <ele>82</ele>
        <time>2012-06-10T15:21:47Z</time>
      </trkpt>
      <trkpt lat="48.70272" lon="2.05792">
        <ele>82</ele>
        <time>2012-06-10T15:21:51Z</time>
      </trkpt>
      <trkpt lat="48.70272" lon="2.058">
        <ele>82</ele>
        <time>2012-06-10T15:21:55Z</time>
      </trkpt>
      <trkpt lat="48.70273" lon="2.05808">
        <ele>82</ele>
        <time>2012-06-10T15:21:59Z</time>
      </trkpt>
      <trkpt lat="48.70272" lon="2.05817">
        <ele>82</ele>
        <time>2012-06-10T15:22:03Z</time>
      </trkpt>
      <trkpt lat="48.70272" lon="2.05825">
        <ele>82</ele>
        <time>2012-06-10T15:22:07Z</time>
      </trkpt>
      <trkpt lat="48.70272" lon="2.05839">
        <ele>83</ele>
        <time>2012-06-10T15:22:14Z</time>
      </trkpt>
      <trkpt lat="48.70271" lon="2.05847">
        <ele>83</ele>
        <time>2012-06-10T15:22:18Z</time>
      </trkpt>
      <trkpt lat="48.70272" lon="2.05854">
        <ele>83</ele>
        <time>2012-06-10T15:22:22Z</time>
      </trkpt>
      <trkpt lat="48.70272" lon="2.05861">
        <ele>82</ele>
        <time>2012-06-10T15:22:26Z</time>
      </trkpt>
      <trkpt lat="48.70272" lon="2.05869">
        <ele>83</ele>
        <time>2012-06-10T15:22:30Z</time>
      </trkpt>
      <trkpt lat="48.70271" lon="2.05877">
        <ele>83</ele>
        <time>2012-06-10T15:22:34Z</time>
      </trkpt>
      <trkpt lat="48.7027" lon="2.05886">
        <ele>83</ele>
        <time>2012-06-10T15:22:38Z</time>
      </trkpt>
      <trkpt lat="48.7027" lon="2.05894">
        <ele>83</ele>
        <time>2012-06-10T15:22:42Z</time>
      </trkpt>
      <trkpt lat="48.70269" lon="2.05902">
        <ele>84</ele>
        <time>2012-06-10T15:22:46Z</time>
      </trkpt>
      <trkpt lat="48.70269" lon="2.0591">
        <ele>84</ele>
        <time>2012-06-10T15:22:50Z</time>
      </trkpt>
      <trkpt lat="48.70269" lon="2.05918">
        <ele>84</ele>
        <time>2012-06-10T15:22:54Z</time>
      </trkpt>
      <trkpt lat="48.70269" lon="2.05925">
        <ele>84</ele>
        <time>2012-06-10T15:22:58Z</time>
      </trkpt>
      <trkpt lat="48.70268" lon="2.05933">
        <ele>84</ele>
        <time>2012-06-10T15:23:02Z</time>
      </trkpt>
      <trkpt lat="48.70268" lon="2.05941">
        <ele>84</ele>
        <time>2012-06-10T15:23:06Z</time>
      </trkpt>
      <trkpt lat="48.70267" lon="2.05949">
        <ele>84</ele>
        <time>2012-06-10T15:23:10Z</time>
      </trkpt>
      <trkpt lat="48.70266" lon="2.05957">
        <ele>84</ele>
        <time>2012-06-10T15:23:14Z</time>
      </trkpt>
      <trkpt lat="48.70266" lon="2.05965">
        <ele>84</ele>
        <time>2012-06-10T15:23:18Z</time>
      </trkpt>
      <trkpt lat="48.70266" lon="2.05973">
        <ele>84</ele>
        <time>2012-06-10T15:23:22Z</time>
      </trkpt>
      <trkpt lat="48.70265" lon="2.05981">
        <ele>85</ele>
        <time>2012-06-10T15:23:26Z</time>
      </trkpt>
      <trkpt lat="48.70264" lon="2.05989">
        <ele>85</ele>
        <time>2012-06-10T15:23:30Z</time>
      </trkpt>
      <trkpt lat="48.70264" lon="2.05997">
        <ele>86</ele>
        <time>2012-06-10T15:23:34Z</time>
      </trkpt>
      <trkpt lat="48.70264" lon="2.06005">
        <ele>85</ele>
        <time>2012-06-10T15:23:38Z</time>
      </trkpt>
      <trkpt lat="48.70265" lon="2.06013">
        <ele>84</ele>
        <time>2012-06-10T15:23:42Z</time>
      </trkpt>
      <trkpt lat="48.70265" lon="2.06021">
        <ele>83</ele>
        <time>2012-06-10T15:23:46Z</time>
      </trkpt>
      <trkpt lat="48.70264" lon="2.06029">
        <ele>83</ele>
        <time>2012-06-10T15:23:50Z</time>
      </trkpt>
      <trkpt lat="48.70264" lon="2.06037">
        <ele>82</ele>
        <time>2012-06-10T15:23:54Z</time>
      </trkpt>
      <trkpt lat="48.70264" lon="2.06045">
        <ele>82</ele>
        <time>2012-06-10T15:23:58Z</time>
      </trkpt>
      <trkpt lat="48.70263" lon="2.06053">
        <ele>81</ele>
        <time>2012-06-10T15:24:02Z</time>
      </trkpt>
      <trkpt lat="48.70262" lon="2.0606">
        <ele>81</ele>
        <time>2012-06-10T15:24:06Z</time>
      </trkpt>
      <trkpt lat="48.70262" lon="2.06068">
        <ele>81</ele>
        <time>2012-06-10T15:24:10Z</time>
      </trkpt>
      <trkpt lat="48.7026" lon="2.06083">
        <ele>81</ele>
        <time>2012-06-10T15:24:18Z</time>
      </trkpt>
      <trkpt lat="48.7026" lon="2.06091">
        <ele>80</ele>
        <time>2012-06-10T15:24:22Z</time>
      </trkpt>
      <trkpt lat="48.70259" lon="2.061">
        <ele>80</ele>
        <time>2012-06-10T15:24:25Z</time>
      </trkpt>
      <trkpt lat="48.70259" lon="2.06107">
        <ele>79</ele>
        <time>2012-06-10T15:24:30Z</time>
      </trkpt>
      <trkpt lat="48.70259" lon="2.06115">
        <ele>79</ele>
        <time>2012-06-10T15:24:34Z</time>
      </trkpt>
      <trkpt lat="48.70258" lon="2.06123">
        <ele>79</ele>
        <time>2012-06-10T15:24:39Z</time>
      </trkpt>
      <trkpt lat="48.70258" lon="2.06133">
        <ele>79</ele>
        <time>2012-06-10T15:24:42Z</time>
      </trkpt>
      <trkpt lat="48.70258" lon="2.0614">
        <ele>79</ele>
        <time>2012-06-10T15:24:47Z</time>
      </trkpt>
      <trkpt lat="48.70257" lon="2.06149">
        <ele>79</ele>
        <time>2012-06-10T15:24:50Z</time>
      </trkpt>
      <trkpt lat="48.70257" lon="2.06157">
        <ele>80</ele>
        <time>2012-06-10T15:24:55Z</time>
      </trkpt>
      <trkpt lat="48.70257" lon="2.06167">
        <ele>80</ele>
        <time>2012-06-10T15:24:58Z</time>
      </trkpt>
      <trkpt lat="48.70257" lon="2.06176">
        <ele>80</ele>
        <time>2012-06-10T15:25:03Z</time>
      </trkpt>
      <trkpt lat="48.70256" lon="2.06183">
        <ele>79</ele>
        <time>2012-06-10T15:25:05Z</time>
      </trkpt>
      <trkpt lat="48.70255" lon="2.06192">
        <ele>79</ele>
        <time>2012-06-10T15:25:10Z</time>
      </trkpt>
      <trkpt lat="48.70253" lon="2.06199">
        <ele>79</ele>
        <time>2012-06-10T15:25:13Z</time>
      </trkpt>
      <trkpt lat="48.70252" lon="2.06207">
        <ele>79</ele>
        <time>2012-06-10T15:25:18Z</time>
      </trkpt>
      <trkpt lat="48.7025" lon="2.06215">
        <ele>79</ele>
        <time>2012-06-10T15:25:21Z</time>
      </trkpt>
      <trkpt lat="48.70248" lon="2.06224">
        <ele>83</ele>
        <time>2012-06-10T15:25:26Z</time>
      </trkpt>
      <trkpt lat="48.70245" lon="2.06238">
        <ele>82</ele>
        <time>2012-06-10T15:25:34Z</time>
      </trkpt>
      <trkpt lat="48.70243" lon="2.06247">
        <ele>82</ele>
        <time>2012-06-10T15:25:40Z</time>
      </trkpt>
      <trkpt lat="48.70241" lon="2.06254">
        <ele>82</ele>
        <time>2012-06-10T15:25:43Z</time>
      </trkpt>
      <trkpt lat="48.70239" lon="2.0626">
        <ele>82</ele>
        <time>2012-06-10T15:25:47Z</time>
      </trkpt>
      <trkpt lat="48.70237" lon="2.06268">
        <ele>82</ele>
        <time>2012-06-10T15:25:50Z</time>
      </trkpt>
      <trkpt lat="48.70235" lon="2.06274">
        <ele>82</ele>
        <time>2012-06-10T15:25:55Z</time>
      </trkpt>
      <trkpt lat="48.70235" lon="2.06282">
        <ele>82</ele>
        <time>2012-06-10T15:25:58Z</time>
      </trkpt>
      <trkpt lat="48.70234" lon="2.06291">
        <ele>82</ele>
        <time>2012-06-10T15:26:03Z</time>
      </trkpt>
      <trkpt lat="48.70233" lon="2.06297">
        <ele>82</ele>
        <time>2012-06-10T15:26:07Z</time>
      </trkpt>
      <trkpt lat="48.70232" lon="2.06306">
        <ele>82</ele>
        <time>2012-06-10T15:26:11Z</time>
      </trkpt>
      <trkpt lat="48.70232" lon="2.06313">
        <ele>81</ele>
        <time>2012-06-10T15:26:14Z</time>
      </trkpt>
      <trkpt lat="48.70231" lon="2.0632">
        <ele>81</ele>
        <time>2012-06-10T15:26:18Z</time>
      </trkpt>
      <trkpt lat="48.7023" lon="2.06328">
        <ele>81</ele>
        <time>2012-06-10T15:26:21Z</time>
      </trkpt>
      <trkpt lat="48.70231" lon="2.06335">
        <ele>80</ele>
        <time>2012-06-10T15:26:26Z</time>
      </trkpt>
      <trkpt lat="48.7023" lon="2.06342">
        <ele>80</ele>
        <time>2012-06-10T15:26:28Z</time>
      </trkpt>
      <trkpt lat="48.70231" lon="2.0635">
        <ele>81</ele>
        <time>2012-06-10T15:26:34Z</time>
      </trkpt>
      <trkpt lat="48.7023" lon="2.06364">
        <ele>81</ele>
        <time>2012-06-10T15:26:39Z</time>
      </trkpt>
      <trkpt lat="48.7023" lon="2.06373">
        <ele>81</ele>
        <time>2012-06-10T15:26:43Z</time>
      </trkpt>
      <trkpt lat="48.70229" lon="2.06381">
        <ele>81</ele>
        <time>2012-06-10T15:26:47Z</time>
      </trkpt>
      <trkpt lat="48.70228" lon="2.06397">
        <ele>81</ele>
        <time>2012-06-10T15:26:54Z</time>
      </trkpt>
      <trkpt lat="48.70229" lon="2.06403">
        <ele>81</ele>
        <time>2012-06-10T15:26:58Z</time>
      </trkpt>
      <trkpt lat="48.70229" lon="2.06411">
        <ele>80</ele>
        <time>2012-06-10T15:27:02Z</time>
      </trkpt>
      <trkpt lat="48.70229" lon="2.06419">
        <ele>80</ele>
        <time>2012-06-10T15:27:08Z</time>
      </trkpt>
      <trkpt lat="48.70229" lon="2.06435">
        <ele>80</ele>
        <time>2012-06-10T15:27:16Z</time>
      </trkpt>
      <trkpt lat="48.70228" lon="2.06449">
        <ele>81</ele>
        <time>2012-06-10T15:27:21Z</time>
      </trkpt>
      <trkpt lat="48.70229" lon="2.06456">
        <ele>81</ele>
        <time>2012-06-10T15:27:25Z</time>
      </trkpt>
      <trkpt lat="48.70229" lon="2.06463">
        <ele>81</ele>
        <time>2012-06-10T15:27:29Z</time>
      </trkpt>
      <trkpt lat="48.7023" lon="2.0647">
        <ele>80</ele>
        <time>2012-06-10T15:27:32Z</time>
      </trkpt>
      <trkpt lat="48.7023" lon="2.06478">
        <ele>80</ele>
        <time>2012-06-10T15:27:37Z</time>
      </trkpt>
      <trkpt lat="48.70229" lon="2.06485">
        <ele>80</ele>
        <time>2012-06-10T15:27:40Z</time>
      </trkpt>
      <trkpt lat="48.70229" lon="2.06493">
        <ele>80</ele>
        <time>2012-06-10T15:27:44Z</time>
      </trkpt>
      <trkpt lat="48.70229" lon="2.065">
        <ele>79</ele>
        <time>2012-06-10T15:27:48Z</time>
      </trkpt>
      <trkpt lat="48.70229" lon="2.06509">
        <ele>79</ele>
        <time>2012-06-10T15:27:52Z</time>
      </trkpt>
      <trkpt lat="48.70227" lon="2.06516">
        <ele>79</ele>
        <time>2012-06-10T15:27:55Z</time>
      </trkpt>
      <trkpt lat="48.70227" lon="2.0653">
        <ele>79</ele>
        <time>2012-06-10T15:28:04Z</time>
      </trkpt>
      <trkpt lat="48.70227" lon="2.06537">
        <ele>79</ele>
        <time>2012-06-10T15:28:07Z</time>
      </trkpt>
      <trkpt lat="48.70227" lon="2.06545">
        <ele>79</ele>
        <time>2012-06-10T15:28:11Z</time>
      </trkpt>
      <trkpt lat="48.70228" lon="2.06552">
        <ele>79</ele>
        <time>2012-06-10T15:28:15Z</time>
      </trkpt>
      <trkpt lat="48.70231" lon="2.06561">
        <ele>79</ele>
        <time>2012-06-10T15:28:18Z</time>
      </trkpt>
      <trkpt lat="48.70232" lon="2.06568">
        <ele>79</ele>
        <time>2012-06-10T15:28:23Z</time>
      </trkpt>
      <trkpt lat="48.70233" lon="2.06581">
        <ele>78</ele>
        <time>2012-06-10T15:28:29Z</time>
      </trkpt>
      <trkpt lat="48.70235" lon="2.06588">
        <ele>78</ele>
        <time>2012-06-10T15:28:32Z</time>
      </trkpt>
      <trkpt lat="48.70237" lon="2.06595">
        <ele>78</ele>
        <time>2012-06-10T15:28:37Z</time>
      </trkpt>
      <trkpt lat="48.70238" lon="2.06602">
        <ele>78</ele>
        <time>2012-06-10T15:28:40Z</time>
      </trkpt>
      <trkpt lat="48.70239" lon="2.0661">
        <ele>79</ele>
        <time>2012-06-10T15:28:45Z</time>
      </trkpt>
      <trkpt lat="48.70241" lon="2.06617">
        <ele>79</ele>
        <time>2012-06-10T15:28:48Z</time>
      </trkpt>
      <trkpt lat="48.70244" lon="2.06624">
        <ele>79</ele>
        <time>2012-06-10T15:28:53Z</time>
      </trkpt>
      <trkpt lat="48.70245" lon="2.06634">
        <ele>79</ele>
        <time>2012-06-10T15:28:56Z</time>
      </trkpt>
      <trkpt lat="48.70246" lon="2.06643">
        <ele>79</ele>
        <time>2012-06-10T15:29:01Z</time>
      </trkpt>
      <trkpt lat="48.70247" lon="2.06651">
        <ele>79</ele>
        <time>2012-06-10T15:29:04Z</time>
      </trkpt>
      <trkpt lat="48.7025" lon="2.06658">
        <ele>79</ele>
        <time>2012-06-10T15:29:09Z</time>
      </trkpt>
      <trkpt lat="48.70251" lon="2.06665">
        <ele>79</ele>
        <time>2012-06-10T15:29:13Z</time>
      </trkpt>
      <trkpt lat="48.70251" lon="2.06674">
        <ele>78</ele>
        <time>2012-06-10T15:29:17Z</time>
      </trkpt>
      <trkpt lat="48.70256" lon="2.06686">
        <ele>77</ele>
        <time>2012-06-10T15:29:24Z</time>
      </trkpt>
      <trkpt lat="48.70258" lon="2.06693">
        <ele>77</ele>
        <time>2012-06-10T15:29:28Z</time>
      </trkpt>
      <trkpt lat="48.7026" lon="2.06699">
        <ele>77</ele>
        <time>2012-06-10T15:29:31Z</time>
      </trkpt>
      <trkpt lat="48.70261" lon="2.06707">
        <ele>77</ele>
        <time>2012-06-10T15:29:35Z</time>
      </trkpt>
      <trkpt lat="48.70262" lon="2.06722">
        <ele>77</ele>
        <time>2012-06-10T15:29:42Z</time>
      </trkpt>
      <trkpt lat="48.70263" lon="2.06729">
        <ele>77</ele>
        <time>2012-06-10T15:29:46Z</time>
      </trkpt>
      <trkpt lat="48.70265" lon="2.06736">
        <ele>77</ele>
        <time>2012-06-10T15:29:50Z</time>
      </trkpt>
      <trkpt lat="48.70267" lon="2.06744">
        <ele>77</ele>
        <time>2012-06-10T15:29:55Z</time>
      </trkpt>
      <trkpt lat="48.70267" lon="2.06753">
        <ele>78</ele>
        <time>2012-06-10T15:29:59Z</time>
      </trkpt>
      <trkpt lat="48.70267" lon="2.0676">
        <ele>78</ele>
        <time>2012-06-10T15:30:04Z</time>
      </trkpt>
      <trkpt lat="48.70268" lon="2.06767">
        <ele>78</ele>
        <time>2012-06-10T15:30:07Z</time>
      </trkpt>
      <trkpt lat="48.70269" lon="2.06776">
        <ele>77</ele>
        <time>2012-06-10T15:30:12Z</time>
      </trkpt>
      <trkpt lat="48.7027" lon="2.06784">
        <ele>77</ele>
        <time>2012-06-10T15:30:16Z</time>
      </trkpt>
      <trkpt lat="48.70272" lon="2.0679">
        <ele>77</ele>
        <time>2012-06-10T15:30:19Z</time>
      </trkpt>
      <trkpt lat="48.70274" lon="2.06804">
        <ele>77</ele>
        <time>2012-06-10T15:30:33Z</time>
      </trkpt>
      <trkpt lat="48.70275" lon="2.06812">
        <ele>77</ele>
        <time>2012-06-10T15:30:36Z</time>
      </trkpt>
      <trkpt lat="48.70277" lon="2.06821">
        <ele>77</ele>
        <time>2012-06-10T15:30:41Z</time>
      </trkpt>
      <trkpt lat="48.70278" lon="2.06829">
        <ele>77</ele>
        <time>2012-06-10T15:30:45Z</time>
      </trkpt>
      <trkpt lat="48.7028" lon="2.06836">
        <ele>78</ele>
        <time>2012-06-10T15:30:49Z</time>
      </trkpt>
      <trkpt lat="48.70282" lon="2.06844">
        <ele>78</ele>
        <time>2012-06-10T15:30:54Z</time>
      </trkpt>
      <trkpt lat="48.70285" lon="2.06851">
        <ele>78</ele>
        <time>2012-06-10T15:30:57Z</time>
      </trkpt>
      <trkpt lat="48.70288" lon="2.06858">
        <ele>78</ele>
        <time>2012-06-10T15:31:02Z</time>
      </trkpt>
      <trkpt lat="48.70291" lon="2.06866">
        <ele>77</ele>
        <time>2012-06-10T15:31:08Z</time>
      </trkpt>
      <trkpt lat="48.70293" lon="2.06873">
        <ele>77</ele>
        <time>2012-06-10T15:31:11Z</time>
      </trkpt>
      <trkpt lat="48.70297" lon="2.0688">
        <ele>77</ele>
        <time>2012-06-10T15:31:17Z</time>
      </trkpt>
      <trkpt lat="48.70299" lon="2.06888">
        <ele>77</ele>
        <time>2012-06-10T15:31:21Z</time>
      </trkpt>
      <trkpt lat="48.70301" lon="2.06895">
        <ele>77</ele>
        <time>2012-06-10T15:31:25Z</time>
      </trkpt>
      <trkpt lat="48.70304" lon="2.06901">
        <ele>77</ele>
        <time>2012-06-10T15:31:29Z</time>
      </trkpt>
      <trkpt lat="48.70306" lon="2.06908">
        <ele>77</ele>
        <time>2012-06-10T15:31:32Z</time>
      </trkpt>
      <trkpt lat="48.70309" lon="2.06914">
        <ele>77</ele>
        <time>2012-06-10T15:31:36Z</time>
      </trkpt>
      <trkpt lat="48.70312" lon="2.06921">
        <ele>77</ele>
        <time>2012-06-10T15:31:40Z</time>
      </trkpt>
      <trkpt lat="48.70315" lon="2.06927">
        <ele>77</ele>
        <time>2012-06-10T15:31:44Z</time>
      </trkpt>
      <trkpt lat="48.70318" lon="2.06933">
        <ele>77</ele>
        <time>2012-06-10T15:31:48Z</time>
      </trkpt>
      <trkpt lat="48.7032" lon="2.06941">
        <ele>78</ele>
        <time>2012-06-10T15:31:52Z</time>
      </trkpt>
      <trkpt lat="48.70316" lon="2.06944">
        <ele>78</ele>
        <time>2012-06-10T15:31:58Z</time>
      </trkpt>
      <trkpt lat="48.70311" lon="2.06945">
        <ele>78</ele>
        <time>2012-06-10T15:32:02Z</time>
      </trkpt>
      <trkpt lat="48.70305" lon="2.06947">
        <ele>78</ele>
        <time>2012-06-10T15:32:06Z</time>
      </trkpt>
      <trkpt lat="48.70301" lon="2.0695">
        <ele>78</ele>
        <time>2012-06-10T15:32:10Z</time>
      </trkpt>
      <trkpt lat="48.70296" lon="2.06955">
        <ele>79</ele>
        <time>2012-06-10T15:32:15Z</time>
      </trkpt>
      <trkpt lat="48.70293" lon="2.06959">
        <ele>79</ele>
        <time>2012-06-10T15:32:18Z</time>
      </trkpt>
      <trkpt lat="48.70287" lon="2.0696">
        <ele>79</ele>
        <time>2012-06-10T15:32:22Z</time>
      </trkpt>
      <trkpt lat="48.70282" lon="2.06961">
        <ele>79</ele>
        <time>2012-06-10T15:32:27Z</time>
      </trkpt>
      <trkpt lat="48.70277" lon="2.06963">
        <ele>79</ele>
        <time>2012-06-10T15:32:32Z</time>
      </trkpt>
      <trkpt lat="48.70275" lon="2.0697">
        <ele>79</ele>
        <time>2012-06-10T15:32:37Z</time>
      </trkpt>
      <trkpt lat="48.70275" lon="2.06978">
        <ele>79</ele>
        <time>2012-06-10T15:32:42Z</time>
      </trkpt>
      <trkpt lat="48.70278" lon="2.06984">
        <ele>79</ele>
        <time>2012-06-10T15:32:46Z</time>
      </trkpt>
      <trkpt lat="48.70279" lon="2.06992">
        <ele>79</ele>
        <time>2012-06-10T15:32:50Z</time>
      </trkpt>
      <trkpt lat="48.70279" lon="2.06999">
        <ele>79</ele>
        <time>2012-06-10T15:32:54Z</time>
      </trkpt>
      <trkpt lat="48.70282" lon="2.07013">
        <ele>80</ele>
        <time>2012-06-10T15:33:02Z</time>
      </trkpt>
      <trkpt lat="48.70282" lon="2.0702">
        <ele>80</ele>
        <time>2012-06-10T15:33:06Z</time>
      </trkpt>
      <trkpt lat="48.70282" lon="2.07028">
        <ele>80</ele>
        <time>2012-06-10T15:33:10Z</time>
      </trkpt>
      <trkpt lat="48.70283" lon="2.07035">
        <ele>80</ele>
        <time>2012-06-10T15:33:14Z</time>
      </trkpt>
      <trkpt lat="48.70283" lon="2.07043">
        <ele>80</ele>
        <time>2012-06-10T15:33:19Z</time>
      </trkpt>
      <trkpt lat="48.70285" lon="2.07051">
        <ele>80</ele>
        <time>2012-06-10T15:33:25Z</time>
      </trkpt>
      <trkpt lat="48.70285" lon="2.07059">
        <ele>80</ele>
        <time>2012-06-10T15:33:32Z</time>
      </trkpt>
      <trkpt lat="48.70281" lon="2.07062">
        <ele>80</ele>
        <time>2012-06-10T15:33:45Z</time>
      </trkpt>
      <trkpt lat="48.70279" lon="2.07069">
        <ele>80</ele>
        <time>2012-06-10T15:33:50Z</time>
      </trkpt>
      <trkpt lat="48.70279" lon="2.07077">
        <ele>80</ele>
        <time>2012-06-10T15:33:56Z</time>
      </trkpt>
      <trkpt lat="48.70279" lon="2.07085">
        <ele>81</ele>
        <time>2012-06-10T15:34:02Z</time>
      </trkpt>
      <trkpt lat="48.70279" lon="2.07092">
        <ele>81</ele>
        <time>2012-06-10T15:34:07Z</time>
      </trkpt>
      <trkpt lat="48.70276" lon="2.07105">
        <ele>81</ele>
        <time>2012-06-10T15:34:21Z</time>
      </trkpt>
      <trkpt lat="48.70277" lon="2.07106">
        <ele>81</ele>
        <time>2012-06-10T15:34:23Z</time>
      </trkpt>
    </trkseg>
  </trk>
</gpx>